<?xml version="1.0" encoding="UTF-8" standalone="no" ?>
<gpx xmlns="http://www.topografix.com/GPX/1/1" xmlns:xsi="http://www.w3.org/2001/XMLSchema-instance" xsi:schemaLocation="http://www.topografix.com/GPX/1/1 http://www.topografix.com/GPX/1/1/gpx.xsd" version="1.1" creator="VisuGPX - https://www.visugpx.com">
  <metadata>
    <name>Dimanche 19 juillet 2026 -Urcuray - Rte Cîmes-Jatxou -</name>
  </metadata>
  <trk>
    <name><![CDATA[Dimanche 19 juillet 26 Urcuray -Rte des cîmes -Jatxou]]></name>
    <extensions>
      <line xmlns="http://www.topografix.com/GPX/gpx_style/0/2">
        <width>4</width>
      </line>
    </extensions>
    <trkseg>
      <trkpt lat="43.38655" lon="-1.66328">
        <ele>4</ele>
        <time>2026-07-12T16:59:17.000Z</time>
      </trkpt>
      <trkpt lat="43.38646" lon="-1.66326">
        <ele>4</ele>
        <time>2026-07-12T16:59:19.000Z</time>
      </trkpt>
      <trkpt lat="43.38637" lon="-1.66324">
        <ele>3.9</ele>
        <time>2026-07-12T16:59:20.000Z</time>
      </trkpt>
      <trkpt lat="43.3863" lon="-1.66321">
        <ele>3.6</ele>
        <time>2026-07-12T16:59:22.000Z</time>
      </trkpt>
      <trkpt lat="43.38626" lon="-1.6632">
        <ele>3.5</ele>
        <time>2026-07-12T16:59:22.000Z</time>
      </trkpt>
      <trkpt lat="43.38623" lon="-1.66318">
        <ele>3.5</ele>
        <time>2026-07-12T16:59:23.000Z</time>
      </trkpt>
      <trkpt lat="43.3862" lon="-1.66316">
        <ele>3.5</ele>
        <time>2026-07-12T16:59:23.000Z</time>
      </trkpt>
      <trkpt lat="43.38616" lon="-1.66314">
        <ele>3.5</ele>
        <time>2026-07-12T16:59:24.000Z</time>
      </trkpt>
      <trkpt lat="43.38609" lon="-1.66308">
        <ele>1</ele>
        <time>2026-07-12T16:59:26.000Z</time>
      </trkpt>
      <trkpt lat="43.38594" lon="-1.66297">
        <ele>1</ele>
        <time>2026-07-12T16:59:29.000Z</time>
      </trkpt>
      <trkpt lat="43.38591" lon="-1.66282">
        <ele>2</ele>
        <time>2026-07-12T16:59:31.000Z</time>
      </trkpt>
      <trkpt lat="43.38568" lon="-1.6626">
        <ele>3</ele>
        <time>2026-07-12T16:59:36.000Z</time>
      </trkpt>
      <trkpt lat="43.38547" lon="-1.66242">
        <ele>4</ele>
        <time>2026-07-12T16:59:40.000Z</time>
      </trkpt>
      <trkpt lat="43.38506" lon="-1.66205">
        <ele>4</ele>
        <time>2026-07-12T16:59:49.000Z</time>
      </trkpt>
      <trkpt lat="43.38504" lon="-1.66202">
        <ele>5</ele>
        <time>2026-07-12T16:59:49.000Z</time>
      </trkpt>
      <trkpt lat="43.38502" lon="-1.662">
        <ele>5</ele>
        <time>2026-07-12T16:59:50.000Z</time>
      </trkpt>
      <trkpt lat="43.385" lon="-1.66198">
        <ele>5</ele>
        <time>2026-07-12T16:59:50.000Z</time>
      </trkpt>
      <trkpt lat="43.38495" lon="-1.66191">
        <ele>5</ele>
        <time>2026-07-12T16:59:52.000Z</time>
      </trkpt>
      <trkpt lat="43.3849" lon="-1.66182">
        <ele>5</ele>
        <time>2026-07-12T16:59:53.000Z</time>
      </trkpt>
      <trkpt lat="43.38483" lon="-1.66161">
        <ele>5</ele>
        <time>2026-07-12T16:59:56.000Z</time>
      </trkpt>
      <trkpt lat="43.38481" lon="-1.66156">
        <ele>5</ele>
        <time>2026-07-12T16:59:57.000Z</time>
      </trkpt>
      <trkpt lat="43.38473" lon="-1.66138">
        <ele>5</ele>
        <time>2026-07-12T16:59:59.000Z</time>
      </trkpt>
      <trkpt lat="43.38462" lon="-1.66117">
        <ele>5</ele>
        <time>2026-07-12T17:00:03.000Z</time>
      </trkpt>
      <trkpt lat="43.38446" lon="-1.66092">
        <ele>5</ele>
        <time>2026-07-12T17:00:07.000Z</time>
      </trkpt>
      <trkpt lat="43.38436" lon="-1.6608">
        <ele>5</ele>
        <time>2026-07-12T17:00:09.000Z</time>
      </trkpt>
      <trkpt lat="43.38429" lon="-1.66071">
        <ele>5</ele>
        <time>2026-07-12T17:00:11.000Z</time>
      </trkpt>
      <trkpt lat="43.38424" lon="-1.66064">
        <ele>5</ele>
        <time>2026-07-12T17:00:12.000Z</time>
      </trkpt>
      <trkpt lat="43.38395" lon="-1.66025">
        <ele>5</ele>
        <time>2026-07-12T17:00:20.000Z</time>
      </trkpt>
      <trkpt lat="43.38382" lon="-1.66008">
        <ele>5</ele>
        <time>2026-07-12T17:00:23.000Z</time>
      </trkpt>
      <trkpt lat="43.38358" lon="-1.65973">
        <ele>6</ele>
        <time>2026-07-12T17:00:29.000Z</time>
      </trkpt>
      <trkpt lat="43.38341" lon="-1.65941">
        <ele>6</ele>
        <time>2026-07-12T17:00:34.000Z</time>
      </trkpt>
      <trkpt lat="43.38339" lon="-1.65944">
        <ele>6</ele>
        <time>2026-07-12T17:00:35.000Z</time>
      </trkpt>
      <trkpt lat="43.38337" lon="-1.65945">
        <ele>6</ele>
        <time>2026-07-12T17:00:35.000Z</time>
      </trkpt>
      <trkpt lat="43.38336" lon="-1.65945">
        <ele>6</ele>
        <time>2026-07-12T17:00:35.000Z</time>
      </trkpt>
      <trkpt lat="43.38333" lon="-1.65945">
        <ele>6</ele>
        <time>2026-07-12T17:00:36.000Z</time>
      </trkpt>
      <trkpt lat="43.38331" lon="-1.65944">
        <ele>6</ele>
        <time>2026-07-12T17:00:36.000Z</time>
      </trkpt>
      <trkpt lat="43.3833" lon="-1.65944">
        <ele>6</ele>
        <time>2026-07-12T17:00:36.000Z</time>
      </trkpt>
      <trkpt lat="43.38329" lon="-1.65943">
        <ele>6</ele>
        <time>2026-07-12T17:00:37.000Z</time>
      </trkpt>
      <trkpt lat="43.38328" lon="-1.6594">
        <ele>6</ele>
        <time>2026-07-12T17:00:37.000Z</time>
      </trkpt>
      <trkpt lat="43.38327" lon="-1.65938">
        <ele>6</ele>
        <time>2026-07-12T17:00:37.000Z</time>
      </trkpt>
      <trkpt lat="43.38327" lon="-1.65936">
        <ele>6</ele>
        <time>2026-07-12T17:00:38.000Z</time>
      </trkpt>
      <trkpt lat="43.38327" lon="-1.65933">
        <ele>6</ele>
        <time>2026-07-12T17:00:38.000Z</time>
      </trkpt>
      <trkpt lat="43.38328" lon="-1.6593">
        <ele>6</ele>
        <time>2026-07-12T17:00:38.000Z</time>
      </trkpt>
      <trkpt lat="43.38328" lon="-1.65928">
        <ele>6</ele>
        <time>2026-07-12T17:00:39.000Z</time>
      </trkpt>
      <trkpt lat="43.38329" lon="-1.65927">
        <ele>6</ele>
        <time>2026-07-12T17:00:39.000Z</time>
      </trkpt>
      <trkpt lat="43.38317" lon="-1.65914">
        <ele>5</ele>
        <time>2026-07-12T17:00:42.000Z</time>
      </trkpt>
      <trkpt lat="43.3831" lon="-1.65904">
        <ele>5</ele>
        <time>2026-07-12T17:00:43.000Z</time>
      </trkpt>
      <trkpt lat="43.38308" lon="-1.65901">
        <ele>5</ele>
        <time>2026-07-12T17:00:44.000Z</time>
      </trkpt>
      <trkpt lat="43.38304" lon="-1.65892">
        <ele>4</ele>
        <time>2026-07-12T17:00:45.000Z</time>
      </trkpt>
      <trkpt lat="43.38303" lon="-1.6589">
        <ele>4</ele>
        <time>2026-07-12T17:00:46.000Z</time>
      </trkpt>
      <trkpt lat="43.38296" lon="-1.65874">
        <ele>4</ele>
        <time>2026-07-12T17:00:48.000Z</time>
      </trkpt>
      <trkpt lat="43.38264" lon="-1.65784">
        <ele>4</ele>
        <time>2026-07-12T17:01:01.000Z</time>
      </trkpt>
      <trkpt lat="43.38236" lon="-1.65703">
        <ele>4</ele>
        <time>2026-07-12T17:01:13.000Z</time>
      </trkpt>
      <trkpt lat="43.38235" lon="-1.65696">
        <ele>4</ele>
        <time>2026-07-12T17:01:13.000Z</time>
      </trkpt>
      <trkpt lat="43.38235" lon="-1.65689">
        <ele>4</ele>
        <time>2026-07-12T17:01:14.000Z</time>
      </trkpt>
      <trkpt lat="43.38235" lon="-1.65683">
        <ele>4</ele>
        <time>2026-07-12T17:01:15.000Z</time>
      </trkpt>
      <trkpt lat="43.38237" lon="-1.65676">
        <ele>4</ele>
        <time>2026-07-12T17:01:16.000Z</time>
      </trkpt>
      <trkpt lat="43.3824" lon="-1.6567">
        <ele>4</ele>
        <time>2026-07-12T17:01:17.000Z</time>
      </trkpt>
      <trkpt lat="43.38246" lon="-1.65661">
        <ele>4</ele>
        <time>2026-07-12T17:01:19.000Z</time>
      </trkpt>
      <trkpt lat="43.38267" lon="-1.65633">
        <ele>4</ele>
        <time>2026-07-12T17:01:24.000Z</time>
      </trkpt>
      <trkpt lat="43.38285" lon="-1.65609">
        <ele>3</ele>
        <time>2026-07-12T17:01:28.000Z</time>
      </trkpt>
      <trkpt lat="43.38299" lon="-1.6559">
        <ele>3</ele>
        <time>2026-07-12T17:01:32.000Z</time>
      </trkpt>
      <trkpt lat="43.38304" lon="-1.65583">
        <ele>3</ele>
        <time>2026-07-12T17:01:33.000Z</time>
      </trkpt>
      <trkpt lat="43.38308" lon="-1.65578">
        <ele>3</ele>
        <time>2026-07-12T17:01:34.000Z</time>
      </trkpt>
      <trkpt lat="43.38351" lon="-1.65522">
        <ele>4</ele>
        <time>2026-07-12T17:01:45.000Z</time>
      </trkpt>
      <trkpt lat="43.38357" lon="-1.65513">
        <ele>4</ele>
        <time>2026-07-12T17:01:46.000Z</time>
      </trkpt>
      <trkpt lat="43.38357" lon="-1.65513">
        <ele>4</ele>
        <time>2026-07-12T17:01:46.000Z</time>
      </trkpt>
      <trkpt lat="43.38349" lon="-1.65504">
        <ele>4</ele>
        <time>2026-07-12T17:01:48.000Z</time>
      </trkpt>
      <trkpt lat="43.38346" lon="-1.65499">
        <ele>4</ele>
        <time>2026-07-12T17:01:49.000Z</time>
      </trkpt>
      <trkpt lat="43.38328" lon="-1.65474">
        <ele>4</ele>
        <time>2026-07-12T17:01:53.000Z</time>
      </trkpt>
      <trkpt lat="43.38328" lon="-1.65474">
        <ele>4</ele>
        <time>2026-07-12T17:01:53.000Z</time>
      </trkpt>
      <trkpt lat="43.38325" lon="-1.65469">
        <ele>4</ele>
        <time>2026-07-12T17:01:54.000Z</time>
      </trkpt>
      <trkpt lat="43.38321" lon="-1.65464">
        <ele>4</ele>
        <time>2026-07-12T17:01:55.000Z</time>
      </trkpt>
      <trkpt lat="43.38333" lon="-1.65448">
        <ele>5</ele>
        <time>2026-07-12T17:01:58.000Z</time>
      </trkpt>
      <trkpt lat="43.38334" lon="-1.65446">
        <ele>5</ele>
        <time>2026-07-12T17:01:58.000Z</time>
      </trkpt>
      <trkpt lat="43.3837" lon="-1.65377">
        <ele>5</ele>
        <time>2026-07-12T17:02:09.000Z</time>
      </trkpt>
      <trkpt lat="43.38375" lon="-1.65366">
        <ele>5</ele>
        <time>2026-07-12T17:02:11.000Z</time>
      </trkpt>
      <trkpt lat="43.38376" lon="-1.65365">
        <ele>5</ele>
        <time>2026-07-12T17:02:11.000Z</time>
      </trkpt>
      <trkpt lat="43.38377" lon="-1.65362">
        <ele>5</ele>
        <time>2026-07-12T17:02:12.000Z</time>
      </trkpt>
      <trkpt lat="43.38397" lon="-1.65314">
        <ele>8</ele>
        <time>2026-07-12T17:02:19.000Z</time>
      </trkpt>
      <trkpt lat="43.38397" lon="-1.65314">
        <ele>8</ele>
        <time>2026-07-12T17:02:19.000Z</time>
      </trkpt>
      <trkpt lat="43.38396" lon="-1.65297">
        <ele>10</ele>
        <time>2026-07-12T17:02:21.000Z</time>
      </trkpt>
      <trkpt lat="43.38395" lon="-1.6529">
        <ele>11</ele>
        <time>2026-07-12T17:02:22.000Z</time>
      </trkpt>
      <trkpt lat="43.38393" lon="-1.65281">
        <ele>12</ele>
        <time>2026-07-12T17:02:23.000Z</time>
      </trkpt>
      <trkpt lat="43.38392" lon="-1.65276">
        <ele>12</ele>
        <time>2026-07-12T17:02:24.000Z</time>
      </trkpt>
      <trkpt lat="43.38389" lon="-1.65266">
        <ele>13</ele>
        <time>2026-07-12T17:02:25.000Z</time>
      </trkpt>
      <trkpt lat="43.38382" lon="-1.65259">
        <ele>13</ele>
        <time>2026-07-12T17:02:27.000Z</time>
      </trkpt>
      <trkpt lat="43.38376" lon="-1.65252">
        <ele>13</ele>
        <time>2026-07-12T17:02:28.000Z</time>
      </trkpt>
      <trkpt lat="43.3837" lon="-1.65245">
        <ele>13</ele>
        <time>2026-07-12T17:02:30.000Z</time>
      </trkpt>
      <trkpt lat="43.38363" lon="-1.65236">
        <ele>13</ele>
        <time>2026-07-12T17:02:31.000Z</time>
      </trkpt>
      <trkpt lat="43.38358" lon="-1.65228">
        <ele>13</ele>
        <time>2026-07-12T17:02:33.000Z</time>
      </trkpt>
      <trkpt lat="43.38353" lon="-1.6522">
        <ele>13</ele>
        <time>2026-07-12T17:02:34.000Z</time>
      </trkpt>
      <trkpt lat="43.38346" lon="-1.65208">
        <ele>12</ele>
        <time>2026-07-12T17:02:36.000Z</time>
      </trkpt>
      <trkpt lat="43.38344" lon="-1.65203">
        <ele>12</ele>
        <time>2026-07-12T17:02:37.000Z</time>
      </trkpt>
      <trkpt lat="43.38341" lon="-1.65197">
        <ele>12</ele>
        <time>2026-07-12T17:02:38.000Z</time>
      </trkpt>
      <trkpt lat="43.3834" lon="-1.65189">
        <ele>12</ele>
        <time>2026-07-12T17:02:39.000Z</time>
      </trkpt>
      <trkpt lat="43.38334" lon="-1.65171">
        <ele>12</ele>
        <time>2026-07-12T17:02:41.000Z</time>
      </trkpt>
      <trkpt lat="43.38302" lon="-1.65083">
        <ele>11</ele>
        <time>2026-07-12T17:02:54.000Z</time>
      </trkpt>
      <trkpt lat="43.38279" lon="-1.6502">
        <ele>9</ele>
        <time>2026-07-12T17:03:03.000Z</time>
      </trkpt>
      <trkpt lat="43.38275" lon="-1.65009">
        <ele>9</ele>
        <time>2026-07-12T17:03:05.000Z</time>
      </trkpt>
      <trkpt lat="43.38267" lon="-1.64988">
        <ele>9</ele>
        <time>2026-07-12T17:03:08.000Z</time>
      </trkpt>
      <trkpt lat="43.38262" lon="-1.64974">
        <ele>8</ele>
        <time>2026-07-12T17:03:10.000Z</time>
      </trkpt>
      <trkpt lat="43.3826" lon="-1.64966">
        <ele>8</ele>
        <time>2026-07-12T17:03:11.000Z</time>
      </trkpt>
      <trkpt lat="43.38258" lon="-1.64958">
        <ele>8</ele>
        <time>2026-07-12T17:03:12.000Z</time>
      </trkpt>
      <trkpt lat="43.38256" lon="-1.6495">
        <ele>8</ele>
        <time>2026-07-12T17:03:13.000Z</time>
      </trkpt>
      <trkpt lat="43.38255" lon="-1.64941">
        <ele>8</ele>
        <time>2026-07-12T17:03:14.000Z</time>
      </trkpt>
      <trkpt lat="43.38254" lon="-1.64936">
        <ele>8</ele>
        <time>2026-07-12T17:03:15.000Z</time>
      </trkpt>
      <trkpt lat="43.38254" lon="-1.64928">
        <ele>8</ele>
        <time>2026-07-12T17:03:16.000Z</time>
      </trkpt>
      <trkpt lat="43.38254" lon="-1.64919">
        <ele>9</ele>
        <time>2026-07-12T17:03:17.000Z</time>
      </trkpt>
      <trkpt lat="43.38254" lon="-1.64913">
        <ele>9</ele>
        <time>2026-07-12T17:03:18.000Z</time>
      </trkpt>
      <trkpt lat="43.38254" lon="-1.64905">
        <ele>9</ele>
        <time>2026-07-12T17:03:19.000Z</time>
      </trkpt>
      <trkpt lat="43.38254" lon="-1.64897">
        <ele>9</ele>
        <time>2026-07-12T17:03:20.000Z</time>
      </trkpt>
      <trkpt lat="43.38255" lon="-1.64888">
        <ele>9</ele>
        <time>2026-07-12T17:03:21.000Z</time>
      </trkpt>
      <trkpt lat="43.38259" lon="-1.64848">
        <ele>10</ele>
        <time>2026-07-12T17:03:26.000Z</time>
      </trkpt>
      <trkpt lat="43.38265" lon="-1.64789">
        <ele>9</ele>
        <time>2026-07-12T17:03:34.000Z</time>
      </trkpt>
      <trkpt lat="43.38271" lon="-1.6473">
        <ele>7</ele>
        <time>2026-07-12T17:03:42.000Z</time>
      </trkpt>
      <trkpt lat="43.38273" lon="-1.64712">
        <ele>7</ele>
        <time>2026-07-12T17:03:44.000Z</time>
      </trkpt>
      <trkpt lat="43.38274" lon="-1.64697">
        <ele>7</ele>
        <time>2026-07-12T17:03:46.000Z</time>
      </trkpt>
      <trkpt lat="43.38277" lon="-1.64667">
        <ele>7</ele>
        <time>2026-07-12T17:03:50.000Z</time>
      </trkpt>
      <trkpt lat="43.38281" lon="-1.64622">
        <ele>8</ele>
        <time>2026-07-12T17:03:56.000Z</time>
      </trkpt>
      <trkpt lat="43.38282" lon="-1.64596">
        <ele>8</ele>
        <time>2026-07-12T17:03:59.000Z</time>
      </trkpt>
      <trkpt lat="43.38282" lon="-1.64568">
        <ele>9</ele>
        <time>2026-07-12T17:04:03.000Z</time>
      </trkpt>
      <trkpt lat="43.38282" lon="-1.64534">
        <ele>10</ele>
        <time>2026-07-12T17:04:07.000Z</time>
      </trkpt>
      <trkpt lat="43.38282" lon="-1.64525">
        <ele>10</ele>
        <time>2026-07-12T17:04:09.000Z</time>
      </trkpt>
      <trkpt lat="43.38281" lon="-1.64501">
        <ele>11</ele>
        <time>2026-07-12T17:04:12.000Z</time>
      </trkpt>
      <trkpt lat="43.38279" lon="-1.64473">
        <ele>10</ele>
        <time>2026-07-12T17:04:15.000Z</time>
      </trkpt>
      <trkpt lat="43.38277" lon="-1.64442">
        <ele>9</ele>
        <time>2026-07-12T17:04:19.000Z</time>
      </trkpt>
      <trkpt lat="43.38276" lon="-1.64431">
        <ele>9</ele>
        <time>2026-07-12T17:04:21.000Z</time>
      </trkpt>
      <trkpt lat="43.38275" lon="-1.64423">
        <ele>8</ele>
        <time>2026-07-12T17:04:22.000Z</time>
      </trkpt>
      <trkpt lat="43.38274" lon="-1.64415">
        <ele>8</ele>
        <time>2026-07-12T17:04:23.000Z</time>
      </trkpt>
      <trkpt lat="43.38273" lon="-1.64407">
        <ele>8</ele>
        <time>2026-07-12T17:04:24.000Z</time>
      </trkpt>
      <trkpt lat="43.38272" lon="-1.64398">
        <ele>8</ele>
        <time>2026-07-12T17:04:25.000Z</time>
      </trkpt>
      <trkpt lat="43.38269" lon="-1.64385">
        <ele>7</ele>
        <time>2026-07-12T17:04:27.000Z</time>
      </trkpt>
      <trkpt lat="43.38267" lon="-1.64378">
        <ele>7</ele>
        <time>2026-07-12T17:04:28.000Z</time>
      </trkpt>
      <trkpt lat="43.38264" lon="-1.64367">
        <ele>6</ele>
        <time>2026-07-12T17:04:29.000Z</time>
      </trkpt>
      <trkpt lat="43.3826" lon="-1.64355">
        <ele>6</ele>
        <time>2026-07-12T17:04:31.000Z</time>
      </trkpt>
      <trkpt lat="43.38254" lon="-1.64342">
        <ele>5</ele>
        <time>2026-07-12T17:04:33.000Z</time>
      </trkpt>
      <trkpt lat="43.3825" lon="-1.64332">
        <ele>5</ele>
        <time>2026-07-12T17:04:34.000Z</time>
      </trkpt>
      <trkpt lat="43.38247" lon="-1.64326">
        <ele>5</ele>
        <time>2026-07-12T17:04:35.000Z</time>
      </trkpt>
      <trkpt lat="43.38243" lon="-1.6432">
        <ele>5</ele>
        <time>2026-07-12T17:04:36.000Z</time>
      </trkpt>
      <trkpt lat="43.3824" lon="-1.64314">
        <ele>5</ele>
        <time>2026-07-12T17:04:37.000Z</time>
      </trkpt>
      <trkpt lat="43.38235" lon="-1.64307">
        <ele>5</ele>
        <time>2026-07-12T17:04:39.000Z</time>
      </trkpt>
      <trkpt lat="43.38231" lon="-1.64301">
        <ele>5</ele>
        <time>2026-07-12T17:04:40.000Z</time>
      </trkpt>
      <trkpt lat="43.38227" lon="-1.64296">
        <ele>5</ele>
        <time>2026-07-12T17:04:41.000Z</time>
      </trkpt>
      <trkpt lat="43.38223" lon="-1.64291">
        <ele>5</ele>
        <time>2026-07-12T17:04:42.000Z</time>
      </trkpt>
      <trkpt lat="43.38219" lon="-1.64286">
        <ele>5</ele>
        <time>2026-07-12T17:04:43.000Z</time>
      </trkpt>
      <trkpt lat="43.38215" lon="-1.64282">
        <ele>5</ele>
        <time>2026-07-12T17:04:44.000Z</time>
      </trkpt>
      <trkpt lat="43.38212" lon="-1.6428">
        <ele>5</ele>
        <time>2026-07-12T17:04:44.000Z</time>
      </trkpt>
      <trkpt lat="43.38203" lon="-1.64271">
        <ele>5</ele>
        <time>2026-07-12T17:04:46.000Z</time>
      </trkpt>
      <trkpt lat="43.38195" lon="-1.64264">
        <ele>5</ele>
        <time>2026-07-12T17:04:48.000Z</time>
      </trkpt>
      <trkpt lat="43.38187" lon="-1.64257">
        <ele>5</ele>
        <time>2026-07-12T17:04:49.000Z</time>
      </trkpt>
      <trkpt lat="43.3817" lon="-1.6424">
        <ele>6</ele>
        <time>2026-07-12T17:04:53.000Z</time>
      </trkpt>
      <trkpt lat="43.38155" lon="-1.64227">
        <ele>6</ele>
        <time>2026-07-12T17:04:56.000Z</time>
      </trkpt>
      <trkpt lat="43.38141" lon="-1.64213">
        <ele>7</ele>
        <time>2026-07-12T17:04:59.000Z</time>
      </trkpt>
      <trkpt lat="43.38139" lon="-1.64212">
        <ele>6</ele>
        <time>2026-07-12T17:05:00.000Z</time>
      </trkpt>
      <trkpt lat="43.38135" lon="-1.64208">
        <ele>6</ele>
        <time>2026-07-12T17:05:01.000Z</time>
      </trkpt>
      <trkpt lat="43.38132" lon="-1.64204">
        <ele>7</ele>
        <time>2026-07-12T17:05:01.000Z</time>
      </trkpt>
      <trkpt lat="43.38126" lon="-1.64198">
        <ele>7</ele>
        <time>2026-07-12T17:05:03.000Z</time>
      </trkpt>
      <trkpt lat="43.38121" lon="-1.6419">
        <ele>7</ele>
        <time>2026-07-12T17:05:04.000Z</time>
      </trkpt>
      <trkpt lat="43.38119" lon="-1.64186">
        <ele>7</ele>
        <time>2026-07-12T17:05:05.000Z</time>
      </trkpt>
      <trkpt lat="43.38116" lon="-1.6418">
        <ele>7</ele>
        <time>2026-07-12T17:05:06.000Z</time>
      </trkpt>
      <trkpt lat="43.3811" lon="-1.64167">
        <ele>7</ele>
        <time>2026-07-12T17:05:08.000Z</time>
      </trkpt>
      <trkpt lat="43.38103" lon="-1.6415">
        <ele>7</ele>
        <time>2026-07-12T17:05:10.000Z</time>
      </trkpt>
      <trkpt lat="43.38094" lon="-1.64129">
        <ele>8</ele>
        <time>2026-07-12T17:05:13.000Z</time>
      </trkpt>
      <trkpt lat="43.38084" lon="-1.64107">
        <ele>8</ele>
        <time>2026-07-12T17:05:17.000Z</time>
      </trkpt>
      <trkpt lat="43.38074" lon="-1.64086">
        <ele>8</ele>
        <time>2026-07-12T17:05:20.000Z</time>
      </trkpt>
      <trkpt lat="43.38071" lon="-1.64078">
        <ele>9</ele>
        <time>2026-07-12T17:05:21.000Z</time>
      </trkpt>
      <trkpt lat="43.38067" lon="-1.64071">
        <ele>9</ele>
        <time>2026-07-12T17:05:22.000Z</time>
      </trkpt>
      <trkpt lat="43.38062" lon="-1.64063">
        <ele>9</ele>
        <time>2026-07-12T17:05:24.000Z</time>
      </trkpt>
      <trkpt lat="43.38056" lon="-1.64055">
        <ele>9</ele>
        <time>2026-07-12T17:05:25.000Z</time>
      </trkpt>
      <trkpt lat="43.3805" lon="-1.64047">
        <ele>9</ele>
        <time>2026-07-12T17:05:27.000Z</time>
      </trkpt>
      <trkpt lat="43.3804" lon="-1.64037">
        <ele>9</ele>
        <time>2026-07-12T17:05:29.000Z</time>
      </trkpt>
      <trkpt lat="43.38026" lon="-1.64024">
        <ele>9</ele>
        <time>2026-07-12T17:05:32.000Z</time>
      </trkpt>
      <trkpt lat="43.38001" lon="-1.64001">
        <ele>8</ele>
        <time>2026-07-12T17:05:37.000Z</time>
      </trkpt>
      <trkpt lat="43.37951" lon="-1.63955">
        <ele>7</ele>
        <time>2026-07-12T17:05:48.000Z</time>
      </trkpt>
      <trkpt lat="43.37911" lon="-1.63917">
        <ele>7</ele>
        <time>2026-07-12T17:05:57.000Z</time>
      </trkpt>
      <trkpt lat="43.37885" lon="-1.63891">
        <ele>6</ele>
        <time>2026-07-12T17:06:02.000Z</time>
      </trkpt>
      <trkpt lat="43.37864" lon="-1.63869">
        <ele>7</ele>
        <time>2026-07-12T17:06:07.000Z</time>
      </trkpt>
      <trkpt lat="43.37836" lon="-1.6384">
        <ele>8</ele>
        <time>2026-07-12T17:06:13.000Z</time>
      </trkpt>
      <trkpt lat="43.37817" lon="-1.6382">
        <ele>8</ele>
        <time>2026-07-12T17:06:17.000Z</time>
      </trkpt>
      <trkpt lat="43.37803" lon="-1.63806">
        <ele>8</ele>
        <time>2026-07-12T17:06:21.000Z</time>
      </trkpt>
      <trkpt lat="43.37796" lon="-1.638">
        <ele>8</ele>
        <time>2026-07-12T17:06:22.000Z</time>
      </trkpt>
      <trkpt lat="43.37788" lon="-1.63791">
        <ele>8</ele>
        <time>2026-07-12T17:06:24.000Z</time>
      </trkpt>
      <trkpt lat="43.37781" lon="-1.63785">
        <ele>8</ele>
        <time>2026-07-12T17:06:25.000Z</time>
      </trkpt>
      <trkpt lat="43.37774" lon="-1.63781">
        <ele>8</ele>
        <time>2026-07-12T17:06:27.000Z</time>
      </trkpt>
      <trkpt lat="43.37768" lon="-1.63777">
        <ele>8</ele>
        <time>2026-07-12T17:06:28.000Z</time>
      </trkpt>
      <trkpt lat="43.37762" lon="-1.63774">
        <ele>8</ele>
        <time>2026-07-12T17:06:29.000Z</time>
      </trkpt>
      <trkpt lat="43.37756" lon="-1.63772">
        <ele>8</ele>
        <time>2026-07-12T17:06:30.000Z</time>
      </trkpt>
      <trkpt lat="43.37754" lon="-1.63771">
        <ele>8</ele>
        <time>2026-07-12T17:06:30.000Z</time>
      </trkpt>
      <trkpt lat="43.3775" lon="-1.6377">
        <ele>8</ele>
        <time>2026-07-12T17:06:31.000Z</time>
      </trkpt>
      <trkpt lat="43.37746" lon="-1.6377">
        <ele>8</ele>
        <time>2026-07-12T17:06:32.000Z</time>
      </trkpt>
      <trkpt lat="43.37735" lon="-1.6377">
        <ele>8</ele>
        <time>2026-07-12T17:06:34.000Z</time>
      </trkpt>
      <trkpt lat="43.37724" lon="-1.6377">
        <ele>8</ele>
        <time>2026-07-12T17:06:36.000Z</time>
      </trkpt>
      <trkpt lat="43.37654" lon="-1.63774">
        <ele>6</ele>
        <time>2026-07-12T17:06:48.000Z</time>
      </trkpt>
      <trkpt lat="43.3765" lon="-1.63776">
        <ele>6</ele>
        <time>2026-07-12T17:06:49.000Z</time>
      </trkpt>
      <trkpt lat="43.37623" lon="-1.63779">
        <ele>6</ele>
        <time>2026-07-12T17:06:54.000Z</time>
      </trkpt>
      <trkpt lat="43.37609" lon="-1.63782">
        <ele>6</ele>
        <time>2026-07-12T17:06:56.000Z</time>
      </trkpt>
      <trkpt lat="43.37597" lon="-1.63783">
        <ele>6</ele>
        <time>2026-07-12T17:06:58.000Z</time>
      </trkpt>
      <trkpt lat="43.3759" lon="-1.63784">
        <ele>6</ele>
        <time>2026-07-12T17:07:00.000Z</time>
      </trkpt>
      <trkpt lat="43.37537" lon="-1.63787">
        <ele>5</ele>
        <time>2026-07-12T17:07:09.000Z</time>
      </trkpt>
      <trkpt lat="43.37521" lon="-1.63788">
        <ele>4</ele>
        <time>2026-07-12T17:07:12.000Z</time>
      </trkpt>
      <trkpt lat="43.37451" lon="-1.63792">
        <ele>4</ele>
        <time>2026-07-12T17:07:24.000Z</time>
      </trkpt>
      <trkpt lat="43.37439" lon="-1.6379">
        <ele>4</ele>
        <time>2026-07-12T17:07:27.000Z</time>
      </trkpt>
      <trkpt lat="43.37429" lon="-1.63789">
        <ele>4</ele>
        <time>2026-07-12T17:07:28.000Z</time>
      </trkpt>
      <trkpt lat="43.37421" lon="-1.63789">
        <ele>4</ele>
        <time>2026-07-12T17:07:30.000Z</time>
      </trkpt>
      <trkpt lat="43.37416" lon="-1.63789">
        <ele>4</ele>
        <time>2026-07-12T17:07:31.000Z</time>
      </trkpt>
      <trkpt lat="43.37396" lon="-1.6379">
        <ele>4</ele>
        <time>2026-07-12T17:07:34.000Z</time>
      </trkpt>
      <trkpt lat="43.37385" lon="-1.63788">
        <ele>3</ele>
        <time>2026-07-12T17:07:36.000Z</time>
      </trkpt>
      <trkpt lat="43.37298" lon="-1.63793">
        <ele>3</ele>
        <time>2026-07-12T17:07:52.000Z</time>
      </trkpt>
      <trkpt lat="43.37189" lon="-1.63801">
        <ele>4</ele>
        <time>2026-07-12T17:08:11.000Z</time>
      </trkpt>
      <trkpt lat="43.37146" lon="-1.63804">
        <ele>5</ele>
        <time>2026-07-12T17:08:19.000Z</time>
      </trkpt>
      <trkpt lat="43.37123" lon="-1.63805">
        <ele>5</ele>
        <time>2026-07-12T17:08:23.000Z</time>
      </trkpt>
      <trkpt lat="43.37111" lon="-1.63805">
        <ele>5</ele>
        <time>2026-07-12T17:08:25.000Z</time>
      </trkpt>
      <trkpt lat="43.37108" lon="-1.63804">
        <ele>5</ele>
        <time>2026-07-12T17:08:26.000Z</time>
      </trkpt>
      <trkpt lat="43.37105" lon="-1.63804">
        <ele>5</ele>
        <time>2026-07-12T17:08:26.000Z</time>
      </trkpt>
      <trkpt lat="43.37099" lon="-1.63803">
        <ele>6</ele>
        <time>2026-07-12T17:08:27.000Z</time>
      </trkpt>
      <trkpt lat="43.37093" lon="-1.63802">
        <ele>6</ele>
        <time>2026-07-12T17:08:28.000Z</time>
      </trkpt>
      <trkpt lat="43.37085" lon="-1.638">
        <ele>6</ele>
        <time>2026-07-12T17:08:30.000Z</time>
      </trkpt>
      <trkpt lat="43.37076" lon="-1.63796">
        <ele>6</ele>
        <time>2026-07-12T17:08:31.000Z</time>
      </trkpt>
      <trkpt lat="43.37067" lon="-1.63793">
        <ele>6</ele>
        <time>2026-07-12T17:08:33.000Z</time>
      </trkpt>
      <trkpt lat="43.37058" lon="-1.63788">
        <ele>6</ele>
        <time>2026-07-12T17:08:35.000Z</time>
      </trkpt>
      <trkpt lat="43.37045" lon="-1.6378">
        <ele>6</ele>
        <time>2026-07-12T17:08:37.000Z</time>
      </trkpt>
      <trkpt lat="43.3703" lon="-1.63771">
        <ele>5</ele>
        <time>2026-07-12T17:08:40.000Z</time>
      </trkpt>
      <trkpt lat="43.36898" lon="-1.63685">
        <ele>4</ele>
        <time>2026-07-12T17:09:06.000Z</time>
      </trkpt>
      <trkpt lat="43.36857" lon="-1.63658">
        <ele>4</ele>
        <time>2026-07-12T17:09:14.000Z</time>
      </trkpt>
      <trkpt lat="43.36809" lon="-1.63627">
        <ele>5</ele>
        <time>2026-07-12T17:09:24.000Z</time>
      </trkpt>
      <trkpt lat="43.36787" lon="-1.63613">
        <ele>6</ele>
        <time>2026-07-12T17:09:28.000Z</time>
      </trkpt>
      <trkpt lat="43.36771" lon="-1.63603">
        <ele>6</ele>
        <time>2026-07-12T17:09:31.000Z</time>
      </trkpt>
      <trkpt lat="43.36756" lon="-1.63595">
        <ele>7</ele>
        <time>2026-07-12T17:09:34.000Z</time>
      </trkpt>
      <trkpt lat="43.36748" lon="-1.63591">
        <ele>7</ele>
        <time>2026-07-12T17:09:36.000Z</time>
      </trkpt>
      <trkpt lat="43.36734" lon="-1.63586">
        <ele>7</ele>
        <time>2026-07-12T17:09:38.000Z</time>
      </trkpt>
      <trkpt lat="43.36717" lon="-1.6358">
        <ele>7</ele>
        <time>2026-07-12T17:09:41.000Z</time>
      </trkpt>
      <trkpt lat="43.36701" lon="-1.63577">
        <ele>8</ele>
        <time>2026-07-12T17:09:44.000Z</time>
      </trkpt>
      <trkpt lat="43.36683" lon="-1.63575">
        <ele>8</ele>
        <time>2026-07-12T17:09:47.000Z</time>
      </trkpt>
      <trkpt lat="43.36668" lon="-1.63574">
        <ele>8</ele>
        <time>2026-07-12T17:09:50.000Z</time>
      </trkpt>
      <trkpt lat="43.36653" lon="-1.63575">
        <ele>8</ele>
        <time>2026-07-12T17:09:53.000Z</time>
      </trkpt>
      <trkpt lat="43.36641" lon="-1.63575">
        <ele>7</ele>
        <time>2026-07-12T17:09:55.000Z</time>
      </trkpt>
      <trkpt lat="43.36636" lon="-1.63576">
        <ele>7</ele>
        <time>2026-07-12T17:09:56.000Z</time>
      </trkpt>
      <trkpt lat="43.36633" lon="-1.63576">
        <ele>7</ele>
        <time>2026-07-12T17:09:56.000Z</time>
      </trkpt>
      <trkpt lat="43.36631" lon="-1.63577">
        <ele>7</ele>
        <time>2026-07-12T17:09:57.000Z</time>
      </trkpt>
      <trkpt lat="43.36616" lon="-1.6358">
        <ele>6</ele>
        <time>2026-07-12T17:09:59.000Z</time>
      </trkpt>
      <trkpt lat="43.36599" lon="-1.63585">
        <ele>6</ele>
        <time>2026-07-12T17:10:02.000Z</time>
      </trkpt>
      <trkpt lat="43.36581" lon="-1.63591">
        <ele>5</ele>
        <time>2026-07-12T17:10:06.000Z</time>
      </trkpt>
      <trkpt lat="43.36559" lon="-1.63598">
        <ele>5</ele>
        <time>2026-07-12T17:10:10.000Z</time>
      </trkpt>
      <trkpt lat="43.36551" lon="-1.63603">
        <ele>4</ele>
        <time>2026-07-12T17:10:11.000Z</time>
      </trkpt>
      <trkpt lat="43.36535" lon="-1.63609">
        <ele>4</ele>
        <time>2026-07-12T17:10:14.000Z</time>
      </trkpt>
      <trkpt lat="43.36502" lon="-1.63622">
        <ele>4</ele>
        <time>2026-07-12T17:10:20.000Z</time>
      </trkpt>
      <trkpt lat="43.36463" lon="-1.63635">
        <ele>5</ele>
        <time>2026-07-12T17:10:28.000Z</time>
      </trkpt>
      <trkpt lat="43.36461" lon="-1.63635">
        <ele>5</ele>
        <time>2026-07-12T17:10:28.000Z</time>
      </trkpt>
      <trkpt lat="43.36415" lon="-1.63651">
        <ele>7</ele>
        <time>2026-07-12T17:10:36.000Z</time>
      </trkpt>
      <trkpt lat="43.36403" lon="-1.63655">
        <ele>7</ele>
        <time>2026-07-12T17:10:39.000Z</time>
      </trkpt>
      <trkpt lat="43.3637" lon="-1.63665">
        <ele>7</ele>
        <time>2026-07-12T17:10:45.000Z</time>
      </trkpt>
      <trkpt lat="43.36356" lon="-1.63669">
        <ele>7</ele>
        <time>2026-07-12T17:10:47.000Z</time>
      </trkpt>
      <trkpt lat="43.36346" lon="-1.63671">
        <ele>7</ele>
        <time>2026-07-12T17:10:49.000Z</time>
      </trkpt>
      <trkpt lat="43.36337" lon="-1.63673">
        <ele>7</ele>
        <time>2026-07-12T17:10:50.000Z</time>
      </trkpt>
      <trkpt lat="43.36322" lon="-1.63674">
        <ele>7</ele>
        <time>2026-07-12T17:10:53.000Z</time>
      </trkpt>
      <trkpt lat="43.36309" lon="-1.63675">
        <ele>7</ele>
        <time>2026-07-12T17:10:55.000Z</time>
      </trkpt>
      <trkpt lat="43.36298" lon="-1.63675">
        <ele>6</ele>
        <time>2026-07-12T17:10:57.000Z</time>
      </trkpt>
      <trkpt lat="43.36287" lon="-1.63674">
        <ele>6</ele>
        <time>2026-07-12T17:10:59.000Z</time>
      </trkpt>
      <trkpt lat="43.36273" lon="-1.63671">
        <ele>6</ele>
        <time>2026-07-12T17:11:02.000Z</time>
      </trkpt>
      <trkpt lat="43.36268" lon="-1.63666">
        <ele>6</ele>
        <time>2026-07-12T17:11:03.000Z</time>
      </trkpt>
      <trkpt lat="43.36261" lon="-1.63665">
        <ele>6</ele>
        <time>2026-07-12T17:11:04.000Z</time>
      </trkpt>
      <trkpt lat="43.36255" lon="-1.63663">
        <ele>6</ele>
        <time>2026-07-12T17:11:05.000Z</time>
      </trkpt>
      <trkpt lat="43.36245" lon="-1.6366">
        <ele>6</ele>
        <time>2026-07-12T17:11:07.000Z</time>
      </trkpt>
      <trkpt lat="43.36235" lon="-1.63656">
        <ele>6</ele>
        <time>2026-07-12T17:11:09.000Z</time>
      </trkpt>
      <trkpt lat="43.36221" lon="-1.63649">
        <ele>6</ele>
        <time>2026-07-12T17:11:12.000Z</time>
      </trkpt>
      <trkpt lat="43.36214" lon="-1.63651">
        <ele>6</ele>
        <time>2026-07-12T17:11:13.000Z</time>
      </trkpt>
      <trkpt lat="43.36197" lon="-1.63644">
        <ele>6</ele>
        <time>2026-07-12T17:11:16.000Z</time>
      </trkpt>
      <trkpt lat="43.36171" lon="-1.63633">
        <ele>6</ele>
        <time>2026-07-12T17:11:21.000Z</time>
      </trkpt>
      <trkpt lat="43.36114" lon="-1.63609">
        <ele>5</ele>
        <time>2026-07-12T17:11:32.000Z</time>
      </trkpt>
      <trkpt lat="43.36108" lon="-1.63606">
        <ele>5</ele>
        <time>2026-07-12T17:11:33.000Z</time>
      </trkpt>
      <trkpt lat="43.361" lon="-1.636">
        <ele>5</ele>
        <time>2026-07-12T17:11:34.000Z</time>
      </trkpt>
      <trkpt lat="43.36096" lon="-1.63598">
        <ele>5</ele>
        <time>2026-07-12T17:11:35.000Z</time>
      </trkpt>
      <trkpt lat="43.3609" lon="-1.63595">
        <ele>5</ele>
        <time>2026-07-12T17:11:36.000Z</time>
      </trkpt>
      <trkpt lat="43.3608" lon="-1.63589">
        <ele>6</ele>
        <time>2026-07-12T17:11:38.000Z</time>
      </trkpt>
      <trkpt lat="43.36072" lon="-1.63582">
        <ele>6</ele>
        <time>2026-07-12T17:11:40.000Z</time>
      </trkpt>
      <trkpt lat="43.36065" lon="-1.63575">
        <ele>6</ele>
        <time>2026-07-12T17:11:41.000Z</time>
      </trkpt>
      <trkpt lat="43.36059" lon="-1.63568">
        <ele>6</ele>
        <time>2026-07-12T17:11:43.000Z</time>
      </trkpt>
      <trkpt lat="43.3605" lon="-1.63557">
        <ele>6</ele>
        <time>2026-07-12T17:11:45.000Z</time>
      </trkpt>
      <trkpt lat="43.36041" lon="-1.63544">
        <ele>6</ele>
        <time>2026-07-12T17:11:47.000Z</time>
      </trkpt>
      <trkpt lat="43.36033" lon="-1.63531">
        <ele>6</ele>
        <time>2026-07-12T17:11:49.000Z</time>
      </trkpt>
      <trkpt lat="43.36027" lon="-1.6352">
        <ele>6</ele>
        <time>2026-07-12T17:11:51.000Z</time>
      </trkpt>
      <trkpt lat="43.36022" lon="-1.63509">
        <ele>6</ele>
        <time>2026-07-12T17:11:53.000Z</time>
      </trkpt>
      <trkpt lat="43.36018" lon="-1.635">
        <ele>7</ele>
        <time>2026-07-12T17:11:54.000Z</time>
      </trkpt>
      <trkpt lat="43.36012" lon="-1.63486">
        <ele>7</ele>
        <time>2026-07-12T17:11:56.000Z</time>
      </trkpt>
      <trkpt lat="43.36007" lon="-1.63472">
        <ele>7</ele>
        <time>2026-07-12T17:11:58.000Z</time>
      </trkpt>
      <trkpt lat="43.36001" lon="-1.6346">
        <ele>8</ele>
        <time>2026-07-12T17:12:00.000Z</time>
      </trkpt>
      <trkpt lat="43.35996" lon="-1.63448">
        <ele>8</ele>
        <time>2026-07-12T17:12:02.000Z</time>
      </trkpt>
      <trkpt lat="43.35995" lon="-1.63444">
        <ele>8</ele>
        <time>2026-07-12T17:12:03.000Z</time>
      </trkpt>
      <trkpt lat="43.3599" lon="-1.63435">
        <ele>8</ele>
        <time>2026-07-12T17:12:04.000Z</time>
      </trkpt>
      <trkpt lat="43.35977" lon="-1.63416">
        <ele>9</ele>
        <time>2026-07-12T17:12:07.000Z</time>
      </trkpt>
      <trkpt lat="43.35963" lon="-1.63394">
        <ele>9</ele>
        <time>2026-07-12T17:12:11.000Z</time>
      </trkpt>
      <trkpt lat="43.35949" lon="-1.63373">
        <ele>9</ele>
        <time>2026-07-12T17:12:15.000Z</time>
      </trkpt>
      <trkpt lat="43.35936" lon="-1.63353">
        <ele>9</ele>
        <time>2026-07-12T17:12:18.000Z</time>
      </trkpt>
      <trkpt lat="43.35929" lon="-1.63344">
        <ele>9</ele>
        <time>2026-07-12T17:12:20.000Z</time>
      </trkpt>
      <trkpt lat="43.3592" lon="-1.63334">
        <ele>8</ele>
        <time>2026-07-12T17:12:22.000Z</time>
      </trkpt>
      <trkpt lat="43.35908" lon="-1.63322">
        <ele>9</ele>
        <time>2026-07-12T17:12:25.000Z</time>
      </trkpt>
      <trkpt lat="43.35896" lon="-1.6331">
        <ele>10</ele>
        <time>2026-07-12T17:12:27.000Z</time>
      </trkpt>
      <trkpt lat="43.35854" lon="-1.63273">
        <ele>9</ele>
        <time>2026-07-12T17:12:36.000Z</time>
      </trkpt>
      <trkpt lat="43.35825" lon="-1.63247">
        <ele>8</ele>
        <time>2026-07-12T17:12:42.000Z</time>
      </trkpt>
      <trkpt lat="43.35808" lon="-1.63232">
        <ele>9</ele>
        <time>2026-07-12T17:12:46.000Z</time>
      </trkpt>
      <trkpt lat="43.35793" lon="-1.6322">
        <ele>9</ele>
        <time>2026-07-12T17:12:49.000Z</time>
      </trkpt>
      <trkpt lat="43.35781" lon="-1.6321">
        <ele>9</ele>
        <time>2026-07-12T17:12:52.000Z</time>
      </trkpt>
      <trkpt lat="43.35768" lon="-1.63201">
        <ele>8</ele>
        <time>2026-07-12T17:12:54.000Z</time>
      </trkpt>
      <trkpt lat="43.35753" lon="-1.63193">
        <ele>7</ele>
        <time>2026-07-12T17:12:57.000Z</time>
      </trkpt>
      <trkpt lat="43.35736" lon="-1.63185">
        <ele>7</ele>
        <time>2026-07-12T17:13:00.000Z</time>
      </trkpt>
      <trkpt lat="43.35717" lon="-1.63177">
        <ele>7</ele>
        <time>2026-07-12T17:13:04.000Z</time>
      </trkpt>
      <trkpt lat="43.35716" lon="-1.63177">
        <ele>7</ele>
        <time>2026-07-12T17:13:04.000Z</time>
      </trkpt>
      <trkpt lat="43.35698" lon="-1.63171">
        <ele>6</ele>
        <time>2026-07-12T17:13:07.000Z</time>
      </trkpt>
      <trkpt lat="43.35676" lon="-1.63163">
        <ele>6</ele>
        <time>2026-07-12T17:13:11.000Z</time>
      </trkpt>
      <trkpt lat="43.35661" lon="-1.63159">
        <ele>6</ele>
        <time>2026-07-12T17:13:14.000Z</time>
      </trkpt>
      <trkpt lat="43.35651" lon="-1.63155">
        <ele>6</ele>
        <time>2026-07-12T17:13:16.000Z</time>
      </trkpt>
      <trkpt lat="43.35613" lon="-1.63143">
        <ele>5</ele>
        <time>2026-07-12T17:13:23.000Z</time>
      </trkpt>
      <trkpt lat="43.35543" lon="-1.63125">
        <ele>5</ele>
        <time>2026-07-12T17:13:36.000Z</time>
      </trkpt>
      <trkpt lat="43.35512" lon="-1.63118">
        <ele>6</ele>
        <time>2026-07-12T17:13:41.000Z</time>
      </trkpt>
      <trkpt lat="43.35482" lon="-1.63109">
        <ele>6</ele>
        <time>2026-07-12T17:13:47.000Z</time>
      </trkpt>
      <trkpt lat="43.35453" lon="-1.631">
        <ele>6</ele>
        <time>2026-07-12T17:13:52.000Z</time>
      </trkpt>
      <trkpt lat="43.35441" lon="-1.63096">
        <ele>6</ele>
        <time>2026-07-12T17:13:54.000Z</time>
      </trkpt>
      <trkpt lat="43.35426" lon="-1.63091">
        <ele>7</ele>
        <time>2026-07-12T17:13:57.000Z</time>
      </trkpt>
      <trkpt lat="43.35417" lon="-1.63087">
        <ele>7</ele>
        <time>2026-07-12T17:13:59.000Z</time>
      </trkpt>
      <trkpt lat="43.35405" lon="-1.63082">
        <ele>7</ele>
        <time>2026-07-12T17:14:01.000Z</time>
      </trkpt>
      <trkpt lat="43.35395" lon="-1.63077">
        <ele>7</ele>
        <time>2026-07-12T17:14:03.000Z</time>
      </trkpt>
      <trkpt lat="43.35386" lon="-1.63072">
        <ele>7</ele>
        <time>2026-07-12T17:14:04.000Z</time>
      </trkpt>
      <trkpt lat="43.35377" lon="-1.63066">
        <ele>7</ele>
        <time>2026-07-12T17:14:06.000Z</time>
      </trkpt>
      <trkpt lat="43.35366" lon="-1.63058">
        <ele>7</ele>
        <time>2026-07-12T17:14:08.000Z</time>
      </trkpt>
      <trkpt lat="43.35351" lon="-1.63045">
        <ele>7</ele>
        <time>2026-07-12T17:14:12.000Z</time>
      </trkpt>
      <trkpt lat="43.35342" lon="-1.63036">
        <ele>7</ele>
        <time>2026-07-12T17:14:13.000Z</time>
      </trkpt>
      <trkpt lat="43.3533" lon="-1.63025">
        <ele>7</ele>
        <time>2026-07-12T17:14:16.000Z</time>
      </trkpt>
      <trkpt lat="43.3532" lon="-1.63013">
        <ele>6</ele>
        <time>2026-07-12T17:14:18.000Z</time>
      </trkpt>
      <trkpt lat="43.3531" lon="-1.63002">
        <ele>6</ele>
        <time>2026-07-12T17:14:21.000Z</time>
      </trkpt>
      <trkpt lat="43.35302" lon="-1.62992">
        <ele>6</ele>
        <time>2026-07-12T17:14:23.000Z</time>
      </trkpt>
      <trkpt lat="43.35297" lon="-1.62986">
        <ele>6</ele>
        <time>2026-07-12T17:14:24.000Z</time>
      </trkpt>
      <trkpt lat="43.35291" lon="-1.62976">
        <ele>6</ele>
        <time>2026-07-12T17:14:25.000Z</time>
      </trkpt>
      <trkpt lat="43.35284" lon="-1.62963">
        <ele>6</ele>
        <time>2026-07-12T17:14:28.000Z</time>
      </trkpt>
      <trkpt lat="43.35274" lon="-1.62944">
        <ele>6</ele>
        <time>2026-07-12T17:14:31.000Z</time>
      </trkpt>
      <trkpt lat="43.35268" lon="-1.6293">
        <ele>6</ele>
        <time>2026-07-12T17:14:33.000Z</time>
      </trkpt>
      <trkpt lat="43.35263" lon="-1.62918">
        <ele>7</ele>
        <time>2026-07-12T17:14:35.000Z</time>
      </trkpt>
      <trkpt lat="43.35258" lon="-1.62906">
        <ele>6</ele>
        <time>2026-07-12T17:14:36.000Z</time>
      </trkpt>
      <trkpt lat="43.35251" lon="-1.62887">
        <ele>6</ele>
        <time>2026-07-12T17:14:39.000Z</time>
      </trkpt>
      <trkpt lat="43.35244" lon="-1.62867">
        <ele>6</ele>
        <time>2026-07-12T17:14:42.000Z</time>
      </trkpt>
      <trkpt lat="43.35236" lon="-1.62843">
        <ele>7</ele>
        <time>2026-07-12T17:14:45.000Z</time>
      </trkpt>
      <trkpt lat="43.35228" lon="-1.62818">
        <ele>7</ele>
        <time>2026-07-12T17:14:49.000Z</time>
      </trkpt>
      <trkpt lat="43.35221" lon="-1.62797">
        <ele>8</ele>
        <time>2026-07-12T17:14:52.000Z</time>
      </trkpt>
      <trkpt lat="43.35207" lon="-1.62758">
        <ele>8</ele>
        <time>2026-07-12T17:14:57.000Z</time>
      </trkpt>
      <trkpt lat="43.35189" lon="-1.62714">
        <ele>8</ele>
        <time>2026-07-12T17:15:04.000Z</time>
      </trkpt>
      <trkpt lat="43.3517" lon="-1.62665">
        <ele>8</ele>
        <time>2026-07-12T17:15:11.000Z</time>
      </trkpt>
      <trkpt lat="43.35157" lon="-1.62632">
        <ele>10</ele>
        <time>2026-07-12T17:15:16.000Z</time>
      </trkpt>
      <trkpt lat="43.35147" lon="-1.62608">
        <ele>11</ele>
        <time>2026-07-12T17:15:20.000Z</time>
      </trkpt>
      <trkpt lat="43.35145" lon="-1.62603">
        <ele>12</ele>
        <time>2026-07-12T17:15:20.000Z</time>
      </trkpt>
      <trkpt lat="43.3513" lon="-1.62562">
        <ele>12</ele>
        <time>2026-07-12T17:15:26.000Z</time>
      </trkpt>
      <trkpt lat="43.35121" lon="-1.62539">
        <ele>12</ele>
        <time>2026-07-12T17:15:30.000Z</time>
      </trkpt>
      <trkpt lat="43.35116" lon="-1.62524">
        <ele>11</ele>
        <time>2026-07-12T17:15:32.000Z</time>
      </trkpt>
      <trkpt lat="43.3511" lon="-1.62497">
        <ele>11</ele>
        <time>2026-07-12T17:15:35.000Z</time>
      </trkpt>
      <trkpt lat="43.35106" lon="-1.62475">
        <ele>11</ele>
        <time>2026-07-12T17:15:38.000Z</time>
      </trkpt>
      <trkpt lat="43.35103" lon="-1.62455">
        <ele>10</ele>
        <time>2026-07-12T17:15:41.000Z</time>
      </trkpt>
      <trkpt lat="43.35103" lon="-1.62449">
        <ele>11</ele>
        <time>2026-07-12T17:15:42.000Z</time>
      </trkpt>
      <trkpt lat="43.35102" lon="-1.62437">
        <ele>11</ele>
        <time>2026-07-12T17:15:43.000Z</time>
      </trkpt>
      <trkpt lat="43.35102" lon="-1.62423">
        <ele>11</ele>
        <time>2026-07-12T17:15:45.000Z</time>
      </trkpt>
      <trkpt lat="43.35102" lon="-1.62403">
        <ele>11</ele>
        <time>2026-07-12T17:15:48.000Z</time>
      </trkpt>
      <trkpt lat="43.35104" lon="-1.62381">
        <ele>10</ele>
        <time>2026-07-12T17:15:51.000Z</time>
      </trkpt>
      <trkpt lat="43.35105" lon="-1.62359">
        <ele>10</ele>
        <time>2026-07-12T17:15:54.000Z</time>
      </trkpt>
      <trkpt lat="43.35106" lon="-1.62351">
        <ele>10</ele>
        <time>2026-07-12T17:15:55.000Z</time>
      </trkpt>
      <trkpt lat="43.35107" lon="-1.62343">
        <ele>10</ele>
        <time>2026-07-12T17:15:56.000Z</time>
      </trkpt>
      <trkpt lat="43.35108" lon="-1.62337">
        <ele>10</ele>
        <time>2026-07-12T17:15:56.000Z</time>
      </trkpt>
      <trkpt lat="43.35109" lon="-1.6233">
        <ele>10</ele>
        <time>2026-07-12T17:15:57.000Z</time>
      </trkpt>
      <trkpt lat="43.3511" lon="-1.62326">
        <ele>10</ele>
        <time>2026-07-12T17:15:58.000Z</time>
      </trkpt>
      <trkpt lat="43.35111" lon="-1.62321">
        <ele>10</ele>
        <time>2026-07-12T17:15:59.000Z</time>
      </trkpt>
      <trkpt lat="43.35114" lon="-1.62315">
        <ele>11</ele>
        <time>2026-07-12T17:15:59.000Z</time>
      </trkpt>
      <trkpt lat="43.35116" lon="-1.62309">
        <ele>11</ele>
        <time>2026-07-12T17:16:00.000Z</time>
      </trkpt>
      <trkpt lat="43.35122" lon="-1.62299">
        <ele>11</ele>
        <time>2026-07-12T17:16:02.000Z</time>
      </trkpt>
      <trkpt lat="43.35125" lon="-1.62292">
        <ele>11</ele>
        <time>2026-07-12T17:16:03.000Z</time>
      </trkpt>
      <trkpt lat="43.35127" lon="-1.62288">
        <ele>11</ele>
        <time>2026-07-12T17:16:04.000Z</time>
      </trkpt>
      <trkpt lat="43.35142" lon="-1.6226">
        <ele>11</ele>
        <time>2026-07-12T17:16:08.000Z</time>
      </trkpt>
      <trkpt lat="43.35152" lon="-1.62239">
        <ele>10</ele>
        <time>2026-07-12T17:16:11.000Z</time>
      </trkpt>
      <trkpt lat="43.35168" lon="-1.62208">
        <ele>10</ele>
        <time>2026-07-12T17:16:16.000Z</time>
      </trkpt>
      <trkpt lat="43.35178" lon="-1.62189">
        <ele>10</ele>
        <time>2026-07-12T17:16:19.000Z</time>
      </trkpt>
      <trkpt lat="43.35188" lon="-1.62171">
        <ele>11</ele>
        <time>2026-07-12T17:16:22.000Z</time>
      </trkpt>
      <trkpt lat="43.35193" lon="-1.62165">
        <ele>11</ele>
        <time>2026-07-12T17:16:24.000Z</time>
      </trkpt>
      <trkpt lat="43.35198" lon="-1.62158">
        <ele>12</ele>
        <time>2026-07-12T17:16:25.000Z</time>
      </trkpt>
      <trkpt lat="43.35202" lon="-1.62154">
        <ele>12</ele>
        <time>2026-07-12T17:16:26.000Z</time>
      </trkpt>
      <trkpt lat="43.35207" lon="-1.62149">
        <ele>12</ele>
        <time>2026-07-12T17:16:27.000Z</time>
      </trkpt>
      <trkpt lat="43.35213" lon="-1.62144">
        <ele>12</ele>
        <time>2026-07-12T17:16:28.000Z</time>
      </trkpt>
      <trkpt lat="43.35217" lon="-1.6214">
        <ele>13</ele>
        <time>2026-07-12T17:16:29.000Z</time>
      </trkpt>
      <trkpt lat="43.35221" lon="-1.62137">
        <ele>13</ele>
        <time>2026-07-12T17:16:30.000Z</time>
      </trkpt>
      <trkpt lat="43.35224" lon="-1.62135">
        <ele>13</ele>
        <time>2026-07-12T17:16:30.000Z</time>
      </trkpt>
      <trkpt lat="43.35231" lon="-1.6213">
        <ele>13</ele>
        <time>2026-07-12T17:16:32.000Z</time>
      </trkpt>
      <trkpt lat="43.35235" lon="-1.62128">
        <ele>13</ele>
        <time>2026-07-12T17:16:32.000Z</time>
      </trkpt>
      <trkpt lat="43.35243" lon="-1.62124">
        <ele>14</ele>
        <time>2026-07-12T17:16:34.000Z</time>
      </trkpt>
      <trkpt lat="43.35252" lon="-1.6212">
        <ele>14</ele>
        <time>2026-07-12T17:16:36.000Z</time>
      </trkpt>
      <trkpt lat="43.35271" lon="-1.62113">
        <ele>16</ele>
        <time>2026-07-12T17:16:39.000Z</time>
      </trkpt>
      <trkpt lat="43.35285" lon="-1.62107">
        <ele>17</ele>
        <time>2026-07-12T17:16:42.000Z</time>
      </trkpt>
      <trkpt lat="43.35307" lon="-1.62098">
        <ele>18</ele>
        <time>2026-07-12T17:16:46.000Z</time>
      </trkpt>
      <trkpt lat="43.35336" lon="-1.62087">
        <ele>19</ele>
        <time>2026-07-12T17:16:51.000Z</time>
      </trkpt>
      <trkpt lat="43.35365" lon="-1.62076">
        <ele>20</ele>
        <time>2026-07-12T17:16:57.000Z</time>
      </trkpt>
      <trkpt lat="43.35389" lon="-1.62066">
        <ele>21</ele>
        <time>2026-07-12T17:17:01.000Z</time>
      </trkpt>
      <trkpt lat="43.35402" lon="-1.6206">
        <ele>21</ele>
        <time>2026-07-12T17:17:03.000Z</time>
      </trkpt>
      <trkpt lat="43.3541" lon="-1.62056">
        <ele>21</ele>
        <time>2026-07-12T17:17:05.000Z</time>
      </trkpt>
      <trkpt lat="43.35415" lon="-1.62054">
        <ele>21</ele>
        <time>2026-07-12T17:17:06.000Z</time>
      </trkpt>
      <trkpt lat="43.35422" lon="-1.62049">
        <ele>20</ele>
        <time>2026-07-12T17:17:07.000Z</time>
      </trkpt>
      <trkpt lat="43.35433" lon="-1.62042">
        <ele>20</ele>
        <time>2026-07-12T17:17:09.000Z</time>
      </trkpt>
      <trkpt lat="43.35443" lon="-1.62035">
        <ele>20</ele>
        <time>2026-07-12T17:17:11.000Z</time>
      </trkpt>
      <trkpt lat="43.35454" lon="-1.62026">
        <ele>19</ele>
        <time>2026-07-12T17:17:14.000Z</time>
      </trkpt>
      <trkpt lat="43.35468" lon="-1.62014">
        <ele>19</ele>
        <time>2026-07-12T17:17:17.000Z</time>
      </trkpt>
      <trkpt lat="43.35481" lon="-1.62002">
        <ele>18</ele>
        <time>2026-07-12T17:17:19.000Z</time>
      </trkpt>
      <trkpt lat="43.35493" lon="-1.6199">
        <ele>18</ele>
        <time>2026-07-12T17:17:22.000Z</time>
      </trkpt>
      <trkpt lat="43.35504" lon="-1.61975">
        <ele>17</ele>
        <time>2026-07-12T17:17:25.000Z</time>
      </trkpt>
      <trkpt lat="43.35513" lon="-1.61962">
        <ele>17</ele>
        <time>2026-07-12T17:17:27.000Z</time>
      </trkpt>
      <trkpt lat="43.35532" lon="-1.61933">
        <ele>17</ele>
        <time>2026-07-12T17:17:32.000Z</time>
      </trkpt>
      <trkpt lat="43.35566" lon="-1.6188">
        <ele>16</ele>
        <time>2026-07-12T17:17:41.000Z</time>
      </trkpt>
      <trkpt lat="43.35594" lon="-1.61837">
        <ele>12</ele>
        <time>2026-07-12T17:17:49.000Z</time>
      </trkpt>
      <trkpt lat="43.35615" lon="-1.61803">
        <ele>13</ele>
        <time>2026-07-12T17:17:55.000Z</time>
      </trkpt>
      <trkpt lat="43.35638" lon="-1.61767">
        <ele>15</ele>
        <time>2026-07-12T17:18:01.000Z</time>
      </trkpt>
      <trkpt lat="43.35668" lon="-1.6172">
        <ele>15</ele>
        <time>2026-07-12T17:18:09.000Z</time>
      </trkpt>
      <trkpt lat="43.35689" lon="-1.61686">
        <ele>16</ele>
        <time>2026-07-12T17:18:15.000Z</time>
      </trkpt>
      <trkpt lat="43.35714" lon="-1.61647">
        <ele>17</ele>
        <time>2026-07-12T17:18:21.000Z</time>
      </trkpt>
      <trkpt lat="43.35742" lon="-1.61603">
        <ele>15</ele>
        <time>2026-07-12T17:18:29.000Z</time>
      </trkpt>
      <trkpt lat="43.35758" lon="-1.61578">
        <ele>14</ele>
        <time>2026-07-12T17:18:33.000Z</time>
      </trkpt>
      <trkpt lat="43.35779" lon="-1.61546">
        <ele>14</ele>
        <time>2026-07-12T17:18:39.000Z</time>
      </trkpt>
      <trkpt lat="43.3579" lon="-1.61528">
        <ele>14</ele>
        <time>2026-07-12T17:18:42.000Z</time>
      </trkpt>
      <trkpt lat="43.358" lon="-1.61516">
        <ele>13</ele>
        <time>2026-07-12T17:18:44.000Z</time>
      </trkpt>
      <trkpt lat="43.35811" lon="-1.61503">
        <ele>12</ele>
        <time>2026-07-12T17:18:47.000Z</time>
      </trkpt>
      <trkpt lat="43.35826" lon="-1.61489">
        <ele>12</ele>
        <time>2026-07-12T17:18:50.000Z</time>
      </trkpt>
      <trkpt lat="43.35841" lon="-1.61476">
        <ele>13</ele>
        <time>2026-07-12T17:18:53.000Z</time>
      </trkpt>
      <trkpt lat="43.35872" lon="-1.61452">
        <ele>16</ele>
        <time>2026-07-12T17:19:00.000Z</time>
      </trkpt>
      <trkpt lat="43.35895" lon="-1.61433">
        <ele>16</ele>
        <time>2026-07-12T17:19:04.000Z</time>
      </trkpt>
      <trkpt lat="43.35903" lon="-1.61426">
        <ele>16</ele>
        <time>2026-07-12T17:19:06.000Z</time>
      </trkpt>
      <trkpt lat="43.3591" lon="-1.6142">
        <ele>16</ele>
        <time>2026-07-12T17:19:07.000Z</time>
      </trkpt>
      <trkpt lat="43.3592" lon="-1.61409">
        <ele>16</ele>
        <time>2026-07-12T17:19:10.000Z</time>
      </trkpt>
      <trkpt lat="43.35932" lon="-1.61396">
        <ele>15</ele>
        <time>2026-07-12T17:19:12.000Z</time>
      </trkpt>
      <trkpt lat="43.3594" lon="-1.61386">
        <ele>15</ele>
        <time>2026-07-12T17:19:14.000Z</time>
      </trkpt>
      <trkpt lat="43.35953" lon="-1.61369">
        <ele>14</ele>
        <time>2026-07-12T17:19:18.000Z</time>
      </trkpt>
      <trkpt lat="43.35992" lon="-1.6132">
        <ele>11</ele>
        <time>2026-07-12T17:19:27.000Z</time>
      </trkpt>
      <trkpt lat="43.36005" lon="-1.61304">
        <ele>11</ele>
        <time>2026-07-12T17:19:30.000Z</time>
      </trkpt>
      <trkpt lat="43.36026" lon="-1.61276">
        <ele>11</ele>
        <time>2026-07-12T17:19:35.000Z</time>
      </trkpt>
      <trkpt lat="43.36036" lon="-1.61262">
        <ele>11</ele>
        <time>2026-07-12T17:19:38.000Z</time>
      </trkpt>
      <trkpt lat="43.36042" lon="-1.61254">
        <ele>11</ele>
        <time>2026-07-12T17:19:39.000Z</time>
      </trkpt>
      <trkpt lat="43.36048" lon="-1.61243">
        <ele>11</ele>
        <time>2026-07-12T17:19:41.000Z</time>
      </trkpt>
      <trkpt lat="43.36058" lon="-1.61226">
        <ele>11</ele>
        <time>2026-07-12T17:19:44.000Z</time>
      </trkpt>
      <trkpt lat="43.36068" lon="-1.61204">
        <ele>11</ele>
        <time>2026-07-12T17:19:47.000Z</time>
      </trkpt>
      <trkpt lat="43.36076" lon="-1.61184">
        <ele>12</ele>
        <time>2026-07-12T17:19:50.000Z</time>
      </trkpt>
      <trkpt lat="43.36079" lon="-1.61175">
        <ele>12</ele>
        <time>2026-07-12T17:19:52.000Z</time>
      </trkpt>
      <trkpt lat="43.36082" lon="-1.61167">
        <ele>12</ele>
        <time>2026-07-12T17:19:53.000Z</time>
      </trkpt>
      <trkpt lat="43.36087" lon="-1.61149">
        <ele>13</ele>
        <time>2026-07-12T17:19:55.000Z</time>
      </trkpt>
      <trkpt lat="43.36088" lon="-1.61141">
        <ele>13</ele>
        <time>2026-07-12T17:19:56.000Z</time>
      </trkpt>
      <trkpt lat="43.36092" lon="-1.6112">
        <ele>14</ele>
        <time>2026-07-12T17:19:59.000Z</time>
      </trkpt>
      <trkpt lat="43.36094" lon="-1.61106">
        <ele>14</ele>
        <time>2026-07-12T17:20:01.000Z</time>
      </trkpt>
      <trkpt lat="43.36096" lon="-1.61087">
        <ele>14</ele>
        <time>2026-07-12T17:20:03.000Z</time>
      </trkpt>
      <trkpt lat="43.36098" lon="-1.61075">
        <ele>15</ele>
        <time>2026-07-12T17:20:05.000Z</time>
      </trkpt>
      <trkpt lat="43.36099" lon="-1.61059">
        <ele>15</ele>
        <time>2026-07-12T17:20:07.000Z</time>
      </trkpt>
      <trkpt lat="43.361" lon="-1.61043">
        <ele>16</ele>
        <time>2026-07-12T17:20:09.000Z</time>
      </trkpt>
      <trkpt lat="43.36101" lon="-1.61017">
        <ele>16</ele>
        <time>2026-07-12T17:20:12.000Z</time>
      </trkpt>
      <trkpt lat="43.36102" lon="-1.60996">
        <ele>17</ele>
        <time>2026-07-12T17:20:15.000Z</time>
      </trkpt>
      <trkpt lat="43.36104" lon="-1.60959">
        <ele>16</ele>
        <time>2026-07-12T17:20:20.000Z</time>
      </trkpt>
      <trkpt lat="43.36105" lon="-1.60957">
        <ele>16</ele>
        <time>2026-07-12T17:20:20.000Z</time>
      </trkpt>
      <trkpt lat="43.36107" lon="-1.60911">
        <ele>15</ele>
        <time>2026-07-12T17:20:26.000Z</time>
      </trkpt>
      <trkpt lat="43.36109" lon="-1.60875">
        <ele>15</ele>
        <time>2026-07-12T17:20:31.000Z</time>
      </trkpt>
      <trkpt lat="43.36112" lon="-1.60861">
        <ele>16</ele>
        <time>2026-07-12T17:20:33.000Z</time>
      </trkpt>
      <trkpt lat="43.36113" lon="-1.60832">
        <ele>16</ele>
        <time>2026-07-12T17:20:37.000Z</time>
      </trkpt>
      <trkpt lat="43.36116" lon="-1.6078">
        <ele>17</ele>
        <time>2026-07-12T17:20:43.000Z</time>
      </trkpt>
      <trkpt lat="43.36117" lon="-1.60759">
        <ele>18</ele>
        <time>2026-07-12T17:20:46.000Z</time>
      </trkpt>
      <trkpt lat="43.36117" lon="-1.60752">
        <ele>18</ele>
        <time>2026-07-12T17:20:47.000Z</time>
      </trkpt>
      <trkpt lat="43.36117" lon="-1.60739">
        <ele>18</ele>
        <time>2026-07-12T17:20:49.000Z</time>
      </trkpt>
      <trkpt lat="43.36117" lon="-1.60726">
        <ele>18</ele>
        <time>2026-07-12T17:20:50.000Z</time>
      </trkpt>
      <trkpt lat="43.36116" lon="-1.60708">
        <ele>18</ele>
        <time>2026-07-12T17:20:53.000Z</time>
      </trkpt>
      <trkpt lat="43.36115" lon="-1.60689">
        <ele>18</ele>
        <time>2026-07-12T17:20:55.000Z</time>
      </trkpt>
      <trkpt lat="43.36113" lon="-1.60672">
        <ele>18</ele>
        <time>2026-07-12T17:20:57.000Z</time>
      </trkpt>
      <trkpt lat="43.36112" lon="-1.60659">
        <ele>18</ele>
        <time>2026-07-12T17:20:59.000Z</time>
      </trkpt>
      <trkpt lat="43.3611" lon="-1.60644">
        <ele>18</ele>
        <time>2026-07-12T17:21:01.000Z</time>
      </trkpt>
      <trkpt lat="43.36106" lon="-1.60609">
        <ele>18</ele>
        <time>2026-07-12T17:21:06.000Z</time>
      </trkpt>
      <trkpt lat="43.36103" lon="-1.60584">
        <ele>18</ele>
        <time>2026-07-12T17:21:09.000Z</time>
      </trkpt>
      <trkpt lat="43.36102" lon="-1.60567">
        <ele>18</ele>
        <time>2026-07-12T17:21:11.000Z</time>
      </trkpt>
      <trkpt lat="43.36101" lon="-1.60551">
        <ele>17</ele>
        <time>2026-07-12T17:21:13.000Z</time>
      </trkpt>
      <trkpt lat="43.36101" lon="-1.60537">
        <ele>17</ele>
        <time>2026-07-12T17:21:15.000Z</time>
      </trkpt>
      <trkpt lat="43.36101" lon="-1.60516">
        <ele>17</ele>
        <time>2026-07-12T17:21:18.000Z</time>
      </trkpt>
      <trkpt lat="43.36102" lon="-1.60503">
        <ele>17</ele>
        <time>2026-07-12T17:21:19.000Z</time>
      </trkpt>
      <trkpt lat="43.36104" lon="-1.60486">
        <ele>17</ele>
        <time>2026-07-12T17:21:22.000Z</time>
      </trkpt>
      <trkpt lat="43.36108" lon="-1.60465">
        <ele>16</ele>
        <time>2026-07-12T17:21:24.000Z</time>
      </trkpt>
      <trkpt lat="43.36113" lon="-1.60445">
        <ele>16</ele>
        <time>2026-07-12T17:21:27.000Z</time>
      </trkpt>
      <trkpt lat="43.36116" lon="-1.60437">
        <ele>16</ele>
        <time>2026-07-12T17:21:28.000Z</time>
      </trkpt>
      <trkpt lat="43.36119" lon="-1.60427">
        <ele>15</ele>
        <time>2026-07-12T17:21:30.000Z</time>
      </trkpt>
      <trkpt lat="43.36125" lon="-1.60412">
        <ele>15</ele>
        <time>2026-07-12T17:21:32.000Z</time>
      </trkpt>
      <trkpt lat="43.36132" lon="-1.60396">
        <ele>15</ele>
        <time>2026-07-12T17:21:34.000Z</time>
      </trkpt>
      <trkpt lat="43.36135" lon="-1.60388">
        <ele>15</ele>
        <time>2026-07-12T17:21:36.000Z</time>
      </trkpt>
      <trkpt lat="43.36139" lon="-1.60381">
        <ele>15</ele>
        <time>2026-07-12T17:21:37.000Z</time>
      </trkpt>
      <trkpt lat="43.36143" lon="-1.60375">
        <ele>15</ele>
        <time>2026-07-12T17:21:38.000Z</time>
      </trkpt>
      <trkpt lat="43.36147" lon="-1.60369">
        <ele>14</ele>
        <time>2026-07-12T17:21:39.000Z</time>
      </trkpt>
      <trkpt lat="43.36158" lon="-1.60355">
        <ele>14</ele>
        <time>2026-07-12T17:21:41.000Z</time>
      </trkpt>
      <trkpt lat="43.36163" lon="-1.60348">
        <ele>14</ele>
        <time>2026-07-12T17:21:43.000Z</time>
      </trkpt>
      <trkpt lat="43.3617" lon="-1.60341">
        <ele>13</ele>
        <time>2026-07-12T17:21:44.000Z</time>
      </trkpt>
      <trkpt lat="43.36175" lon="-1.60334">
        <ele>13</ele>
        <time>2026-07-12T17:21:46.000Z</time>
      </trkpt>
      <trkpt lat="43.3618" lon="-1.60329">
        <ele>13</ele>
        <time>2026-07-12T17:21:47.000Z</time>
      </trkpt>
      <trkpt lat="43.36198" lon="-1.60313">
        <ele>15</ele>
        <time>2026-07-12T17:21:50.000Z</time>
      </trkpt>
      <trkpt lat="43.36212" lon="-1.60301">
        <ele>16</ele>
        <time>2026-07-12T17:21:53.000Z</time>
      </trkpt>
      <trkpt lat="43.36229" lon="-1.60286">
        <ele>17</ele>
        <time>2026-07-12T17:21:57.000Z</time>
      </trkpt>
      <trkpt lat="43.36258" lon="-1.60262">
        <ele>18</ele>
        <time>2026-07-12T17:22:03.000Z</time>
      </trkpt>
      <trkpt lat="43.36289" lon="-1.60232">
        <ele>20</ele>
        <time>2026-07-12T17:22:10.000Z</time>
      </trkpt>
      <trkpt lat="43.36292" lon="-1.60229">
        <ele>20</ele>
        <time>2026-07-12T17:22:10.000Z</time>
      </trkpt>
      <trkpt lat="43.36299" lon="-1.60221">
        <ele>20</ele>
        <time>2026-07-12T17:22:12.000Z</time>
      </trkpt>
      <trkpt lat="43.36304" lon="-1.60215">
        <ele>20</ele>
        <time>2026-07-12T17:22:13.000Z</time>
      </trkpt>
      <trkpt lat="43.3631" lon="-1.60208">
        <ele>20</ele>
        <time>2026-07-12T17:22:15.000Z</time>
      </trkpt>
      <trkpt lat="43.36318" lon="-1.60196">
        <ele>19</ele>
        <time>2026-07-12T17:22:17.000Z</time>
      </trkpt>
      <trkpt lat="43.36322" lon="-1.6019">
        <ele>19</ele>
        <time>2026-07-12T17:22:18.000Z</time>
      </trkpt>
      <trkpt lat="43.36329" lon="-1.60177">
        <ele>17</ele>
        <time>2026-07-12T17:22:20.000Z</time>
      </trkpt>
      <trkpt lat="43.36334" lon="-1.60167">
        <ele>16</ele>
        <time>2026-07-12T17:22:21.000Z</time>
      </trkpt>
      <trkpt lat="43.36337" lon="-1.60161">
        <ele>16</ele>
        <time>2026-07-12T17:22:22.000Z</time>
      </trkpt>
      <trkpt lat="43.3634" lon="-1.60153">
        <ele>16</ele>
        <time>2026-07-12T17:22:24.000Z</time>
      </trkpt>
      <trkpt lat="43.36345" lon="-1.6014">
        <ele>16</ele>
        <time>2026-07-12T17:22:25.000Z</time>
      </trkpt>
      <trkpt lat="43.36351" lon="-1.60124">
        <ele>16</ele>
        <time>2026-07-12T17:22:28.000Z</time>
      </trkpt>
      <trkpt lat="43.36355" lon="-1.60113">
        <ele>16</ele>
        <time>2026-07-12T17:22:29.000Z</time>
      </trkpt>
      <trkpt lat="43.36358" lon="-1.60105">
        <ele>16</ele>
        <time>2026-07-12T17:22:30.000Z</time>
      </trkpt>
      <trkpt lat="43.36362" lon="-1.60094">
        <ele>16</ele>
        <time>2026-07-12T17:22:32.000Z</time>
      </trkpt>
      <trkpt lat="43.36367" lon="-1.6008">
        <ele>15</ele>
        <time>2026-07-12T17:22:34.000Z</time>
      </trkpt>
      <trkpt lat="43.36375" lon="-1.60065">
        <ele>15</ele>
        <time>2026-07-12T17:22:37.000Z</time>
      </trkpt>
      <trkpt lat="43.36381" lon="-1.60052">
        <ele>15</ele>
        <time>2026-07-12T17:22:38.000Z</time>
      </trkpt>
      <trkpt lat="43.3639" lon="-1.60038">
        <ele>15</ele>
        <time>2026-07-12T17:22:41.000Z</time>
      </trkpt>
      <trkpt lat="43.364" lon="-1.6002">
        <ele>14</ele>
        <time>2026-07-12T17:22:44.000Z</time>
      </trkpt>
      <trkpt lat="43.36411" lon="-1.60004">
        <ele>13</ele>
        <time>2026-07-12T17:22:47.000Z</time>
      </trkpt>
      <trkpt lat="43.36421" lon="-1.59991">
        <ele>13</ele>
        <time>2026-07-12T17:22:49.000Z</time>
      </trkpt>
      <trkpt lat="43.36432" lon="-1.59979">
        <ele>14</ele>
        <time>2026-07-12T17:22:52.000Z</time>
      </trkpt>
      <trkpt lat="43.36444" lon="-1.59966">
        <ele>14</ele>
        <time>2026-07-12T17:22:54.000Z</time>
      </trkpt>
      <trkpt lat="43.36456" lon="-1.59956">
        <ele>14</ele>
        <time>2026-07-12T17:22:57.000Z</time>
      </trkpt>
      <trkpt lat="43.36469" lon="-1.59944">
        <ele>14</ele>
        <time>2026-07-12T17:23:00.000Z</time>
      </trkpt>
      <trkpt lat="43.36488" lon="-1.5993">
        <ele>13</ele>
        <time>2026-07-12T17:23:03.000Z</time>
      </trkpt>
      <trkpt lat="43.36497" lon="-1.59923">
        <ele>13</ele>
        <time>2026-07-12T17:23:05.000Z</time>
      </trkpt>
      <trkpt lat="43.36511" lon="-1.59913">
        <ele>13</ele>
        <time>2026-07-12T17:23:08.000Z</time>
      </trkpt>
      <trkpt lat="43.36516" lon="-1.5991">
        <ele>14</ele>
        <time>2026-07-12T17:23:09.000Z</time>
      </trkpt>
      <trkpt lat="43.36519" lon="-1.59907">
        <ele>14</ele>
        <time>2026-07-12T17:23:10.000Z</time>
      </trkpt>
      <trkpt lat="43.36523" lon="-1.59904">
        <ele>15</ele>
        <time>2026-07-12T17:23:11.000Z</time>
      </trkpt>
      <trkpt lat="43.36528" lon="-1.599">
        <ele>15</ele>
        <time>2026-07-12T17:23:12.000Z</time>
      </trkpt>
      <trkpt lat="43.3653" lon="-1.59897">
        <ele>15</ele>
        <time>2026-07-12T17:23:12.000Z</time>
      </trkpt>
      <trkpt lat="43.36533" lon="-1.59895">
        <ele>16</ele>
        <time>2026-07-12T17:23:13.000Z</time>
      </trkpt>
      <trkpt lat="43.36535" lon="-1.59892">
        <ele>16</ele>
        <time>2026-07-12T17:23:13.000Z</time>
      </trkpt>
      <trkpt lat="43.36537" lon="-1.59889">
        <ele>16</ele>
        <time>2026-07-12T17:23:14.000Z</time>
      </trkpt>
      <trkpt lat="43.36541" lon="-1.59882">
        <ele>16</ele>
        <time>2026-07-12T17:23:15.000Z</time>
      </trkpt>
      <trkpt lat="43.36546" lon="-1.59875">
        <ele>17</ele>
        <time>2026-07-12T17:23:16.000Z</time>
      </trkpt>
      <trkpt lat="43.3655" lon="-1.59867">
        <ele>17</ele>
        <time>2026-07-12T17:23:17.000Z</time>
      </trkpt>
      <trkpt lat="43.36553" lon="-1.59861">
        <ele>17</ele>
        <time>2026-07-12T17:23:18.000Z</time>
      </trkpt>
      <trkpt lat="43.36556" lon="-1.59854">
        <ele>18</ele>
        <time>2026-07-12T17:23:19.000Z</time>
      </trkpt>
      <trkpt lat="43.36557" lon="-1.5985">
        <ele>18</ele>
        <time>2026-07-12T17:23:20.000Z</time>
      </trkpt>
      <trkpt lat="43.36558" lon="-1.59845">
        <ele>18</ele>
        <time>2026-07-12T17:23:21.000Z</time>
      </trkpt>
      <trkpt lat="43.3656" lon="-1.59839">
        <ele>18</ele>
        <time>2026-07-12T17:23:22.000Z</time>
      </trkpt>
      <trkpt lat="43.36562" lon="-1.59828">
        <ele>18</ele>
        <time>2026-07-12T17:23:23.000Z</time>
      </trkpt>
      <trkpt lat="43.36564" lon="-1.59818">
        <ele>18</ele>
        <time>2026-07-12T17:23:24.000Z</time>
      </trkpt>
      <trkpt lat="43.36566" lon="-1.59803">
        <ele>18</ele>
        <time>2026-07-12T17:23:26.000Z</time>
      </trkpt>
      <trkpt lat="43.36575" lon="-1.59691">
        <ele>18</ele>
        <time>2026-07-12T17:23:41.000Z</time>
      </trkpt>
      <trkpt lat="43.36582" lon="-1.59605">
        <ele>13</ele>
        <time>2026-07-12T17:23:52.000Z</time>
      </trkpt>
      <trkpt lat="43.36588" lon="-1.59545">
        <ele>11</ele>
        <time>2026-07-12T17:24:00.000Z</time>
      </trkpt>
      <trkpt lat="43.36591" lon="-1.59506">
        <ele>10</ele>
        <time>2026-07-12T17:24:05.000Z</time>
      </trkpt>
      <trkpt lat="43.36591" lon="-1.5949">
        <ele>9</ele>
        <time>2026-07-12T17:24:07.000Z</time>
      </trkpt>
      <trkpt lat="43.36592" lon="-1.59476">
        <ele>9</ele>
        <time>2026-07-12T17:24:09.000Z</time>
      </trkpt>
      <trkpt lat="43.36591" lon="-1.59458">
        <ele>9</ele>
        <time>2026-07-12T17:24:11.000Z</time>
      </trkpt>
      <trkpt lat="43.36589" lon="-1.59436">
        <ele>9</ele>
        <time>2026-07-12T17:24:14.000Z</time>
      </trkpt>
      <trkpt lat="43.36586" lon="-1.59409">
        <ele>9</ele>
        <time>2026-07-12T17:24:18.000Z</time>
      </trkpt>
      <trkpt lat="43.36584" lon="-1.59396">
        <ele>9</ele>
        <time>2026-07-12T17:24:19.000Z</time>
      </trkpt>
      <trkpt lat="43.3658" lon="-1.59376">
        <ele>9</ele>
        <time>2026-07-12T17:24:22.000Z</time>
      </trkpt>
      <trkpt lat="43.36574" lon="-1.59349">
        <ele>9</ele>
        <time>2026-07-12T17:24:26.000Z</time>
      </trkpt>
      <trkpt lat="43.36562" lon="-1.59304">
        <ele>9</ele>
        <time>2026-07-12T17:24:32.000Z</time>
      </trkpt>
      <trkpt lat="43.36548" lon="-1.5926">
        <ele>10</ele>
        <time>2026-07-12T17:24:38.000Z</time>
      </trkpt>
      <trkpt lat="43.36538" lon="-1.59228">
        <ele>10</ele>
        <time>2026-07-12T17:24:43.000Z</time>
      </trkpt>
      <trkpt lat="43.3651" lon="-1.59136">
        <ele>9</ele>
        <time>2026-07-12T17:24:55.000Z</time>
      </trkpt>
      <trkpt lat="43.36481" lon="-1.59044">
        <ele>9</ele>
        <time>2026-07-12T17:25:08.000Z</time>
      </trkpt>
      <trkpt lat="43.3648" lon="-1.59037">
        <ele>9</ele>
        <time>2026-07-12T17:25:09.000Z</time>
      </trkpt>
      <trkpt lat="43.3647" lon="-1.59005">
        <ele>10</ele>
        <time>2026-07-12T17:25:14.000Z</time>
      </trkpt>
      <trkpt lat="43.36465" lon="-1.58989">
        <ele>10</ele>
        <time>2026-07-12T17:25:16.000Z</time>
      </trkpt>
      <trkpt lat="43.3646" lon="-1.58976">
        <ele>11</ele>
        <time>2026-07-12T17:25:18.000Z</time>
      </trkpt>
      <trkpt lat="43.36454" lon="-1.58963">
        <ele>11</ele>
        <time>2026-07-12T17:25:20.000Z</time>
      </trkpt>
      <trkpt lat="43.36448" lon="-1.5895">
        <ele>12</ele>
        <time>2026-07-12T17:25:22.000Z</time>
      </trkpt>
      <trkpt lat="43.36439" lon="-1.58935">
        <ele>12</ele>
        <time>2026-07-12T17:25:25.000Z</time>
      </trkpt>
      <trkpt lat="43.3643" lon="-1.58921">
        <ele>12</ele>
        <time>2026-07-12T17:25:27.000Z</time>
      </trkpt>
      <trkpt lat="43.36423" lon="-1.58911">
        <ele>13</ele>
        <time>2026-07-12T17:25:29.000Z</time>
      </trkpt>
      <trkpt lat="43.36413" lon="-1.58899">
        <ele>15</ele>
        <time>2026-07-12T17:25:31.000Z</time>
      </trkpt>
      <trkpt lat="43.36407" lon="-1.58892">
        <ele>16</ele>
        <time>2026-07-12T17:25:32.000Z</time>
      </trkpt>
      <trkpt lat="43.36402" lon="-1.58886">
        <ele>17</ele>
        <time>2026-07-12T17:25:34.000Z</time>
      </trkpt>
      <trkpt lat="43.36356" lon="-1.58846">
        <ele>18</ele>
        <time>2026-07-12T17:25:43.000Z</time>
      </trkpt>
      <trkpt lat="43.36336" lon="-1.58829">
        <ele>18</ele>
        <time>2026-07-12T17:25:48.000Z</time>
      </trkpt>
      <trkpt lat="43.36323" lon="-1.58817">
        <ele>19</ele>
        <time>2026-07-12T17:25:50.000Z</time>
      </trkpt>
      <trkpt lat="43.36306" lon="-1.58801">
        <ele>19</ele>
        <time>2026-07-12T17:25:54.000Z</time>
      </trkpt>
      <trkpt lat="43.36292" lon="-1.58786">
        <ele>18</ele>
        <time>2026-07-12T17:25:57.000Z</time>
      </trkpt>
      <trkpt lat="43.36282" lon="-1.58772">
        <ele>18</ele>
        <time>2026-07-12T17:26:00.000Z</time>
      </trkpt>
      <trkpt lat="43.36273" lon="-1.58756">
        <ele>18</ele>
        <time>2026-07-12T17:26:02.000Z</time>
      </trkpt>
      <trkpt lat="43.36265" lon="-1.5874">
        <ele>16</ele>
        <time>2026-07-12T17:26:05.000Z</time>
      </trkpt>
      <trkpt lat="43.36257" lon="-1.58721">
        <ele>14</ele>
        <time>2026-07-12T17:26:08.000Z</time>
      </trkpt>
      <trkpt lat="43.3625" lon="-1.58703">
        <ele>12</ele>
        <time>2026-07-12T17:26:10.000Z</time>
      </trkpt>
      <trkpt lat="43.36239" lon="-1.5867">
        <ele>12</ele>
        <time>2026-07-12T17:26:15.000Z</time>
      </trkpt>
      <trkpt lat="43.36231" lon="-1.58645">
        <ele>11</ele>
        <time>2026-07-12T17:26:19.000Z</time>
      </trkpt>
      <trkpt lat="43.3623" lon="-1.5864">
        <ele>11</ele>
        <time>2026-07-12T17:26:19.000Z</time>
      </trkpt>
      <trkpt lat="43.36229" lon="-1.58636">
        <ele>11</ele>
        <time>2026-07-12T17:26:20.000Z</time>
      </trkpt>
      <trkpt lat="43.36206" lon="-1.58564">
        <ele>11</ele>
        <time>2026-07-12T17:26:30.000Z</time>
      </trkpt>
      <trkpt lat="43.36189" lon="-1.58508">
        <ele>11</ele>
        <time>2026-07-12T17:26:38.000Z</time>
      </trkpt>
      <trkpt lat="43.36169" lon="-1.58447">
        <ele>12</ele>
        <time>2026-07-12T17:26:46.000Z</time>
      </trkpt>
      <trkpt lat="43.36157" lon="-1.58412">
        <ele>12</ele>
        <time>2026-07-12T17:26:51.000Z</time>
      </trkpt>
      <trkpt lat="43.3615" lon="-1.5839">
        <ele>12</ele>
        <time>2026-07-12T17:26:55.000Z</time>
      </trkpt>
      <trkpt lat="43.36144" lon="-1.58377">
        <ele>12</ele>
        <time>2026-07-12T17:26:57.000Z</time>
      </trkpt>
      <trkpt lat="43.3614" lon="-1.58367">
        <ele>12</ele>
        <time>2026-07-12T17:26:58.000Z</time>
      </trkpt>
      <trkpt lat="43.36135" lon="-1.58354">
        <ele>12</ele>
        <time>2026-07-12T17:27:00.000Z</time>
      </trkpt>
      <trkpt lat="43.3613" lon="-1.58342">
        <ele>12</ele>
        <time>2026-07-12T17:27:02.000Z</time>
      </trkpt>
      <trkpt lat="43.36116" lon="-1.58316">
        <ele>12</ele>
        <time>2026-07-12T17:27:06.000Z</time>
      </trkpt>
      <trkpt lat="43.36105" lon="-1.58298">
        <ele>12</ele>
        <time>2026-07-12T17:27:09.000Z</time>
      </trkpt>
      <trkpt lat="43.36092" lon="-1.58277">
        <ele>12</ele>
        <time>2026-07-12T17:27:12.000Z</time>
      </trkpt>
      <trkpt lat="43.36078" lon="-1.58256">
        <ele>12</ele>
        <time>2026-07-12T17:27:16.000Z</time>
      </trkpt>
      <trkpt lat="43.36063" lon="-1.58235">
        <ele>12</ele>
        <time>2026-07-12T17:27:20.000Z</time>
      </trkpt>
      <trkpt lat="43.35923" lon="-1.58033">
        <ele>11</ele>
        <time>2026-07-12T17:27:56.000Z</time>
      </trkpt>
      <trkpt lat="43.35898" lon="-1.57996">
        <ele>11</ele>
        <time>2026-07-12T17:28:03.000Z</time>
      </trkpt>
      <trkpt lat="43.35887" lon="-1.57979">
        <ele>11</ele>
        <time>2026-07-12T17:28:06.000Z</time>
      </trkpt>
      <trkpt lat="43.3587" lon="-1.57949">
        <ele>12</ele>
        <time>2026-07-12T17:28:10.000Z</time>
      </trkpt>
      <trkpt lat="43.35864" lon="-1.57936">
        <ele>12</ele>
        <time>2026-07-12T17:28:12.000Z</time>
      </trkpt>
      <trkpt lat="43.35859" lon="-1.57925">
        <ele>12</ele>
        <time>2026-07-12T17:28:14.000Z</time>
      </trkpt>
      <trkpt lat="43.3585" lon="-1.57904">
        <ele>12</ele>
        <time>2026-07-12T17:28:17.000Z</time>
      </trkpt>
      <trkpt lat="43.35844" lon="-1.57887">
        <ele>12</ele>
        <time>2026-07-12T17:28:20.000Z</time>
      </trkpt>
      <trkpt lat="43.35837" lon="-1.57863">
        <ele>11</ele>
        <time>2026-07-12T17:28:23.000Z</time>
      </trkpt>
      <trkpt lat="43.35829" lon="-1.57824">
        <ele>11</ele>
        <time>2026-07-12T17:28:28.000Z</time>
      </trkpt>
      <trkpt lat="43.35819" lon="-1.57781">
        <ele>11</ele>
        <time>2026-07-12T17:28:34.000Z</time>
      </trkpt>
      <trkpt lat="43.35808" lon="-1.57721">
        <ele>12</ele>
        <time>2026-07-12T17:28:42.000Z</time>
      </trkpt>
      <trkpt lat="43.35788" lon="-1.57615">
        <ele>13</ele>
        <time>2026-07-12T17:28:56.000Z</time>
      </trkpt>
      <trkpt lat="43.35782" lon="-1.57577">
        <ele>13</ele>
        <time>2026-07-12T17:29:01.000Z</time>
      </trkpt>
      <trkpt lat="43.3578" lon="-1.57562">
        <ele>13</ele>
        <time>2026-07-12T17:29:03.000Z</time>
      </trkpt>
      <trkpt lat="43.35779" lon="-1.57548">
        <ele>13</ele>
        <time>2026-07-12T17:29:05.000Z</time>
      </trkpt>
      <trkpt lat="43.35779" lon="-1.57536">
        <ele>13</ele>
        <time>2026-07-12T17:29:07.000Z</time>
      </trkpt>
      <trkpt lat="43.35778" lon="-1.57524">
        <ele>13</ele>
        <time>2026-07-12T17:29:08.000Z</time>
      </trkpt>
      <trkpt lat="43.35777" lon="-1.5752">
        <ele>13</ele>
        <time>2026-07-12T17:29:09.000Z</time>
      </trkpt>
      <trkpt lat="43.35777" lon="-1.57509">
        <ele>13</ele>
        <time>2026-07-12T17:29:10.000Z</time>
      </trkpt>
      <trkpt lat="43.35776" lon="-1.57505">
        <ele>13</ele>
        <time>2026-07-12T17:29:11.000Z</time>
      </trkpt>
      <trkpt lat="43.35775" lon="-1.57497">
        <ele>13</ele>
        <time>2026-07-12T17:29:12.000Z</time>
      </trkpt>
      <trkpt lat="43.35772" lon="-1.57479">
        <ele>13</ele>
        <time>2026-07-12T17:29:14.000Z</time>
      </trkpt>
      <trkpt lat="43.35772" lon="-1.57478">
        <ele>13</ele>
        <time>2026-07-12T17:29:14.000Z</time>
      </trkpt>
      <trkpt lat="43.35771" lon="-1.57478">
        <ele>13</ele>
        <time>2026-07-12T17:29:15.000Z</time>
      </trkpt>
      <trkpt lat="43.35771" lon="-1.57477">
        <ele>13</ele>
        <time>2026-07-12T17:29:15.000Z</time>
      </trkpt>
      <trkpt lat="43.3577" lon="-1.57476">
        <ele>13</ele>
        <time>2026-07-12T17:29:15.000Z</time>
      </trkpt>
      <trkpt lat="43.3577" lon="-1.57475">
        <ele>13</ele>
        <time>2026-07-12T17:29:15.000Z</time>
      </trkpt>
      <trkpt lat="43.35769" lon="-1.57475">
        <ele>13</ele>
        <time>2026-07-12T17:29:15.000Z</time>
      </trkpt>
      <trkpt lat="43.35769" lon="-1.57474">
        <ele>13</ele>
        <time>2026-07-12T17:29:15.000Z</time>
      </trkpt>
      <trkpt lat="43.35769" lon="-1.57473">
        <ele>13</ele>
        <time>2026-07-12T17:29:15.000Z</time>
      </trkpt>
      <trkpt lat="43.35769" lon="-1.57472">
        <ele>13</ele>
        <time>2026-07-12T17:29:16.000Z</time>
      </trkpt>
      <trkpt lat="43.35768" lon="-1.57472">
        <ele>13</ele>
        <time>2026-07-12T17:29:16.000Z</time>
      </trkpt>
      <trkpt lat="43.35768" lon="-1.57471">
        <ele>13</ele>
        <time>2026-07-12T17:29:16.000Z</time>
      </trkpt>
      <trkpt lat="43.35768" lon="-1.5747">
        <ele>13</ele>
        <time>2026-07-12T17:29:16.000Z</time>
      </trkpt>
      <trkpt lat="43.35768" lon="-1.57469">
        <ele>13</ele>
        <time>2026-07-12T17:29:16.000Z</time>
      </trkpt>
      <trkpt lat="43.35768" lon="-1.57468">
        <ele>13</ele>
        <time>2026-07-12T17:29:16.000Z</time>
      </trkpt>
      <trkpt lat="43.35768" lon="-1.57467">
        <ele>13</ele>
        <time>2026-07-12T17:29:16.000Z</time>
      </trkpt>
      <trkpt lat="43.35768" lon="-1.57466">
        <ele>13</ele>
        <time>2026-07-12T17:29:17.000Z</time>
      </trkpt>
      <trkpt lat="43.35768" lon="-1.57465">
        <ele>13</ele>
        <time>2026-07-12T17:29:17.000Z</time>
      </trkpt>
      <trkpt lat="43.35768" lon="-1.57464">
        <ele>13</ele>
        <time>2026-07-12T17:29:17.000Z</time>
      </trkpt>
      <trkpt lat="43.35768" lon="-1.57463">
        <ele>13</ele>
        <time>2026-07-12T17:29:17.000Z</time>
      </trkpt>
      <trkpt lat="43.35769" lon="-1.57463">
        <ele>13</ele>
        <time>2026-07-12T17:29:17.000Z</time>
      </trkpt>
      <trkpt lat="43.35769" lon="-1.57462">
        <ele>13</ele>
        <time>2026-07-12T17:29:17.000Z</time>
      </trkpt>
      <trkpt lat="43.35769" lon="-1.57461">
        <ele>13</ele>
        <time>2026-07-12T17:29:17.000Z</time>
      </trkpt>
      <trkpt lat="43.35769" lon="-1.5746">
        <ele>13</ele>
        <time>2026-07-12T17:29:18.000Z</time>
      </trkpt>
      <trkpt lat="43.3577" lon="-1.57459">
        <ele>13</ele>
        <time>2026-07-12T17:29:18.000Z</time>
      </trkpt>
      <trkpt lat="43.3577" lon="-1.57458">
        <ele>13</ele>
        <time>2026-07-12T17:29:18.000Z</time>
      </trkpt>
      <trkpt lat="43.35771" lon="-1.57458">
        <ele>13</ele>
        <time>2026-07-12T17:29:18.000Z</time>
      </trkpt>
      <trkpt lat="43.35768" lon="-1.57443">
        <ele>13</ele>
        <time>2026-07-12T17:29:20.000Z</time>
      </trkpt>
      <trkpt lat="43.35762" lon="-1.57423">
        <ele>13</ele>
        <time>2026-07-12T17:29:23.000Z</time>
      </trkpt>
      <trkpt lat="43.35764" lon="-1.57416">
        <ele>13</ele>
        <time>2026-07-12T17:29:24.000Z</time>
      </trkpt>
      <trkpt lat="43.35758" lon="-1.57369">
        <ele>13</ele>
        <time>2026-07-12T17:29:30.000Z</time>
      </trkpt>
      <trkpt lat="43.35756" lon="-1.57342">
        <ele>13</ele>
        <time>2026-07-12T17:29:34.000Z</time>
      </trkpt>
      <trkpt lat="43.35754" lon="-1.57324">
        <ele>13</ele>
        <time>2026-07-12T17:29:36.000Z</time>
      </trkpt>
      <trkpt lat="43.35748" lon="-1.57256">
        <ele>14</ele>
        <time>2026-07-12T17:29:45.000Z</time>
      </trkpt>
      <trkpt lat="43.35745" lon="-1.57225">
        <ele>14</ele>
        <time>2026-07-12T17:29:49.000Z</time>
      </trkpt>
      <trkpt lat="43.35743" lon="-1.57209">
        <ele>14</ele>
        <time>2026-07-12T17:29:51.000Z</time>
      </trkpt>
      <trkpt lat="43.35741" lon="-1.57197">
        <ele>15</ele>
        <time>2026-07-12T17:29:52.000Z</time>
      </trkpt>
      <trkpt lat="43.3574" lon="-1.57186">
        <ele>15</ele>
        <time>2026-07-12T17:29:54.000Z</time>
      </trkpt>
      <trkpt lat="43.35737" lon="-1.57174">
        <ele>15</ele>
        <time>2026-07-12T17:29:56.000Z</time>
      </trkpt>
      <trkpt lat="43.35734" lon="-1.57164">
        <ele>15</ele>
        <time>2026-07-12T17:29:57.000Z</time>
      </trkpt>
      <trkpt lat="43.35731" lon="-1.57153">
        <ele>15</ele>
        <time>2026-07-12T17:29:58.000Z</time>
      </trkpt>
      <trkpt lat="43.35727" lon="-1.57142">
        <ele>15</ele>
        <time>2026-07-12T17:30:00.000Z</time>
      </trkpt>
      <trkpt lat="43.35723" lon="-1.57133">
        <ele>15</ele>
        <time>2026-07-12T17:30:01.000Z</time>
      </trkpt>
      <trkpt lat="43.35712" lon="-1.57106">
        <ele>15</ele>
        <time>2026-07-12T17:30:05.000Z</time>
      </trkpt>
      <trkpt lat="43.35681" lon="-1.57041">
        <ele>15</ele>
        <time>2026-07-12T17:30:15.000Z</time>
      </trkpt>
      <trkpt lat="43.35663" lon="-1.57005">
        <ele>15</ele>
        <time>2026-07-12T17:30:21.000Z</time>
      </trkpt>
      <trkpt lat="43.35648" lon="-1.56969">
        <ele>16</ele>
        <time>2026-07-12T17:30:26.000Z</time>
      </trkpt>
      <trkpt lat="43.35641" lon="-1.56954">
        <ele>16</ele>
        <time>2026-07-12T17:30:29.000Z</time>
      </trkpt>
      <trkpt lat="43.35632" lon="-1.56938">
        <ele>17</ele>
        <time>2026-07-12T17:30:31.000Z</time>
      </trkpt>
      <trkpt lat="43.35623" lon="-1.56921">
        <ele>17</ele>
        <time>2026-07-12T17:30:34.000Z</time>
      </trkpt>
      <trkpt lat="43.35616" lon="-1.56908">
        <ele>17</ele>
        <time>2026-07-12T17:30:36.000Z</time>
      </trkpt>
      <trkpt lat="43.35612" lon="-1.56902">
        <ele>17</ele>
        <time>2026-07-12T17:30:37.000Z</time>
      </trkpt>
      <trkpt lat="43.35608" lon="-1.56894">
        <ele>17</ele>
        <time>2026-07-12T17:30:39.000Z</time>
      </trkpt>
      <trkpt lat="43.35603" lon="-1.56887">
        <ele>17</ele>
        <time>2026-07-12T17:30:40.000Z</time>
      </trkpt>
      <trkpt lat="43.35598" lon="-1.56877">
        <ele>17</ele>
        <time>2026-07-12T17:30:41.000Z</time>
      </trkpt>
      <trkpt lat="43.35595" lon="-1.56868">
        <ele>17</ele>
        <time>2026-07-12T17:30:43.000Z</time>
      </trkpt>
      <trkpt lat="43.35591" lon="-1.56856">
        <ele>17</ele>
        <time>2026-07-12T17:30:44.000Z</time>
      </trkpt>
      <trkpt lat="43.35588" lon="-1.56846">
        <ele>17</ele>
        <time>2026-07-12T17:30:46.000Z</time>
      </trkpt>
      <trkpt lat="43.35587" lon="-1.56837">
        <ele>17</ele>
        <time>2026-07-12T17:30:47.000Z</time>
      </trkpt>
      <trkpt lat="43.35586" lon="-1.56829">
        <ele>17</ele>
        <time>2026-07-12T17:30:48.000Z</time>
      </trkpt>
      <trkpt lat="43.35586" lon="-1.56819">
        <ele>17</ele>
        <time>2026-07-12T17:30:49.000Z</time>
      </trkpt>
      <trkpt lat="43.35586" lon="-1.56809">
        <ele>17</ele>
        <time>2026-07-12T17:30:51.000Z</time>
      </trkpt>
      <trkpt lat="43.35586" lon="-1.56805">
        <ele>17</ele>
        <time>2026-07-12T17:30:51.000Z</time>
      </trkpt>
      <trkpt lat="43.35588" lon="-1.56797">
        <ele>17</ele>
        <time>2026-07-12T17:30:52.000Z</time>
      </trkpt>
      <trkpt lat="43.3559" lon="-1.56786">
        <ele>17</ele>
        <time>2026-07-12T17:30:54.000Z</time>
      </trkpt>
      <trkpt lat="43.3561" lon="-1.56721">
        <ele>18</ele>
        <time>2026-07-12T17:31:03.000Z</time>
      </trkpt>
      <trkpt lat="43.35615" lon="-1.56701">
        <ele>19</ele>
        <time>2026-07-12T17:31:06.000Z</time>
      </trkpt>
      <trkpt lat="43.35618" lon="-1.56687">
        <ele>19</ele>
        <time>2026-07-12T17:31:07.000Z</time>
      </trkpt>
      <trkpt lat="43.3562" lon="-1.56677">
        <ele>19</ele>
        <time>2026-07-12T17:31:09.000Z</time>
      </trkpt>
      <trkpt lat="43.35621" lon="-1.56668">
        <ele>19</ele>
        <time>2026-07-12T17:31:10.000Z</time>
      </trkpt>
      <trkpt lat="43.35622" lon="-1.56656">
        <ele>19</ele>
        <time>2026-07-12T17:31:11.000Z</time>
      </trkpt>
      <trkpt lat="43.35623" lon="-1.56643">
        <ele>19</ele>
        <time>2026-07-12T17:31:13.000Z</time>
      </trkpt>
      <trkpt lat="43.35623" lon="-1.5661">
        <ele>19</ele>
        <time>2026-07-12T17:31:17.000Z</time>
      </trkpt>
      <trkpt lat="43.35622" lon="-1.56561">
        <ele>19</ele>
        <time>2026-07-12T17:31:24.000Z</time>
      </trkpt>
      <trkpt lat="43.35621" lon="-1.56516">
        <ele>19</ele>
        <time>2026-07-12T17:31:30.000Z</time>
      </trkpt>
      <trkpt lat="43.35621" lon="-1.56507">
        <ele>19</ele>
        <time>2026-07-12T17:31:31.000Z</time>
      </trkpt>
      <trkpt lat="43.35619" lon="-1.56377">
        <ele>18</ele>
        <time>2026-07-12T17:31:48.000Z</time>
      </trkpt>
      <trkpt lat="43.35617" lon="-1.56314">
        <ele>18</ele>
        <time>2026-07-12T17:31:56.000Z</time>
      </trkpt>
      <trkpt lat="43.35615" lon="-1.56269">
        <ele>18</ele>
        <time>2026-07-12T17:32:02.000Z</time>
      </trkpt>
      <trkpt lat="43.35615" lon="-1.56229">
        <ele>18</ele>
        <time>2026-07-12T17:32:07.000Z</time>
      </trkpt>
      <trkpt lat="43.35615" lon="-1.56214">
        <ele>19</ele>
        <time>2026-07-12T17:32:09.000Z</time>
      </trkpt>
      <trkpt lat="43.35615" lon="-1.5618">
        <ele>19</ele>
        <time>2026-07-12T17:32:13.000Z</time>
      </trkpt>
      <trkpt lat="43.35618" lon="-1.56158">
        <ele>19</ele>
        <time>2026-07-12T17:32:16.000Z</time>
      </trkpt>
      <trkpt lat="43.35619" lon="-1.56151">
        <ele>19</ele>
        <time>2026-07-12T17:32:17.000Z</time>
      </trkpt>
      <trkpt lat="43.3562" lon="-1.56143">
        <ele>19</ele>
        <time>2026-07-12T17:32:18.000Z</time>
      </trkpt>
      <trkpt lat="43.35622" lon="-1.56134">
        <ele>18</ele>
        <time>2026-07-12T17:32:19.000Z</time>
      </trkpt>
      <trkpt lat="43.35628" lon="-1.56117">
        <ele>18</ele>
        <time>2026-07-12T17:32:22.000Z</time>
      </trkpt>
      <trkpt lat="43.35632" lon="-1.56109">
        <ele>18</ele>
        <time>2026-07-12T17:32:23.000Z</time>
      </trkpt>
      <trkpt lat="43.35637" lon="-1.56102">
        <ele>18</ele>
        <time>2026-07-12T17:32:24.000Z</time>
      </trkpt>
      <trkpt lat="43.35641" lon="-1.56097">
        <ele>18</ele>
        <time>2026-07-12T17:32:25.000Z</time>
      </trkpt>
      <trkpt lat="43.35644" lon="-1.56093">
        <ele>18</ele>
        <time>2026-07-12T17:32:26.000Z</time>
      </trkpt>
      <trkpt lat="43.35652" lon="-1.56087">
        <ele>18</ele>
        <time>2026-07-12T17:32:27.000Z</time>
      </trkpt>
      <trkpt lat="43.35674" lon="-1.5607">
        <ele>18</ele>
        <time>2026-07-12T17:32:32.000Z</time>
      </trkpt>
      <trkpt lat="43.35697" lon="-1.56056">
        <ele>18</ele>
        <time>2026-07-12T17:32:36.000Z</time>
      </trkpt>
      <trkpt lat="43.35714" lon="-1.56046">
        <ele>19</ele>
        <time>2026-07-12T17:32:40.000Z</time>
      </trkpt>
      <trkpt lat="43.35724" lon="-1.56038">
        <ele>19</ele>
        <time>2026-07-12T17:32:42.000Z</time>
      </trkpt>
      <trkpt lat="43.35725" lon="-1.56034">
        <ele>19</ele>
        <time>2026-07-12T17:32:42.000Z</time>
      </trkpt>
      <trkpt lat="43.35726" lon="-1.56032">
        <ele>19</ele>
        <time>2026-07-12T17:32:43.000Z</time>
      </trkpt>
      <trkpt lat="43.3573" lon="-1.56027">
        <ele>19</ele>
        <time>2026-07-12T17:32:44.000Z</time>
      </trkpt>
      <trkpt lat="43.35733" lon="-1.56022">
        <ele>18</ele>
        <time>2026-07-12T17:32:44.000Z</time>
      </trkpt>
      <trkpt lat="43.35736" lon="-1.56014">
        <ele>18</ele>
        <time>2026-07-12T17:32:46.000Z</time>
      </trkpt>
      <trkpt lat="43.35738" lon="-1.56006">
        <ele>18</ele>
        <time>2026-07-12T17:32:47.000Z</time>
      </trkpt>
      <trkpt lat="43.35738" lon="-1.56005">
        <ele>18</ele>
        <time>2026-07-12T17:32:47.000Z</time>
      </trkpt>
      <trkpt lat="43.35738" lon="-1.56003">
        <ele>18</ele>
        <time>2026-07-12T17:32:47.000Z</time>
      </trkpt>
      <trkpt lat="43.35738" lon="-1.56002">
        <ele>18</ele>
        <time>2026-07-12T17:32:47.000Z</time>
      </trkpt>
      <trkpt lat="43.35737" lon="-1.56001">
        <ele>17</ele>
        <time>2026-07-12T17:32:47.000Z</time>
      </trkpt>
      <trkpt lat="43.35737" lon="-1.55999">
        <ele>17</ele>
        <time>2026-07-12T17:32:48.000Z</time>
      </trkpt>
      <trkpt lat="43.35737" lon="-1.55998">
        <ele>17</ele>
        <time>2026-07-12T17:32:48.000Z</time>
      </trkpt>
      <trkpt lat="43.35737" lon="-1.55997">
        <ele>17</ele>
        <time>2026-07-12T17:32:48.000Z</time>
      </trkpt>
      <trkpt lat="43.35737" lon="-1.55995">
        <ele>17</ele>
        <time>2026-07-12T17:32:48.000Z</time>
      </trkpt>
      <trkpt lat="43.35737" lon="-1.55994">
        <ele>17</ele>
        <time>2026-07-12T17:32:48.000Z</time>
      </trkpt>
      <trkpt lat="43.35737" lon="-1.55993">
        <ele>17</ele>
        <time>2026-07-12T17:32:48.000Z</time>
      </trkpt>
      <trkpt lat="43.35738" lon="-1.55991">
        <ele>17</ele>
        <time>2026-07-12T17:32:49.000Z</time>
      </trkpt>
      <trkpt lat="43.35738" lon="-1.5599">
        <ele>17</ele>
        <time>2026-07-12T17:32:49.000Z</time>
      </trkpt>
      <trkpt lat="43.35738" lon="-1.55989">
        <ele>17</ele>
        <time>2026-07-12T17:32:49.000Z</time>
      </trkpt>
      <trkpt lat="43.35739" lon="-1.55987">
        <ele>17</ele>
        <time>2026-07-12T17:32:49.000Z</time>
      </trkpt>
      <trkpt lat="43.35739" lon="-1.55986">
        <ele>17</ele>
        <time>2026-07-12T17:32:50.000Z</time>
      </trkpt>
      <trkpt lat="43.3574" lon="-1.55985">
        <ele>17</ele>
        <time>2026-07-12T17:32:50.000Z</time>
      </trkpt>
      <trkpt lat="43.3574" lon="-1.55984">
        <ele>17</ele>
        <time>2026-07-12T17:32:50.000Z</time>
      </trkpt>
      <trkpt lat="43.35741" lon="-1.55983">
        <ele>17</ele>
        <time>2026-07-12T17:32:50.000Z</time>
      </trkpt>
      <trkpt lat="43.35742" lon="-1.55982">
        <ele>17</ele>
        <time>2026-07-12T17:32:50.000Z</time>
      </trkpt>
      <trkpt lat="43.35742" lon="-1.55981">
        <ele>17</ele>
        <time>2026-07-12T17:32:50.000Z</time>
      </trkpt>
      <trkpt lat="43.35743" lon="-1.5598">
        <ele>17</ele>
        <time>2026-07-12T17:32:51.000Z</time>
      </trkpt>
      <trkpt lat="43.35744" lon="-1.55979">
        <ele>17</ele>
        <time>2026-07-12T17:32:51.000Z</time>
      </trkpt>
      <trkpt lat="43.35745" lon="-1.55979">
        <ele>17</ele>
        <time>2026-07-12T17:32:51.000Z</time>
      </trkpt>
      <trkpt lat="43.35746" lon="-1.55978">
        <ele>17</ele>
        <time>2026-07-12T17:32:51.000Z</time>
      </trkpt>
      <trkpt lat="43.35747" lon="-1.55977">
        <ele>17</ele>
        <time>2026-07-12T17:32:51.000Z</time>
      </trkpt>
      <trkpt lat="43.35748" lon="-1.55977">
        <ele>17</ele>
        <time>2026-07-12T17:32:52.000Z</time>
      </trkpt>
      <trkpt lat="43.35749" lon="-1.55977">
        <ele>17</ele>
        <time>2026-07-12T17:32:52.000Z</time>
      </trkpt>
      <trkpt lat="43.3575" lon="-1.55976">
        <ele>17</ele>
        <time>2026-07-12T17:32:52.000Z</time>
      </trkpt>
      <trkpt lat="43.35752" lon="-1.55976">
        <ele>17</ele>
        <time>2026-07-12T17:32:52.000Z</time>
      </trkpt>
      <trkpt lat="43.35753" lon="-1.55976">
        <ele>17</ele>
        <time>2026-07-12T17:32:53.000Z</time>
      </trkpt>
      <trkpt lat="43.35754" lon="-1.55976">
        <ele>17</ele>
        <time>2026-07-12T17:32:53.000Z</time>
      </trkpt>
      <trkpt lat="43.35756" lon="-1.55976">
        <ele>17</ele>
        <time>2026-07-12T17:32:53.000Z</time>
      </trkpt>
      <trkpt lat="43.35765" lon="-1.55967">
        <ele>17</ele>
        <time>2026-07-12T17:32:55.000Z</time>
      </trkpt>
      <trkpt lat="43.35769" lon="-1.55961">
        <ele>18</ele>
        <time>2026-07-12T17:32:56.000Z</time>
      </trkpt>
      <trkpt lat="43.35774" lon="-1.55952">
        <ele>18</ele>
        <time>2026-07-12T17:32:58.000Z</time>
      </trkpt>
      <trkpt lat="43.35775" lon="-1.55951">
        <ele>18</ele>
        <time>2026-07-12T17:32:58.000Z</time>
      </trkpt>
      <trkpt lat="43.35775" lon="-1.5595">
        <ele>18</ele>
        <time>2026-07-12T17:32:58.000Z</time>
      </trkpt>
      <trkpt lat="43.35778" lon="-1.55949">
        <ele>18</ele>
        <time>2026-07-12T17:32:59.000Z</time>
      </trkpt>
      <trkpt lat="43.35781" lon="-1.55938">
        <ele>18</ele>
        <time>2026-07-12T17:33:00.000Z</time>
      </trkpt>
      <trkpt lat="43.35783" lon="-1.55927">
        <ele>18</ele>
        <time>2026-07-12T17:33:02.000Z</time>
      </trkpt>
      <trkpt lat="43.35785" lon="-1.55916">
        <ele>18</ele>
        <time>2026-07-12T17:33:03.000Z</time>
      </trkpt>
      <trkpt lat="43.35786" lon="-1.55903">
        <ele>19</ele>
        <time>2026-07-12T17:33:05.000Z</time>
      </trkpt>
      <trkpt lat="43.35786" lon="-1.55881">
        <ele>21</ele>
        <time>2026-07-12T17:33:08.000Z</time>
      </trkpt>
      <trkpt lat="43.35783" lon="-1.55805">
        <ele>25</ele>
        <time>2026-07-12T17:33:17.000Z</time>
      </trkpt>
      <trkpt lat="43.3578" lon="-1.55733">
        <ele>25</ele>
        <time>2026-07-12T17:33:27.000Z</time>
      </trkpt>
      <trkpt lat="43.35779" lon="-1.55696">
        <ele>24</ele>
        <time>2026-07-12T17:33:31.000Z</time>
      </trkpt>
      <trkpt lat="43.35779" lon="-1.5567">
        <ele>23</ele>
        <time>2026-07-12T17:33:35.000Z</time>
      </trkpt>
      <trkpt lat="43.3578" lon="-1.55652">
        <ele>23</ele>
        <time>2026-07-12T17:33:37.000Z</time>
      </trkpt>
      <trkpt lat="43.3578" lon="-1.55638">
        <ele>23</ele>
        <time>2026-07-12T17:33:39.000Z</time>
      </trkpt>
      <trkpt lat="43.35781" lon="-1.55628">
        <ele>23</ele>
        <time>2026-07-12T17:33:40.000Z</time>
      </trkpt>
      <trkpt lat="43.35785" lon="-1.5561">
        <ele>23</ele>
        <time>2026-07-12T17:33:43.000Z</time>
      </trkpt>
      <trkpt lat="43.35789" lon="-1.55585">
        <ele>24</ele>
        <time>2026-07-12T17:33:46.000Z</time>
      </trkpt>
      <trkpt lat="43.35794" lon="-1.5556">
        <ele>25</ele>
        <time>2026-07-12T17:33:49.000Z</time>
      </trkpt>
      <trkpt lat="43.35795" lon="-1.55546">
        <ele>25</ele>
        <time>2026-07-12T17:33:51.000Z</time>
      </trkpt>
      <trkpt lat="43.35797" lon="-1.55531">
        <ele>25</ele>
        <time>2026-07-12T17:33:53.000Z</time>
      </trkpt>
      <trkpt lat="43.35797" lon="-1.55516">
        <ele>25</ele>
        <time>2026-07-12T17:33:55.000Z</time>
      </trkpt>
      <trkpt lat="43.35795" lon="-1.55499">
        <ele>25</ele>
        <time>2026-07-12T17:33:57.000Z</time>
      </trkpt>
      <trkpt lat="43.35793" lon="-1.55478">
        <ele>24</ele>
        <time>2026-07-12T17:34:00.000Z</time>
      </trkpt>
      <trkpt lat="43.3579" lon="-1.55455">
        <ele>23</ele>
        <time>2026-07-12T17:34:03.000Z</time>
      </trkpt>
      <trkpt lat="43.35775" lon="-1.55347">
        <ele>21</ele>
        <time>2026-07-12T17:34:17.000Z</time>
      </trkpt>
      <trkpt lat="43.3577" lon="-1.55312">
        <ele>21</ele>
        <time>2026-07-12T17:34:22.000Z</time>
      </trkpt>
      <trkpt lat="43.35767" lon="-1.55299">
        <ele>22</ele>
        <time>2026-07-12T17:34:24.000Z</time>
      </trkpt>
      <trkpt lat="43.35765" lon="-1.55287">
        <ele>22</ele>
        <time>2026-07-12T17:34:25.000Z</time>
      </trkpt>
      <trkpt lat="43.3576" lon="-1.55272">
        <ele>22</ele>
        <time>2026-07-12T17:34:27.000Z</time>
      </trkpt>
      <trkpt lat="43.35757" lon="-1.55265">
        <ele>22</ele>
        <time>2026-07-12T17:34:29.000Z</time>
      </trkpt>
      <trkpt lat="43.35753" lon="-1.55256">
        <ele>22</ele>
        <time>2026-07-12T17:34:30.000Z</time>
      </trkpt>
      <trkpt lat="43.35748" lon="-1.55248">
        <ele>22</ele>
        <time>2026-07-12T17:34:31.000Z</time>
      </trkpt>
      <trkpt lat="43.35725" lon="-1.55214">
        <ele>22</ele>
        <time>2026-07-12T17:34:37.000Z</time>
      </trkpt>
      <trkpt lat="43.35708" lon="-1.5519">
        <ele>22</ele>
        <time>2026-07-12T17:34:42.000Z</time>
      </trkpt>
      <trkpt lat="43.35693" lon="-1.55164">
        <ele>22</ele>
        <time>2026-07-12T17:34:46.000Z</time>
      </trkpt>
      <trkpt lat="43.35676" lon="-1.55136">
        <ele>21</ele>
        <time>2026-07-12T17:34:51.000Z</time>
      </trkpt>
      <trkpt lat="43.35666" lon="-1.55117">
        <ele>21</ele>
        <time>2026-07-12T17:34:54.000Z</time>
      </trkpt>
      <trkpt lat="43.35659" lon="-1.551">
        <ele>21</ele>
        <time>2026-07-12T17:34:56.000Z</time>
      </trkpt>
      <trkpt lat="43.35647" lon="-1.55077">
        <ele>22</ele>
        <time>2026-07-12T17:35:00.000Z</time>
      </trkpt>
      <trkpt lat="43.35643" lon="-1.55068">
        <ele>22</ele>
        <time>2026-07-12T17:35:01.000Z</time>
      </trkpt>
      <trkpt lat="43.35639" lon="-1.55065">
        <ele>22</ele>
        <time>2026-07-12T17:35:02.000Z</time>
      </trkpt>
      <trkpt lat="43.35635" lon="-1.55063">
        <ele>21</ele>
        <time>2026-07-12T17:35:03.000Z</time>
      </trkpt>
      <trkpt lat="43.35632" lon="-1.55062">
        <ele>21</ele>
        <time>2026-07-12T17:35:03.000Z</time>
      </trkpt>
      <trkpt lat="43.35626" lon="-1.5506">
        <ele>21</ele>
        <time>2026-07-12T17:35:04.000Z</time>
      </trkpt>
      <trkpt lat="43.35604" lon="-1.5506">
        <ele>21</ele>
        <time>2026-07-12T17:35:08.000Z</time>
      </trkpt>
      <trkpt lat="43.35584" lon="-1.5506">
        <ele>20</ele>
        <time>2026-07-12T17:35:12.000Z</time>
      </trkpt>
      <trkpt lat="43.35558" lon="-1.55057">
        <ele>20</ele>
        <time>2026-07-12T17:35:17.000Z</time>
      </trkpt>
      <trkpt lat="43.35529" lon="-1.55055">
        <ele>20</ele>
        <time>2026-07-12T17:35:22.000Z</time>
      </trkpt>
      <trkpt lat="43.35508" lon="-1.55051">
        <ele>20</ele>
        <time>2026-07-12T17:35:25.000Z</time>
      </trkpt>
      <trkpt lat="43.35481" lon="-1.55044">
        <ele>20</ele>
        <time>2026-07-12T17:35:30.000Z</time>
      </trkpt>
      <trkpt lat="43.35464" lon="-1.55039">
        <ele>20</ele>
        <time>2026-07-12T17:35:33.000Z</time>
      </trkpt>
      <trkpt lat="43.35433" lon="-1.5503">
        <ele>19</ele>
        <time>2026-07-12T17:35:39.000Z</time>
      </trkpt>
      <trkpt lat="43.35428" lon="-1.55028">
        <ele>19</ele>
        <time>2026-07-12T17:35:40.000Z</time>
      </trkpt>
      <trkpt lat="43.35423" lon="-1.55027">
        <ele>19</ele>
        <time>2026-07-12T17:35:41.000Z</time>
      </trkpt>
      <trkpt lat="43.35382" lon="-1.55015">
        <ele>19</ele>
        <time>2026-07-12T17:35:48.000Z</time>
      </trkpt>
      <trkpt lat="43.35295" lon="-1.54989">
        <ele>19</ele>
        <time>2026-07-12T17:36:04.000Z</time>
      </trkpt>
      <trkpt lat="43.35285" lon="-1.54989">
        <ele>19</ele>
        <time>2026-07-12T17:36:06.000Z</time>
      </trkpt>
      <trkpt lat="43.3523" lon="-1.54976">
        <ele>18</ele>
        <time>2026-07-12T17:36:16.000Z</time>
      </trkpt>
      <trkpt lat="43.35166" lon="-1.54956">
        <ele>18</ele>
        <time>2026-07-12T17:36:28.000Z</time>
      </trkpt>
      <trkpt lat="43.35148" lon="-1.54951">
        <ele>18</ele>
        <time>2026-07-12T17:36:31.000Z</time>
      </trkpt>
      <trkpt lat="43.35145" lon="-1.54952">
        <ele>18</ele>
        <time>2026-07-12T17:36:31.000Z</time>
      </trkpt>
      <trkpt lat="43.35142" lon="-1.54953">
        <ele>18</ele>
        <time>2026-07-12T17:36:32.000Z</time>
      </trkpt>
      <trkpt lat="43.3514" lon="-1.54955">
        <ele>18</ele>
        <time>2026-07-12T17:36:32.000Z</time>
      </trkpt>
      <trkpt lat="43.35137" lon="-1.54958">
        <ele>18</ele>
        <time>2026-07-12T17:36:33.000Z</time>
      </trkpt>
      <trkpt lat="43.35131" lon="-1.54969">
        <ele>18</ele>
        <time>2026-07-12T17:36:35.000Z</time>
      </trkpt>
      <trkpt lat="43.35131" lon="-1.54969">
        <ele>18</ele>
        <time>2026-07-12T17:36:35.000Z</time>
      </trkpt>
      <trkpt lat="43.35131" lon="-1.54972">
        <ele>18</ele>
        <time>2026-07-12T17:36:35.000Z</time>
      </trkpt>
      <trkpt lat="43.3513" lon="-1.54975">
        <ele>18</ele>
        <time>2026-07-12T17:36:36.000Z</time>
      </trkpt>
      <trkpt lat="43.35129" lon="-1.54977">
        <ele>18</ele>
        <time>2026-07-12T17:36:36.000Z</time>
      </trkpt>
      <trkpt lat="43.35128" lon="-1.5498">
        <ele>18</ele>
        <time>2026-07-12T17:36:36.000Z</time>
      </trkpt>
      <trkpt lat="43.35127" lon="-1.54982">
        <ele>18</ele>
        <time>2026-07-12T17:36:37.000Z</time>
      </trkpt>
      <trkpt lat="43.35126" lon="-1.54984">
        <ele>18</ele>
        <time>2026-07-12T17:36:37.000Z</time>
      </trkpt>
      <trkpt lat="43.35124" lon="-1.54985">
        <ele>18</ele>
        <time>2026-07-12T17:36:37.000Z</time>
      </trkpt>
      <trkpt lat="43.35123" lon="-1.54987">
        <ele>18</ele>
        <time>2026-07-12T17:36:38.000Z</time>
      </trkpt>
      <trkpt lat="43.35121" lon="-1.54988">
        <ele>18</ele>
        <time>2026-07-12T17:36:38.000Z</time>
      </trkpt>
      <trkpt lat="43.35119" lon="-1.5499">
        <ele>18</ele>
        <time>2026-07-12T17:36:39.000Z</time>
      </trkpt>
      <trkpt lat="43.35118" lon="-1.54991">
        <ele>18</ele>
        <time>2026-07-12T17:36:39.000Z</time>
      </trkpt>
      <trkpt lat="43.35116" lon="-1.54991">
        <ele>18</ele>
        <time>2026-07-12T17:36:39.000Z</time>
      </trkpt>
      <trkpt lat="43.35114" lon="-1.54992">
        <ele>18</ele>
        <time>2026-07-12T17:36:39.000Z</time>
      </trkpt>
      <trkpt lat="43.35112" lon="-1.54992">
        <ele>18</ele>
        <time>2026-07-12T17:36:40.000Z</time>
      </trkpt>
      <trkpt lat="43.3511" lon="-1.54992">
        <ele>18</ele>
        <time>2026-07-12T17:36:40.000Z</time>
      </trkpt>
      <trkpt lat="43.35108" lon="-1.54992">
        <ele>18</ele>
        <time>2026-07-12T17:36:41.000Z</time>
      </trkpt>
      <trkpt lat="43.35106" lon="-1.54991">
        <ele>18</ele>
        <time>2026-07-12T17:36:41.000Z</time>
      </trkpt>
      <trkpt lat="43.35104" lon="-1.5499">
        <ele>18</ele>
        <time>2026-07-12T17:36:41.000Z</time>
      </trkpt>
      <trkpt lat="43.35102" lon="-1.54989">
        <ele>18</ele>
        <time>2026-07-12T17:36:42.000Z</time>
      </trkpt>
      <trkpt lat="43.351" lon="-1.54988">
        <ele>18</ele>
        <time>2026-07-12T17:36:42.000Z</time>
      </trkpt>
      <trkpt lat="43.35099" lon="-1.54987">
        <ele>18</ele>
        <time>2026-07-12T17:36:42.000Z</time>
      </trkpt>
      <trkpt lat="43.35097" lon="-1.54985">
        <ele>18</ele>
        <time>2026-07-12T17:36:43.000Z</time>
      </trkpt>
      <trkpt lat="43.35096" lon="-1.54983">
        <ele>18</ele>
        <time>2026-07-12T17:36:43.000Z</time>
      </trkpt>
      <trkpt lat="43.35095" lon="-1.54981">
        <ele>18</ele>
        <time>2026-07-12T17:36:43.000Z</time>
      </trkpt>
      <trkpt lat="43.35094" lon="-1.54979">
        <ele>18</ele>
        <time>2026-07-12T17:36:44.000Z</time>
      </trkpt>
      <trkpt lat="43.35093" lon="-1.54977">
        <ele>18</ele>
        <time>2026-07-12T17:36:44.000Z</time>
      </trkpt>
      <trkpt lat="43.35092" lon="-1.54974">
        <ele>18</ele>
        <time>2026-07-12T17:36:44.000Z</time>
      </trkpt>
      <trkpt lat="43.35091" lon="-1.54972">
        <ele>19</ele>
        <time>2026-07-12T17:36:45.000Z</time>
      </trkpt>
      <trkpt lat="43.35091" lon="-1.54969">
        <ele>19</ele>
        <time>2026-07-12T17:36:45.000Z</time>
      </trkpt>
      <trkpt lat="43.3509" lon="-1.54966">
        <ele>19</ele>
        <time>2026-07-12T17:36:46.000Z</time>
      </trkpt>
      <trkpt lat="43.3509" lon="-1.54964">
        <ele>19</ele>
        <time>2026-07-12T17:36:46.000Z</time>
      </trkpt>
      <trkpt lat="43.3509" lon="-1.54962">
        <ele>19</ele>
        <time>2026-07-12T17:36:46.000Z</time>
      </trkpt>
      <trkpt lat="43.3509" lon="-1.54961">
        <ele>19</ele>
        <time>2026-07-12T17:36:46.000Z</time>
      </trkpt>
      <trkpt lat="43.3509" lon="-1.54959">
        <ele>19</ele>
        <time>2026-07-12T17:36:46.000Z</time>
      </trkpt>
      <trkpt lat="43.35091" lon="-1.54958">
        <ele>19</ele>
        <time>2026-07-12T17:36:47.000Z</time>
      </trkpt>
      <trkpt lat="43.35091" lon="-1.54956">
        <ele>19</ele>
        <time>2026-07-12T17:36:47.000Z</time>
      </trkpt>
      <trkpt lat="43.35091" lon="-1.54954">
        <ele>19</ele>
        <time>2026-07-12T17:36:47.000Z</time>
      </trkpt>
      <trkpt lat="43.35092" lon="-1.54953">
        <ele>19</ele>
        <time>2026-07-12T17:36:47.000Z</time>
      </trkpt>
      <trkpt lat="43.35092" lon="-1.54952">
        <ele>19</ele>
        <time>2026-07-12T17:36:48.000Z</time>
      </trkpt>
      <trkpt lat="43.35089" lon="-1.54937">
        <ele>19</ele>
        <time>2026-07-12T17:36:50.000Z</time>
      </trkpt>
      <trkpt lat="43.35087" lon="-1.54931">
        <ele>20</ele>
        <time>2026-07-12T17:36:50.000Z</time>
      </trkpt>
      <trkpt lat="43.35083" lon="-1.54923">
        <ele>20</ele>
        <time>2026-07-12T17:36:52.000Z</time>
      </trkpt>
      <trkpt lat="43.35081" lon="-1.5492">
        <ele>20</ele>
        <time>2026-07-12T17:36:52.000Z</time>
      </trkpt>
      <trkpt lat="43.3508" lon="-1.54918">
        <ele>20</ele>
        <time>2026-07-12T17:36:52.000Z</time>
      </trkpt>
      <trkpt lat="43.35079" lon="-1.54914">
        <ele>20</ele>
        <time>2026-07-12T17:36:53.000Z</time>
      </trkpt>
      <trkpt lat="43.35052" lon="-1.549">
        <ele>21</ele>
        <time>2026-07-12T17:36:58.000Z</time>
      </trkpt>
      <trkpt lat="43.34978" lon="-1.54861">
        <ele>23</ele>
        <time>2026-07-12T17:37:12.000Z</time>
      </trkpt>
      <trkpt lat="43.34937" lon="-1.54838">
        <ele>23</ele>
        <time>2026-07-12T17:37:20.000Z</time>
      </trkpt>
      <trkpt lat="43.34918" lon="-1.54826">
        <ele>23</ele>
        <time>2026-07-12T17:37:24.000Z</time>
      </trkpt>
      <trkpt lat="43.34908" lon="-1.54818">
        <ele>24</ele>
        <time>2026-07-12T17:37:26.000Z</time>
      </trkpt>
      <trkpt lat="43.34893" lon="-1.54805">
        <ele>24</ele>
        <time>2026-07-12T17:37:29.000Z</time>
      </trkpt>
      <trkpt lat="43.34879" lon="-1.54789">
        <ele>25</ele>
        <time>2026-07-12T17:37:32.000Z</time>
      </trkpt>
      <trkpt lat="43.34864" lon="-1.54768">
        <ele>25</ele>
        <time>2026-07-12T17:37:36.000Z</time>
      </trkpt>
      <trkpt lat="43.34848" lon="-1.54746">
        <ele>25</ele>
        <time>2026-07-12T17:37:40.000Z</time>
      </trkpt>
      <trkpt lat="43.34824" lon="-1.54708">
        <ele>26</ele>
        <time>2026-07-12T17:37:47.000Z</time>
      </trkpt>
      <trkpt lat="43.34786" lon="-1.54648">
        <ele>27</ele>
        <time>2026-07-12T17:37:57.000Z</time>
      </trkpt>
      <trkpt lat="43.34734" lon="-1.54566">
        <ele>27</ele>
        <time>2026-07-12T17:38:11.000Z</time>
      </trkpt>
      <trkpt lat="43.34706" lon="-1.5452">
        <ele>28</ele>
        <time>2026-07-12T17:38:19.000Z</time>
      </trkpt>
      <trkpt lat="43.34699" lon="-1.54508">
        <ele>28</ele>
        <time>2026-07-12T17:38:21.000Z</time>
      </trkpt>
      <trkpt lat="43.34695" lon="-1.54498">
        <ele>28</ele>
        <time>2026-07-12T17:38:22.000Z</time>
      </trkpt>
      <trkpt lat="43.34688" lon="-1.54481">
        <ele>28</ele>
        <time>2026-07-12T17:38:25.000Z</time>
      </trkpt>
      <trkpt lat="43.34682" lon="-1.54462">
        <ele>29</ele>
        <time>2026-07-12T17:38:27.000Z</time>
      </trkpt>
      <trkpt lat="43.34679" lon="-1.54448">
        <ele>29</ele>
        <time>2026-07-12T17:38:29.000Z</time>
      </trkpt>
      <trkpt lat="43.34677" lon="-1.54436">
        <ele>30</ele>
        <time>2026-07-12T17:38:31.000Z</time>
      </trkpt>
      <trkpt lat="43.34675" lon="-1.5442">
        <ele>30</ele>
        <time>2026-07-12T17:38:33.000Z</time>
      </trkpt>
      <trkpt lat="43.34674" lon="-1.54407">
        <ele>30</ele>
        <time>2026-07-12T17:38:35.000Z</time>
      </trkpt>
      <trkpt lat="43.34673" lon="-1.54386">
        <ele>31</ele>
        <time>2026-07-12T17:38:37.000Z</time>
      </trkpt>
      <trkpt lat="43.3467" lon="-1.54296">
        <ele>33</ele>
        <time>2026-07-12T17:38:49.000Z</time>
      </trkpt>
      <trkpt lat="43.34668" lon="-1.54262">
        <ele>35</ele>
        <time>2026-07-12T17:38:54.000Z</time>
      </trkpt>
      <trkpt lat="43.34667" lon="-1.54253">
        <ele>35</ele>
        <time>2026-07-12T17:38:55.000Z</time>
      </trkpt>
      <trkpt lat="43.34664" lon="-1.54233">
        <ele>36</ele>
        <time>2026-07-12T17:38:57.000Z</time>
      </trkpt>
      <trkpt lat="43.34659" lon="-1.54213">
        <ele>37</ele>
        <time>2026-07-12T17:39:00.000Z</time>
      </trkpt>
      <trkpt lat="43.34655" lon="-1.54195">
        <ele>37</ele>
        <time>2026-07-12T17:39:03.000Z</time>
      </trkpt>
      <trkpt lat="43.34648" lon="-1.54177">
        <ele>37</ele>
        <time>2026-07-12T17:39:05.000Z</time>
      </trkpt>
      <trkpt lat="43.34641" lon="-1.5416">
        <ele>37</ele>
        <time>2026-07-12T17:39:08.000Z</time>
      </trkpt>
      <trkpt lat="43.34621" lon="-1.54121">
        <ele>36</ele>
        <time>2026-07-12T17:39:14.000Z</time>
      </trkpt>
      <trkpt lat="43.34605" lon="-1.5409">
        <ele>35</ele>
        <time>2026-07-12T17:39:19.000Z</time>
      </trkpt>
      <trkpt lat="43.34592" lon="-1.54064">
        <ele>34</ele>
        <time>2026-07-12T17:39:23.000Z</time>
      </trkpt>
      <trkpt lat="43.34586" lon="-1.54048">
        <ele>34</ele>
        <time>2026-07-12T17:39:25.000Z</time>
      </trkpt>
      <trkpt lat="43.34579" lon="-1.54027">
        <ele>34</ele>
        <time>2026-07-12T17:39:28.000Z</time>
      </trkpt>
      <trkpt lat="43.34573" lon="-1.54001">
        <ele>34</ele>
        <time>2026-07-12T17:39:32.000Z</time>
      </trkpt>
      <trkpt lat="43.34571" lon="-1.53987">
        <ele>34</ele>
        <time>2026-07-12T17:39:34.000Z</time>
      </trkpt>
      <trkpt lat="43.34568" lon="-1.5397">
        <ele>34</ele>
        <time>2026-07-12T17:39:36.000Z</time>
      </trkpt>
      <trkpt lat="43.34568" lon="-1.53951">
        <ele>34</ele>
        <time>2026-07-12T17:39:38.000Z</time>
      </trkpt>
      <trkpt lat="43.34567" lon="-1.53925">
        <ele>34</ele>
        <time>2026-07-12T17:39:42.000Z</time>
      </trkpt>
      <trkpt lat="43.34567" lon="-1.53901">
        <ele>35</ele>
        <time>2026-07-12T17:39:45.000Z</time>
      </trkpt>
      <trkpt lat="43.34564" lon="-1.53872">
        <ele>36</ele>
        <time>2026-07-12T17:39:49.000Z</time>
      </trkpt>
      <trkpt lat="43.3456" lon="-1.53848">
        <ele>37</ele>
        <time>2026-07-12T17:39:52.000Z</time>
      </trkpt>
      <trkpt lat="43.34558" lon="-1.53829">
        <ele>38</ele>
        <time>2026-07-12T17:39:54.000Z</time>
      </trkpt>
      <trkpt lat="43.34553" lon="-1.5381">
        <ele>38</ele>
        <time>2026-07-12T17:39:57.000Z</time>
      </trkpt>
      <trkpt lat="43.34547" lon="-1.53787">
        <ele>38</ele>
        <time>2026-07-12T17:40:00.000Z</time>
      </trkpt>
      <trkpt lat="43.34536" lon="-1.53744">
        <ele>38</ele>
        <time>2026-07-12T17:40:06.000Z</time>
      </trkpt>
      <trkpt lat="43.34531" lon="-1.53715">
        <ele>39</ele>
        <time>2026-07-12T17:40:10.000Z</time>
      </trkpt>
      <trkpt lat="43.34523" lon="-1.53669">
        <ele>39</ele>
        <time>2026-07-12T17:40:16.000Z</time>
      </trkpt>
      <trkpt lat="43.34498" lon="-1.53511">
        <ele>41</ele>
        <time>2026-07-12T17:40:37.000Z</time>
      </trkpt>
      <trkpt lat="43.34489" lon="-1.53447">
        <ele>42</ele>
        <time>2026-07-12T17:40:45.000Z</time>
      </trkpt>
      <trkpt lat="43.34477" lon="-1.533">
        <ele>39</ele>
        <time>2026-07-12T17:41:04.000Z</time>
      </trkpt>
      <trkpt lat="43.34472" lon="-1.53244">
        <ele>38</ele>
        <time>2026-07-12T17:41:12.000Z</time>
      </trkpt>
      <trkpt lat="43.34467" lon="-1.53193">
        <ele>39</ele>
        <time>2026-07-12T17:41:18.000Z</time>
      </trkpt>
      <trkpt lat="43.34462" lon="-1.53135">
        <ele>40</ele>
        <time>2026-07-12T17:41:26.000Z</time>
      </trkpt>
      <trkpt lat="43.34453" lon="-1.53048">
        <ele>39</ele>
        <time>2026-07-12T17:41:37.000Z</time>
      </trkpt>
      <trkpt lat="43.3445" lon="-1.53016">
        <ele>37</ele>
        <time>2026-07-12T17:41:41.000Z</time>
      </trkpt>
      <trkpt lat="43.34447" lon="-1.52994">
        <ele>37</ele>
        <time>2026-07-12T17:41:44.000Z</time>
      </trkpt>
      <trkpt lat="43.34443" lon="-1.52977">
        <ele>37</ele>
        <time>2026-07-12T17:41:47.000Z</time>
      </trkpt>
      <trkpt lat="43.34439" lon="-1.52963">
        <ele>36</ele>
        <time>2026-07-12T17:41:49.000Z</time>
      </trkpt>
      <trkpt lat="43.34432" lon="-1.52945">
        <ele>36</ele>
        <time>2026-07-12T17:41:51.000Z</time>
      </trkpt>
      <trkpt lat="43.34429" lon="-1.52936">
        <ele>36</ele>
        <time>2026-07-12T17:41:53.000Z</time>
      </trkpt>
      <trkpt lat="43.34425" lon="-1.52926">
        <ele>36</ele>
        <time>2026-07-12T17:41:54.000Z</time>
      </trkpt>
      <trkpt lat="43.34412" lon="-1.52901">
        <ele>35</ele>
        <time>2026-07-12T17:41:58.000Z</time>
      </trkpt>
      <trkpt lat="43.34375" lon="-1.5284">
        <ele>36</ele>
        <time>2026-07-12T17:42:08.000Z</time>
      </trkpt>
      <trkpt lat="43.34349" lon="-1.52798">
        <ele>35</ele>
        <time>2026-07-12T17:42:15.000Z</time>
      </trkpt>
      <trkpt lat="43.34348" lon="-1.528">
        <ele>35</ele>
        <time>2026-07-12T17:42:16.000Z</time>
      </trkpt>
      <trkpt lat="43.34347" lon="-1.52801">
        <ele>35</ele>
        <time>2026-07-12T17:42:16.000Z</time>
      </trkpt>
      <trkpt lat="43.34346" lon="-1.52802">
        <ele>35</ele>
        <time>2026-07-12T17:42:16.000Z</time>
      </trkpt>
      <trkpt lat="43.34345" lon="-1.52803">
        <ele>35</ele>
        <time>2026-07-12T17:42:16.000Z</time>
      </trkpt>
      <trkpt lat="43.34343" lon="-1.52804">
        <ele>36</ele>
        <time>2026-07-12T17:42:17.000Z</time>
      </trkpt>
      <trkpt lat="43.34342" lon="-1.52805">
        <ele>36</ele>
        <time>2026-07-12T17:42:17.000Z</time>
      </trkpt>
      <trkpt lat="43.34341" lon="-1.52805">
        <ele>36</ele>
        <time>2026-07-12T17:42:17.000Z</time>
      </trkpt>
      <trkpt lat="43.34339" lon="-1.52806">
        <ele>36</ele>
        <time>2026-07-12T17:42:18.000Z</time>
      </trkpt>
      <trkpt lat="43.34338" lon="-1.52806">
        <ele>36</ele>
        <time>2026-07-12T17:42:18.000Z</time>
      </trkpt>
      <trkpt lat="43.34337" lon="-1.52806">
        <ele>36</ele>
        <time>2026-07-12T17:42:18.000Z</time>
      </trkpt>
      <trkpt lat="43.34335" lon="-1.52806">
        <ele>36</ele>
        <time>2026-07-12T17:42:18.000Z</time>
      </trkpt>
      <trkpt lat="43.34334" lon="-1.52806">
        <ele>36</ele>
        <time>2026-07-12T17:42:18.000Z</time>
      </trkpt>
      <trkpt lat="43.34333" lon="-1.52806">
        <ele>36</ele>
        <time>2026-07-12T17:42:19.000Z</time>
      </trkpt>
      <trkpt lat="43.34331" lon="-1.52805">
        <ele>36</ele>
        <time>2026-07-12T17:42:19.000Z</time>
      </trkpt>
      <trkpt lat="43.3433" lon="-1.52805">
        <ele>36</ele>
        <time>2026-07-12T17:42:19.000Z</time>
      </trkpt>
      <trkpt lat="43.34329" lon="-1.52804">
        <ele>36</ele>
        <time>2026-07-12T17:42:19.000Z</time>
      </trkpt>
      <trkpt lat="43.34327" lon="-1.52803">
        <ele>36</ele>
        <time>2026-07-12T17:42:20.000Z</time>
      </trkpt>
      <trkpt lat="43.34326" lon="-1.52802">
        <ele>36</ele>
        <time>2026-07-12T17:42:20.000Z</time>
      </trkpt>
      <trkpt lat="43.34325" lon="-1.52801">
        <ele>36</ele>
        <time>2026-07-12T17:42:20.000Z</time>
      </trkpt>
      <trkpt lat="43.34324" lon="-1.528">
        <ele>36</ele>
        <time>2026-07-12T17:42:20.000Z</time>
      </trkpt>
      <trkpt lat="43.34323" lon="-1.52798">
        <ele>36</ele>
        <time>2026-07-12T17:42:21.000Z</time>
      </trkpt>
      <trkpt lat="43.34322" lon="-1.52797">
        <ele>36</ele>
        <time>2026-07-12T17:42:21.000Z</time>
      </trkpt>
      <trkpt lat="43.34321" lon="-1.52795">
        <ele>36</ele>
        <time>2026-07-12T17:42:21.000Z</time>
      </trkpt>
      <trkpt lat="43.34321" lon="-1.52794">
        <ele>36</ele>
        <time>2026-07-12T17:42:21.000Z</time>
      </trkpt>
      <trkpt lat="43.3432" lon="-1.52792">
        <ele>36</ele>
        <time>2026-07-12T17:42:22.000Z</time>
      </trkpt>
      <trkpt lat="43.34319" lon="-1.5279">
        <ele>36</ele>
        <time>2026-07-12T17:42:22.000Z</time>
      </trkpt>
      <trkpt lat="43.34319" lon="-1.52788">
        <ele>36</ele>
        <time>2026-07-12T17:42:22.000Z</time>
      </trkpt>
      <trkpt lat="43.34319" lon="-1.52786">
        <ele>36</ele>
        <time>2026-07-12T17:42:23.000Z</time>
      </trkpt>
      <trkpt lat="43.34318" lon="-1.52784">
        <ele>36</ele>
        <time>2026-07-12T17:42:23.000Z</time>
      </trkpt>
      <trkpt lat="43.34318" lon="-1.52783">
        <ele>36</ele>
        <time>2026-07-12T17:42:23.000Z</time>
      </trkpt>
      <trkpt lat="43.34318" lon="-1.52781">
        <ele>36</ele>
        <time>2026-07-12T17:42:23.000Z</time>
      </trkpt>
      <trkpt lat="43.34318" lon="-1.52779">
        <ele>36</ele>
        <time>2026-07-12T17:42:23.000Z</time>
      </trkpt>
      <trkpt lat="43.34319" lon="-1.52777">
        <ele>36</ele>
        <time>2026-07-12T17:42:24.000Z</time>
      </trkpt>
      <trkpt lat="43.34319" lon="-1.52775">
        <ele>36</ele>
        <time>2026-07-12T17:42:24.000Z</time>
      </trkpt>
      <trkpt lat="43.3432" lon="-1.52773">
        <ele>36</ele>
        <time>2026-07-12T17:42:24.000Z</time>
      </trkpt>
      <trkpt lat="43.3432" lon="-1.52771">
        <ele>36</ele>
        <time>2026-07-12T17:42:25.000Z</time>
      </trkpt>
      <trkpt lat="43.34321" lon="-1.5277">
        <ele>36</ele>
        <time>2026-07-12T17:42:25.000Z</time>
      </trkpt>
      <trkpt lat="43.34321" lon="-1.52768">
        <ele>36</ele>
        <time>2026-07-12T17:42:25.000Z</time>
      </trkpt>
      <trkpt lat="43.34322" lon="-1.52767">
        <ele>36</ele>
        <time>2026-07-12T17:42:25.000Z</time>
      </trkpt>
      <trkpt lat="43.34323" lon="-1.52765">
        <ele>36</ele>
        <time>2026-07-12T17:42:26.000Z</time>
      </trkpt>
      <trkpt lat="43.34324" lon="-1.52764">
        <ele>36</ele>
        <time>2026-07-12T17:42:26.000Z</time>
      </trkpt>
      <trkpt lat="43.34325" lon="-1.52762">
        <ele>36</ele>
        <time>2026-07-12T17:42:26.000Z</time>
      </trkpt>
      <trkpt lat="43.34327" lon="-1.52761">
        <ele>35</ele>
        <time>2026-07-12T17:42:27.000Z</time>
      </trkpt>
      <trkpt lat="43.34319" lon="-1.52744">
        <ele>36</ele>
        <time>2026-07-12T17:42:29.000Z</time>
      </trkpt>
      <trkpt lat="43.34301" lon="-1.52712">
        <ele>39</ele>
        <time>2026-07-12T17:42:34.000Z</time>
      </trkpt>
      <trkpt lat="43.34276" lon="-1.52671">
        <ele>40</ele>
        <time>2026-07-12T17:42:41.000Z</time>
      </trkpt>
      <trkpt lat="43.34264" lon="-1.52653">
        <ele>40</ele>
        <time>2026-07-12T17:42:44.000Z</time>
      </trkpt>
      <trkpt lat="43.34182" lon="-1.52518">
        <ele>42</ele>
        <time>2026-07-12T17:43:07.000Z</time>
      </trkpt>
      <trkpt lat="43.34159" lon="-1.52479">
        <ele>41</ele>
        <time>2026-07-12T17:43:14.000Z</time>
      </trkpt>
      <trkpt lat="43.34147" lon="-1.52454">
        <ele>42</ele>
        <time>2026-07-12T17:43:18.000Z</time>
      </trkpt>
      <trkpt lat="43.3414" lon="-1.52441">
        <ele>42</ele>
        <time>2026-07-12T17:43:20.000Z</time>
      </trkpt>
      <trkpt lat="43.34133" lon="-1.52424">
        <ele>42</ele>
        <time>2026-07-12T17:43:22.000Z</time>
      </trkpt>
      <trkpt lat="43.34076" lon="-1.52288">
        <ele>42</ele>
        <time>2026-07-12T17:43:43.000Z</time>
      </trkpt>
      <trkpt lat="43.33993" lon="-1.52089">
        <ele>41</ele>
        <time>2026-07-12T17:44:12.000Z</time>
      </trkpt>
      <trkpt lat="43.33981" lon="-1.52058">
        <ele>41</ele>
        <time>2026-07-12T17:44:17.000Z</time>
      </trkpt>
      <trkpt lat="43.33969" lon="-1.52031">
        <ele>41</ele>
        <time>2026-07-12T17:44:21.000Z</time>
      </trkpt>
      <trkpt lat="43.33908" lon="-1.51887">
        <ele>44</ele>
        <time>2026-07-12T17:44:42.000Z</time>
      </trkpt>
      <trkpt lat="43.33835" lon="-1.5171">
        <ele>44</ele>
        <time>2026-07-12T17:45:09.000Z</time>
      </trkpt>
      <trkpt lat="43.3382" lon="-1.51674">
        <ele>45</ele>
        <time>2026-07-12T17:45:14.000Z</time>
      </trkpt>
      <trkpt lat="43.33772" lon="-1.51561">
        <ele>47</ele>
        <time>2026-07-12T17:45:31.000Z</time>
      </trkpt>
      <trkpt lat="43.33761" lon="-1.51533">
        <ele>47</ele>
        <time>2026-07-12T17:45:35.000Z</time>
      </trkpt>
      <trkpt lat="43.33756" lon="-1.51521">
        <ele>47</ele>
        <time>2026-07-12T17:45:37.000Z</time>
      </trkpt>
      <trkpt lat="43.33749" lon="-1.51502">
        <ele>47</ele>
        <time>2026-07-12T17:45:40.000Z</time>
      </trkpt>
      <trkpt lat="43.33748" lon="-1.51501">
        <ele>47</ele>
        <time>2026-07-12T17:45:40.000Z</time>
      </trkpt>
      <trkpt lat="43.33735" lon="-1.51459">
        <ele>48</ele>
        <time>2026-07-12T17:45:46.000Z</time>
      </trkpt>
      <trkpt lat="43.33715" lon="-1.51392">
        <ele>48</ele>
        <time>2026-07-12T17:45:55.000Z</time>
      </trkpt>
      <trkpt lat="43.33695" lon="-1.51327">
        <ele>49</ele>
        <time>2026-07-12T17:46:04.000Z</time>
      </trkpt>
      <trkpt lat="43.33678" lon="-1.51274">
        <ele>50</ele>
        <time>2026-07-12T17:46:12.000Z</time>
      </trkpt>
      <trkpt lat="43.33662" lon="-1.51222">
        <ele>50</ele>
        <time>2026-07-12T17:46:19.000Z</time>
      </trkpt>
      <trkpt lat="43.33657" lon="-1.51204">
        <ele>51</ele>
        <time>2026-07-12T17:46:22.000Z</time>
      </trkpt>
      <trkpt lat="43.33645" lon="-1.51166">
        <ele>52</ele>
        <time>2026-07-12T17:46:27.000Z</time>
      </trkpt>
      <trkpt lat="43.33638" lon="-1.51135">
        <ele>52</ele>
        <time>2026-07-12T17:46:31.000Z</time>
      </trkpt>
      <trkpt lat="43.33632" lon="-1.51108">
        <ele>53</ele>
        <time>2026-07-12T17:46:35.000Z</time>
      </trkpt>
      <trkpt lat="43.33628" lon="-1.51078">
        <ele>53</ele>
        <time>2026-07-12T17:46:39.000Z</time>
      </trkpt>
      <trkpt lat="43.33621" lon="-1.51021">
        <ele>54</ele>
        <time>2026-07-12T17:46:46.000Z</time>
      </trkpt>
      <trkpt lat="43.33615" lon="-1.50974">
        <ele>55</ele>
        <time>2026-07-12T17:46:52.000Z</time>
      </trkpt>
      <trkpt lat="43.33608" lon="-1.50926">
        <ele>57</ele>
        <time>2026-07-12T17:46:59.000Z</time>
      </trkpt>
      <trkpt lat="43.336" lon="-1.50856">
        <ele>59</ele>
        <time>2026-07-12T17:47:08.000Z</time>
      </trkpt>
      <trkpt lat="43.33596" lon="-1.50847">
        <ele>59</ele>
        <time>2026-07-12T17:47:09.000Z</time>
      </trkpt>
      <trkpt lat="43.33587" lon="-1.50777">
        <ele>60</ele>
        <time>2026-07-12T17:47:19.000Z</time>
      </trkpt>
      <trkpt lat="43.33584" lon="-1.50756">
        <ele>60</ele>
        <time>2026-07-12T17:47:21.000Z</time>
      </trkpt>
      <trkpt lat="43.33584" lon="-1.50744">
        <ele>61</ele>
        <time>2026-07-12T17:47:23.000Z</time>
      </trkpt>
      <trkpt lat="43.33584" lon="-1.50731">
        <ele>62</ele>
        <time>2026-07-12T17:47:25.000Z</time>
      </trkpt>
      <trkpt lat="43.33584" lon="-1.50716">
        <ele>64</ele>
        <time>2026-07-12T17:47:27.000Z</time>
      </trkpt>
      <trkpt lat="43.33585" lon="-1.50701">
        <ele>65</ele>
        <time>2026-07-12T17:47:28.000Z</time>
      </trkpt>
      <trkpt lat="43.33587" lon="-1.50686">
        <ele>67</ele>
        <time>2026-07-12T17:47:30.000Z</time>
      </trkpt>
      <trkpt lat="43.33589" lon="-1.5067">
        <ele>69</ele>
        <time>2026-07-12T17:47:33.000Z</time>
      </trkpt>
      <trkpt lat="43.33592" lon="-1.50664">
        <ele>69</ele>
        <time>2026-07-12T17:47:33.000Z</time>
      </trkpt>
      <trkpt lat="43.336" lon="-1.50627">
        <ele>73</ele>
        <time>2026-07-12T17:47:38.000Z</time>
      </trkpt>
      <trkpt lat="43.33605" lon="-1.506">
        <ele>75</ele>
        <time>2026-07-12T17:47:42.000Z</time>
      </trkpt>
      <trkpt lat="43.33607" lon="-1.50588">
        <ele>76</ele>
        <time>2026-07-12T17:47:44.000Z</time>
      </trkpt>
      <trkpt lat="43.33608" lon="-1.50575">
        <ele>76</ele>
        <time>2026-07-12T17:47:45.000Z</time>
      </trkpt>
      <trkpt lat="43.33609" lon="-1.50563">
        <ele>76</ele>
        <time>2026-07-12T17:47:47.000Z</time>
      </trkpt>
      <trkpt lat="43.33609" lon="-1.5055">
        <ele>76</ele>
        <time>2026-07-12T17:47:49.000Z</time>
      </trkpt>
      <trkpt lat="43.33607" lon="-1.50535">
        <ele>76</ele>
        <time>2026-07-12T17:47:51.000Z</time>
      </trkpt>
      <trkpt lat="43.33603" lon="-1.50513">
        <ele>77</ele>
        <time>2026-07-12T17:47:54.000Z</time>
      </trkpt>
      <trkpt lat="43.33601" lon="-1.50501">
        <ele>77</ele>
        <time>2026-07-12T17:47:55.000Z</time>
      </trkpt>
      <trkpt lat="43.33595" lon="-1.5048">
        <ele>77</ele>
        <time>2026-07-12T17:47:58.000Z</time>
      </trkpt>
      <trkpt lat="43.3359" lon="-1.50462">
        <ele>76</ele>
        <time>2026-07-12T17:48:01.000Z</time>
      </trkpt>
      <trkpt lat="43.33584" lon="-1.50442">
        <ele>75</ele>
        <time>2026-07-12T17:48:03.000Z</time>
      </trkpt>
      <trkpt lat="43.33576" lon="-1.50424">
        <ele>75</ele>
        <time>2026-07-12T17:48:06.000Z</time>
      </trkpt>
      <trkpt lat="43.3357" lon="-1.5041">
        <ele>75</ele>
        <time>2026-07-12T17:48:08.000Z</time>
      </trkpt>
      <trkpt lat="43.33563" lon="-1.50397">
        <ele>76</ele>
        <time>2026-07-12T17:48:10.000Z</time>
      </trkpt>
      <trkpt lat="43.33556" lon="-1.50386">
        <ele>76</ele>
        <time>2026-07-12T17:48:12.000Z</time>
      </trkpt>
      <trkpt lat="43.33545" lon="-1.50372">
        <ele>77</ele>
        <time>2026-07-12T17:48:15.000Z</time>
      </trkpt>
      <trkpt lat="43.33514" lon="-1.50333">
        <ele>75</ele>
        <time>2026-07-12T17:48:22.000Z</time>
      </trkpt>
      <trkpt lat="43.33504" lon="-1.5032">
        <ele>75</ele>
        <time>2026-07-12T17:48:25.000Z</time>
      </trkpt>
      <trkpt lat="43.33493" lon="-1.50305">
        <ele>75</ele>
        <time>2026-07-12T17:48:27.000Z</time>
      </trkpt>
      <trkpt lat="43.33482" lon="-1.50289">
        <ele>76</ele>
        <time>2026-07-12T17:48:30.000Z</time>
      </trkpt>
      <trkpt lat="43.33474" lon="-1.50275">
        <ele>76</ele>
        <time>2026-07-12T17:48:33.000Z</time>
      </trkpt>
      <trkpt lat="43.33468" lon="-1.50265">
        <ele>76</ele>
        <time>2026-07-12T17:48:34.000Z</time>
      </trkpt>
      <trkpt lat="43.33464" lon="-1.50255">
        <ele>77</ele>
        <time>2026-07-12T17:48:36.000Z</time>
      </trkpt>
      <trkpt lat="43.33454" lon="-1.50232">
        <ele>77</ele>
        <time>2026-07-12T17:48:39.000Z</time>
      </trkpt>
      <trkpt lat="43.33447" lon="-1.50212">
        <ele>77</ele>
        <time>2026-07-12T17:48:42.000Z</time>
      </trkpt>
      <trkpt lat="43.33437" lon="-1.50182">
        <ele>77</ele>
        <time>2026-07-12T17:48:46.000Z</time>
      </trkpt>
      <trkpt lat="43.33425" lon="-1.50147">
        <ele>77</ele>
        <time>2026-07-12T17:48:51.000Z</time>
      </trkpt>
      <trkpt lat="43.33409" lon="-1.501">
        <ele>78</ele>
        <time>2026-07-12T17:48:58.000Z</time>
      </trkpt>
      <trkpt lat="43.3339" lon="-1.50049">
        <ele>81</ele>
        <time>2026-07-12T17:49:06.000Z</time>
      </trkpt>
      <trkpt lat="43.33372" lon="-1.49994">
        <ele>82</ele>
        <time>2026-07-12T17:49:13.000Z</time>
      </trkpt>
      <trkpt lat="43.33346" lon="-1.49921">
        <ele>86</ele>
        <time>2026-07-12T17:49:24.000Z</time>
      </trkpt>
      <trkpt lat="43.33333" lon="-1.49884">
        <ele>88</ele>
        <time>2026-07-12T17:49:29.000Z</time>
      </trkpt>
      <trkpt lat="43.33325" lon="-1.49864">
        <ele>90</ele>
        <time>2026-07-12T17:49:32.000Z</time>
      </trkpt>
      <trkpt lat="43.33318" lon="-1.49838">
        <ele>92</ele>
        <time>2026-07-12T17:49:36.000Z</time>
      </trkpt>
      <trkpt lat="43.33316" lon="-1.49827">
        <ele>93</ele>
        <time>2026-07-12T17:49:37.000Z</time>
      </trkpt>
      <trkpt lat="43.33313" lon="-1.49812">
        <ele>93</ele>
        <time>2026-07-12T17:49:39.000Z</time>
      </trkpt>
      <trkpt lat="43.33311" lon="-1.49794">
        <ele>94</ele>
        <time>2026-07-12T17:49:42.000Z</time>
      </trkpt>
      <trkpt lat="43.3331" lon="-1.49773">
        <ele>94</ele>
        <time>2026-07-12T17:49:44.000Z</time>
      </trkpt>
      <trkpt lat="43.3331" lon="-1.49732">
        <ele>95</ele>
        <time>2026-07-12T17:49:50.000Z</time>
      </trkpt>
      <trkpt lat="43.33312" lon="-1.49701">
        <ele>96</ele>
        <time>2026-07-12T17:49:54.000Z</time>
      </trkpt>
      <trkpt lat="43.33315" lon="-1.49664">
        <ele>98</ele>
        <time>2026-07-12T17:49:58.000Z</time>
      </trkpt>
      <trkpt lat="43.33321" lon="-1.49618">
        <ele>101</ele>
        <time>2026-07-12T17:50:04.000Z</time>
      </trkpt>
      <trkpt lat="43.33327" lon="-1.49571">
        <ele>103</ele>
        <time>2026-07-12T17:50:11.000Z</time>
      </trkpt>
      <trkpt lat="43.33332" lon="-1.49533">
        <ele>104</ele>
        <time>2026-07-12T17:50:16.000Z</time>
      </trkpt>
      <trkpt lat="43.33334" lon="-1.49515">
        <ele>105</ele>
        <time>2026-07-12T17:50:18.000Z</time>
      </trkpt>
      <trkpt lat="43.33336" lon="-1.49499">
        <ele>106</ele>
        <time>2026-07-12T17:50:20.000Z</time>
      </trkpt>
      <trkpt lat="43.33336" lon="-1.49486">
        <ele>105</ele>
        <time>2026-07-12T17:50:22.000Z</time>
      </trkpt>
      <trkpt lat="43.33337" lon="-1.49469">
        <ele>105</ele>
        <time>2026-07-12T17:50:24.000Z</time>
      </trkpt>
      <trkpt lat="43.33337" lon="-1.49453">
        <ele>105</ele>
        <time>2026-07-12T17:50:26.000Z</time>
      </trkpt>
      <trkpt lat="43.33337" lon="-1.49439">
        <ele>104</ele>
        <time>2026-07-12T17:50:28.000Z</time>
      </trkpt>
      <trkpt lat="43.33337" lon="-1.49432">
        <ele>104</ele>
        <time>2026-07-12T17:50:29.000Z</time>
      </trkpt>
      <trkpt lat="43.33337" lon="-1.49424">
        <ele>104</ele>
        <time>2026-07-12T17:50:30.000Z</time>
      </trkpt>
      <trkpt lat="43.33337" lon="-1.49418">
        <ele>104</ele>
        <time>2026-07-12T17:50:31.000Z</time>
      </trkpt>
      <trkpt lat="43.33337" lon="-1.49405">
        <ele>104</ele>
        <time>2026-07-12T17:50:32.000Z</time>
      </trkpt>
      <trkpt lat="43.33336" lon="-1.49382">
        <ele>105</ele>
        <time>2026-07-12T17:50:35.000Z</time>
      </trkpt>
      <trkpt lat="43.33333" lon="-1.49346">
        <ele>106</ele>
        <time>2026-07-12T17:50:40.000Z</time>
      </trkpt>
      <trkpt lat="43.3333" lon="-1.49304">
        <ele>108</ele>
        <time>2026-07-12T17:50:45.000Z</time>
      </trkpt>
      <trkpt lat="43.33325" lon="-1.49228">
        <ele>111</ele>
        <time>2026-07-12T17:50:55.000Z</time>
      </trkpt>
      <trkpt lat="43.33321" lon="-1.49175">
        <ele>112</ele>
        <time>2026-07-12T17:51:02.000Z</time>
      </trkpt>
      <trkpt lat="43.33318" lon="-1.49134">
        <ele>115</ele>
        <time>2026-07-12T17:51:08.000Z</time>
      </trkpt>
      <trkpt lat="43.33317" lon="-1.49105">
        <ele>117</ele>
        <time>2026-07-12T17:51:11.000Z</time>
      </trkpt>
      <trkpt lat="43.33314" lon="-1.4907">
        <ele>119</ele>
        <time>2026-07-12T17:51:16.000Z</time>
      </trkpt>
      <trkpt lat="43.33312" lon="-1.49042">
        <ele>121</ele>
        <time>2026-07-12T17:51:19.000Z</time>
      </trkpt>
      <trkpt lat="43.33311" lon="-1.49031">
        <ele>121</ele>
        <time>2026-07-12T17:51:21.000Z</time>
      </trkpt>
      <trkpt lat="43.33309" lon="-1.49019">
        <ele>122</ele>
        <time>2026-07-12T17:51:23.000Z</time>
      </trkpt>
      <trkpt lat="43.33308" lon="-1.49013">
        <ele>122</ele>
        <time>2026-07-12T17:51:23.000Z</time>
      </trkpt>
      <trkpt lat="43.33306" lon="-1.49001">
        <ele>123</ele>
        <time>2026-07-12T17:51:25.000Z</time>
      </trkpt>
      <trkpt lat="43.33303" lon="-1.48988">
        <ele>124</ele>
        <time>2026-07-12T17:51:27.000Z</time>
      </trkpt>
      <trkpt lat="43.333" lon="-1.48979">
        <ele>124</ele>
        <time>2026-07-12T17:51:28.000Z</time>
      </trkpt>
      <trkpt lat="43.33295" lon="-1.48967">
        <ele>124</ele>
        <time>2026-07-12T17:51:30.000Z</time>
      </trkpt>
      <trkpt lat="43.33287" lon="-1.48949">
        <ele>124</ele>
        <time>2026-07-12T17:51:32.000Z</time>
      </trkpt>
      <trkpt lat="43.33287" lon="-1.48949">
        <ele>124</ele>
        <time>2026-07-12T17:51:32.000Z</time>
      </trkpt>
      <trkpt lat="43.33287" lon="-1.4895">
        <ele>124</ele>
        <time>2026-07-12T17:51:33.000Z</time>
      </trkpt>
      <trkpt lat="43.33286" lon="-1.4895">
        <ele>124</ele>
        <time>2026-07-12T17:51:33.000Z</time>
      </trkpt>
      <trkpt lat="43.33285" lon="-1.48951">
        <ele>124</ele>
        <time>2026-07-12T17:51:33.000Z</time>
      </trkpt>
      <trkpt lat="43.33284" lon="-1.48951">
        <ele>125</ele>
        <time>2026-07-12T17:51:33.000Z</time>
      </trkpt>
      <trkpt lat="43.33283" lon="-1.48951">
        <ele>125</ele>
        <time>2026-07-12T17:51:33.000Z</time>
      </trkpt>
      <trkpt lat="43.33282" lon="-1.48951">
        <ele>125</ele>
        <time>2026-07-12T17:51:34.000Z</time>
      </trkpt>
      <trkpt lat="43.33281" lon="-1.48951">
        <ele>125</ele>
        <time>2026-07-12T17:51:34.000Z</time>
      </trkpt>
      <trkpt lat="43.3328" lon="-1.48951">
        <ele>125</ele>
        <time>2026-07-12T17:51:34.000Z</time>
      </trkpt>
      <trkpt lat="43.33279" lon="-1.48951">
        <ele>125</ele>
        <time>2026-07-12T17:51:34.000Z</time>
      </trkpt>
      <trkpt lat="43.33279" lon="-1.4895">
        <ele>125</ele>
        <time>2026-07-12T17:51:34.000Z</time>
      </trkpt>
      <trkpt lat="43.33278" lon="-1.4895">
        <ele>125</ele>
        <time>2026-07-12T17:51:34.000Z</time>
      </trkpt>
      <trkpt lat="43.33277" lon="-1.4895">
        <ele>125</ele>
        <time>2026-07-12T17:51:35.000Z</time>
      </trkpt>
      <trkpt lat="43.33277" lon="-1.48949">
        <ele>125</ele>
        <time>2026-07-12T17:51:35.000Z</time>
      </trkpt>
      <trkpt lat="43.33276" lon="-1.48949">
        <ele>125</ele>
        <time>2026-07-12T17:51:35.000Z</time>
      </trkpt>
      <trkpt lat="43.33276" lon="-1.48948">
        <ele>125</ele>
        <time>2026-07-12T17:51:35.000Z</time>
      </trkpt>
      <trkpt lat="43.33275" lon="-1.48948">
        <ele>125</ele>
        <time>2026-07-12T17:51:35.000Z</time>
      </trkpt>
      <trkpt lat="43.33275" lon="-1.48947">
        <ele>125</ele>
        <time>2026-07-12T17:51:35.000Z</time>
      </trkpt>
      <trkpt lat="43.33274" lon="-1.48946">
        <ele>125</ele>
        <time>2026-07-12T17:51:36.000Z</time>
      </trkpt>
      <trkpt lat="43.33274" lon="-1.48945">
        <ele>125</ele>
        <time>2026-07-12T17:51:36.000Z</time>
      </trkpt>
      <trkpt lat="43.33273" lon="-1.48945">
        <ele>125</ele>
        <time>2026-07-12T17:51:36.000Z</time>
      </trkpt>
      <trkpt lat="43.33273" lon="-1.48944">
        <ele>125</ele>
        <time>2026-07-12T17:51:36.000Z</time>
      </trkpt>
      <trkpt lat="43.33273" lon="-1.48943">
        <ele>125</ele>
        <time>2026-07-12T17:51:36.000Z</time>
      </trkpt>
      <trkpt lat="43.33272" lon="-1.48942">
        <ele>125</ele>
        <time>2026-07-12T17:51:36.000Z</time>
      </trkpt>
      <trkpt lat="43.33272" lon="-1.48941">
        <ele>125</ele>
        <time>2026-07-12T17:51:36.000Z</time>
      </trkpt>
      <trkpt lat="43.33272" lon="-1.4894">
        <ele>125</ele>
        <time>2026-07-12T17:51:37.000Z</time>
      </trkpt>
      <trkpt lat="43.33272" lon="-1.48939">
        <ele>124</ele>
        <time>2026-07-12T17:51:37.000Z</time>
      </trkpt>
      <trkpt lat="43.33272" lon="-1.48938">
        <ele>124</ele>
        <time>2026-07-12T17:51:37.000Z</time>
      </trkpt>
      <trkpt lat="43.33272" lon="-1.48937">
        <ele>124</ele>
        <time>2026-07-12T17:51:37.000Z</time>
      </trkpt>
      <trkpt lat="43.33272" lon="-1.48936">
        <ele>124</ele>
        <time>2026-07-12T17:51:37.000Z</time>
      </trkpt>
      <trkpt lat="43.33272" lon="-1.48935">
        <ele>124</ele>
        <time>2026-07-12T17:51:37.000Z</time>
      </trkpt>
      <trkpt lat="43.33272" lon="-1.48934">
        <ele>124</ele>
        <time>2026-07-12T17:51:37.000Z</time>
      </trkpt>
      <trkpt lat="43.33272" lon="-1.48933">
        <ele>124</ele>
        <time>2026-07-12T17:51:37.000Z</time>
      </trkpt>
      <trkpt lat="43.33272" lon="-1.48932">
        <ele>124</ele>
        <time>2026-07-12T17:51:38.000Z</time>
      </trkpt>
      <trkpt lat="43.33272" lon="-1.48931">
        <ele>124</ele>
        <time>2026-07-12T17:51:38.000Z</time>
      </trkpt>
      <trkpt lat="43.33273" lon="-1.4893">
        <ele>124</ele>
        <time>2026-07-12T17:51:38.000Z</time>
      </trkpt>
      <trkpt lat="43.33273" lon="-1.48929">
        <ele>124</ele>
        <time>2026-07-12T17:51:38.000Z</time>
      </trkpt>
      <trkpt lat="43.33274" lon="-1.48928">
        <ele>124</ele>
        <time>2026-07-12T17:51:38.000Z</time>
      </trkpt>
      <trkpt lat="43.33274" lon="-1.48927">
        <ele>124</ele>
        <time>2026-07-12T17:51:38.000Z</time>
      </trkpt>
      <trkpt lat="43.33275" lon="-1.48926">
        <ele>124</ele>
        <time>2026-07-12T17:51:39.000Z</time>
      </trkpt>
      <trkpt lat="43.33276" lon="-1.48925">
        <ele>123</ele>
        <time>2026-07-12T17:51:39.000Z</time>
      </trkpt>
      <trkpt lat="43.33276" lon="-1.48924">
        <ele>123</ele>
        <time>2026-07-12T17:51:39.000Z</time>
      </trkpt>
      <trkpt lat="43.33277" lon="-1.48924">
        <ele>123</ele>
        <time>2026-07-12T17:51:39.000Z</time>
      </trkpt>
      <trkpt lat="43.33278" lon="-1.48923">
        <ele>123</ele>
        <time>2026-07-12T17:51:39.000Z</time>
      </trkpt>
      <trkpt lat="43.33279" lon="-1.48923">
        <ele>123</ele>
        <time>2026-07-12T17:51:40.000Z</time>
      </trkpt>
      <trkpt lat="43.3328" lon="-1.48922">
        <ele>123</ele>
        <time>2026-07-12T17:51:40.000Z</time>
      </trkpt>
      <trkpt lat="43.33281" lon="-1.48922">
        <ele>123</ele>
        <time>2026-07-12T17:51:40.000Z</time>
      </trkpt>
      <trkpt lat="43.33282" lon="-1.48922">
        <ele>123</ele>
        <time>2026-07-12T17:51:40.000Z</time>
      </trkpt>
      <trkpt lat="43.33283" lon="-1.48922">
        <ele>123</ele>
        <time>2026-07-12T17:51:40.000Z</time>
      </trkpt>
      <trkpt lat="43.33283" lon="-1.48914">
        <ele>123</ele>
        <time>2026-07-12T17:51:41.000Z</time>
      </trkpt>
      <trkpt lat="43.33283" lon="-1.48903">
        <ele>123</ele>
        <time>2026-07-12T17:51:43.000Z</time>
      </trkpt>
      <trkpt lat="43.33284" lon="-1.48874">
        <ele>122</ele>
        <time>2026-07-12T17:51:47.000Z</time>
      </trkpt>
      <trkpt lat="43.33286" lon="-1.48865">
        <ele>122</ele>
        <time>2026-07-12T17:51:48.000Z</time>
      </trkpt>
      <trkpt lat="43.33287" lon="-1.48855">
        <ele>122</ele>
        <time>2026-07-12T17:51:49.000Z</time>
      </trkpt>
      <trkpt lat="43.3329" lon="-1.48846">
        <ele>122</ele>
        <time>2026-07-12T17:51:50.000Z</time>
      </trkpt>
      <trkpt lat="43.33291" lon="-1.4884">
        <ele>122</ele>
        <time>2026-07-12T17:51:51.000Z</time>
      </trkpt>
      <trkpt lat="43.33296" lon="-1.48827">
        <ele>121</ele>
        <time>2026-07-12T17:51:53.000Z</time>
      </trkpt>
      <trkpt lat="43.33302" lon="-1.48811">
        <ele>121</ele>
        <time>2026-07-12T17:51:55.000Z</time>
      </trkpt>
      <trkpt lat="43.33307" lon="-1.488">
        <ele>120</ele>
        <time>2026-07-12T17:51:57.000Z</time>
      </trkpt>
      <trkpt lat="43.33315" lon="-1.48785">
        <ele>120</ele>
        <time>2026-07-12T17:51:59.000Z</time>
      </trkpt>
      <trkpt lat="43.33322" lon="-1.48773">
        <ele>119</ele>
        <time>2026-07-12T17:52:01.000Z</time>
      </trkpt>
      <trkpt lat="43.3333" lon="-1.48757">
        <ele>118</ele>
        <time>2026-07-12T17:52:04.000Z</time>
      </trkpt>
      <trkpt lat="43.33337" lon="-1.48747">
        <ele>118</ele>
        <time>2026-07-12T17:52:06.000Z</time>
      </trkpt>
      <trkpt lat="43.33343" lon="-1.48738">
        <ele>117</ele>
        <time>2026-07-12T17:52:07.000Z</time>
      </trkpt>
      <trkpt lat="43.3335" lon="-1.48728">
        <ele>116</ele>
        <time>2026-07-12T17:52:09.000Z</time>
      </trkpt>
      <trkpt lat="43.33356" lon="-1.48721">
        <ele>115</ele>
        <time>2026-07-12T17:52:11.000Z</time>
      </trkpt>
      <trkpt lat="43.33362" lon="-1.48714">
        <ele>114</ele>
        <time>2026-07-12T17:52:12.000Z</time>
      </trkpt>
      <trkpt lat="43.33376" lon="-1.48698">
        <ele>113</ele>
        <time>2026-07-12T17:52:15.000Z</time>
      </trkpt>
      <trkpt lat="43.33385" lon="-1.48689">
        <ele>112</ele>
        <time>2026-07-12T17:52:17.000Z</time>
      </trkpt>
      <trkpt lat="43.33395" lon="-1.4868">
        <ele>111</ele>
        <time>2026-07-12T17:52:19.000Z</time>
      </trkpt>
      <trkpt lat="43.33402" lon="-1.4867">
        <ele>111</ele>
        <time>2026-07-12T17:52:21.000Z</time>
      </trkpt>
      <trkpt lat="43.33411" lon="-1.48658">
        <ele>110</ele>
        <time>2026-07-12T17:52:23.000Z</time>
      </trkpt>
      <trkpt lat="43.33417" lon="-1.48648">
        <ele>110</ele>
        <time>2026-07-12T17:52:25.000Z</time>
      </trkpt>
      <trkpt lat="43.33423" lon="-1.48636">
        <ele>110</ele>
        <time>2026-07-12T17:52:27.000Z</time>
      </trkpt>
      <trkpt lat="43.33428" lon="-1.48623">
        <ele>111</ele>
        <time>2026-07-12T17:52:29.000Z</time>
      </trkpt>
      <trkpt lat="43.33432" lon="-1.48611">
        <ele>111</ele>
        <time>2026-07-12T17:52:30.000Z</time>
      </trkpt>
      <trkpt lat="43.33437" lon="-1.48596">
        <ele>111</ele>
        <time>2026-07-12T17:52:33.000Z</time>
      </trkpt>
      <trkpt lat="43.3344" lon="-1.48583">
        <ele>111</ele>
        <time>2026-07-12T17:52:34.000Z</time>
      </trkpt>
      <trkpt lat="43.33442" lon="-1.48569">
        <ele>110</ele>
        <time>2026-07-12T17:52:36.000Z</time>
      </trkpt>
      <trkpt lat="43.33446" lon="-1.48533">
        <ele>108</ele>
        <time>2026-07-12T17:52:41.000Z</time>
      </trkpt>
      <trkpt lat="43.3345" lon="-1.48513">
        <ele>108</ele>
        <time>2026-07-12T17:52:44.000Z</time>
      </trkpt>
      <trkpt lat="43.33454" lon="-1.48494">
        <ele>107</ele>
        <time>2026-07-12T17:52:46.000Z</time>
      </trkpt>
      <trkpt lat="43.33457" lon="-1.48481">
        <ele>106</ele>
        <time>2026-07-12T17:52:48.000Z</time>
      </trkpt>
      <trkpt lat="43.33461" lon="-1.48469">
        <ele>105</ele>
        <time>2026-07-12T17:52:50.000Z</time>
      </trkpt>
      <trkpt lat="43.33466" lon="-1.48456">
        <ele>105</ele>
        <time>2026-07-12T17:52:52.000Z</time>
      </trkpt>
      <trkpt lat="43.3347" lon="-1.48444">
        <ele>104</ele>
        <time>2026-07-12T17:52:53.000Z</time>
      </trkpt>
      <trkpt lat="43.33475" lon="-1.48432">
        <ele>103</ele>
        <time>2026-07-12T17:52:55.000Z</time>
      </trkpt>
      <trkpt lat="43.33482" lon="-1.4842">
        <ele>103</ele>
        <time>2026-07-12T17:52:57.000Z</time>
      </trkpt>
      <trkpt lat="43.33488" lon="-1.48406">
        <ele>102</ele>
        <time>2026-07-12T17:52:59.000Z</time>
      </trkpt>
      <trkpt lat="43.33497" lon="-1.48391">
        <ele>101</ele>
        <time>2026-07-12T17:53:02.000Z</time>
      </trkpt>
      <trkpt lat="43.33505" lon="-1.48376">
        <ele>100</ele>
        <time>2026-07-12T17:53:04.000Z</time>
      </trkpt>
      <trkpt lat="43.33516" lon="-1.48356">
        <ele>99</ele>
        <time>2026-07-12T17:53:07.000Z</time>
      </trkpt>
      <trkpt lat="43.33529" lon="-1.48335">
        <ele>99</ele>
        <time>2026-07-12T17:53:11.000Z</time>
      </trkpt>
      <trkpt lat="43.33537" lon="-1.48321">
        <ele>99</ele>
        <time>2026-07-12T17:53:13.000Z</time>
      </trkpt>
      <trkpt lat="43.33544" lon="-1.48305">
        <ele>99</ele>
        <time>2026-07-12T17:53:16.000Z</time>
      </trkpt>
      <trkpt lat="43.33554" lon="-1.48281">
        <ele>98</ele>
        <time>2026-07-12T17:53:19.000Z</time>
      </trkpt>
      <trkpt lat="43.33557" lon="-1.48272">
        <ele>98</ele>
        <time>2026-07-12T17:53:20.000Z</time>
      </trkpt>
      <trkpt lat="43.33561" lon="-1.48261">
        <ele>97</ele>
        <time>2026-07-12T17:53:22.000Z</time>
      </trkpt>
      <trkpt lat="43.33564" lon="-1.4825">
        <ele>97</ele>
        <time>2026-07-12T17:53:24.000Z</time>
      </trkpt>
      <trkpt lat="43.33568" lon="-1.48235">
        <ele>96</ele>
        <time>2026-07-12T17:53:26.000Z</time>
      </trkpt>
      <trkpt lat="43.33571" lon="-1.48215">
        <ele>95</ele>
        <time>2026-07-12T17:53:28.000Z</time>
      </trkpt>
      <trkpt lat="43.33574" lon="-1.48197">
        <ele>94</ele>
        <time>2026-07-12T17:53:31.000Z</time>
      </trkpt>
      <trkpt lat="43.33577" lon="-1.4818">
        <ele>93</ele>
        <time>2026-07-12T17:53:33.000Z</time>
      </trkpt>
      <trkpt lat="43.33581" lon="-1.48154">
        <ele>92</ele>
        <time>2026-07-12T17:53:36.000Z</time>
      </trkpt>
      <trkpt lat="43.33583" lon="-1.48136">
        <ele>91</ele>
        <time>2026-07-12T17:53:39.000Z</time>
      </trkpt>
      <trkpt lat="43.33593" lon="-1.48064">
        <ele>87</ele>
        <time>2026-07-12T17:53:48.000Z</time>
      </trkpt>
      <trkpt lat="43.33601" lon="-1.47995">
        <ele>84</ele>
        <time>2026-07-12T17:53:57.000Z</time>
      </trkpt>
      <trkpt lat="43.33612" lon="-1.47909">
        <ele>79</ele>
        <time>2026-07-12T17:54:09.000Z</time>
      </trkpt>
      <trkpt lat="43.3362" lon="-1.47851">
        <ele>76</ele>
        <time>2026-07-12T17:54:16.000Z</time>
      </trkpt>
      <trkpt lat="43.33623" lon="-1.47834">
        <ele>75</ele>
        <time>2026-07-12T17:54:18.000Z</time>
      </trkpt>
      <trkpt lat="43.33627" lon="-1.47815">
        <ele>74</ele>
        <time>2026-07-12T17:54:21.000Z</time>
      </trkpt>
      <trkpt lat="43.3363" lon="-1.47805">
        <ele>74</ele>
        <time>2026-07-12T17:54:22.000Z</time>
      </trkpt>
      <trkpt lat="43.33633" lon="-1.47797">
        <ele>73</ele>
        <time>2026-07-12T17:54:24.000Z</time>
      </trkpt>
      <trkpt lat="43.33639" lon="-1.47786">
        <ele>73</ele>
        <time>2026-07-12T17:54:25.000Z</time>
      </trkpt>
      <trkpt lat="43.33644" lon="-1.47776">
        <ele>72</ele>
        <time>2026-07-12T17:54:27.000Z</time>
      </trkpt>
      <trkpt lat="43.33649" lon="-1.47768">
        <ele>72</ele>
        <time>2026-07-12T17:54:28.000Z</time>
      </trkpt>
      <trkpt lat="43.33655" lon="-1.4776">
        <ele>72</ele>
        <time>2026-07-12T17:54:30.000Z</time>
      </trkpt>
      <trkpt lat="43.33663" lon="-1.47753">
        <ele>71</ele>
        <time>2026-07-12T17:54:31.000Z</time>
      </trkpt>
      <trkpt lat="43.33671" lon="-1.47745">
        <ele>71</ele>
        <time>2026-07-12T17:54:33.000Z</time>
      </trkpt>
      <trkpt lat="43.33678" lon="-1.47739">
        <ele>70</ele>
        <time>2026-07-12T17:54:35.000Z</time>
      </trkpt>
      <trkpt lat="43.33685" lon="-1.47736">
        <ele>70</ele>
        <time>2026-07-12T17:54:36.000Z</time>
      </trkpt>
      <trkpt lat="43.33693" lon="-1.47732">
        <ele>70</ele>
        <time>2026-07-12T17:54:38.000Z</time>
      </trkpt>
      <trkpt lat="43.33701" lon="-1.47729">
        <ele>69</ele>
        <time>2026-07-12T17:54:39.000Z</time>
      </trkpt>
      <trkpt lat="43.33708" lon="-1.47728">
        <ele>69</ele>
        <time>2026-07-12T17:54:40.000Z</time>
      </trkpt>
      <trkpt lat="43.33716" lon="-1.47726">
        <ele>69</ele>
        <time>2026-07-12T17:54:42.000Z</time>
      </trkpt>
      <trkpt lat="43.33726" lon="-1.47726">
        <ele>68</ele>
        <time>2026-07-12T17:54:43.000Z</time>
      </trkpt>
      <trkpt lat="43.33736" lon="-1.47727">
        <ele>68</ele>
        <time>2026-07-12T17:54:45.000Z</time>
      </trkpt>
      <trkpt lat="43.33745" lon="-1.47729">
        <ele>67</ele>
        <time>2026-07-12T17:54:47.000Z</time>
      </trkpt>
      <trkpt lat="43.33765" lon="-1.47734">
        <ele>67</ele>
        <time>2026-07-12T17:54:51.000Z</time>
      </trkpt>
      <trkpt lat="43.33797" lon="-1.47743">
        <ele>66</ele>
        <time>2026-07-12T17:54:56.000Z</time>
      </trkpt>
      <trkpt lat="43.33819" lon="-1.47749">
        <ele>65</ele>
        <time>2026-07-12T17:55:00.000Z</time>
      </trkpt>
      <trkpt lat="43.33826" lon="-1.47751">
        <ele>65</ele>
        <time>2026-07-12T17:55:02.000Z</time>
      </trkpt>
      <trkpt lat="43.33835" lon="-1.47753">
        <ele>65</ele>
        <time>2026-07-12T17:55:03.000Z</time>
      </trkpt>
      <trkpt lat="43.33846" lon="-1.47754">
        <ele>65</ele>
        <time>2026-07-12T17:55:05.000Z</time>
      </trkpt>
      <trkpt lat="43.33857" lon="-1.47754">
        <ele>65</ele>
        <time>2026-07-12T17:55:07.000Z</time>
      </trkpt>
      <trkpt lat="43.33869" lon="-1.47754">
        <ele>65</ele>
        <time>2026-07-12T17:55:09.000Z</time>
      </trkpt>
      <trkpt lat="43.33875" lon="-1.47754">
        <ele>65</ele>
        <time>2026-07-12T17:55:10.000Z</time>
      </trkpt>
      <trkpt lat="43.33882" lon="-1.47753">
        <ele>65</ele>
        <time>2026-07-12T17:55:12.000Z</time>
      </trkpt>
      <trkpt lat="43.33889" lon="-1.47752">
        <ele>65</ele>
        <time>2026-07-12T17:55:13.000Z</time>
      </trkpt>
      <trkpt lat="43.33899" lon="-1.4775">
        <ele>65</ele>
        <time>2026-07-12T17:55:15.000Z</time>
      </trkpt>
      <trkpt lat="43.33912" lon="-1.47744">
        <ele>65</ele>
        <time>2026-07-12T17:55:17.000Z</time>
      </trkpt>
      <trkpt lat="43.3392" lon="-1.4774">
        <ele>65</ele>
        <time>2026-07-12T17:55:19.000Z</time>
      </trkpt>
      <trkpt lat="43.33928" lon="-1.47735">
        <ele>66</ele>
        <time>2026-07-12T17:55:20.000Z</time>
      </trkpt>
      <trkpt lat="43.33942" lon="-1.47726">
        <ele>67</ele>
        <time>2026-07-12T17:55:23.000Z</time>
      </trkpt>
      <trkpt lat="43.33955" lon="-1.47715">
        <ele>67</ele>
        <time>2026-07-12T17:55:26.000Z</time>
      </trkpt>
      <trkpt lat="43.33967" lon="-1.47703">
        <ele>68</ele>
        <time>2026-07-12T17:55:28.000Z</time>
      </trkpt>
      <trkpt lat="43.33979" lon="-1.4769">
        <ele>68</ele>
        <time>2026-07-12T17:55:31.000Z</time>
      </trkpt>
      <trkpt lat="43.33992" lon="-1.47675">
        <ele>67</ele>
        <time>2026-07-12T17:55:34.000Z</time>
      </trkpt>
      <trkpt lat="43.34004" lon="-1.47659">
        <ele>67</ele>
        <time>2026-07-12T17:55:37.000Z</time>
      </trkpt>
      <trkpt lat="43.34008" lon="-1.47648">
        <ele>67</ele>
        <time>2026-07-12T17:55:39.000Z</time>
      </trkpt>
      <trkpt lat="43.3402" lon="-1.47632">
        <ele>68</ele>
        <time>2026-07-12T17:55:42.000Z</time>
      </trkpt>
      <trkpt lat="43.34029" lon="-1.47618">
        <ele>68</ele>
        <time>2026-07-12T17:55:44.000Z</time>
      </trkpt>
      <trkpt lat="43.34038" lon="-1.47604">
        <ele>68</ele>
        <time>2026-07-12T17:55:46.000Z</time>
      </trkpt>
      <trkpt lat="43.34054" lon="-1.47577">
        <ele>68</ele>
        <time>2026-07-12T17:55:51.000Z</time>
      </trkpt>
      <trkpt lat="43.34058" lon="-1.47569">
        <ele>68</ele>
        <time>2026-07-12T17:55:52.000Z</time>
      </trkpt>
      <trkpt lat="43.34062" lon="-1.47563">
        <ele>68</ele>
        <time>2026-07-12T17:55:53.000Z</time>
      </trkpt>
      <trkpt lat="43.34067" lon="-1.47554">
        <ele>67</ele>
        <time>2026-07-12T17:55:55.000Z</time>
      </trkpt>
      <trkpt lat="43.34069" lon="-1.47549">
        <ele>67</ele>
        <time>2026-07-12T17:55:55.000Z</time>
      </trkpt>
      <trkpt lat="43.34073" lon="-1.47538">
        <ele>66</ele>
        <time>2026-07-12T17:55:57.000Z</time>
      </trkpt>
      <trkpt lat="43.34073" lon="-1.47538">
        <ele>66</ele>
        <time>2026-07-12T17:55:57.000Z</time>
      </trkpt>
      <trkpt lat="43.34072" lon="-1.47537">
        <ele>66</ele>
        <time>2026-07-12T17:55:57.000Z</time>
      </trkpt>
      <trkpt lat="43.34072" lon="-1.47536">
        <ele>66</ele>
        <time>2026-07-12T17:55:57.000Z</time>
      </trkpt>
      <trkpt lat="43.34072" lon="-1.47535">
        <ele>66</ele>
        <time>2026-07-12T17:55:57.000Z</time>
      </trkpt>
      <trkpt lat="43.34072" lon="-1.47534">
        <ele>66</ele>
        <time>2026-07-12T17:55:58.000Z</time>
      </trkpt>
      <trkpt lat="43.34071" lon="-1.47533">
        <ele>66</ele>
        <time>2026-07-12T17:55:58.000Z</time>
      </trkpt>
      <trkpt lat="43.34071" lon="-1.47532">
        <ele>66</ele>
        <time>2026-07-12T17:55:58.000Z</time>
      </trkpt>
      <trkpt lat="43.34071" lon="-1.47531">
        <ele>66</ele>
        <time>2026-07-12T17:55:58.000Z</time>
      </trkpt>
      <trkpt lat="43.34071" lon="-1.4753">
        <ele>66</ele>
        <time>2026-07-12T17:55:58.000Z</time>
      </trkpt>
      <trkpt lat="43.34071" lon="-1.47529">
        <ele>66</ele>
        <time>2026-07-12T17:55:58.000Z</time>
      </trkpt>
      <trkpt lat="43.34071" lon="-1.47528">
        <ele>66</ele>
        <time>2026-07-12T17:55:58.000Z</time>
      </trkpt>
      <trkpt lat="43.34072" lon="-1.47527">
        <ele>66</ele>
        <time>2026-07-12T17:55:59.000Z</time>
      </trkpt>
      <trkpt lat="43.34072" lon="-1.47526">
        <ele>66</ele>
        <time>2026-07-12T17:55:59.000Z</time>
      </trkpt>
      <trkpt lat="43.34072" lon="-1.47525">
        <ele>66</ele>
        <time>2026-07-12T17:55:59.000Z</time>
      </trkpt>
      <trkpt lat="43.34072" lon="-1.47524">
        <ele>66</ele>
        <time>2026-07-12T17:55:59.000Z</time>
      </trkpt>
      <trkpt lat="43.34073" lon="-1.47524">
        <ele>65</ele>
        <time>2026-07-12T17:55:59.000Z</time>
      </trkpt>
      <trkpt lat="43.34073" lon="-1.47523">
        <ele>65</ele>
        <time>2026-07-12T17:55:59.000Z</time>
      </trkpt>
      <trkpt lat="43.34073" lon="-1.47522">
        <ele>65</ele>
        <time>2026-07-12T17:56:00.000Z</time>
      </trkpt>
      <trkpt lat="43.34074" lon="-1.47522">
        <ele>65</ele>
        <time>2026-07-12T17:56:00.000Z</time>
      </trkpt>
      <trkpt lat="43.34074" lon="-1.47521">
        <ele>65</ele>
        <time>2026-07-12T17:56:00.000Z</time>
      </trkpt>
      <trkpt lat="43.34075" lon="-1.4752">
        <ele>65</ele>
        <time>2026-07-12T17:56:00.000Z</time>
      </trkpt>
      <trkpt lat="43.34076" lon="-1.47519">
        <ele>65</ele>
        <time>2026-07-12T17:56:00.000Z</time>
      </trkpt>
      <trkpt lat="43.34077" lon="-1.47518">
        <ele>65</ele>
        <time>2026-07-12T17:56:00.000Z</time>
      </trkpt>
      <trkpt lat="43.34078" lon="-1.47518">
        <ele>65</ele>
        <time>2026-07-12T17:56:01.000Z</time>
      </trkpt>
      <trkpt lat="43.34079" lon="-1.47517">
        <ele>65</ele>
        <time>2026-07-12T17:56:01.000Z</time>
      </trkpt>
      <trkpt lat="43.34082" lon="-1.47503">
        <ele>63</ele>
        <time>2026-07-12T17:56:03.000Z</time>
      </trkpt>
      <trkpt lat="43.34085" lon="-1.47486">
        <ele>63</ele>
        <time>2026-07-12T17:56:05.000Z</time>
      </trkpt>
      <trkpt lat="43.34086" lon="-1.47473">
        <ele>64</ele>
        <time>2026-07-12T17:56:07.000Z</time>
      </trkpt>
      <trkpt lat="43.34086" lon="-1.4746">
        <ele>64</ele>
        <time>2026-07-12T17:56:08.000Z</time>
      </trkpt>
      <trkpt lat="43.34086" lon="-1.4745">
        <ele>64</ele>
        <time>2026-07-12T17:56:10.000Z</time>
      </trkpt>
      <trkpt lat="43.34084" lon="-1.47429">
        <ele>65</ele>
        <time>2026-07-12T17:56:12.000Z</time>
      </trkpt>
      <trkpt lat="43.34084" lon="-1.47417">
        <ele>65</ele>
        <time>2026-07-12T17:56:14.000Z</time>
      </trkpt>
      <trkpt lat="43.34082" lon="-1.47404">
        <ele>65</ele>
        <time>2026-07-12T17:56:16.000Z</time>
      </trkpt>
      <trkpt lat="43.34078" lon="-1.47373">
        <ele>66</ele>
        <time>2026-07-12T17:56:20.000Z</time>
      </trkpt>
      <trkpt lat="43.34075" lon="-1.47354">
        <ele>66</ele>
        <time>2026-07-12T17:56:22.000Z</time>
      </trkpt>
      <trkpt lat="43.34074" lon="-1.47343">
        <ele>66</ele>
        <time>2026-07-12T17:56:24.000Z</time>
      </trkpt>
      <trkpt lat="43.34073" lon="-1.47332">
        <ele>67</ele>
        <time>2026-07-12T17:56:25.000Z</time>
      </trkpt>
      <trkpt lat="43.34073" lon="-1.47321">
        <ele>66</ele>
        <time>2026-07-12T17:56:27.000Z</time>
      </trkpt>
      <trkpt lat="43.34073" lon="-1.47309">
        <ele>66</ele>
        <time>2026-07-12T17:56:28.000Z</time>
      </trkpt>
      <trkpt lat="43.34074" lon="-1.47297">
        <ele>65</ele>
        <time>2026-07-12T17:56:30.000Z</time>
      </trkpt>
      <trkpt lat="43.34074" lon="-1.47297">
        <ele>65</ele>
        <time>2026-07-12T17:56:30.000Z</time>
      </trkpt>
      <trkpt lat="43.34073" lon="-1.47297">
        <ele>65</ele>
        <time>2026-07-12T17:56:30.000Z</time>
      </trkpt>
      <trkpt lat="43.34073" lon="-1.47296">
        <ele>65</ele>
        <time>2026-07-12T17:56:30.000Z</time>
      </trkpt>
      <trkpt lat="43.34072" lon="-1.47296">
        <ele>65</ele>
        <time>2026-07-12T17:56:30.000Z</time>
      </trkpt>
      <trkpt lat="43.34071" lon="-1.47295">
        <ele>65</ele>
        <time>2026-07-12T17:56:30.000Z</time>
      </trkpt>
      <trkpt lat="43.3407" lon="-1.47294">
        <ele>65</ele>
        <time>2026-07-12T17:56:31.000Z</time>
      </trkpt>
      <trkpt lat="43.34069" lon="-1.47294">
        <ele>66</ele>
        <time>2026-07-12T17:56:31.000Z</time>
      </trkpt>
      <trkpt lat="43.34069" lon="-1.47293">
        <ele>65</ele>
        <time>2026-07-12T17:56:31.000Z</time>
      </trkpt>
      <trkpt lat="43.34068" lon="-1.47292">
        <ele>66</ele>
        <time>2026-07-12T17:56:31.000Z</time>
      </trkpt>
      <trkpt lat="43.34068" lon="-1.47291">
        <ele>66</ele>
        <time>2026-07-12T17:56:31.000Z</time>
      </trkpt>
      <trkpt lat="43.34067" lon="-1.47291">
        <ele>66</ele>
        <time>2026-07-12T17:56:31.000Z</time>
      </trkpt>
      <trkpt lat="43.34067" lon="-1.4729">
        <ele>66</ele>
        <time>2026-07-12T17:56:32.000Z</time>
      </trkpt>
      <trkpt lat="43.34067" lon="-1.47289">
        <ele>66</ele>
        <time>2026-07-12T17:56:32.000Z</time>
      </trkpt>
      <trkpt lat="43.34066" lon="-1.47288">
        <ele>66</ele>
        <time>2026-07-12T17:56:32.000Z</time>
      </trkpt>
      <trkpt lat="43.34066" lon="-1.47287">
        <ele>66</ele>
        <time>2026-07-12T17:56:32.000Z</time>
      </trkpt>
      <trkpt lat="43.34066" lon="-1.47286">
        <ele>66</ele>
        <time>2026-07-12T17:56:32.000Z</time>
      </trkpt>
      <trkpt lat="43.34065" lon="-1.47285">
        <ele>66</ele>
        <time>2026-07-12T17:56:32.000Z</time>
      </trkpt>
      <trkpt lat="43.34065" lon="-1.47284">
        <ele>66</ele>
        <time>2026-07-12T17:56:33.000Z</time>
      </trkpt>
      <trkpt lat="43.34065" lon="-1.47283">
        <ele>66</ele>
        <time>2026-07-12T17:56:33.000Z</time>
      </trkpt>
      <trkpt lat="43.34065" lon="-1.47282">
        <ele>66</ele>
        <time>2026-07-12T17:56:33.000Z</time>
      </trkpt>
      <trkpt lat="43.34065" lon="-1.47281">
        <ele>66</ele>
        <time>2026-07-12T17:56:33.000Z</time>
      </trkpt>
      <trkpt lat="43.34065" lon="-1.4728">
        <ele>66</ele>
        <time>2026-07-12T17:56:33.000Z</time>
      </trkpt>
      <trkpt lat="43.34065" lon="-1.47279">
        <ele>66</ele>
        <time>2026-07-12T17:56:33.000Z</time>
      </trkpt>
      <trkpt lat="43.34065" lon="-1.47278">
        <ele>65</ele>
        <time>2026-07-12T17:56:33.000Z</time>
      </trkpt>
      <trkpt lat="43.34065" lon="-1.47277">
        <ele>65</ele>
        <time>2026-07-12T17:56:33.000Z</time>
      </trkpt>
      <trkpt lat="43.34065" lon="-1.47276">
        <ele>65</ele>
        <time>2026-07-12T17:56:34.000Z</time>
      </trkpt>
      <trkpt lat="43.34065" lon="-1.47275">
        <ele>65</ele>
        <time>2026-07-12T17:56:34.000Z</time>
      </trkpt>
      <trkpt lat="43.34066" lon="-1.47274">
        <ele>65</ele>
        <time>2026-07-12T17:56:34.000Z</time>
      </trkpt>
      <trkpt lat="43.34066" lon="-1.47273">
        <ele>65</ele>
        <time>2026-07-12T17:56:34.000Z</time>
      </trkpt>
      <trkpt lat="43.34066" lon="-1.47272">
        <ele>65</ele>
        <time>2026-07-12T17:56:34.000Z</time>
      </trkpt>
      <trkpt lat="43.34067" lon="-1.47271">
        <ele>65</ele>
        <time>2026-07-12T17:56:34.000Z</time>
      </trkpt>
      <trkpt lat="43.34067" lon="-1.4727">
        <ele>65</ele>
        <time>2026-07-12T17:56:35.000Z</time>
      </trkpt>
      <trkpt lat="43.34068" lon="-1.47269">
        <ele>65</ele>
        <time>2026-07-12T17:56:35.000Z</time>
      </trkpt>
      <trkpt lat="43.34068" lon="-1.47268">
        <ele>65</ele>
        <time>2026-07-12T17:56:35.000Z</time>
      </trkpt>
      <trkpt lat="43.34069" lon="-1.47268">
        <ele>64</ele>
        <time>2026-07-12T17:56:35.000Z</time>
      </trkpt>
      <trkpt lat="43.34069" lon="-1.47267">
        <ele>64</ele>
        <time>2026-07-12T17:56:35.000Z</time>
      </trkpt>
      <trkpt lat="43.3407" lon="-1.47266">
        <ele>64</ele>
        <time>2026-07-12T17:56:35.000Z</time>
      </trkpt>
      <trkpt lat="43.34071" lon="-1.47265">
        <ele>64</ele>
        <time>2026-07-12T17:56:36.000Z</time>
      </trkpt>
      <trkpt lat="43.34059" lon="-1.47233">
        <ele>64</ele>
        <time>2026-07-12T17:56:40.000Z</time>
      </trkpt>
      <trkpt lat="43.34054" lon="-1.47223">
        <ele>65</ele>
        <time>2026-07-12T17:56:42.000Z</time>
      </trkpt>
      <trkpt lat="43.34046" lon="-1.47204">
        <ele>65</ele>
        <time>2026-07-12T17:56:45.000Z</time>
      </trkpt>
      <trkpt lat="43.34034" lon="-1.47178">
        <ele>64</ele>
        <time>2026-07-12T17:56:49.000Z</time>
      </trkpt>
      <trkpt lat="43.33996" lon="-1.471">
        <ele>65</ele>
        <time>2026-07-12T17:57:01.000Z</time>
      </trkpt>
      <trkpt lat="43.33988" lon="-1.47084">
        <ele>64</ele>
        <time>2026-07-12T17:57:03.000Z</time>
      </trkpt>
      <trkpt lat="43.33978" lon="-1.47067">
        <ele>64</ele>
        <time>2026-07-12T17:57:06.000Z</time>
      </trkpt>
      <trkpt lat="43.33971" lon="-1.47056">
        <ele>64</ele>
        <time>2026-07-12T17:57:08.000Z</time>
      </trkpt>
      <trkpt lat="43.33966" lon="-1.47046">
        <ele>63</ele>
        <time>2026-07-12T17:57:10.000Z</time>
      </trkpt>
      <trkpt lat="43.33961" lon="-1.47041">
        <ele>63</ele>
        <time>2026-07-12T17:57:11.000Z</time>
      </trkpt>
      <trkpt lat="43.33956" lon="-1.47034">
        <ele>63</ele>
        <time>2026-07-12T17:57:12.000Z</time>
      </trkpt>
      <trkpt lat="43.3395" lon="-1.47026">
        <ele>63</ele>
        <time>2026-07-12T17:57:13.000Z</time>
      </trkpt>
      <trkpt lat="43.33942" lon="-1.47018">
        <ele>63</ele>
        <time>2026-07-12T17:57:15.000Z</time>
      </trkpt>
      <trkpt lat="43.33928" lon="-1.47001">
        <ele>63</ele>
        <time>2026-07-12T17:57:19.000Z</time>
      </trkpt>
      <trkpt lat="43.33914" lon="-1.46986">
        <ele>63</ele>
        <time>2026-07-12T17:57:22.000Z</time>
      </trkpt>
      <trkpt lat="43.33905" lon="-1.46977">
        <ele>64</ele>
        <time>2026-07-12T17:57:24.000Z</time>
      </trkpt>
      <trkpt lat="43.33892" lon="-1.46965">
        <ele>64</ele>
        <time>2026-07-12T17:57:26.000Z</time>
      </trkpt>
      <trkpt lat="43.33886" lon="-1.46959">
        <ele>65</ele>
        <time>2026-07-12T17:57:28.000Z</time>
      </trkpt>
      <trkpt lat="43.33873" lon="-1.4695">
        <ele>65</ele>
        <time>2026-07-12T17:57:30.000Z</time>
      </trkpt>
      <trkpt lat="43.33853" lon="-1.46936">
        <ele>66</ele>
        <time>2026-07-12T17:57:34.000Z</time>
      </trkpt>
      <trkpt lat="43.3383" lon="-1.46921">
        <ele>67</ele>
        <time>2026-07-12T17:57:39.000Z</time>
      </trkpt>
      <trkpt lat="43.33817" lon="-1.46916">
        <ele>67</ele>
        <time>2026-07-12T17:57:41.000Z</time>
      </trkpt>
      <trkpt lat="43.33807" lon="-1.4691">
        <ele>67</ele>
        <time>2026-07-12T17:57:43.000Z</time>
      </trkpt>
      <trkpt lat="43.33792" lon="-1.469">
        <ele>67</ele>
        <time>2026-07-12T17:57:46.000Z</time>
      </trkpt>
      <trkpt lat="43.33783" lon="-1.46894">
        <ele>67</ele>
        <time>2026-07-12T17:57:48.000Z</time>
      </trkpt>
      <trkpt lat="43.33766" lon="-1.4688">
        <ele>67</ele>
        <time>2026-07-12T17:57:52.000Z</time>
      </trkpt>
      <trkpt lat="43.33752" lon="-1.46862">
        <ele>67</ele>
        <time>2026-07-12T17:57:55.000Z</time>
      </trkpt>
      <trkpt lat="43.33745" lon="-1.46852">
        <ele>67</ele>
        <time>2026-07-12T17:57:57.000Z</time>
      </trkpt>
      <trkpt lat="43.33737" lon="-1.46841">
        <ele>67</ele>
        <time>2026-07-12T17:57:59.000Z</time>
      </trkpt>
      <trkpt lat="43.33732" lon="-1.46832">
        <ele>67</ele>
        <time>2026-07-12T17:58:00.000Z</time>
      </trkpt>
      <trkpt lat="43.33725" lon="-1.46817">
        <ele>67</ele>
        <time>2026-07-12T17:58:03.000Z</time>
      </trkpt>
      <trkpt lat="43.33721" lon="-1.46805">
        <ele>67</ele>
        <time>2026-07-12T17:58:04.000Z</time>
      </trkpt>
      <trkpt lat="43.33719" lon="-1.46792">
        <ele>67</ele>
        <time>2026-07-12T17:58:06.000Z</time>
      </trkpt>
      <trkpt lat="43.33714" lon="-1.46776">
        <ele>66</ele>
        <time>2026-07-12T17:58:08.000Z</time>
      </trkpt>
      <trkpt lat="43.3371" lon="-1.46763">
        <ele>66</ele>
        <time>2026-07-12T17:58:10.000Z</time>
      </trkpt>
      <trkpt lat="43.33704" lon="-1.46742">
        <ele>66</ele>
        <time>2026-07-12T17:58:13.000Z</time>
      </trkpt>
      <trkpt lat="43.33702" lon="-1.46726">
        <ele>66</ele>
        <time>2026-07-12T17:58:15.000Z</time>
      </trkpt>
      <trkpt lat="43.337" lon="-1.46715">
        <ele>66</ele>
        <time>2026-07-12T17:58:17.000Z</time>
      </trkpt>
      <trkpt lat="43.33698" lon="-1.46705">
        <ele>66</ele>
        <time>2026-07-12T17:58:18.000Z</time>
      </trkpt>
      <trkpt lat="43.33698" lon="-1.46688">
        <ele>65</ele>
        <time>2026-07-12T17:58:20.000Z</time>
      </trkpt>
      <trkpt lat="43.33699" lon="-1.46652">
        <ele>65</ele>
        <time>2026-07-12T17:58:25.000Z</time>
      </trkpt>
      <trkpt lat="43.337" lon="-1.46623">
        <ele>64</ele>
        <time>2026-07-12T17:58:28.000Z</time>
      </trkpt>
      <trkpt lat="43.337" lon="-1.46618">
        <ele>64</ele>
        <time>2026-07-12T17:58:29.000Z</time>
      </trkpt>
      <trkpt lat="43.33701" lon="-1.46589">
        <ele>64</ele>
        <time>2026-07-12T17:58:33.000Z</time>
      </trkpt>
      <trkpt lat="43.337" lon="-1.46557">
        <ele>64</ele>
        <time>2026-07-12T17:58:37.000Z</time>
      </trkpt>
      <trkpt lat="43.33698" lon="-1.46546">
        <ele>64</ele>
        <time>2026-07-12T17:58:39.000Z</time>
      </trkpt>
      <trkpt lat="43.33697" lon="-1.46538">
        <ele>63</ele>
        <time>2026-07-12T17:58:40.000Z</time>
      </trkpt>
      <trkpt lat="43.33695" lon="-1.4652">
        <ele>63</ele>
        <time>2026-07-12T17:58:42.000Z</time>
      </trkpt>
      <trkpt lat="43.3369" lon="-1.46491">
        <ele>62</ele>
        <time>2026-07-12T17:58:46.000Z</time>
      </trkpt>
      <trkpt lat="43.33679" lon="-1.46424">
        <ele>59</ele>
        <time>2026-07-12T17:58:55.000Z</time>
      </trkpt>
      <trkpt lat="43.33665" lon="-1.46337">
        <ele>56</ele>
        <time>2026-07-12T17:59:06.000Z</time>
      </trkpt>
      <trkpt lat="43.33657" lon="-1.46288">
        <ele>56</ele>
        <time>2026-07-12T17:59:13.000Z</time>
      </trkpt>
      <trkpt lat="43.33651" lon="-1.46257">
        <ele>56</ele>
        <time>2026-07-12T17:59:17.000Z</time>
      </trkpt>
      <trkpt lat="43.33647" lon="-1.4624">
        <ele>56</ele>
        <time>2026-07-12T17:59:19.000Z</time>
      </trkpt>
      <trkpt lat="43.33646" lon="-1.46232">
        <ele>56</ele>
        <time>2026-07-12T17:59:20.000Z</time>
      </trkpt>
      <trkpt lat="43.33645" lon="-1.46232">
        <ele>56</ele>
        <time>2026-07-12T17:59:20.000Z</time>
      </trkpt>
      <trkpt lat="43.33639" lon="-1.46209">
        <ele>56</ele>
        <time>2026-07-12T17:59:24.000Z</time>
      </trkpt>
      <trkpt lat="43.33634" lon="-1.46198">
        <ele>56</ele>
        <time>2026-07-12T17:59:25.000Z</time>
      </trkpt>
      <trkpt lat="43.33633" lon="-1.46196">
        <ele>56</ele>
        <time>2026-07-12T17:59:26.000Z</time>
      </trkpt>
      <trkpt lat="43.33632" lon="-1.46191">
        <ele>56</ele>
        <time>2026-07-12T17:59:26.000Z</time>
      </trkpt>
      <trkpt lat="43.33626" lon="-1.46179">
        <ele>56</ele>
        <time>2026-07-12T17:59:28.000Z</time>
      </trkpt>
      <trkpt lat="43.33619" lon="-1.46164">
        <ele>56</ele>
        <time>2026-07-12T17:59:30.000Z</time>
      </trkpt>
      <trkpt lat="43.33609" lon="-1.46147">
        <ele>57</ele>
        <time>2026-07-12T17:59:33.000Z</time>
      </trkpt>
      <trkpt lat="43.33599" lon="-1.46129">
        <ele>57</ele>
        <time>2026-07-12T17:59:36.000Z</time>
      </trkpt>
      <trkpt lat="43.33585" lon="-1.46104">
        <ele>57</ele>
        <time>2026-07-12T17:59:40.000Z</time>
      </trkpt>
      <trkpt lat="43.3358" lon="-1.46092">
        <ele>57</ele>
        <time>2026-07-12T17:59:42.000Z</time>
      </trkpt>
      <trkpt lat="43.33575" lon="-1.46084">
        <ele>57</ele>
        <time>2026-07-12T17:59:43.000Z</time>
      </trkpt>
      <trkpt lat="43.33563" lon="-1.46046">
        <ele>57</ele>
        <time>2026-07-12T17:59:49.000Z</time>
      </trkpt>
      <trkpt lat="43.33555" lon="-1.46019">
        <ele>58</ele>
        <time>2026-07-12T17:59:53.000Z</time>
      </trkpt>
      <trkpt lat="43.3355" lon="-1.45995">
        <ele>59</ele>
        <time>2026-07-12T17:59:56.000Z</time>
      </trkpt>
      <trkpt lat="43.33548" lon="-1.45984">
        <ele>60</ele>
        <time>2026-07-12T17:59:57.000Z</time>
      </trkpt>
      <trkpt lat="43.33546" lon="-1.45971">
        <ele>61</ele>
        <time>2026-07-12T17:59:59.000Z</time>
      </trkpt>
      <trkpt lat="43.33545" lon="-1.45963">
        <ele>62</ele>
        <time>2026-07-12T18:00:00.000Z</time>
      </trkpt>
      <trkpt lat="43.33545" lon="-1.45949">
        <ele>63</ele>
        <time>2026-07-12T18:00:02.000Z</time>
      </trkpt>
      <trkpt lat="43.33546" lon="-1.45937">
        <ele>64</ele>
        <time>2026-07-12T18:00:03.000Z</time>
      </trkpt>
      <trkpt lat="43.33547" lon="-1.45923">
        <ele>65</ele>
        <time>2026-07-12T18:00:05.000Z</time>
      </trkpt>
      <trkpt lat="43.33551" lon="-1.45906">
        <ele>66</ele>
        <time>2026-07-12T18:00:08.000Z</time>
      </trkpt>
      <trkpt lat="43.33551" lon="-1.45903">
        <ele>67</ele>
        <time>2026-07-12T18:00:08.000Z</time>
      </trkpt>
      <trkpt lat="43.33553" lon="-1.45897">
        <ele>67</ele>
        <time>2026-07-12T18:00:09.000Z</time>
      </trkpt>
      <trkpt lat="43.33557" lon="-1.45889">
        <ele>68</ele>
        <time>2026-07-12T18:00:10.000Z</time>
      </trkpt>
      <trkpt lat="43.33561" lon="-1.45881">
        <ele>68</ele>
        <time>2026-07-12T18:00:11.000Z</time>
      </trkpt>
      <trkpt lat="43.33566" lon="-1.45871">
        <ele>68</ele>
        <time>2026-07-12T18:00:13.000Z</time>
      </trkpt>
      <trkpt lat="43.33572" lon="-1.45861">
        <ele>68</ele>
        <time>2026-07-12T18:00:15.000Z</time>
      </trkpt>
      <trkpt lat="43.33574" lon="-1.45859">
        <ele>68</ele>
        <time>2026-07-12T18:00:15.000Z</time>
      </trkpt>
      <trkpt lat="43.33578" lon="-1.45856">
        <ele>67</ele>
        <time>2026-07-12T18:00:16.000Z</time>
      </trkpt>
      <trkpt lat="43.33584" lon="-1.45847">
        <ele>66</ele>
        <time>2026-07-12T18:00:17.000Z</time>
      </trkpt>
      <trkpt lat="43.33596" lon="-1.45829">
        <ele>67</ele>
        <time>2026-07-12T18:00:20.000Z</time>
      </trkpt>
      <trkpt lat="43.33616" lon="-1.458">
        <ele>67</ele>
        <time>2026-07-12T18:00:26.000Z</time>
      </trkpt>
      <trkpt lat="43.3363" lon="-1.45779">
        <ele>65</ele>
        <time>2026-07-12T18:00:29.000Z</time>
      </trkpt>
      <trkpt lat="43.33655" lon="-1.45743">
        <ele>62</ele>
        <time>2026-07-12T18:00:36.000Z</time>
      </trkpt>
      <trkpt lat="43.33678" lon="-1.45709">
        <ele>64</ele>
        <time>2026-07-12T18:00:42.000Z</time>
      </trkpt>
      <trkpt lat="43.33707" lon="-1.45666">
        <ele>64</ele>
        <time>2026-07-12T18:00:49.000Z</time>
      </trkpt>
      <trkpt lat="43.33735" lon="-1.45625">
        <ele>62</ele>
        <time>2026-07-12T18:00:57.000Z</time>
      </trkpt>
      <trkpt lat="43.33748" lon="-1.45605">
        <ele>61</ele>
        <time>2026-07-12T18:01:00.000Z</time>
      </trkpt>
      <trkpt lat="43.33763" lon="-1.45583">
        <ele>62</ele>
        <time>2026-07-12T18:01:04.000Z</time>
      </trkpt>
      <trkpt lat="43.33773" lon="-1.45563">
        <ele>62</ele>
        <time>2026-07-12T18:01:07.000Z</time>
      </trkpt>
      <trkpt lat="43.33785" lon="-1.4554">
        <ele>63</ele>
        <time>2026-07-12T18:01:11.000Z</time>
      </trkpt>
      <trkpt lat="43.33794" lon="-1.4552">
        <ele>62</ele>
        <time>2026-07-12T18:01:14.000Z</time>
      </trkpt>
      <trkpt lat="43.33804" lon="-1.45498">
        <ele>62</ele>
        <time>2026-07-12T18:01:17.000Z</time>
      </trkpt>
      <trkpt lat="43.33812" lon="-1.45474">
        <ele>61</ele>
        <time>2026-07-12T18:01:21.000Z</time>
      </trkpt>
      <trkpt lat="43.33816" lon="-1.45463">
        <ele>61</ele>
        <time>2026-07-12T18:01:22.000Z</time>
      </trkpt>
      <trkpt lat="43.33821" lon="-1.45451">
        <ele>60</ele>
        <time>2026-07-12T18:01:24.000Z</time>
      </trkpt>
      <trkpt lat="43.33825" lon="-1.45438">
        <ele>60</ele>
        <time>2026-07-12T18:01:26.000Z</time>
      </trkpt>
      <trkpt lat="43.33828" lon="-1.4543">
        <ele>59</ele>
        <time>2026-07-12T18:01:27.000Z</time>
      </trkpt>
      <trkpt lat="43.33832" lon="-1.45421">
        <ele>59</ele>
        <time>2026-07-12T18:01:28.000Z</time>
      </trkpt>
      <trkpt lat="43.3384" lon="-1.45405">
        <ele>59</ele>
        <time>2026-07-12T18:01:31.000Z</time>
      </trkpt>
      <trkpt lat="43.33849" lon="-1.45391">
        <ele>59</ele>
        <time>2026-07-12T18:01:33.000Z</time>
      </trkpt>
      <trkpt lat="43.33855" lon="-1.45383">
        <ele>59</ele>
        <time>2026-07-12T18:01:35.000Z</time>
      </trkpt>
      <trkpt lat="43.33862" lon="-1.45374">
        <ele>60</ele>
        <time>2026-07-12T18:01:37.000Z</time>
      </trkpt>
      <trkpt lat="43.33868" lon="-1.45367">
        <ele>60</ele>
        <time>2026-07-12T18:01:38.000Z</time>
      </trkpt>
      <trkpt lat="43.33872" lon="-1.45363">
        <ele>60</ele>
        <time>2026-07-12T18:01:39.000Z</time>
      </trkpt>
      <trkpt lat="43.3388" lon="-1.45355">
        <ele>60</ele>
        <time>2026-07-12T18:01:41.000Z</time>
      </trkpt>
      <trkpt lat="43.33893" lon="-1.45341">
        <ele>60</ele>
        <time>2026-07-12T18:01:44.000Z</time>
      </trkpt>
      <trkpt lat="43.33908" lon="-1.45326">
        <ele>61</ele>
        <time>2026-07-12T18:01:47.000Z</time>
      </trkpt>
      <trkpt lat="43.3393" lon="-1.45306">
        <ele>60</ele>
        <time>2026-07-12T18:01:52.000Z</time>
      </trkpt>
      <trkpt lat="43.33942" lon="-1.45295">
        <ele>60</ele>
        <time>2026-07-12T18:01:54.000Z</time>
      </trkpt>
      <trkpt lat="43.33958" lon="-1.45279">
        <ele>60</ele>
        <time>2026-07-12T18:01:58.000Z</time>
      </trkpt>
      <trkpt lat="43.33964" lon="-1.45272">
        <ele>60</ele>
        <time>2026-07-12T18:01:59.000Z</time>
      </trkpt>
      <trkpt lat="43.33967" lon="-1.45268">
        <ele>60</ele>
        <time>2026-07-12T18:02:00.000Z</time>
      </trkpt>
      <trkpt lat="43.3397" lon="-1.45263">
        <ele>60</ele>
        <time>2026-07-12T18:02:01.000Z</time>
      </trkpt>
      <trkpt lat="43.33975" lon="-1.45255">
        <ele>60</ele>
        <time>2026-07-12T18:02:02.000Z</time>
      </trkpt>
      <trkpt lat="43.33977" lon="-1.4525">
        <ele>60</ele>
        <time>2026-07-12T18:02:03.000Z</time>
      </trkpt>
      <trkpt lat="43.33979" lon="-1.45245">
        <ele>60</ele>
        <time>2026-07-12T18:02:03.000Z</time>
      </trkpt>
      <trkpt lat="43.33983" lon="-1.45236">
        <ele>60</ele>
        <time>2026-07-12T18:02:05.000Z</time>
      </trkpt>
      <trkpt lat="43.33986" lon="-1.45227">
        <ele>60</ele>
        <time>2026-07-12T18:02:06.000Z</time>
      </trkpt>
      <trkpt lat="43.33988" lon="-1.45218">
        <ele>60</ele>
        <time>2026-07-12T18:02:07.000Z</time>
      </trkpt>
      <trkpt lat="43.33989" lon="-1.45208">
        <ele>60</ele>
        <time>2026-07-12T18:02:09.000Z</time>
      </trkpt>
      <trkpt lat="43.33991" lon="-1.45199">
        <ele>60</ele>
        <time>2026-07-12T18:02:10.000Z</time>
      </trkpt>
      <trkpt lat="43.33995" lon="-1.45185">
        <ele>60</ele>
        <time>2026-07-12T18:02:12.000Z</time>
      </trkpt>
      <trkpt lat="43.33998" lon="-1.45174">
        <ele>60</ele>
        <time>2026-07-12T18:02:13.000Z</time>
      </trkpt>
      <trkpt lat="43.33999" lon="-1.45168">
        <ele>60</ele>
        <time>2026-07-12T18:02:14.000Z</time>
      </trkpt>
      <trkpt lat="43.33999" lon="-1.45168">
        <ele>60</ele>
        <time>2026-07-12T18:02:14.000Z</time>
      </trkpt>
      <trkpt lat="43.33999" lon="-1.45167">
        <ele>60</ele>
        <time>2026-07-12T18:02:14.000Z</time>
      </trkpt>
      <trkpt lat="43.33998" lon="-1.45166">
        <ele>60</ele>
        <time>2026-07-12T18:02:14.000Z</time>
      </trkpt>
      <trkpt lat="43.33997" lon="-1.45166">
        <ele>60</ele>
        <time>2026-07-12T18:02:15.000Z</time>
      </trkpt>
      <trkpt lat="43.33997" lon="-1.45165">
        <ele>60</ele>
        <time>2026-07-12T18:02:15.000Z</time>
      </trkpt>
      <trkpt lat="43.33996" lon="-1.45164">
        <ele>61</ele>
        <time>2026-07-12T18:02:15.000Z</time>
      </trkpt>
      <trkpt lat="43.33995" lon="-1.45163">
        <ele>61</ele>
        <time>2026-07-12T18:02:15.000Z</time>
      </trkpt>
      <trkpt lat="43.33995" lon="-1.45162">
        <ele>61</ele>
        <time>2026-07-12T18:02:15.000Z</time>
      </trkpt>
      <trkpt lat="43.33994" lon="-1.45161">
        <ele>61</ele>
        <time>2026-07-12T18:02:16.000Z</time>
      </trkpt>
      <trkpt lat="43.33994" lon="-1.4516">
        <ele>61</ele>
        <time>2026-07-12T18:02:16.000Z</time>
      </trkpt>
      <trkpt lat="43.33993" lon="-1.45159">
        <ele>61</ele>
        <time>2026-07-12T18:02:16.000Z</time>
      </trkpt>
      <trkpt lat="43.33993" lon="-1.45158">
        <ele>61</ele>
        <time>2026-07-12T18:02:16.000Z</time>
      </trkpt>
      <trkpt lat="43.33993" lon="-1.45157">
        <ele>61</ele>
        <time>2026-07-12T18:02:16.000Z</time>
      </trkpt>
      <trkpt lat="43.33992" lon="-1.45156">
        <ele>61</ele>
        <time>2026-07-12T18:02:16.000Z</time>
      </trkpt>
      <trkpt lat="43.33992" lon="-1.45155">
        <ele>61</ele>
        <time>2026-07-12T18:02:16.000Z</time>
      </trkpt>
      <trkpt lat="43.33992" lon="-1.45154">
        <ele>61</ele>
        <time>2026-07-12T18:02:17.000Z</time>
      </trkpt>
      <trkpt lat="43.33992" lon="-1.45153">
        <ele>61</ele>
        <time>2026-07-12T18:02:17.000Z</time>
      </trkpt>
      <trkpt lat="43.33992" lon="-1.45151">
        <ele>61</ele>
        <time>2026-07-12T18:02:17.000Z</time>
      </trkpt>
      <trkpt lat="43.33992" lon="-1.4515">
        <ele>62</ele>
        <time>2026-07-12T18:02:17.000Z</time>
      </trkpt>
      <trkpt lat="43.33992" lon="-1.45149">
        <ele>62</ele>
        <time>2026-07-12T18:02:17.000Z</time>
      </trkpt>
      <trkpt lat="43.33992" lon="-1.45148">
        <ele>62</ele>
        <time>2026-07-12T18:02:17.000Z</time>
      </trkpt>
      <trkpt lat="43.33992" lon="-1.45146">
        <ele>62</ele>
        <time>2026-07-12T18:02:18.000Z</time>
      </trkpt>
      <trkpt lat="43.33989" lon="-1.45132">
        <ele>63</ele>
        <time>2026-07-12T18:02:20.000Z</time>
      </trkpt>
      <trkpt lat="43.33989" lon="-1.45128">
        <ele>63</ele>
        <time>2026-07-12T18:02:20.000Z</time>
      </trkpt>
      <trkpt lat="43.33986" lon="-1.45117">
        <ele>63</ele>
        <time>2026-07-12T18:02:22.000Z</time>
      </trkpt>
      <trkpt lat="43.33953" lon="-1.45059">
        <ele>67</ele>
        <time>2026-07-12T18:02:31.000Z</time>
      </trkpt>
      <trkpt lat="43.33896" lon="-1.44961">
        <ele>70</ele>
        <time>2026-07-12T18:02:47.000Z</time>
      </trkpt>
      <trkpt lat="43.33879" lon="-1.44932">
        <ele>71</ele>
        <time>2026-07-12T18:02:52.000Z</time>
      </trkpt>
      <trkpt lat="43.33866" lon="-1.4491">
        <ele>72</ele>
        <time>2026-07-12T18:02:56.000Z</time>
      </trkpt>
      <trkpt lat="43.33859" lon="-1.44894">
        <ele>73</ele>
        <time>2026-07-12T18:02:58.000Z</time>
      </trkpt>
      <trkpt lat="43.33854" lon="-1.44883">
        <ele>73</ele>
        <time>2026-07-12T18:03:00.000Z</time>
      </trkpt>
      <trkpt lat="43.33849" lon="-1.44868">
        <ele>73</ele>
        <time>2026-07-12T18:03:02.000Z</time>
      </trkpt>
      <trkpt lat="43.33845" lon="-1.44855">
        <ele>73</ele>
        <time>2026-07-12T18:03:04.000Z</time>
      </trkpt>
      <trkpt lat="43.33843" lon="-1.44843">
        <ele>73</ele>
        <time>2026-07-12T18:03:05.000Z</time>
      </trkpt>
      <trkpt lat="43.33842" lon="-1.44832">
        <ele>73</ele>
        <time>2026-07-12T18:03:07.000Z</time>
      </trkpt>
      <trkpt lat="43.33842" lon="-1.44818">
        <ele>74</ele>
        <time>2026-07-12T18:03:09.000Z</time>
      </trkpt>
      <trkpt lat="43.33841" lon="-1.44801">
        <ele>75</ele>
        <time>2026-07-12T18:03:11.000Z</time>
      </trkpt>
      <trkpt lat="43.33842" lon="-1.44774">
        <ele>76</ele>
        <time>2026-07-12T18:03:14.000Z</time>
      </trkpt>
      <trkpt lat="43.33841" lon="-1.4474">
        <ele>77</ele>
        <time>2026-07-12T18:03:19.000Z</time>
      </trkpt>
      <trkpt lat="43.3384" lon="-1.44707">
        <ele>78</ele>
        <time>2026-07-12T18:03:23.000Z</time>
      </trkpt>
      <trkpt lat="43.33837" lon="-1.44699">
        <ele>78</ele>
        <time>2026-07-12T18:03:24.000Z</time>
      </trkpt>
      <trkpt lat="43.33831" lon="-1.44671">
        <ele>79</ele>
        <time>2026-07-12T18:03:28.000Z</time>
      </trkpt>
      <trkpt lat="43.33831" lon="-1.44671">
        <ele>79</ele>
        <time>2026-07-12T18:03:28.000Z</time>
      </trkpt>
      <trkpt lat="43.33831" lon="-1.4467">
        <ele>79</ele>
        <time>2026-07-12T18:03:28.000Z</time>
      </trkpt>
      <trkpt lat="43.3383" lon="-1.44669">
        <ele>79</ele>
        <time>2026-07-12T18:03:28.000Z</time>
      </trkpt>
      <trkpt lat="43.3383" lon="-1.44668">
        <ele>79</ele>
        <time>2026-07-12T18:03:29.000Z</time>
      </trkpt>
      <trkpt lat="43.33829" lon="-1.44668">
        <ele>79</ele>
        <time>2026-07-12T18:03:29.000Z</time>
      </trkpt>
      <trkpt lat="43.33829" lon="-1.44667">
        <ele>79</ele>
        <time>2026-07-12T18:03:29.000Z</time>
      </trkpt>
      <trkpt lat="43.33829" lon="-1.44666">
        <ele>79</ele>
        <time>2026-07-12T18:03:29.000Z</time>
      </trkpt>
      <trkpt lat="43.33828" lon="-1.44666">
        <ele>79</ele>
        <time>2026-07-12T18:03:29.000Z</time>
      </trkpt>
      <trkpt lat="43.33828" lon="-1.44665">
        <ele>79</ele>
        <time>2026-07-12T18:03:29.000Z</time>
      </trkpt>
      <trkpt lat="43.33828" lon="-1.44664">
        <ele>79</ele>
        <time>2026-07-12T18:03:29.000Z</time>
      </trkpt>
      <trkpt lat="43.33828" lon="-1.44663">
        <ele>79</ele>
        <time>2026-07-12T18:03:30.000Z</time>
      </trkpt>
      <trkpt lat="43.33827" lon="-1.44663">
        <ele>79</ele>
        <time>2026-07-12T18:03:30.000Z</time>
      </trkpt>
      <trkpt lat="43.33827" lon="-1.44662">
        <ele>79</ele>
        <time>2026-07-12T18:03:30.000Z</time>
      </trkpt>
      <trkpt lat="43.33827" lon="-1.44661">
        <ele>79</ele>
        <time>2026-07-12T18:03:30.000Z</time>
      </trkpt>
      <trkpt lat="43.33827" lon="-1.4466">
        <ele>79</ele>
        <time>2026-07-12T18:03:30.000Z</time>
      </trkpt>
      <trkpt lat="43.33827" lon="-1.44659">
        <ele>79</ele>
        <time>2026-07-12T18:03:30.000Z</time>
      </trkpt>
      <trkpt lat="43.33827" lon="-1.44658">
        <ele>79</ele>
        <time>2026-07-12T18:03:30.000Z</time>
      </trkpt>
      <trkpt lat="43.33827" lon="-1.44657">
        <ele>79</ele>
        <time>2026-07-12T18:03:30.000Z</time>
      </trkpt>
      <trkpt lat="43.33827" lon="-1.44656">
        <ele>79</ele>
        <time>2026-07-12T18:03:31.000Z</time>
      </trkpt>
      <trkpt lat="43.33828" lon="-1.44656">
        <ele>79</ele>
        <time>2026-07-12T18:03:31.000Z</time>
      </trkpt>
      <trkpt lat="43.33828" lon="-1.44655">
        <ele>79</ele>
        <time>2026-07-12T18:03:31.000Z</time>
      </trkpt>
      <trkpt lat="43.33828" lon="-1.44654">
        <ele>79</ele>
        <time>2026-07-12T18:03:31.000Z</time>
      </trkpt>
      <trkpt lat="43.33828" lon="-1.44653">
        <ele>79</ele>
        <time>2026-07-12T18:03:31.000Z</time>
      </trkpt>
      <trkpt lat="43.33829" lon="-1.44652">
        <ele>79</ele>
        <time>2026-07-12T18:03:31.000Z</time>
      </trkpt>
      <trkpt lat="43.33829" lon="-1.44651">
        <ele>79</ele>
        <time>2026-07-12T18:03:32.000Z</time>
      </trkpt>
      <trkpt lat="43.3383" lon="-1.4465">
        <ele>79</ele>
        <time>2026-07-12T18:03:32.000Z</time>
      </trkpt>
      <trkpt lat="43.33831" lon="-1.44649">
        <ele>79</ele>
        <time>2026-07-12T18:03:32.000Z</time>
      </trkpt>
      <trkpt lat="43.33831" lon="-1.44648">
        <ele>79</ele>
        <time>2026-07-12T18:03:32.000Z</time>
      </trkpt>
      <trkpt lat="43.33832" lon="-1.44648">
        <ele>79</ele>
        <time>2026-07-12T18:03:32.000Z</time>
      </trkpt>
      <trkpt lat="43.33832" lon="-1.44647">
        <ele>79</ele>
        <time>2026-07-12T18:03:32.000Z</time>
      </trkpt>
      <trkpt lat="43.33833" lon="-1.44647">
        <ele>79</ele>
        <time>2026-07-12T18:03:33.000Z</time>
      </trkpt>
      <trkpt lat="43.33834" lon="-1.44647">
        <ele>79</ele>
        <time>2026-07-12T18:03:33.000Z</time>
      </trkpt>
      <trkpt lat="43.33834" lon="-1.44646">
        <ele>79</ele>
        <time>2026-07-12T18:03:33.000Z</time>
      </trkpt>
      <trkpt lat="43.33838" lon="-1.44635">
        <ele>79</ele>
        <time>2026-07-12T18:03:34.000Z</time>
      </trkpt>
      <trkpt lat="43.33841" lon="-1.4462">
        <ele>79</ele>
        <time>2026-07-12T18:03:36.000Z</time>
      </trkpt>
      <trkpt lat="43.33843" lon="-1.44606">
        <ele>79</ele>
        <time>2026-07-12T18:03:38.000Z</time>
      </trkpt>
      <trkpt lat="43.33845" lon="-1.44595">
        <ele>78</ele>
        <time>2026-07-12T18:03:40.000Z</time>
      </trkpt>
      <trkpt lat="43.33848" lon="-1.44586">
        <ele>78</ele>
        <time>2026-07-12T18:03:41.000Z</time>
      </trkpt>
      <trkpt lat="43.33852" lon="-1.44578">
        <ele>77</ele>
        <time>2026-07-12T18:03:42.000Z</time>
      </trkpt>
      <trkpt lat="43.33855" lon="-1.44572">
        <ele>77</ele>
        <time>2026-07-12T18:03:43.000Z</time>
      </trkpt>
      <trkpt lat="43.33857" lon="-1.44567">
        <ele>76</ele>
        <time>2026-07-12T18:03:44.000Z</time>
      </trkpt>
      <trkpt lat="43.33861" lon="-1.44562">
        <ele>75</ele>
        <time>2026-07-12T18:03:45.000Z</time>
      </trkpt>
      <trkpt lat="43.33865" lon="-1.44556">
        <ele>75</ele>
        <time>2026-07-12T18:03:46.000Z</time>
      </trkpt>
      <trkpt lat="43.33869" lon="-1.44551">
        <ele>74</ele>
        <time>2026-07-12T18:03:47.000Z</time>
      </trkpt>
      <trkpt lat="43.33878" lon="-1.44543">
        <ele>73</ele>
        <time>2026-07-12T18:03:49.000Z</time>
      </trkpt>
      <trkpt lat="43.33888" lon="-1.44537">
        <ele>71</ele>
        <time>2026-07-12T18:03:51.000Z</time>
      </trkpt>
      <trkpt lat="43.33896" lon="-1.44532">
        <ele>70</ele>
        <time>2026-07-12T18:03:52.000Z</time>
      </trkpt>
      <trkpt lat="43.33907" lon="-1.44526">
        <ele>69</ele>
        <time>2026-07-12T18:03:55.000Z</time>
      </trkpt>
      <trkpt lat="43.33914" lon="-1.44521">
        <ele>68</ele>
        <time>2026-07-12T18:03:56.000Z</time>
      </trkpt>
      <trkpt lat="43.3392" lon="-1.44517">
        <ele>68</ele>
        <time>2026-07-12T18:03:57.000Z</time>
      </trkpt>
      <trkpt lat="43.33925" lon="-1.44512">
        <ele>67</ele>
        <time>2026-07-12T18:03:58.000Z</time>
      </trkpt>
      <trkpt lat="43.33932" lon="-1.44506">
        <ele>67</ele>
        <time>2026-07-12T18:04:00.000Z</time>
      </trkpt>
      <trkpt lat="43.33935" lon="-1.44502">
        <ele>66</ele>
        <time>2026-07-12T18:04:00.000Z</time>
      </trkpt>
      <trkpt lat="43.33939" lon="-1.44497">
        <ele>66</ele>
        <time>2026-07-12T18:04:01.000Z</time>
      </trkpt>
      <trkpt lat="43.33942" lon="-1.44492">
        <ele>66</ele>
        <time>2026-07-12T18:04:02.000Z</time>
      </trkpt>
      <trkpt lat="43.33947" lon="-1.44482">
        <ele>65</ele>
        <time>2026-07-12T18:04:04.000Z</time>
      </trkpt>
      <trkpt lat="43.33953" lon="-1.44465">
        <ele>64</ele>
        <time>2026-07-12T18:04:06.000Z</time>
      </trkpt>
      <trkpt lat="43.33962" lon="-1.44435">
        <ele>62</ele>
        <time>2026-07-12T18:04:10.000Z</time>
      </trkpt>
      <trkpt lat="43.33966" lon="-1.44425">
        <ele>62</ele>
        <time>2026-07-12T18:04:12.000Z</time>
      </trkpt>
      <trkpt lat="43.33969" lon="-1.44417">
        <ele>61</ele>
        <time>2026-07-12T18:04:13.000Z</time>
      </trkpt>
      <trkpt lat="43.33973" lon="-1.44411">
        <ele>61</ele>
        <time>2026-07-12T18:04:14.000Z</time>
      </trkpt>
      <trkpt lat="43.33984" lon="-1.44394">
        <ele>62</ele>
        <time>2026-07-12T18:04:17.000Z</time>
      </trkpt>
      <trkpt lat="43.33993" lon="-1.44381">
        <ele>62</ele>
        <time>2026-07-12T18:04:19.000Z</time>
      </trkpt>
      <trkpt lat="43.34" lon="-1.44374">
        <ele>62</ele>
        <time>2026-07-12T18:04:21.000Z</time>
      </trkpt>
      <trkpt lat="43.3401" lon="-1.44365">
        <ele>62</ele>
        <time>2026-07-12T18:04:23.000Z</time>
      </trkpt>
      <trkpt lat="43.34019" lon="-1.44358">
        <ele>62</ele>
        <time>2026-07-12T18:04:25.000Z</time>
      </trkpt>
      <trkpt lat="43.34028" lon="-1.44353">
        <ele>62</ele>
        <time>2026-07-12T18:04:27.000Z</time>
      </trkpt>
      <trkpt lat="43.34044" lon="-1.44345">
        <ele>62</ele>
        <time>2026-07-12T18:04:30.000Z</time>
      </trkpt>
      <trkpt lat="43.34057" lon="-1.4434">
        <ele>63</ele>
        <time>2026-07-12T18:04:32.000Z</time>
      </trkpt>
      <trkpt lat="43.3407" lon="-1.44337">
        <ele>63</ele>
        <time>2026-07-12T18:04:34.000Z</time>
      </trkpt>
      <trkpt lat="43.34079" lon="-1.44333">
        <ele>63</ele>
        <time>2026-07-12T18:04:36.000Z</time>
      </trkpt>
      <trkpt lat="43.34089" lon="-1.44329">
        <ele>63</ele>
        <time>2026-07-12T18:04:38.000Z</time>
      </trkpt>
      <trkpt lat="43.34101" lon="-1.44323">
        <ele>64</ele>
        <time>2026-07-12T18:04:40.000Z</time>
      </trkpt>
      <trkpt lat="43.34104" lon="-1.4432">
        <ele>64</ele>
        <time>2026-07-12T18:04:41.000Z</time>
      </trkpt>
      <trkpt lat="43.34113" lon="-1.44314">
        <ele>64</ele>
        <time>2026-07-12T18:04:43.000Z</time>
      </trkpt>
      <trkpt lat="43.34122" lon="-1.44307">
        <ele>65</ele>
        <time>2026-07-12T18:04:44.000Z</time>
      </trkpt>
      <trkpt lat="43.3413" lon="-1.44301">
        <ele>65</ele>
        <time>2026-07-12T18:04:46.000Z</time>
      </trkpt>
      <trkpt lat="43.34143" lon="-1.44286">
        <ele>66</ele>
        <time>2026-07-12T18:04:49.000Z</time>
      </trkpt>
      <trkpt lat="43.34156" lon="-1.44269">
        <ele>68</ele>
        <time>2026-07-12T18:04:52.000Z</time>
      </trkpt>
      <trkpt lat="43.34168" lon="-1.44251">
        <ele>69</ele>
        <time>2026-07-12T18:04:55.000Z</time>
      </trkpt>
      <trkpt lat="43.34178" lon="-1.44237">
        <ele>70</ele>
        <time>2026-07-12T18:04:58.000Z</time>
      </trkpt>
      <trkpt lat="43.34181" lon="-1.44229">
        <ele>70</ele>
        <time>2026-07-12T18:04:59.000Z</time>
      </trkpt>
      <trkpt lat="43.34185" lon="-1.44219">
        <ele>70</ele>
        <time>2026-07-12T18:05:01.000Z</time>
      </trkpt>
      <trkpt lat="43.34192" lon="-1.442">
        <ele>71</ele>
        <time>2026-07-12T18:05:03.000Z</time>
      </trkpt>
      <trkpt lat="43.34197" lon="-1.44182">
        <ele>72</ele>
        <time>2026-07-12T18:05:06.000Z</time>
      </trkpt>
      <trkpt lat="43.34203" lon="-1.44167">
        <ele>73</ele>
        <time>2026-07-12T18:05:08.000Z</time>
      </trkpt>
      <trkpt lat="43.34209" lon="-1.44151">
        <ele>73</ele>
        <time>2026-07-12T18:05:10.000Z</time>
      </trkpt>
      <trkpt lat="43.34215" lon="-1.44139">
        <ele>74</ele>
        <time>2026-07-12T18:05:12.000Z</time>
      </trkpt>
      <trkpt lat="43.34223" lon="-1.44124">
        <ele>75</ele>
        <time>2026-07-12T18:05:15.000Z</time>
      </trkpt>
      <trkpt lat="43.34231" lon="-1.4411">
        <ele>75</ele>
        <time>2026-07-12T18:05:17.000Z</time>
      </trkpt>
      <trkpt lat="43.34239" lon="-1.44098">
        <ele>76</ele>
        <time>2026-07-12T18:05:19.000Z</time>
      </trkpt>
      <trkpt lat="43.34247" lon="-1.44084">
        <ele>76</ele>
        <time>2026-07-12T18:05:21.000Z</time>
      </trkpt>
      <trkpt lat="43.34256" lon="-1.44071">
        <ele>77</ele>
        <time>2026-07-12T18:05:24.000Z</time>
      </trkpt>
      <trkpt lat="43.34267" lon="-1.44058">
        <ele>78</ele>
        <time>2026-07-12T18:05:26.000Z</time>
      </trkpt>
      <trkpt lat="43.34288" lon="-1.44031">
        <ele>79</ele>
        <time>2026-07-12T18:05:31.000Z</time>
      </trkpt>
      <trkpt lat="43.34306" lon="-1.44009">
        <ele>80</ele>
        <time>2026-07-12T18:05:36.000Z</time>
      </trkpt>
      <trkpt lat="43.34317" lon="-1.43995">
        <ele>81</ele>
        <time>2026-07-12T18:05:38.000Z</time>
      </trkpt>
      <trkpt lat="43.34328" lon="-1.43979">
        <ele>81</ele>
        <time>2026-07-12T18:05:41.000Z</time>
      </trkpt>
      <trkpt lat="43.34334" lon="-1.4397">
        <ele>82</ele>
        <time>2026-07-12T18:05:43.000Z</time>
      </trkpt>
      <trkpt lat="43.3434" lon="-1.43957">
        <ele>83</ele>
        <time>2026-07-12T18:05:45.000Z</time>
      </trkpt>
      <trkpt lat="43.34346" lon="-1.43944">
        <ele>85</ele>
        <time>2026-07-12T18:05:47.000Z</time>
      </trkpt>
      <trkpt lat="43.34352" lon="-1.43929">
        <ele>86</ele>
        <time>2026-07-12T18:05:49.000Z</time>
      </trkpt>
      <trkpt lat="43.34358" lon="-1.43908">
        <ele>87</ele>
        <time>2026-07-12T18:05:52.000Z</time>
      </trkpt>
      <trkpt lat="43.34364" lon="-1.43887">
        <ele>88</ele>
        <time>2026-07-12T18:05:55.000Z</time>
      </trkpt>
      <trkpt lat="43.34371" lon="-1.43863">
        <ele>89</ele>
        <time>2026-07-12T18:05:58.000Z</time>
      </trkpt>
      <trkpt lat="43.34374" lon="-1.43853">
        <ele>89</ele>
        <time>2026-07-12T18:06:00.000Z</time>
      </trkpt>
      <trkpt lat="43.34386" lon="-1.43824">
        <ele>90</ele>
        <time>2026-07-12T18:06:04.000Z</time>
      </trkpt>
      <trkpt lat="43.34396" lon="-1.43804">
        <ele>91</ele>
        <time>2026-07-12T18:06:07.000Z</time>
      </trkpt>
      <trkpt lat="43.34405" lon="-1.4379">
        <ele>92</ele>
        <time>2026-07-12T18:06:10.000Z</time>
      </trkpt>
      <trkpt lat="43.34411" lon="-1.43782">
        <ele>92</ele>
        <time>2026-07-12T18:06:11.000Z</time>
      </trkpt>
      <trkpt lat="43.34419" lon="-1.43772">
        <ele>93</ele>
        <time>2026-07-12T18:06:13.000Z</time>
      </trkpt>
      <trkpt lat="43.34426" lon="-1.43764">
        <ele>93</ele>
        <time>2026-07-12T18:06:15.000Z</time>
      </trkpt>
      <trkpt lat="43.34434" lon="-1.43757">
        <ele>94</ele>
        <time>2026-07-12T18:06:16.000Z</time>
      </trkpt>
      <trkpt lat="43.34445" lon="-1.43749">
        <ele>95</ele>
        <time>2026-07-12T18:06:18.000Z</time>
      </trkpt>
      <trkpt lat="43.34451" lon="-1.43745">
        <ele>95</ele>
        <time>2026-07-12T18:06:20.000Z</time>
      </trkpt>
      <trkpt lat="43.34458" lon="-1.43741">
        <ele>95</ele>
        <time>2026-07-12T18:06:21.000Z</time>
      </trkpt>
      <trkpt lat="43.34473" lon="-1.43735">
        <ele>96</ele>
        <time>2026-07-12T18:06:24.000Z</time>
      </trkpt>
      <trkpt lat="43.3449" lon="-1.43732">
        <ele>96</ele>
        <time>2026-07-12T18:06:27.000Z</time>
      </trkpt>
      <trkpt lat="43.34506" lon="-1.43732">
        <ele>96</ele>
        <time>2026-07-12T18:06:30.000Z</time>
      </trkpt>
      <trkpt lat="43.34509" lon="-1.43732">
        <ele>96</ele>
        <time>2026-07-12T18:06:30.000Z</time>
      </trkpt>
      <trkpt lat="43.3453" lon="-1.43738">
        <ele>97</ele>
        <time>2026-07-12T18:06:34.000Z</time>
      </trkpt>
      <trkpt lat="43.34547" lon="-1.43748">
        <ele>97</ele>
        <time>2026-07-12T18:06:37.000Z</time>
      </trkpt>
      <trkpt lat="43.34562" lon="-1.43756">
        <ele>98</ele>
        <time>2026-07-12T18:06:40.000Z</time>
      </trkpt>
      <trkpt lat="43.34577" lon="-1.43764">
        <ele>99</ele>
        <time>2026-07-12T18:06:43.000Z</time>
      </trkpt>
      <trkpt lat="43.34589" lon="-1.43766">
        <ele>99</ele>
        <time>2026-07-12T18:06:45.000Z</time>
      </trkpt>
      <trkpt lat="43.34601" lon="-1.43765">
        <ele>99</ele>
        <time>2026-07-12T18:06:47.000Z</time>
      </trkpt>
      <trkpt lat="43.34614" lon="-1.4376">
        <ele>98</ele>
        <time>2026-07-12T18:06:50.000Z</time>
      </trkpt>
      <trkpt lat="43.34629" lon="-1.43749">
        <ele>97</ele>
        <time>2026-07-12T18:06:53.000Z</time>
      </trkpt>
      <trkpt lat="43.34646" lon="-1.43731">
        <ele>95</ele>
        <time>2026-07-12T18:06:57.000Z</time>
      </trkpt>
      <trkpt lat="43.34657" lon="-1.4372">
        <ele>94</ele>
        <time>2026-07-12T18:06:59.000Z</time>
      </trkpt>
      <trkpt lat="43.34668" lon="-1.43711">
        <ele>93</ele>
        <time>2026-07-12T18:07:01.000Z</time>
      </trkpt>
      <trkpt lat="43.34674" lon="-1.43708">
        <ele>93</ele>
        <time>2026-07-12T18:07:02.000Z</time>
      </trkpt>
      <trkpt lat="43.34685" lon="-1.43706">
        <ele>93</ele>
        <time>2026-07-12T18:07:04.000Z</time>
      </trkpt>
      <trkpt lat="43.34696" lon="-1.43707">
        <ele>93</ele>
        <time>2026-07-12T18:07:06.000Z</time>
      </trkpt>
      <trkpt lat="43.34709" lon="-1.4371">
        <ele>94</ele>
        <time>2026-07-12T18:07:09.000Z</time>
      </trkpt>
      <trkpt lat="43.34756" lon="-1.4373">
        <ele>97</ele>
        <time>2026-07-12T18:07:17.000Z</time>
      </trkpt>
      <trkpt lat="43.34788" lon="-1.43738">
        <ele>99</ele>
        <time>2026-07-12T18:07:23.000Z</time>
      </trkpt>
      <trkpt lat="43.34794" lon="-1.43738">
        <ele>99</ele>
        <time>2026-07-12T18:07:24.000Z</time>
      </trkpt>
      <trkpt lat="43.34803" lon="-1.43736">
        <ele>99</ele>
        <time>2026-07-12T18:07:26.000Z</time>
      </trkpt>
      <trkpt lat="43.34812" lon="-1.43733">
        <ele>99</ele>
        <time>2026-07-12T18:07:28.000Z</time>
      </trkpt>
      <trkpt lat="43.34823" lon="-1.43728">
        <ele>100</ele>
        <time>2026-07-12T18:07:30.000Z</time>
      </trkpt>
      <trkpt lat="43.34836" lon="-1.43723">
        <ele>100</ele>
        <time>2026-07-12T18:07:32.000Z</time>
      </trkpt>
      <trkpt lat="43.34848" lon="-1.43715">
        <ele>100</ele>
        <time>2026-07-12T18:07:34.000Z</time>
      </trkpt>
      <trkpt lat="43.34869" lon="-1.43698">
        <ele>101</ele>
        <time>2026-07-12T18:07:39.000Z</time>
      </trkpt>
      <trkpt lat="43.34905" lon="-1.43665">
        <ele>104</ele>
        <time>2026-07-12T18:07:46.000Z</time>
      </trkpt>
      <trkpt lat="43.34937" lon="-1.43638">
        <ele>106</ele>
        <time>2026-07-12T18:07:53.000Z</time>
      </trkpt>
      <trkpt lat="43.34967" lon="-1.43612">
        <ele>107</ele>
        <time>2026-07-12T18:07:59.000Z</time>
      </trkpt>
      <trkpt lat="43.34997" lon="-1.43586">
        <ele>108</ele>
        <time>2026-07-12T18:08:06.000Z</time>
      </trkpt>
      <trkpt lat="43.35022" lon="-1.43563">
        <ele>108</ele>
        <time>2026-07-12T18:08:11.000Z</time>
      </trkpt>
      <trkpt lat="43.35038" lon="-1.4355">
        <ele>107</ele>
        <time>2026-07-12T18:08:14.000Z</time>
      </trkpt>
      <trkpt lat="43.35041" lon="-1.43548">
        <ele>107</ele>
        <time>2026-07-12T18:08:15.000Z</time>
      </trkpt>
      <trkpt lat="43.35064" lon="-1.43531">
        <ele>107</ele>
        <time>2026-07-12T18:08:20.000Z</time>
      </trkpt>
      <trkpt lat="43.35089" lon="-1.43512">
        <ele>107</ele>
        <time>2026-07-12T18:08:25.000Z</time>
      </trkpt>
      <trkpt lat="43.35142" lon="-1.43472">
        <ele>105</ele>
        <time>2026-07-12T18:08:35.000Z</time>
      </trkpt>
      <trkpt lat="43.35185" lon="-1.4344">
        <ele>103</ele>
        <time>2026-07-12T18:08:44.000Z</time>
      </trkpt>
      <trkpt lat="43.35205" lon="-1.43426">
        <ele>103</ele>
        <time>2026-07-12T18:08:48.000Z</time>
      </trkpt>
      <trkpt lat="43.35304" lon="-1.4335">
        <ele>103</ele>
        <time>2026-07-12T18:09:08.000Z</time>
      </trkpt>
      <trkpt lat="43.35312" lon="-1.43342">
        <ele>103</ele>
        <time>2026-07-12T18:09:10.000Z</time>
      </trkpt>
      <trkpt lat="43.3532" lon="-1.43336">
        <ele>103</ele>
        <time>2026-07-12T18:09:12.000Z</time>
      </trkpt>
      <trkpt lat="43.35341" lon="-1.4332">
        <ele>103</ele>
        <time>2026-07-12T18:09:16.000Z</time>
      </trkpt>
      <trkpt lat="43.35355" lon="-1.43309">
        <ele>103</ele>
        <time>2026-07-12T18:09:19.000Z</time>
      </trkpt>
      <trkpt lat="43.35365" lon="-1.43301">
        <ele>103</ele>
        <time>2026-07-12T18:09:21.000Z</time>
      </trkpt>
      <trkpt lat="43.35367" lon="-1.43297">
        <ele>103</ele>
        <time>2026-07-12T18:09:22.000Z</time>
      </trkpt>
      <trkpt lat="43.35372" lon="-1.4329">
        <ele>103</ele>
        <time>2026-07-12T18:09:23.000Z</time>
      </trkpt>
      <trkpt lat="43.35387" lon="-1.43269">
        <ele>103</ele>
        <time>2026-07-12T18:09:27.000Z</time>
      </trkpt>
      <trkpt lat="43.35388" lon="-1.43266">
        <ele>103</ele>
        <time>2026-07-12T18:09:27.000Z</time>
      </trkpt>
      <trkpt lat="43.35391" lon="-1.43262">
        <ele>103</ele>
        <time>2026-07-12T18:09:28.000Z</time>
      </trkpt>
      <trkpt lat="43.35398" lon="-1.4325">
        <ele>103</ele>
        <time>2026-07-12T18:09:30.000Z</time>
      </trkpt>
      <trkpt lat="43.35406" lon="-1.43236">
        <ele>103</ele>
        <time>2026-07-12T18:09:32.000Z</time>
      </trkpt>
      <trkpt lat="43.3541" lon="-1.43226">
        <ele>103</ele>
        <time>2026-07-12T18:09:34.000Z</time>
      </trkpt>
      <trkpt lat="43.35414" lon="-1.43214">
        <ele>103</ele>
        <time>2026-07-12T18:09:35.000Z</time>
      </trkpt>
      <trkpt lat="43.35422" lon="-1.43192">
        <ele>102</ele>
        <time>2026-07-12T18:09:38.000Z</time>
      </trkpt>
      <trkpt lat="43.35423" lon="-1.4317">
        <ele>101</ele>
        <time>2026-07-12T18:09:41.000Z</time>
      </trkpt>
      <trkpt lat="43.35423" lon="-1.43159">
        <ele>101</ele>
        <time>2026-07-12T18:09:43.000Z</time>
      </trkpt>
      <trkpt lat="43.35421" lon="-1.43134">
        <ele>100</ele>
        <time>2026-07-12T18:09:46.000Z</time>
      </trkpt>
      <trkpt lat="43.35416" lon="-1.43112">
        <ele>99</ele>
        <time>2026-07-12T18:09:49.000Z</time>
      </trkpt>
      <trkpt lat="43.3541" lon="-1.43086">
        <ele>98</ele>
        <time>2026-07-12T18:09:52.000Z</time>
      </trkpt>
      <trkpt lat="43.35404" lon="-1.43055">
        <ele>98</ele>
        <time>2026-07-12T18:09:57.000Z</time>
      </trkpt>
      <trkpt lat="43.35398" lon="-1.43023">
        <ele>99</ele>
        <time>2026-07-12T18:10:01.000Z</time>
      </trkpt>
      <trkpt lat="43.35393" lon="-1.42977">
        <ele>100</ele>
        <time>2026-07-12T18:10:07.000Z</time>
      </trkpt>
      <trkpt lat="43.35391" lon="-1.42938">
        <ele>101</ele>
        <time>2026-07-12T18:10:12.000Z</time>
      </trkpt>
      <trkpt lat="43.35389" lon="-1.4289">
        <ele>100</ele>
        <time>2026-07-12T18:10:18.000Z</time>
      </trkpt>
      <trkpt lat="43.35387" lon="-1.42844">
        <ele>99</ele>
        <time>2026-07-12T18:10:24.000Z</time>
      </trkpt>
      <trkpt lat="43.35387" lon="-1.42793">
        <ele>96</ele>
        <time>2026-07-12T18:10:31.000Z</time>
      </trkpt>
      <trkpt lat="43.35386" lon="-1.42752">
        <ele>93</ele>
        <time>2026-07-12T18:10:36.000Z</time>
      </trkpt>
      <trkpt lat="43.35387" lon="-1.42708">
        <ele>90</ele>
        <time>2026-07-12T18:10:42.000Z</time>
      </trkpt>
      <trkpt lat="43.35388" lon="-1.42682">
        <ele>88</ele>
        <time>2026-07-12T18:10:45.000Z</time>
      </trkpt>
      <trkpt lat="43.35388" lon="-1.4267">
        <ele>87</ele>
        <time>2026-07-12T18:10:47.000Z</time>
      </trkpt>
      <trkpt lat="43.35391" lon="-1.42632">
        <ele>85</ele>
        <time>2026-07-12T18:10:52.000Z</time>
      </trkpt>
      <trkpt lat="43.35396" lon="-1.42566">
        <ele>82</ele>
        <time>2026-07-12T18:11:00.000Z</time>
      </trkpt>
      <trkpt lat="43.35397" lon="-1.42547">
        <ele>83</ele>
        <time>2026-07-12T18:11:03.000Z</time>
      </trkpt>
      <trkpt lat="43.354" lon="-1.42525">
        <ele>83</ele>
        <time>2026-07-12T18:11:06.000Z</time>
      </trkpt>
      <trkpt lat="43.35406" lon="-1.42505">
        <ele>83</ele>
        <time>2026-07-12T18:11:08.000Z</time>
      </trkpt>
      <trkpt lat="43.35411" lon="-1.42489">
        <ele>83</ele>
        <time>2026-07-12T18:11:11.000Z</time>
      </trkpt>
      <trkpt lat="43.35418" lon="-1.42475">
        <ele>83</ele>
        <time>2026-07-12T18:11:13.000Z</time>
      </trkpt>
      <trkpt lat="43.35427" lon="-1.42462">
        <ele>82</ele>
        <time>2026-07-12T18:11:15.000Z</time>
      </trkpt>
      <trkpt lat="43.35451" lon="-1.42431">
        <ele>78</ele>
        <time>2026-07-12T18:11:21.000Z</time>
      </trkpt>
      <trkpt lat="43.35464" lon="-1.42414">
        <ele>77</ele>
        <time>2026-07-12T18:11:24.000Z</time>
      </trkpt>
      <trkpt lat="43.35475" lon="-1.42397">
        <ele>76</ele>
        <time>2026-07-12T18:11:27.000Z</time>
      </trkpt>
      <trkpt lat="43.35482" lon="-1.42384">
        <ele>76</ele>
        <time>2026-07-12T18:11:29.000Z</time>
      </trkpt>
      <trkpt lat="43.35487" lon="-1.42368">
        <ele>76</ele>
        <time>2026-07-12T18:11:31.000Z</time>
      </trkpt>
      <trkpt lat="43.35491" lon="-1.42351">
        <ele>77</ele>
        <time>2026-07-12T18:11:34.000Z</time>
      </trkpt>
      <trkpt lat="43.35493" lon="-1.42334">
        <ele>77</ele>
        <time>2026-07-12T18:11:36.000Z</time>
      </trkpt>
      <trkpt lat="43.35493" lon="-1.42323">
        <ele>77</ele>
        <time>2026-07-12T18:11:37.000Z</time>
      </trkpt>
      <trkpt lat="43.35492" lon="-1.42311">
        <ele>76</ele>
        <time>2026-07-12T18:11:39.000Z</time>
      </trkpt>
      <trkpt lat="43.35488" lon="-1.4227">
        <ele>73</ele>
        <time>2026-07-12T18:11:44.000Z</time>
      </trkpt>
      <trkpt lat="43.35485" lon="-1.42241">
        <ele>72</ele>
        <time>2026-07-12T18:11:48.000Z</time>
      </trkpt>
      <trkpt lat="43.35486" lon="-1.42227">
        <ele>72</ele>
        <time>2026-07-12T18:11:50.000Z</time>
      </trkpt>
      <trkpt lat="43.35491" lon="-1.42209">
        <ele>71</ele>
        <time>2026-07-12T18:11:52.000Z</time>
      </trkpt>
      <trkpt lat="43.35505" lon="-1.42164">
        <ele>68</ele>
        <time>2026-07-12T18:11:59.000Z</time>
      </trkpt>
      <trkpt lat="43.35513" lon="-1.42133">
        <ele>65</ele>
        <time>2026-07-12T18:12:03.000Z</time>
      </trkpt>
      <trkpt lat="43.35516" lon="-1.42118">
        <ele>64</ele>
        <time>2026-07-12T18:12:05.000Z</time>
      </trkpt>
      <trkpt lat="43.35517" lon="-1.42108">
        <ele>63</ele>
        <time>2026-07-12T18:12:06.000Z</time>
      </trkpt>
      <trkpt lat="43.35517" lon="-1.42095">
        <ele>62</ele>
        <time>2026-07-12T18:12:08.000Z</time>
      </trkpt>
      <trkpt lat="43.35515" lon="-1.42086">
        <ele>61</ele>
        <time>2026-07-12T18:12:09.000Z</time>
      </trkpt>
      <trkpt lat="43.35513" lon="-1.42079">
        <ele>61</ele>
        <time>2026-07-12T18:12:10.000Z</time>
      </trkpt>
      <trkpt lat="43.35511" lon="-1.42074">
        <ele>61</ele>
        <time>2026-07-12T18:12:11.000Z</time>
      </trkpt>
      <trkpt lat="43.35506" lon="-1.42063">
        <ele>61</ele>
        <time>2026-07-12T18:12:13.000Z</time>
      </trkpt>
      <trkpt lat="43.35498" lon="-1.42052">
        <ele>61</ele>
        <time>2026-07-12T18:12:15.000Z</time>
      </trkpt>
      <trkpt lat="43.35489" lon="-1.42043">
        <ele>60</ele>
        <time>2026-07-12T18:12:17.000Z</time>
      </trkpt>
      <trkpt lat="43.3548" lon="-1.42038">
        <ele>59</ele>
        <time>2026-07-12T18:12:18.000Z</time>
      </trkpt>
      <trkpt lat="43.35472" lon="-1.42036">
        <ele>59</ele>
        <time>2026-07-12T18:12:20.000Z</time>
      </trkpt>
      <trkpt lat="43.35461" lon="-1.42036">
        <ele>58</ele>
        <time>2026-07-12T18:12:22.000Z</time>
      </trkpt>
      <trkpt lat="43.3545" lon="-1.42038">
        <ele>58</ele>
        <time>2026-07-12T18:12:24.000Z</time>
      </trkpt>
      <trkpt lat="43.35436" lon="-1.42038">
        <ele>57</ele>
        <time>2026-07-12T18:12:26.000Z</time>
      </trkpt>
      <trkpt lat="43.35424" lon="-1.42036">
        <ele>56</ele>
        <time>2026-07-12T18:12:28.000Z</time>
      </trkpt>
      <trkpt lat="43.35413" lon="-1.42033">
        <ele>55</ele>
        <time>2026-07-12T18:12:30.000Z</time>
      </trkpt>
      <trkpt lat="43.35399" lon="-1.42028">
        <ele>54</ele>
        <time>2026-07-12T18:12:33.000Z</time>
      </trkpt>
      <trkpt lat="43.35388" lon="-1.42022">
        <ele>53</ele>
        <time>2026-07-12T18:12:35.000Z</time>
      </trkpt>
      <trkpt lat="43.35379" lon="-1.42014">
        <ele>52</ele>
        <time>2026-07-12T18:12:37.000Z</time>
      </trkpt>
      <trkpt lat="43.35369" lon="-1.42001">
        <ele>50</ele>
        <time>2026-07-12T18:12:39.000Z</time>
      </trkpt>
      <trkpt lat="43.35357" lon="-1.41982">
        <ele>50</ele>
        <time>2026-07-12T18:12:43.000Z</time>
      </trkpt>
      <trkpt lat="43.35354" lon="-1.41973">
        <ele>50</ele>
        <time>2026-07-12T18:12:44.000Z</time>
      </trkpt>
      <trkpt lat="43.35351" lon="-1.41966">
        <ele>50</ele>
        <time>2026-07-12T18:12:45.000Z</time>
      </trkpt>
      <trkpt lat="43.35348" lon="-1.41954">
        <ele>49</ele>
        <time>2026-07-12T18:12:47.000Z</time>
      </trkpt>
      <trkpt lat="43.35347" lon="-1.4195">
        <ele>49</ele>
        <time>2026-07-12T18:12:47.000Z</time>
      </trkpt>
      <trkpt lat="43.35346" lon="-1.4194">
        <ele>49</ele>
        <time>2026-07-12T18:12:49.000Z</time>
      </trkpt>
      <trkpt lat="43.35344" lon="-1.41933">
        <ele>49</ele>
        <time>2026-07-12T18:12:49.000Z</time>
      </trkpt>
      <trkpt lat="43.35343" lon="-1.41925">
        <ele>49</ele>
        <time>2026-07-12T18:12:51.000Z</time>
      </trkpt>
      <trkpt lat="43.35342" lon="-1.41918">
        <ele>49</ele>
        <time>2026-07-12T18:12:51.000Z</time>
      </trkpt>
      <trkpt lat="43.35342" lon="-1.41912">
        <ele>49</ele>
        <time>2026-07-12T18:12:52.000Z</time>
      </trkpt>
      <trkpt lat="43.35341" lon="-1.41907">
        <ele>49</ele>
        <time>2026-07-12T18:12:53.000Z</time>
      </trkpt>
      <trkpt lat="43.3534" lon="-1.41902">
        <ele>49</ele>
        <time>2026-07-12T18:12:54.000Z</time>
      </trkpt>
      <trkpt lat="43.35339" lon="-1.41898">
        <ele>49</ele>
        <time>2026-07-12T18:12:54.000Z</time>
      </trkpt>
      <trkpt lat="43.35338" lon="-1.41894">
        <ele>49</ele>
        <time>2026-07-12T18:12:55.000Z</time>
      </trkpt>
      <trkpt lat="43.35338" lon="-1.41894">
        <ele>49</ele>
        <time>2026-07-12T18:12:55.000Z</time>
      </trkpt>
      <trkpt lat="43.35337" lon="-1.41893">
        <ele>49</ele>
        <time>2026-07-12T18:12:55.000Z</time>
      </trkpt>
      <trkpt lat="43.35336" lon="-1.41892">
        <ele>49</ele>
        <time>2026-07-12T18:12:55.000Z</time>
      </trkpt>
      <trkpt lat="43.35336" lon="-1.41891">
        <ele>49</ele>
        <time>2026-07-12T18:12:55.000Z</time>
      </trkpt>
      <trkpt lat="43.35335" lon="-1.4189">
        <ele>49</ele>
        <time>2026-07-12T18:12:55.000Z</time>
      </trkpt>
      <trkpt lat="43.35334" lon="-1.41888">
        <ele>49</ele>
        <time>2026-07-12T18:12:56.000Z</time>
      </trkpt>
      <trkpt lat="43.35334" lon="-1.41887">
        <ele>49</ele>
        <time>2026-07-12T18:12:56.000Z</time>
      </trkpt>
      <trkpt lat="43.35333" lon="-1.41886">
        <ele>49</ele>
        <time>2026-07-12T18:12:56.000Z</time>
      </trkpt>
      <trkpt lat="43.35333" lon="-1.41885">
        <ele>49</ele>
        <time>2026-07-12T18:12:56.000Z</time>
      </trkpt>
      <trkpt lat="43.35332" lon="-1.41884">
        <ele>49</ele>
        <time>2026-07-12T18:12:56.000Z</time>
      </trkpt>
      <trkpt lat="43.35332" lon="-1.41882">
        <ele>49</ele>
        <time>2026-07-12T18:12:57.000Z</time>
      </trkpt>
      <trkpt lat="43.35332" lon="-1.41881">
        <ele>49</ele>
        <time>2026-07-12T18:12:57.000Z</time>
      </trkpt>
      <trkpt lat="43.35332" lon="-1.41879">
        <ele>50</ele>
        <time>2026-07-12T18:12:57.000Z</time>
      </trkpt>
      <trkpt lat="43.35331" lon="-1.41878">
        <ele>50</ele>
        <time>2026-07-12T18:12:57.000Z</time>
      </trkpt>
      <trkpt lat="43.35331" lon="-1.41877">
        <ele>50</ele>
        <time>2026-07-12T18:12:57.000Z</time>
      </trkpt>
      <trkpt lat="43.35331" lon="-1.41875">
        <ele>50</ele>
        <time>2026-07-12T18:12:58.000Z</time>
      </trkpt>
      <trkpt lat="43.35331" lon="-1.41874">
        <ele>50</ele>
        <time>2026-07-12T18:12:58.000Z</time>
      </trkpt>
      <trkpt lat="43.35332" lon="-1.41872">
        <ele>50</ele>
        <time>2026-07-12T18:12:58.000Z</time>
      </trkpt>
      <trkpt lat="43.35332" lon="-1.41871">
        <ele>50</ele>
        <time>2026-07-12T18:12:58.000Z</time>
      </trkpt>
      <trkpt lat="43.35332" lon="-1.4187">
        <ele>50</ele>
        <time>2026-07-12T18:12:58.000Z</time>
      </trkpt>
      <trkpt lat="43.35332" lon="-1.41868">
        <ele>50</ele>
        <time>2026-07-12T18:12:59.000Z</time>
      </trkpt>
      <trkpt lat="43.35333" lon="-1.41867">
        <ele>50</ele>
        <time>2026-07-12T18:12:59.000Z</time>
      </trkpt>
      <trkpt lat="43.35334" lon="-1.41865">
        <ele>50</ele>
        <time>2026-07-12T18:12:59.000Z</time>
      </trkpt>
      <trkpt lat="43.35333" lon="-1.41859">
        <ele>50</ele>
        <time>2026-07-12T18:13:00.000Z</time>
      </trkpt>
      <trkpt lat="43.35331" lon="-1.41851">
        <ele>50</ele>
        <time>2026-07-12T18:13:01.000Z</time>
      </trkpt>
      <trkpt lat="43.35328" lon="-1.41843">
        <ele>50</ele>
        <time>2026-07-12T18:13:02.000Z</time>
      </trkpt>
      <trkpt lat="43.35324" lon="-1.41835">
        <ele>51</ele>
        <time>2026-07-12T18:13:04.000Z</time>
      </trkpt>
      <trkpt lat="43.35319" lon="-1.41829">
        <ele>51</ele>
        <time>2026-07-12T18:13:05.000Z</time>
      </trkpt>
      <trkpt lat="43.35312" lon="-1.41822">
        <ele>52</ele>
        <time>2026-07-12T18:13:06.000Z</time>
      </trkpt>
      <trkpt lat="43.35301" lon="-1.41811">
        <ele>53</ele>
        <time>2026-07-12T18:13:09.000Z</time>
      </trkpt>
      <trkpt lat="43.35287" lon="-1.41799">
        <ele>54</ele>
        <time>2026-07-12T18:13:12.000Z</time>
      </trkpt>
      <trkpt lat="43.35276" lon="-1.41789">
        <ele>55</ele>
        <time>2026-07-12T18:13:14.000Z</time>
      </trkpt>
      <trkpt lat="43.35245" lon="-1.41758">
        <ele>56</ele>
        <time>2026-07-12T18:13:21.000Z</time>
      </trkpt>
      <trkpt lat="43.35215" lon="-1.4173">
        <ele>57</ele>
        <time>2026-07-12T18:13:27.000Z</time>
      </trkpt>
      <trkpt lat="43.35212" lon="-1.41727">
        <ele>57</ele>
        <time>2026-07-12T18:13:28.000Z</time>
      </trkpt>
      <trkpt lat="43.35205" lon="-1.4172">
        <ele>57</ele>
        <time>2026-07-12T18:13:29.000Z</time>
      </trkpt>
      <trkpt lat="43.35201" lon="-1.41717">
        <ele>57</ele>
        <time>2026-07-12T18:13:30.000Z</time>
      </trkpt>
      <trkpt lat="43.35192" lon="-1.41711">
        <ele>57</ele>
        <time>2026-07-12T18:13:32.000Z</time>
      </trkpt>
      <trkpt lat="43.35192" lon="-1.41711">
        <ele>57</ele>
        <time>2026-07-12T18:13:32.000Z</time>
      </trkpt>
      <trkpt lat="43.35191" lon="-1.41712">
        <ele>57</ele>
        <time>2026-07-12T18:13:32.000Z</time>
      </trkpt>
      <trkpt lat="43.35191" lon="-1.41713">
        <ele>57</ele>
        <time>2026-07-12T18:13:32.000Z</time>
      </trkpt>
      <trkpt lat="43.3519" lon="-1.41713">
        <ele>57</ele>
        <time>2026-07-12T18:13:33.000Z</time>
      </trkpt>
      <trkpt lat="43.3519" lon="-1.41714">
        <ele>57</ele>
        <time>2026-07-12T18:13:33.000Z</time>
      </trkpt>
      <trkpt lat="43.35189" lon="-1.41714">
        <ele>57</ele>
        <time>2026-07-12T18:13:33.000Z</time>
      </trkpt>
      <trkpt lat="43.35188" lon="-1.41714">
        <ele>57</ele>
        <time>2026-07-12T18:13:33.000Z</time>
      </trkpt>
      <trkpt lat="43.35188" lon="-1.41715">
        <ele>57</ele>
        <time>2026-07-12T18:13:33.000Z</time>
      </trkpt>
      <trkpt lat="43.35187" lon="-1.41715">
        <ele>57</ele>
        <time>2026-07-12T18:13:33.000Z</time>
      </trkpt>
      <trkpt lat="43.35186" lon="-1.41715">
        <ele>57</ele>
        <time>2026-07-12T18:13:34.000Z</time>
      </trkpt>
      <trkpt lat="43.35185" lon="-1.41715">
        <ele>57</ele>
        <time>2026-07-12T18:13:34.000Z</time>
      </trkpt>
      <trkpt lat="43.35184" lon="-1.41715">
        <ele>57</ele>
        <time>2026-07-12T18:13:34.000Z</time>
      </trkpt>
      <trkpt lat="43.35184" lon="-1.41714">
        <ele>57</ele>
        <time>2026-07-12T18:13:34.000Z</time>
      </trkpt>
      <trkpt lat="43.35183" lon="-1.41714">
        <ele>57</ele>
        <time>2026-07-12T18:13:34.000Z</time>
      </trkpt>
      <trkpt lat="43.35182" lon="-1.41713">
        <ele>57</ele>
        <time>2026-07-12T18:13:34.000Z</time>
      </trkpt>
      <trkpt lat="43.35181" lon="-1.41712">
        <ele>57</ele>
        <time>2026-07-12T18:13:35.000Z</time>
      </trkpt>
      <trkpt lat="43.35181" lon="-1.41711">
        <ele>57</ele>
        <time>2026-07-12T18:13:35.000Z</time>
      </trkpt>
      <trkpt lat="43.3518" lon="-1.41711">
        <ele>57</ele>
        <time>2026-07-12T18:13:35.000Z</time>
      </trkpt>
      <trkpt lat="43.3518" lon="-1.4171">
        <ele>57</ele>
        <time>2026-07-12T18:13:35.000Z</time>
      </trkpt>
      <trkpt lat="43.3518" lon="-1.41709">
        <ele>57</ele>
        <time>2026-07-12T18:13:35.000Z</time>
      </trkpt>
      <trkpt lat="43.35179" lon="-1.41709">
        <ele>57</ele>
        <time>2026-07-12T18:13:35.000Z</time>
      </trkpt>
      <trkpt lat="43.35179" lon="-1.41708">
        <ele>57</ele>
        <time>2026-07-12T18:13:35.000Z</time>
      </trkpt>
      <trkpt lat="43.35179" lon="-1.41707">
        <ele>57</ele>
        <time>2026-07-12T18:13:36.000Z</time>
      </trkpt>
      <trkpt lat="43.35179" lon="-1.41706">
        <ele>57</ele>
        <time>2026-07-12T18:13:36.000Z</time>
      </trkpt>
      <trkpt lat="43.35179" lon="-1.41705">
        <ele>57</ele>
        <time>2026-07-12T18:13:36.000Z</time>
      </trkpt>
      <trkpt lat="43.35179" lon="-1.41704">
        <ele>57</ele>
        <time>2026-07-12T18:13:36.000Z</time>
      </trkpt>
      <trkpt lat="43.35179" lon="-1.41703">
        <ele>57</ele>
        <time>2026-07-12T18:13:36.000Z</time>
      </trkpt>
      <trkpt lat="43.35179" lon="-1.41702">
        <ele>57</ele>
        <time>2026-07-12T18:13:36.000Z</time>
      </trkpt>
      <trkpt lat="43.3518" lon="-1.41701">
        <ele>58</ele>
        <time>2026-07-12T18:13:36.000Z</time>
      </trkpt>
      <trkpt lat="43.3518" lon="-1.417">
        <ele>58</ele>
        <time>2026-07-12T18:13:37.000Z</time>
      </trkpt>
      <trkpt lat="43.3518" lon="-1.41699">
        <ele>58</ele>
        <time>2026-07-12T18:13:37.000Z</time>
      </trkpt>
      <trkpt lat="43.35181" lon="-1.41699">
        <ele>58</ele>
        <time>2026-07-12T18:13:37.000Z</time>
      </trkpt>
      <trkpt lat="43.35181" lon="-1.41698">
        <ele>58</ele>
        <time>2026-07-12T18:13:37.000Z</time>
      </trkpt>
      <trkpt lat="43.35182" lon="-1.41697">
        <ele>58</ele>
        <time>2026-07-12T18:13:37.000Z</time>
      </trkpt>
      <trkpt lat="43.35181" lon="-1.4169">
        <ele>58</ele>
        <time>2026-07-12T18:13:38.000Z</time>
      </trkpt>
      <trkpt lat="43.3518" lon="-1.41684">
        <ele>58</ele>
        <time>2026-07-12T18:13:39.000Z</time>
      </trkpt>
      <trkpt lat="43.35178" lon="-1.41678">
        <ele>59</ele>
        <time>2026-07-12T18:13:40.000Z</time>
      </trkpt>
      <trkpt lat="43.3516" lon="-1.41644">
        <ele>60</ele>
        <time>2026-07-12T18:13:45.000Z</time>
      </trkpt>
      <trkpt lat="43.3516" lon="-1.41644">
        <ele>60</ele>
        <time>2026-07-12T18:13:45.000Z</time>
      </trkpt>
      <trkpt lat="43.35157" lon="-1.4164">
        <ele>60</ele>
        <time>2026-07-12T18:13:46.000Z</time>
      </trkpt>
      <trkpt lat="43.35143" lon="-1.41621">
        <ele>61</ele>
        <time>2026-07-12T18:13:50.000Z</time>
      </trkpt>
      <trkpt lat="43.35114" lon="-1.41583">
        <ele>63</ele>
        <time>2026-07-12T18:13:57.000Z</time>
      </trkpt>
      <trkpt lat="43.35109" lon="-1.41576">
        <ele>63</ele>
        <time>2026-07-12T18:13:58.000Z</time>
      </trkpt>
      <trkpt lat="43.35095" lon="-1.41556">
        <ele>63</ele>
        <time>2026-07-12T18:14:02.000Z</time>
      </trkpt>
      <trkpt lat="43.35084" lon="-1.41538">
        <ele>64</ele>
        <time>2026-07-12T18:14:05.000Z</time>
      </trkpt>
      <trkpt lat="43.35075" lon="-1.41522">
        <ele>64</ele>
        <time>2026-07-12T18:14:07.000Z</time>
      </trkpt>
      <trkpt lat="43.35064" lon="-1.41502">
        <ele>64</ele>
        <time>2026-07-12T18:14:10.000Z</time>
      </trkpt>
      <trkpt lat="43.35053" lon="-1.4148">
        <ele>66</ele>
        <time>2026-07-12T18:14:14.000Z</time>
      </trkpt>
      <trkpt lat="43.35036" lon="-1.41437">
        <ele>67</ele>
        <time>2026-07-12T18:14:20.000Z</time>
      </trkpt>
      <trkpt lat="43.35012" lon="-1.41366">
        <ele>70</ele>
        <time>2026-07-12T18:14:30.000Z</time>
      </trkpt>
      <trkpt lat="43.34975" lon="-1.41267">
        <ele>73</ele>
        <time>2026-07-12T18:14:45.000Z</time>
      </trkpt>
      <trkpt lat="43.34963" lon="-1.41236">
        <ele>74</ele>
        <time>2026-07-12T18:14:49.000Z</time>
      </trkpt>
      <trkpt lat="43.3495" lon="-1.41196">
        <ele>77</ele>
        <time>2026-07-12T18:14:55.000Z</time>
      </trkpt>
      <trkpt lat="43.34937" lon="-1.41155">
        <ele>79</ele>
        <time>2026-07-12T18:15:01.000Z</time>
      </trkpt>
      <trkpt lat="43.34926" lon="-1.41115">
        <ele>82</ele>
        <time>2026-07-12T18:15:06.000Z</time>
      </trkpt>
      <trkpt lat="43.34916" lon="-1.41078">
        <ele>84</ele>
        <time>2026-07-12T18:15:11.000Z</time>
      </trkpt>
      <trkpt lat="43.34908" lon="-1.41041">
        <ele>87</ele>
        <time>2026-07-12T18:15:16.000Z</time>
      </trkpt>
      <trkpt lat="43.349" lon="-1.41">
        <ele>90</ele>
        <time>2026-07-12T18:15:22.000Z</time>
      </trkpt>
      <trkpt lat="43.34888" lon="-1.40934">
        <ele>92</ele>
        <time>2026-07-12T18:15:31.000Z</time>
      </trkpt>
      <trkpt lat="43.34881" lon="-1.40895">
        <ele>93</ele>
        <time>2026-07-12T18:15:36.000Z</time>
      </trkpt>
      <trkpt lat="43.34877" lon="-1.40858">
        <ele>96</ele>
        <time>2026-07-12T18:15:41.000Z</time>
      </trkpt>
      <trkpt lat="43.34871" lon="-1.40806">
        <ele>98</ele>
        <time>2026-07-12T18:15:48.000Z</time>
      </trkpt>
      <trkpt lat="43.34866" lon="-1.40765">
        <ele>100</ele>
        <time>2026-07-12T18:15:53.000Z</time>
      </trkpt>
      <trkpt lat="43.34859" lon="-1.40721">
        <ele>100</ele>
        <time>2026-07-12T18:15:59.000Z</time>
      </trkpt>
      <trkpt lat="43.34854" lon="-1.40693">
        <ele>101</ele>
        <time>2026-07-12T18:16:02.000Z</time>
      </trkpt>
      <trkpt lat="43.34849" lon="-1.40676">
        <ele>100</ele>
        <time>2026-07-12T18:16:05.000Z</time>
      </trkpt>
      <trkpt lat="43.34844" lon="-1.40658">
        <ele>100</ele>
        <time>2026-07-12T18:16:07.000Z</time>
      </trkpt>
      <trkpt lat="43.34836" lon="-1.40632">
        <ele>99</ele>
        <time>2026-07-12T18:16:11.000Z</time>
      </trkpt>
      <trkpt lat="43.34825" lon="-1.40604">
        <ele>99</ele>
        <time>2026-07-12T18:16:15.000Z</time>
      </trkpt>
      <trkpt lat="43.34813" lon="-1.40581">
        <ele>98</ele>
        <time>2026-07-12T18:16:19.000Z</time>
      </trkpt>
      <trkpt lat="43.34803" lon="-1.40562">
        <ele>97</ele>
        <time>2026-07-12T18:16:22.000Z</time>
      </trkpt>
      <trkpt lat="43.34788" lon="-1.40539">
        <ele>96</ele>
        <time>2026-07-12T18:16:26.000Z</time>
      </trkpt>
      <trkpt lat="43.34768" lon="-1.4051">
        <ele>94</ele>
        <time>2026-07-12T18:16:31.000Z</time>
      </trkpt>
      <trkpt lat="43.34741" lon="-1.40474">
        <ele>91</ele>
        <time>2026-07-12T18:16:38.000Z</time>
      </trkpt>
      <trkpt lat="43.34706" lon="-1.40427">
        <ele>89</ele>
        <time>2026-07-12T18:16:46.000Z</time>
      </trkpt>
      <trkpt lat="43.34676" lon="-1.40388">
        <ele>89</ele>
        <time>2026-07-12T18:16:54.000Z</time>
      </trkpt>
      <trkpt lat="43.34656" lon="-1.40361">
        <ele>87</ele>
        <time>2026-07-12T18:16:59.000Z</time>
      </trkpt>
      <trkpt lat="43.34648" lon="-1.40351">
        <ele>87</ele>
        <time>2026-07-12T18:17:01.000Z</time>
      </trkpt>
      <trkpt lat="43.34636" lon="-1.4034">
        <ele>87</ele>
        <time>2026-07-12T18:17:03.000Z</time>
      </trkpt>
      <trkpt lat="43.34615" lon="-1.40313">
        <ele>87</ele>
        <time>2026-07-12T18:17:08.000Z</time>
      </trkpt>
      <trkpt lat="43.34586" lon="-1.40282">
        <ele>86</ele>
        <time>2026-07-12T18:17:15.000Z</time>
      </trkpt>
      <trkpt lat="43.34557" lon="-1.40261">
        <ele>85</ele>
        <time>2026-07-12T18:17:21.000Z</time>
      </trkpt>
      <trkpt lat="43.34547" lon="-1.40255">
        <ele>85</ele>
        <time>2026-07-12T18:17:23.000Z</time>
      </trkpt>
      <trkpt lat="43.3453" lon="-1.40245">
        <ele>85</ele>
        <time>2026-07-12T18:17:26.000Z</time>
      </trkpt>
      <trkpt lat="43.3453" lon="-1.40245">
        <ele>85</ele>
        <time>2026-07-12T18:17:26.000Z</time>
      </trkpt>
      <trkpt lat="43.34482" lon="-1.40228">
        <ele>85</ele>
        <time>2026-07-12T18:17:35.000Z</time>
      </trkpt>
      <trkpt lat="43.34472" lon="-1.40225">
        <ele>85</ele>
        <time>2026-07-12T18:17:37.000Z</time>
      </trkpt>
      <trkpt lat="43.34472" lon="-1.40225">
        <ele>85</ele>
        <time>2026-07-12T18:17:37.000Z</time>
      </trkpt>
      <trkpt lat="43.34466" lon="-1.40224">
        <ele>85</ele>
        <time>2026-07-12T18:17:38.000Z</time>
      </trkpt>
      <trkpt lat="43.34467" lon="-1.40216">
        <ele>86</ele>
        <time>2026-07-12T18:17:39.000Z</time>
      </trkpt>
      <trkpt lat="43.34468" lon="-1.40206">
        <ele>86</ele>
        <time>2026-07-12T18:17:40.000Z</time>
      </trkpt>
      <trkpt lat="43.34469" lon="-1.402">
        <ele>86</ele>
        <time>2026-07-12T18:17:41.000Z</time>
      </trkpt>
      <trkpt lat="43.34472" lon="-1.40194">
        <ele>86</ele>
        <time>2026-07-12T18:17:42.000Z</time>
      </trkpt>
      <trkpt lat="43.34476" lon="-1.40186">
        <ele>86</ele>
        <time>2026-07-12T18:17:43.000Z</time>
      </trkpt>
      <trkpt lat="43.34484" lon="-1.40174">
        <ele>86</ele>
        <time>2026-07-12T18:17:45.000Z</time>
      </trkpt>
      <trkpt lat="43.3449" lon="-1.40166">
        <ele>86</ele>
        <time>2026-07-12T18:17:47.000Z</time>
      </trkpt>
      <trkpt lat="43.34498" lon="-1.40152">
        <ele>87</ele>
        <time>2026-07-12T18:17:49.000Z</time>
      </trkpt>
      <trkpt lat="43.34503" lon="-1.40144">
        <ele>88</ele>
        <time>2026-07-12T18:17:50.000Z</time>
      </trkpt>
      <trkpt lat="43.34508" lon="-1.40135">
        <ele>88</ele>
        <time>2026-07-12T18:17:52.000Z</time>
      </trkpt>
      <trkpt lat="43.34512" lon="-1.40131">
        <ele>88</ele>
        <time>2026-07-12T18:17:53.000Z</time>
      </trkpt>
      <trkpt lat="43.34515" lon="-1.40127">
        <ele>88</ele>
        <time>2026-07-12T18:17:53.000Z</time>
      </trkpt>
      <trkpt lat="43.34527" lon="-1.40117">
        <ele>89</ele>
        <time>2026-07-12T18:17:56.000Z</time>
      </trkpt>
      <trkpt lat="43.34544" lon="-1.40103">
        <ele>89</ele>
        <time>2026-07-12T18:17:59.000Z</time>
      </trkpt>
      <trkpt lat="43.34577" lon="-1.40074">
        <ele>89</ele>
        <time>2026-07-12T18:18:06.000Z</time>
      </trkpt>
      <trkpt lat="43.34583" lon="-1.40068">
        <ele>89</ele>
        <time>2026-07-12T18:18:08.000Z</time>
      </trkpt>
      <trkpt lat="43.34607" lon="-1.40048">
        <ele>88</ele>
        <time>2026-07-12T18:18:13.000Z</time>
      </trkpt>
      <trkpt lat="43.34644" lon="-1.40014">
        <ele>87</ele>
        <time>2026-07-12T18:18:21.000Z</time>
      </trkpt>
      <trkpt lat="43.34666" lon="-1.39997">
        <ele>86</ele>
        <time>2026-07-12T18:18:25.000Z</time>
      </trkpt>
      <trkpt lat="43.34679" lon="-1.3999">
        <ele>87</ele>
        <time>2026-07-12T18:18:28.000Z</time>
      </trkpt>
      <trkpt lat="43.34687" lon="-1.39986">
        <ele>88</ele>
        <time>2026-07-12T18:18:29.000Z</time>
      </trkpt>
      <trkpt lat="43.34698" lon="-1.39981">
        <ele>88</ele>
        <time>2026-07-12T18:18:31.000Z</time>
      </trkpt>
      <trkpt lat="43.34719" lon="-1.39974">
        <ele>89</ele>
        <time>2026-07-12T18:18:35.000Z</time>
      </trkpt>
      <trkpt lat="43.34747" lon="-1.39964">
        <ele>89</ele>
        <time>2026-07-12T18:18:40.000Z</time>
      </trkpt>
      <trkpt lat="43.34773" lon="-1.39956">
        <ele>91</ele>
        <time>2026-07-12T18:18:45.000Z</time>
      </trkpt>
      <trkpt lat="43.34793" lon="-1.39951">
        <ele>92</ele>
        <time>2026-07-12T18:18:48.000Z</time>
      </trkpt>
      <trkpt lat="43.34814" lon="-1.39947">
        <ele>93</ele>
        <time>2026-07-12T18:18:52.000Z</time>
      </trkpt>
      <trkpt lat="43.34838" lon="-1.39942">
        <ele>94</ele>
        <time>2026-07-12T18:18:57.000Z</time>
      </trkpt>
      <trkpt lat="43.34864" lon="-1.39936">
        <ele>96</ele>
        <time>2026-07-12T18:19:01.000Z</time>
      </trkpt>
      <trkpt lat="43.3487" lon="-1.39935">
        <ele>96</ele>
        <time>2026-07-12T18:19:02.000Z</time>
      </trkpt>
      <trkpt lat="43.3491" lon="-1.39925">
        <ele>98</ele>
        <time>2026-07-12T18:19:10.000Z</time>
      </trkpt>
      <trkpt lat="43.3492" lon="-1.39922">
        <ele>99</ele>
        <time>2026-07-12T18:19:11.000Z</time>
      </trkpt>
      <trkpt lat="43.34942" lon="-1.39916">
        <ele>99</ele>
        <time>2026-07-12T18:19:15.000Z</time>
      </trkpt>
      <trkpt lat="43.35118" lon="-1.39864">
        <ele>81</ele>
        <time>2026-07-12T18:19:47.000Z</time>
      </trkpt>
      <trkpt lat="43.35188" lon="-1.39842">
        <ele>74</ele>
        <time>2026-07-12T18:20:00.000Z</time>
      </trkpt>
      <trkpt lat="43.35206" lon="-1.39837">
        <ele>72</ele>
        <time>2026-07-12T18:20:03.000Z</time>
      </trkpt>
      <trkpt lat="43.35219" lon="-1.39834">
        <ele>71</ele>
        <time>2026-07-12T18:20:06.000Z</time>
      </trkpt>
      <trkpt lat="43.35225" lon="-1.39833">
        <ele>70</ele>
        <time>2026-07-12T18:20:07.000Z</time>
      </trkpt>
      <trkpt lat="43.3524" lon="-1.39834">
        <ele>69</ele>
        <time>2026-07-12T18:20:10.000Z</time>
      </trkpt>
      <trkpt lat="43.35247" lon="-1.39829">
        <ele>68</ele>
        <time>2026-07-12T18:20:11.000Z</time>
      </trkpt>
      <trkpt lat="43.35265" lon="-1.39827">
        <ele>68</ele>
        <time>2026-07-12T18:20:14.000Z</time>
      </trkpt>
      <trkpt lat="43.35265" lon="-1.39827">
        <ele>68</ele>
        <time>2026-07-12T18:20:14.000Z</time>
      </trkpt>
      <trkpt lat="43.35266" lon="-1.39824">
        <ele>68</ele>
        <time>2026-07-12T18:20:15.000Z</time>
      </trkpt>
      <trkpt lat="43.35268" lon="-1.39822">
        <ele>68</ele>
        <time>2026-07-12T18:20:15.000Z</time>
      </trkpt>
      <trkpt lat="43.35269" lon="-1.39821">
        <ele>68</ele>
        <time>2026-07-12T18:20:15.000Z</time>
      </trkpt>
      <trkpt lat="43.35272" lon="-1.3982">
        <ele>68</ele>
        <time>2026-07-12T18:20:16.000Z</time>
      </trkpt>
      <trkpt lat="43.35271" lon="-1.39797">
        <ele>69</ele>
        <time>2026-07-12T18:20:19.000Z</time>
      </trkpt>
      <trkpt lat="43.3527" lon="-1.39782">
        <ele>69</ele>
        <time>2026-07-12T18:20:21.000Z</time>
      </trkpt>
      <trkpt lat="43.35271" lon="-1.39767">
        <ele>69</ele>
        <time>2026-07-12T18:20:23.000Z</time>
      </trkpt>
      <trkpt lat="43.35275" lon="-1.39748">
        <ele>69</ele>
        <time>2026-07-12T18:20:25.000Z</time>
      </trkpt>
      <trkpt lat="43.35277" lon="-1.39734">
        <ele>70</ele>
        <time>2026-07-12T18:20:27.000Z</time>
      </trkpt>
      <trkpt lat="43.35285" lon="-1.39712">
        <ele>70</ele>
        <time>2026-07-12T18:20:30.000Z</time>
      </trkpt>
      <trkpt lat="43.35289" lon="-1.39703">
        <ele>70</ele>
        <time>2026-07-12T18:20:32.000Z</time>
      </trkpt>
      <trkpt lat="43.35292" lon="-1.39697">
        <ele>70</ele>
        <time>2026-07-12T18:20:33.000Z</time>
      </trkpt>
      <trkpt lat="43.35295" lon="-1.39692">
        <ele>70</ele>
        <time>2026-07-12T18:20:33.000Z</time>
      </trkpt>
      <trkpt lat="43.35301" lon="-1.39683">
        <ele>70</ele>
        <time>2026-07-12T18:20:35.000Z</time>
      </trkpt>
      <trkpt lat="43.35313" lon="-1.39659">
        <ele>69</ele>
        <time>2026-07-12T18:20:39.000Z</time>
      </trkpt>
      <trkpt lat="43.35334" lon="-1.39605">
        <ele>68</ele>
        <time>2026-07-12T18:20:47.000Z</time>
      </trkpt>
      <trkpt lat="43.35351" lon="-1.39548">
        <ele>70</ele>
        <time>2026-07-12T18:20:55.000Z</time>
      </trkpt>
      <trkpt lat="43.35363" lon="-1.39489">
        <ele>73</ele>
        <time>2026-07-12T18:21:03.000Z</time>
      </trkpt>
      <trkpt lat="43.35374" lon="-1.39434">
        <ele>74</ele>
        <time>2026-07-12T18:21:10.000Z</time>
      </trkpt>
      <trkpt lat="43.35389" lon="-1.39382">
        <ele>73</ele>
        <time>2026-07-12T18:21:17.000Z</time>
      </trkpt>
      <trkpt lat="43.35405" lon="-1.39329">
        <ele>68</ele>
        <time>2026-07-12T18:21:25.000Z</time>
      </trkpt>
      <trkpt lat="43.35441" lon="-1.39251">
        <ele>56</ele>
        <time>2026-07-12T18:21:37.000Z</time>
      </trkpt>
      <trkpt lat="43.35447" lon="-1.39232">
        <ele>55</ele>
        <time>2026-07-12T18:21:39.000Z</time>
      </trkpt>
      <trkpt lat="43.35447" lon="-1.39232">
        <ele>55</ele>
        <time>2026-07-12T18:21:39.000Z</time>
      </trkpt>
      <trkpt lat="43.35447" lon="-1.39227">
        <ele>55</ele>
        <time>2026-07-12T18:21:40.000Z</time>
      </trkpt>
      <trkpt lat="43.35447" lon="-1.39223">
        <ele>55</ele>
        <time>2026-07-12T18:21:40.000Z</time>
      </trkpt>
      <trkpt lat="43.35447" lon="-1.39218">
        <ele>55</ele>
        <time>2026-07-12T18:21:41.000Z</time>
      </trkpt>
      <trkpt lat="43.35448" lon="-1.39215">
        <ele>55</ele>
        <time>2026-07-12T18:21:41.000Z</time>
      </trkpt>
      <trkpt lat="43.35448" lon="-1.39211">
        <ele>54</ele>
        <time>2026-07-12T18:21:42.000Z</time>
      </trkpt>
      <trkpt lat="43.3545" lon="-1.39208">
        <ele>54</ele>
        <time>2026-07-12T18:21:42.000Z</time>
      </trkpt>
      <trkpt lat="43.35452" lon="-1.39206">
        <ele>54</ele>
        <time>2026-07-12T18:21:43.000Z</time>
      </trkpt>
      <trkpt lat="43.35456" lon="-1.39204">
        <ele>53</ele>
        <time>2026-07-12T18:21:44.000Z</time>
      </trkpt>
      <trkpt lat="43.35458" lon="-1.39204">
        <ele>53</ele>
        <time>2026-07-12T18:21:44.000Z</time>
      </trkpt>
      <trkpt lat="43.35461" lon="-1.39204">
        <ele>52</ele>
        <time>2026-07-12T18:21:45.000Z</time>
      </trkpt>
      <trkpt lat="43.35463" lon="-1.39205">
        <ele>52</ele>
        <time>2026-07-12T18:21:45.000Z</time>
      </trkpt>
      <trkpt lat="43.35465" lon="-1.39207">
        <ele>52</ele>
        <time>2026-07-12T18:21:45.000Z</time>
      </trkpt>
      <trkpt lat="43.35466" lon="-1.39208">
        <ele>52</ele>
        <time>2026-07-12T18:21:46.000Z</time>
      </trkpt>
      <trkpt lat="43.35471" lon="-1.39201">
        <ele>50</ele>
        <time>2026-07-12T18:21:47.000Z</time>
      </trkpt>
      <trkpt lat="43.35475" lon="-1.39193">
        <ele>49</ele>
        <time>2026-07-12T18:21:48.000Z</time>
      </trkpt>
      <trkpt lat="43.35479" lon="-1.39184">
        <ele>47</ele>
        <time>2026-07-12T18:21:50.000Z</time>
      </trkpt>
      <trkpt lat="43.35485" lon="-1.39171">
        <ele>44</ele>
        <time>2026-07-12T18:21:52.000Z</time>
      </trkpt>
      <trkpt lat="43.35488" lon="-1.39166">
        <ele>42</ele>
        <time>2026-07-12T18:21:52.000Z</time>
      </trkpt>
      <trkpt lat="43.3549" lon="-1.39161">
        <ele>42</ele>
        <time>2026-07-12T18:21:53.000Z</time>
      </trkpt>
      <trkpt lat="43.35494" lon="-1.39155">
        <ele>41</ele>
        <time>2026-07-12T18:21:54.000Z</time>
      </trkpt>
      <trkpt lat="43.35507" lon="-1.39138">
        <ele>38</ele>
        <time>2026-07-12T18:21:57.000Z</time>
      </trkpt>
      <trkpt lat="43.35523" lon="-1.39118">
        <ele>37</ele>
        <time>2026-07-12T18:22:01.000Z</time>
      </trkpt>
      <trkpt lat="43.35536" lon="-1.39106">
        <ele>35</ele>
        <time>2026-07-12T18:22:04.000Z</time>
      </trkpt>
      <trkpt lat="43.35544" lon="-1.39097">
        <ele>34</ele>
        <time>2026-07-12T18:22:06.000Z</time>
      </trkpt>
      <trkpt lat="43.35551" lon="-1.39091">
        <ele>33</ele>
        <time>2026-07-12T18:22:07.000Z</time>
      </trkpt>
      <trkpt lat="43.35559" lon="-1.39084">
        <ele>31</ele>
        <time>2026-07-12T18:22:09.000Z</time>
      </trkpt>
      <trkpt lat="43.35564" lon="-1.3908">
        <ele>31</ele>
        <time>2026-07-12T18:22:10.000Z</time>
      </trkpt>
      <trkpt lat="43.35571" lon="-1.39076">
        <ele>30</ele>
        <time>2026-07-12T18:22:11.000Z</time>
      </trkpt>
      <trkpt lat="43.35582" lon="-1.3907">
        <ele>28</ele>
        <time>2026-07-12T18:22:13.000Z</time>
      </trkpt>
      <trkpt lat="43.35593" lon="-1.39065">
        <ele>27</ele>
        <time>2026-07-12T18:22:16.000Z</time>
      </trkpt>
      <trkpt lat="43.35614" lon="-1.39056">
        <ele>25</ele>
        <time>2026-07-12T18:22:19.000Z</time>
      </trkpt>
      <trkpt lat="43.35644" lon="-1.39044">
        <ele>23</ele>
        <time>2026-07-12T18:22:25.000Z</time>
      </trkpt>
      <trkpt lat="43.35674" lon="-1.39033">
        <ele>22</ele>
        <time>2026-07-12T18:22:30.000Z</time>
      </trkpt>
      <trkpt lat="43.35679" lon="-1.39031">
        <ele>23</ele>
        <time>2026-07-12T18:22:31.000Z</time>
      </trkpt>
      <trkpt lat="43.35682" lon="-1.3903">
        <ele>23</ele>
        <time>2026-07-12T18:22:32.000Z</time>
      </trkpt>
      <trkpt lat="43.35689" lon="-1.39029">
        <ele>24</ele>
        <time>2026-07-12T18:22:33.000Z</time>
      </trkpt>
      <trkpt lat="43.35697" lon="-1.39029">
        <ele>26</ele>
        <time>2026-07-12T18:22:35.000Z</time>
      </trkpt>
      <trkpt lat="43.35705" lon="-1.39029">
        <ele>27</ele>
        <time>2026-07-12T18:22:36.000Z</time>
      </trkpt>
      <trkpt lat="43.35711" lon="-1.39031">
        <ele>28</ele>
        <time>2026-07-12T18:22:37.000Z</time>
      </trkpt>
      <trkpt lat="43.35716" lon="-1.39033">
        <ele>28</ele>
        <time>2026-07-12T18:22:38.000Z</time>
      </trkpt>
      <trkpt lat="43.35719" lon="-1.39036">
        <ele>29</ele>
        <time>2026-07-12T18:22:39.000Z</time>
      </trkpt>
      <trkpt lat="43.35722" lon="-1.39038">
        <ele>29</ele>
        <time>2026-07-12T18:22:39.000Z</time>
      </trkpt>
      <trkpt lat="43.35724" lon="-1.3904">
        <ele>29</ele>
        <time>2026-07-12T18:22:40.000Z</time>
      </trkpt>
      <trkpt lat="43.35727" lon="-1.39045">
        <ele>29</ele>
        <time>2026-07-12T18:22:41.000Z</time>
      </trkpt>
      <trkpt lat="43.35735" lon="-1.39058">
        <ele>29</ele>
        <time>2026-07-12T18:22:43.000Z</time>
      </trkpt>
      <trkpt lat="43.35746" lon="-1.39077">
        <ele>29</ele>
        <time>2026-07-12T18:22:46.000Z</time>
      </trkpt>
      <trkpt lat="43.35753" lon="-1.39089">
        <ele>29</ele>
        <time>2026-07-12T18:22:48.000Z</time>
      </trkpt>
      <trkpt lat="43.35761" lon="-1.39099">
        <ele>28</ele>
        <time>2026-07-12T18:22:50.000Z</time>
      </trkpt>
      <trkpt lat="43.35767" lon="-1.39105">
        <ele>28</ele>
        <time>2026-07-12T18:22:51.000Z</time>
      </trkpt>
      <trkpt lat="43.35773" lon="-1.3911">
        <ele>28</ele>
        <time>2026-07-12T18:22:52.000Z</time>
      </trkpt>
      <trkpt lat="43.3578" lon="-1.39113">
        <ele>27</ele>
        <time>2026-07-12T18:22:54.000Z</time>
      </trkpt>
      <trkpt lat="43.35787" lon="-1.39114">
        <ele>27</ele>
        <time>2026-07-12T18:22:55.000Z</time>
      </trkpt>
      <trkpt lat="43.35796" lon="-1.39114">
        <ele>28</ele>
        <time>2026-07-12T18:22:57.000Z</time>
      </trkpt>
      <trkpt lat="43.35804" lon="-1.39113">
        <ele>28</ele>
        <time>2026-07-12T18:22:58.000Z</time>
      </trkpt>
      <trkpt lat="43.3581" lon="-1.39111">
        <ele>28</ele>
        <time>2026-07-12T18:22:59.000Z</time>
      </trkpt>
      <trkpt lat="43.35815" lon="-1.39108">
        <ele>28</ele>
        <time>2026-07-12T18:23:00.000Z</time>
      </trkpt>
      <trkpt lat="43.35821" lon="-1.39104">
        <ele>28</ele>
        <time>2026-07-12T18:23:01.000Z</time>
      </trkpt>
      <trkpt lat="43.35828" lon="-1.39098">
        <ele>29</ele>
        <time>2026-07-12T18:23:03.000Z</time>
      </trkpt>
      <trkpt lat="43.35834" lon="-1.39091">
        <ele>29</ele>
        <time>2026-07-12T18:23:04.000Z</time>
      </trkpt>
      <trkpt lat="43.35838" lon="-1.39082">
        <ele>30</ele>
        <time>2026-07-12T18:23:06.000Z</time>
      </trkpt>
      <trkpt lat="43.35843" lon="-1.39067">
        <ele>31</ele>
        <time>2026-07-12T18:23:08.000Z</time>
      </trkpt>
      <trkpt lat="43.35848" lon="-1.39049">
        <ele>33</ele>
        <time>2026-07-12T18:23:10.000Z</time>
      </trkpt>
      <trkpt lat="43.35854" lon="-1.3903">
        <ele>34</ele>
        <time>2026-07-12T18:23:13.000Z</time>
      </trkpt>
      <trkpt lat="43.35861" lon="-1.39004">
        <ele>36</ele>
        <time>2026-07-12T18:23:16.000Z</time>
      </trkpt>
      <trkpt lat="43.3587" lon="-1.38973">
        <ele>37</ele>
        <time>2026-07-12T18:23:21.000Z</time>
      </trkpt>
      <trkpt lat="43.35881" lon="-1.38934">
        <ele>39</ele>
        <time>2026-07-12T18:23:26.000Z</time>
      </trkpt>
      <trkpt lat="43.35897" lon="-1.38881">
        <ele>41</ele>
        <time>2026-07-12T18:23:34.000Z</time>
      </trkpt>
      <trkpt lat="43.35904" lon="-1.38859">
        <ele>41</ele>
        <time>2026-07-12T18:23:37.000Z</time>
      </trkpt>
      <trkpt lat="43.35909" lon="-1.38847">
        <ele>41</ele>
        <time>2026-07-12T18:23:38.000Z</time>
      </trkpt>
      <trkpt lat="43.35914" lon="-1.38837">
        <ele>41</ele>
        <time>2026-07-12T18:23:40.000Z</time>
      </trkpt>
      <trkpt lat="43.35923" lon="-1.3882">
        <ele>41</ele>
        <time>2026-07-12T18:23:43.000Z</time>
      </trkpt>
      <trkpt lat="43.35943" lon="-1.38784">
        <ele>39</ele>
        <time>2026-07-12T18:23:49.000Z</time>
      </trkpt>
      <trkpt lat="43.35961" lon="-1.38753">
        <ele>39</ele>
        <time>2026-07-12T18:23:54.000Z</time>
      </trkpt>
      <trkpt lat="43.35964" lon="-1.38748">
        <ele>40</ele>
        <time>2026-07-12T18:23:55.000Z</time>
      </trkpt>
      <trkpt lat="43.3598" lon="-1.38719">
        <ele>43</ele>
        <time>2026-07-12T18:23:59.000Z</time>
      </trkpt>
      <trkpt lat="43.35988" lon="-1.38705">
        <ele>46</ele>
        <time>2026-07-12T18:24:02.000Z</time>
      </trkpt>
      <trkpt lat="43.35999" lon="-1.38687">
        <ele>49</ele>
        <time>2026-07-12T18:24:05.000Z</time>
      </trkpt>
      <trkpt lat="43.36002" lon="-1.3868">
        <ele>51</ele>
        <time>2026-07-12T18:24:06.000Z</time>
      </trkpt>
      <trkpt lat="43.36009" lon="-1.38668">
        <ele>54</ele>
        <time>2026-07-12T18:24:08.000Z</time>
      </trkpt>
      <trkpt lat="43.36013" lon="-1.38657">
        <ele>54</ele>
        <time>2026-07-12T18:24:09.000Z</time>
      </trkpt>
      <trkpt lat="43.36017" lon="-1.38645">
        <ele>55</ele>
        <time>2026-07-12T18:24:11.000Z</time>
      </trkpt>
      <trkpt lat="43.3602" lon="-1.38633">
        <ele>55</ele>
        <time>2026-07-12T18:24:13.000Z</time>
      </trkpt>
      <trkpt lat="43.36021" lon="-1.38621">
        <ele>56</ele>
        <time>2026-07-12T18:24:14.000Z</time>
      </trkpt>
      <trkpt lat="43.36022" lon="-1.38609">
        <ele>56</ele>
        <time>2026-07-12T18:24:16.000Z</time>
      </trkpt>
      <trkpt lat="43.36022" lon="-1.38595">
        <ele>57</ele>
        <time>2026-07-12T18:24:18.000Z</time>
      </trkpt>
      <trkpt lat="43.36021" lon="-1.38572">
        <ele>58</ele>
        <time>2026-07-12T18:24:21.000Z</time>
      </trkpt>
      <trkpt lat="43.36021" lon="-1.38567">
        <ele>58</ele>
        <time>2026-07-12T18:24:21.000Z</time>
      </trkpt>
      <trkpt lat="43.36022" lon="-1.38559">
        <ele>58</ele>
        <time>2026-07-12T18:24:22.000Z</time>
      </trkpt>
      <trkpt lat="43.36024" lon="-1.38544">
        <ele>59</ele>
        <time>2026-07-12T18:24:24.000Z</time>
      </trkpt>
      <trkpt lat="43.36027" lon="-1.38531">
        <ele>59</ele>
        <time>2026-07-12T18:24:26.000Z</time>
      </trkpt>
      <trkpt lat="43.36029" lon="-1.38527">
        <ele>60</ele>
        <time>2026-07-12T18:24:27.000Z</time>
      </trkpt>
      <trkpt lat="43.36045" lon="-1.38474">
        <ele>61</ele>
        <time>2026-07-12T18:24:34.000Z</time>
      </trkpt>
      <trkpt lat="43.36046" lon="-1.38468">
        <ele>61</ele>
        <time>2026-07-12T18:24:35.000Z</time>
      </trkpt>
      <trkpt lat="43.36048" lon="-1.38462">
        <ele>61</ele>
        <time>2026-07-12T18:24:36.000Z</time>
      </trkpt>
      <trkpt lat="43.36049" lon="-1.38456">
        <ele>61</ele>
        <time>2026-07-12T18:24:36.000Z</time>
      </trkpt>
      <trkpt lat="43.36049" lon="-1.38449">
        <ele>61</ele>
        <time>2026-07-12T18:24:37.000Z</time>
      </trkpt>
      <trkpt lat="43.3605" lon="-1.38445">
        <ele>61</ele>
        <time>2026-07-12T18:24:38.000Z</time>
      </trkpt>
      <trkpt lat="43.3605" lon="-1.3844">
        <ele>62</ele>
        <time>2026-07-12T18:24:39.000Z</time>
      </trkpt>
      <trkpt lat="43.36049" lon="-1.38373">
        <ele>64</ele>
        <time>2026-07-12T18:24:47.000Z</time>
      </trkpt>
      <trkpt lat="43.36047" lon="-1.38326">
        <ele>65</ele>
        <time>2026-07-12T18:24:53.000Z</time>
      </trkpt>
      <trkpt lat="43.36047" lon="-1.38323">
        <ele>65</ele>
        <time>2026-07-12T18:24:54.000Z</time>
      </trkpt>
      <trkpt lat="43.36044" lon="-1.38269">
        <ele>67</ele>
        <time>2026-07-12T18:25:01.000Z</time>
      </trkpt>
      <trkpt lat="43.36037" lon="-1.38172">
        <ele>69</ele>
        <time>2026-07-12T18:25:13.000Z</time>
      </trkpt>
      <trkpt lat="43.36037" lon="-1.38171">
        <ele>69</ele>
        <time>2026-07-12T18:25:13.000Z</time>
      </trkpt>
      <trkpt lat="43.36035" lon="-1.38153">
        <ele>70</ele>
        <time>2026-07-12T18:25:16.000Z</time>
      </trkpt>
      <trkpt lat="43.36033" lon="-1.38113">
        <ele>71</ele>
        <time>2026-07-12T18:25:21.000Z</time>
      </trkpt>
      <trkpt lat="43.36029" lon="-1.38047">
        <ele>75</ele>
        <time>2026-07-12T18:25:30.000Z</time>
      </trkpt>
      <trkpt lat="43.36028" lon="-1.38014">
        <ele>78</ele>
        <time>2026-07-12T18:25:34.000Z</time>
      </trkpt>
      <trkpt lat="43.36027" lon="-1.37999">
        <ele>79</ele>
        <time>2026-07-12T18:25:36.000Z</time>
      </trkpt>
      <trkpt lat="43.36029" lon="-1.3799">
        <ele>79</ele>
        <time>2026-07-12T18:25:37.000Z</time>
      </trkpt>
      <trkpt lat="43.3603" lon="-1.37986">
        <ele>79</ele>
        <time>2026-07-12T18:25:38.000Z</time>
      </trkpt>
      <trkpt lat="43.36031" lon="-1.37981">
        <ele>79</ele>
        <time>2026-07-12T18:25:38.000Z</time>
      </trkpt>
      <trkpt lat="43.36033" lon="-1.37975">
        <ele>79</ele>
        <time>2026-07-12T18:25:39.000Z</time>
      </trkpt>
      <trkpt lat="43.36038" lon="-1.37964">
        <ele>79</ele>
        <time>2026-07-12T18:25:41.000Z</time>
      </trkpt>
      <trkpt lat="43.36049" lon="-1.37942">
        <ele>80</ele>
        <time>2026-07-12T18:25:44.000Z</time>
      </trkpt>
      <trkpt lat="43.36098" lon="-1.37829">
        <ele>79</ele>
        <time>2026-07-12T18:26:01.000Z</time>
      </trkpt>
      <trkpt lat="43.36102" lon="-1.37819">
        <ele>78</ele>
        <time>2026-07-12T18:26:03.000Z</time>
      </trkpt>
      <trkpt lat="43.36104" lon="-1.37812">
        <ele>78</ele>
        <time>2026-07-12T18:26:04.000Z</time>
      </trkpt>
      <trkpt lat="43.36106" lon="-1.37805">
        <ele>77</ele>
        <time>2026-07-12T18:26:05.000Z</time>
      </trkpt>
      <trkpt lat="43.36109" lon="-1.37796">
        <ele>76</ele>
        <time>2026-07-12T18:26:06.000Z</time>
      </trkpt>
      <trkpt lat="43.36111" lon="-1.37786">
        <ele>76</ele>
        <time>2026-07-12T18:26:07.000Z</time>
      </trkpt>
      <trkpt lat="43.36113" lon="-1.37774">
        <ele>75</ele>
        <time>2026-07-12T18:26:09.000Z</time>
      </trkpt>
      <trkpt lat="43.36117" lon="-1.37754">
        <ele>74</ele>
        <time>2026-07-12T18:26:12.000Z</time>
      </trkpt>
      <trkpt lat="43.36118" lon="-1.37746">
        <ele>73</ele>
        <time>2026-07-12T18:26:13.000Z</time>
      </trkpt>
      <trkpt lat="43.36119" lon="-1.37737">
        <ele>72</ele>
        <time>2026-07-12T18:26:14.000Z</time>
      </trkpt>
      <trkpt lat="43.36119" lon="-1.37729">
        <ele>72</ele>
        <time>2026-07-12T18:26:15.000Z</time>
      </trkpt>
      <trkpt lat="43.36119" lon="-1.37723">
        <ele>72</ele>
        <time>2026-07-12T18:26:16.000Z</time>
      </trkpt>
      <trkpt lat="43.36118" lon="-1.37717">
        <ele>72</ele>
        <time>2026-07-12T18:26:16.000Z</time>
      </trkpt>
      <trkpt lat="43.36117" lon="-1.37707">
        <ele>71</ele>
        <time>2026-07-12T18:26:18.000Z</time>
      </trkpt>
      <trkpt lat="43.36115" lon="-1.37689">
        <ele>70</ele>
        <time>2026-07-12T18:26:20.000Z</time>
      </trkpt>
      <trkpt lat="43.36114" lon="-1.37673">
        <ele>70</ele>
        <time>2026-07-12T18:26:22.000Z</time>
      </trkpt>
      <trkpt lat="43.36113" lon="-1.37667">
        <ele>69</ele>
        <time>2026-07-12T18:26:23.000Z</time>
      </trkpt>
      <trkpt lat="43.36116" lon="-1.37648">
        <ele>69</ele>
        <time>2026-07-12T18:26:25.000Z</time>
      </trkpt>
      <trkpt lat="43.36119" lon="-1.37635">
        <ele>68</ele>
        <time>2026-07-12T18:26:27.000Z</time>
      </trkpt>
      <trkpt lat="43.36125" lon="-1.37617">
        <ele>68</ele>
        <time>2026-07-12T18:26:30.000Z</time>
      </trkpt>
      <trkpt lat="43.36131" lon="-1.37603">
        <ele>67</ele>
        <time>2026-07-12T18:26:32.000Z</time>
      </trkpt>
      <trkpt lat="43.36137" lon="-1.37592">
        <ele>67</ele>
        <time>2026-07-12T18:26:34.000Z</time>
      </trkpt>
      <trkpt lat="43.36146" lon="-1.37579">
        <ele>68</ele>
        <time>2026-07-12T18:26:36.000Z</time>
      </trkpt>
      <trkpt lat="43.36151" lon="-1.3757">
        <ele>68</ele>
        <time>2026-07-12T18:26:37.000Z</time>
      </trkpt>
      <trkpt lat="43.36158" lon="-1.37558">
        <ele>69</ele>
        <time>2026-07-12T18:26:39.000Z</time>
      </trkpt>
      <trkpt lat="43.36162" lon="-1.37549">
        <ele>70</ele>
        <time>2026-07-12T18:26:41.000Z</time>
      </trkpt>
      <trkpt lat="43.36168" lon="-1.37535">
        <ele>71</ele>
        <time>2026-07-12T18:26:43.000Z</time>
      </trkpt>
      <trkpt lat="43.36173" lon="-1.37523">
        <ele>72</ele>
        <time>2026-07-12T18:26:45.000Z</time>
      </trkpt>
      <trkpt lat="43.36178" lon="-1.37507">
        <ele>72</ele>
        <time>2026-07-12T18:26:47.000Z</time>
      </trkpt>
      <trkpt lat="43.36182" lon="-1.3749">
        <ele>72</ele>
        <time>2026-07-12T18:26:49.000Z</time>
      </trkpt>
      <trkpt lat="43.36184" lon="-1.37475">
        <ele>71</ele>
        <time>2026-07-12T18:26:51.000Z</time>
      </trkpt>
      <trkpt lat="43.36185" lon="-1.37461">
        <ele>71</ele>
        <time>2026-07-12T18:26:53.000Z</time>
      </trkpt>
      <trkpt lat="43.36185" lon="-1.37445">
        <ele>70</ele>
        <time>2026-07-12T18:26:55.000Z</time>
      </trkpt>
      <trkpt lat="43.36185" lon="-1.37418">
        <ele>70</ele>
        <time>2026-07-12T18:26:59.000Z</time>
      </trkpt>
      <trkpt lat="43.36184" lon="-1.37401">
        <ele>69</ele>
        <time>2026-07-12T18:27:01.000Z</time>
      </trkpt>
      <trkpt lat="43.36184" lon="-1.37382">
        <ele>69</ele>
        <time>2026-07-12T18:27:03.000Z</time>
      </trkpt>
      <trkpt lat="43.36185" lon="-1.37365">
        <ele>69</ele>
        <time>2026-07-12T18:27:05.000Z</time>
      </trkpt>
      <trkpt lat="43.36187" lon="-1.3735">
        <ele>69</ele>
        <time>2026-07-12T18:27:07.000Z</time>
      </trkpt>
      <trkpt lat="43.36189" lon="-1.37335">
        <ele>68</ele>
        <time>2026-07-12T18:27:09.000Z</time>
      </trkpt>
      <trkpt lat="43.36193" lon="-1.37316">
        <ele>69</ele>
        <time>2026-07-12T18:27:12.000Z</time>
      </trkpt>
      <trkpt lat="43.36198" lon="-1.37298">
        <ele>70</ele>
        <time>2026-07-12T18:27:14.000Z</time>
      </trkpt>
      <trkpt lat="43.36204" lon="-1.37277">
        <ele>70</ele>
        <time>2026-07-12T18:27:17.000Z</time>
      </trkpt>
      <trkpt lat="43.36214" lon="-1.37248">
        <ele>70</ele>
        <time>2026-07-12T18:27:22.000Z</time>
      </trkpt>
      <trkpt lat="43.36222" lon="-1.37224">
        <ele>70</ele>
        <time>2026-07-12T18:27:25.000Z</time>
      </trkpt>
      <trkpt lat="43.36231" lon="-1.37197">
        <ele>71</ele>
        <time>2026-07-12T18:27:29.000Z</time>
      </trkpt>
      <trkpt lat="43.36235" lon="-1.37182">
        <ele>71</ele>
        <time>2026-07-12T18:27:31.000Z</time>
      </trkpt>
      <trkpt lat="43.36239" lon="-1.37167">
        <ele>71</ele>
        <time>2026-07-12T18:27:33.000Z</time>
      </trkpt>
      <trkpt lat="43.36242" lon="-1.3715">
        <ele>72</ele>
        <time>2026-07-12T18:27:35.000Z</time>
      </trkpt>
      <trkpt lat="43.36246" lon="-1.37131">
        <ele>72</ele>
        <time>2026-07-12T18:27:38.000Z</time>
      </trkpt>
      <trkpt lat="43.36249" lon="-1.3711">
        <ele>72</ele>
        <time>2026-07-12T18:27:41.000Z</time>
      </trkpt>
      <trkpt lat="43.36251" lon="-1.37088">
        <ele>73</ele>
        <time>2026-07-12T18:27:43.000Z</time>
      </trkpt>
      <trkpt lat="43.36255" lon="-1.37052">
        <ele>75</ele>
        <time>2026-07-12T18:27:48.000Z</time>
      </trkpt>
      <trkpt lat="43.36259" lon="-1.37024">
        <ele>76</ele>
        <time>2026-07-12T18:27:52.000Z</time>
      </trkpt>
      <trkpt lat="43.36262" lon="-1.37008">
        <ele>77</ele>
        <time>2026-07-12T18:27:54.000Z</time>
      </trkpt>
      <trkpt lat="43.36265" lon="-1.36995">
        <ele>77</ele>
        <time>2026-07-12T18:27:56.000Z</time>
      </trkpt>
      <trkpt lat="43.36269" lon="-1.36983">
        <ele>77</ele>
        <time>2026-07-12T18:27:57.000Z</time>
      </trkpt>
      <trkpt lat="43.36273" lon="-1.36973">
        <ele>77</ele>
        <time>2026-07-12T18:27:59.000Z</time>
      </trkpt>
      <trkpt lat="43.36278" lon="-1.36965">
        <ele>77</ele>
        <time>2026-07-12T18:28:00.000Z</time>
      </trkpt>
      <trkpt lat="43.36283" lon="-1.36957">
        <ele>76</ele>
        <time>2026-07-12T18:28:02.000Z</time>
      </trkpt>
      <trkpt lat="43.3629" lon="-1.3695">
        <ele>76</ele>
        <time>2026-07-12T18:28:03.000Z</time>
      </trkpt>
      <trkpt lat="43.36298" lon="-1.36944">
        <ele>75</ele>
        <time>2026-07-12T18:28:05.000Z</time>
      </trkpt>
      <trkpt lat="43.36307" lon="-1.3694">
        <ele>74</ele>
        <time>2026-07-12T18:28:06.000Z</time>
      </trkpt>
      <trkpt lat="43.36321" lon="-1.36937">
        <ele>72</ele>
        <time>2026-07-12T18:28:09.000Z</time>
      </trkpt>
      <trkpt lat="43.36323" lon="-1.36936">
        <ele>72</ele>
        <time>2026-07-12T18:28:09.000Z</time>
      </trkpt>
      <trkpt lat="43.36339" lon="-1.36935">
        <ele>70</ele>
        <time>2026-07-12T18:28:12.000Z</time>
      </trkpt>
      <trkpt lat="43.36352" lon="-1.36934">
        <ele>70</ele>
        <time>2026-07-12T18:28:15.000Z</time>
      </trkpt>
      <trkpt lat="43.36364" lon="-1.36934">
        <ele>71</ele>
        <time>2026-07-12T18:28:17.000Z</time>
      </trkpt>
      <trkpt lat="43.36379" lon="-1.36934">
        <ele>71</ele>
        <time>2026-07-12T18:28:19.000Z</time>
      </trkpt>
      <trkpt lat="43.36391" lon="-1.36935">
        <ele>71</ele>
        <time>2026-07-12T18:28:21.000Z</time>
      </trkpt>
      <trkpt lat="43.36399" lon="-1.36934">
        <ele>71</ele>
        <time>2026-07-12T18:28:23.000Z</time>
      </trkpt>
      <trkpt lat="43.36408" lon="-1.36933">
        <ele>71</ele>
        <time>2026-07-12T18:28:25.000Z</time>
      </trkpt>
      <trkpt lat="43.36417" lon="-1.3693">
        <ele>72</ele>
        <time>2026-07-12T18:28:26.000Z</time>
      </trkpt>
      <trkpt lat="43.36426" lon="-1.36926">
        <ele>72</ele>
        <time>2026-07-12T18:28:28.000Z</time>
      </trkpt>
      <trkpt lat="43.36438" lon="-1.36917">
        <ele>72</ele>
        <time>2026-07-12T18:28:30.000Z</time>
      </trkpt>
      <trkpt lat="43.36445" lon="-1.36911">
        <ele>72</ele>
        <time>2026-07-12T18:28:32.000Z</time>
      </trkpt>
      <trkpt lat="43.36452" lon="-1.36903">
        <ele>72</ele>
        <time>2026-07-12T18:28:33.000Z</time>
      </trkpt>
      <trkpt lat="43.3646" lon="-1.3689">
        <ele>72</ele>
        <time>2026-07-12T18:28:36.000Z</time>
      </trkpt>
      <trkpt lat="43.36466" lon="-1.3688">
        <ele>72</ele>
        <time>2026-07-12T18:28:37.000Z</time>
      </trkpt>
      <trkpt lat="43.36474" lon="-1.36864">
        <ele>71</ele>
        <time>2026-07-12T18:28:40.000Z</time>
      </trkpt>
      <trkpt lat="43.36479" lon="-1.36852">
        <ele>70</ele>
        <time>2026-07-12T18:28:42.000Z</time>
      </trkpt>
      <trkpt lat="43.36492" lon="-1.3682">
        <ele>68</ele>
        <time>2026-07-12T18:28:46.000Z</time>
      </trkpt>
      <trkpt lat="43.365" lon="-1.36803">
        <ele>67</ele>
        <time>2026-07-12T18:28:49.000Z</time>
      </trkpt>
      <trkpt lat="43.36514" lon="-1.36774">
        <ele>66</ele>
        <time>2026-07-12T18:28:53.000Z</time>
      </trkpt>
      <trkpt lat="43.36531" lon="-1.36741">
        <ele>66</ele>
        <time>2026-07-12T18:28:59.000Z</time>
      </trkpt>
      <trkpt lat="43.36535" lon="-1.36732">
        <ele>66</ele>
        <time>2026-07-12T18:29:00.000Z</time>
      </trkpt>
      <trkpt lat="43.36537" lon="-1.36729">
        <ele>67</ele>
        <time>2026-07-12T18:29:01.000Z</time>
      </trkpt>
      <trkpt lat="43.3655" lon="-1.36703">
        <ele>67</ele>
        <time>2026-07-12T18:29:05.000Z</time>
      </trkpt>
      <trkpt lat="43.36575" lon="-1.36653">
        <ele>67</ele>
        <time>2026-07-12T18:29:12.000Z</time>
      </trkpt>
      <trkpt lat="43.36604" lon="-1.36597">
        <ele>69</ele>
        <time>2026-07-12T18:29:21.000Z</time>
      </trkpt>
      <trkpt lat="43.36621" lon="-1.36564">
        <ele>70</ele>
        <time>2026-07-12T18:29:27.000Z</time>
      </trkpt>
      <trkpt lat="43.36631" lon="-1.36545">
        <ele>71</ele>
        <time>2026-07-12T18:29:30.000Z</time>
      </trkpt>
      <trkpt lat="43.36642" lon="-1.36523">
        <ele>71</ele>
        <time>2026-07-12T18:29:33.000Z</time>
      </trkpt>
      <trkpt lat="43.36649" lon="-1.36509">
        <ele>71</ele>
        <time>2026-07-12T18:29:35.000Z</time>
      </trkpt>
      <trkpt lat="43.36655" lon="-1.36496">
        <ele>72</ele>
        <time>2026-07-12T18:29:37.000Z</time>
      </trkpt>
      <trkpt lat="43.36663" lon="-1.36478">
        <ele>72</ele>
        <time>2026-07-12T18:29:40.000Z</time>
      </trkpt>
      <trkpt lat="43.36668" lon="-1.3646">
        <ele>73</ele>
        <time>2026-07-12T18:29:42.000Z</time>
      </trkpt>
      <trkpt lat="43.36671" lon="-1.3645">
        <ele>73</ele>
        <time>2026-07-12T18:29:44.000Z</time>
      </trkpt>
      <trkpt lat="43.36673" lon="-1.36441">
        <ele>73</ele>
        <time>2026-07-12T18:29:45.000Z</time>
      </trkpt>
      <trkpt lat="43.36674" lon="-1.36432">
        <ele>73</ele>
        <time>2026-07-12T18:29:46.000Z</time>
      </trkpt>
      <trkpt lat="43.36676" lon="-1.3642">
        <ele>74</ele>
        <time>2026-07-12T18:29:48.000Z</time>
      </trkpt>
      <trkpt lat="43.36677" lon="-1.36401">
        <ele>73</ele>
        <time>2026-07-12T18:29:50.000Z</time>
      </trkpt>
      <trkpt lat="43.36676" lon="-1.36367">
        <ele>73</ele>
        <time>2026-07-12T18:29:55.000Z</time>
      </trkpt>
      <trkpt lat="43.36675" lon="-1.3636">
        <ele>73</ele>
        <time>2026-07-12T18:29:56.000Z</time>
      </trkpt>
      <trkpt lat="43.36674" lon="-1.36351">
        <ele>73</ele>
        <time>2026-07-12T18:29:57.000Z</time>
      </trkpt>
      <trkpt lat="43.36674" lon="-1.36345">
        <ele>73</ele>
        <time>2026-07-12T18:29:58.000Z</time>
      </trkpt>
      <trkpt lat="43.36673" lon="-1.3634">
        <ele>73</ele>
        <time>2026-07-12T18:29:58.000Z</time>
      </trkpt>
      <trkpt lat="43.3667" lon="-1.3633">
        <ele>72</ele>
        <time>2026-07-12T18:30:00.000Z</time>
      </trkpt>
      <trkpt lat="43.36668" lon="-1.36321">
        <ele>72</ele>
        <time>2026-07-12T18:30:01.000Z</time>
      </trkpt>
      <trkpt lat="43.36662" lon="-1.363">
        <ele>72</ele>
        <time>2026-07-12T18:30:04.000Z</time>
      </trkpt>
      <trkpt lat="43.36651" lon="-1.36262">
        <ele>71</ele>
        <time>2026-07-12T18:30:09.000Z</time>
      </trkpt>
      <trkpt lat="43.36648" lon="-1.36249">
        <ele>71</ele>
        <time>2026-07-12T18:30:11.000Z</time>
      </trkpt>
      <trkpt lat="43.36646" lon="-1.36236">
        <ele>72</ele>
        <time>2026-07-12T18:30:13.000Z</time>
      </trkpt>
      <trkpt lat="43.36645" lon="-1.36226">
        <ele>72</ele>
        <time>2026-07-12T18:30:14.000Z</time>
      </trkpt>
      <trkpt lat="43.36644" lon="-1.36214">
        <ele>73</ele>
        <time>2026-07-12T18:30:15.000Z</time>
      </trkpt>
      <trkpt lat="43.36643" lon="-1.36201">
        <ele>73</ele>
        <time>2026-07-12T18:30:17.000Z</time>
      </trkpt>
      <trkpt lat="43.36642" lon="-1.3619">
        <ele>74</ele>
        <time>2026-07-12T18:30:19.000Z</time>
      </trkpt>
      <trkpt lat="43.36642" lon="-1.3618">
        <ele>74</ele>
        <time>2026-07-12T18:30:20.000Z</time>
      </trkpt>
      <trkpt lat="43.36641" lon="-1.36167">
        <ele>75</ele>
        <time>2026-07-12T18:30:22.000Z</time>
      </trkpt>
      <trkpt lat="43.36641" lon="-1.36162">
        <ele>75</ele>
        <time>2026-07-12T18:30:22.000Z</time>
      </trkpt>
      <trkpt lat="43.36642" lon="-1.36147">
        <ele>75</ele>
        <time>2026-07-12T18:30:24.000Z</time>
      </trkpt>
      <trkpt lat="43.36643" lon="-1.36133">
        <ele>75</ele>
        <time>2026-07-12T18:30:26.000Z</time>
      </trkpt>
      <trkpt lat="43.36645" lon="-1.36112">
        <ele>76</ele>
        <time>2026-07-12T18:30:29.000Z</time>
      </trkpt>
      <trkpt lat="43.36647" lon="-1.36096">
        <ele>76</ele>
        <time>2026-07-12T18:30:31.000Z</time>
      </trkpt>
      <trkpt lat="43.36649" lon="-1.36082">
        <ele>77</ele>
        <time>2026-07-12T18:30:33.000Z</time>
      </trkpt>
      <trkpt lat="43.36651" lon="-1.36067">
        <ele>77</ele>
        <time>2026-07-12T18:30:35.000Z</time>
      </trkpt>
      <trkpt lat="43.36654" lon="-1.36053">
        <ele>78</ele>
        <time>2026-07-12T18:30:37.000Z</time>
      </trkpt>
      <trkpt lat="43.36658" lon="-1.36035">
        <ele>78</ele>
        <time>2026-07-12T18:30:39.000Z</time>
      </trkpt>
      <trkpt lat="43.36662" lon="-1.36023">
        <ele>78</ele>
        <time>2026-07-12T18:30:41.000Z</time>
      </trkpt>
      <trkpt lat="43.36667" lon="-1.36007">
        <ele>79</ele>
        <time>2026-07-12T18:30:43.000Z</time>
      </trkpt>
      <trkpt lat="43.36671" lon="-1.35996">
        <ele>80</ele>
        <time>2026-07-12T18:30:45.000Z</time>
      </trkpt>
      <trkpt lat="43.36676" lon="-1.35985">
        <ele>80</ele>
        <time>2026-07-12T18:30:46.000Z</time>
      </trkpt>
      <trkpt lat="43.36689" lon="-1.35954">
        <ele>83</ele>
        <time>2026-07-12T18:30:51.000Z</time>
      </trkpt>
      <trkpt lat="43.367" lon="-1.35929">
        <ele>84</ele>
        <time>2026-07-12T18:30:55.000Z</time>
      </trkpt>
      <trkpt lat="43.36703" lon="-1.3592">
        <ele>85</ele>
        <time>2026-07-12T18:30:56.000Z</time>
      </trkpt>
      <trkpt lat="43.36706" lon="-1.35911">
        <ele>85</ele>
        <time>2026-07-12T18:30:57.000Z</time>
      </trkpt>
      <trkpt lat="43.36708" lon="-1.35904">
        <ele>85</ele>
        <time>2026-07-12T18:30:58.000Z</time>
      </trkpt>
      <trkpt lat="43.3671" lon="-1.35897">
        <ele>85</ele>
        <time>2026-07-12T18:30:59.000Z</time>
      </trkpt>
      <trkpt lat="43.36713" lon="-1.35887">
        <ele>85</ele>
        <time>2026-07-12T18:31:01.000Z</time>
      </trkpt>
      <trkpt lat="43.36715" lon="-1.35877">
        <ele>85</ele>
        <time>2026-07-12T18:31:02.000Z</time>
      </trkpt>
      <trkpt lat="43.36726" lon="-1.35828">
        <ele>85</ele>
        <time>2026-07-12T18:31:08.000Z</time>
      </trkpt>
      <trkpt lat="43.36738" lon="-1.35773">
        <ele>86</ele>
        <time>2026-07-12T18:31:16.000Z</time>
      </trkpt>
      <trkpt lat="43.36743" lon="-1.3575">
        <ele>86</ele>
        <time>2026-07-12T18:31:19.000Z</time>
      </trkpt>
      <trkpt lat="43.36761" lon="-1.35679">
        <ele>86</ele>
        <time>2026-07-12T18:31:29.000Z</time>
      </trkpt>
      <trkpt lat="43.36765" lon="-1.35664">
        <ele>86</ele>
        <time>2026-07-12T18:31:31.000Z</time>
      </trkpt>
      <trkpt lat="43.36768" lon="-1.35651">
        <ele>86</ele>
        <time>2026-07-12T18:31:33.000Z</time>
      </trkpt>
      <trkpt lat="43.36771" lon="-1.35632">
        <ele>86</ele>
        <time>2026-07-12T18:31:35.000Z</time>
      </trkpt>
      <trkpt lat="43.36772" lon="-1.3562">
        <ele>86</ele>
        <time>2026-07-12T18:31:37.000Z</time>
      </trkpt>
      <trkpt lat="43.36773" lon="-1.3561">
        <ele>86</ele>
        <time>2026-07-12T18:31:38.000Z</time>
      </trkpt>
      <trkpt lat="43.36774" lon="-1.35598">
        <ele>86</ele>
        <time>2026-07-12T18:31:40.000Z</time>
      </trkpt>
      <trkpt lat="43.36779" lon="-1.35537">
        <ele>88</ele>
        <time>2026-07-12T18:31:47.000Z</time>
      </trkpt>
      <trkpt lat="43.3678" lon="-1.3552">
        <ele>88</ele>
        <time>2026-07-12T18:31:50.000Z</time>
      </trkpt>
      <trkpt lat="43.36781" lon="-1.35512">
        <ele>89</ele>
        <time>2026-07-12T18:31:51.000Z</time>
      </trkpt>
      <trkpt lat="43.36786" lon="-1.35464">
        <ele>90</ele>
        <time>2026-07-12T18:31:57.000Z</time>
      </trkpt>
      <trkpt lat="43.36785" lon="-1.35454">
        <ele>90</ele>
        <time>2026-07-12T18:31:58.000Z</time>
      </trkpt>
      <trkpt lat="43.36786" lon="-1.35441">
        <ele>91</ele>
        <time>2026-07-12T18:32:00.000Z</time>
      </trkpt>
      <trkpt lat="43.36787" lon="-1.35429">
        <ele>91</ele>
        <time>2026-07-12T18:32:02.000Z</time>
      </trkpt>
      <trkpt lat="43.36789" lon="-1.35411">
        <ele>91</ele>
        <time>2026-07-12T18:32:04.000Z</time>
      </trkpt>
      <trkpt lat="43.36794" lon="-1.35361">
        <ele>92</ele>
        <time>2026-07-12T18:32:10.000Z</time>
      </trkpt>
      <trkpt lat="43.36795" lon="-1.3535">
        <ele>92</ele>
        <time>2026-07-12T18:32:12.000Z</time>
      </trkpt>
      <trkpt lat="43.36796" lon="-1.35344">
        <ele>92</ele>
        <time>2026-07-12T18:32:13.000Z</time>
      </trkpt>
      <trkpt lat="43.36797" lon="-1.35339">
        <ele>92</ele>
        <time>2026-07-12T18:32:13.000Z</time>
      </trkpt>
      <trkpt lat="43.36798" lon="-1.35333">
        <ele>92</ele>
        <time>2026-07-12T18:32:14.000Z</time>
      </trkpt>
      <trkpt lat="43.36804" lon="-1.35308">
        <ele>93</ele>
        <time>2026-07-12T18:32:18.000Z</time>
      </trkpt>
      <trkpt lat="43.36809" lon="-1.35293">
        <ele>93</ele>
        <time>2026-07-12T18:32:20.000Z</time>
      </trkpt>
      <trkpt lat="43.36811" lon="-1.35286">
        <ele>93</ele>
        <time>2026-07-12T18:32:21.000Z</time>
      </trkpt>
      <trkpt lat="43.36815" lon="-1.35277">
        <ele>93</ele>
        <time>2026-07-12T18:32:22.000Z</time>
      </trkpt>
      <trkpt lat="43.36827" lon="-1.3524">
        <ele>92</ele>
        <time>2026-07-12T18:32:27.000Z</time>
      </trkpt>
      <trkpt lat="43.3683" lon="-1.35235">
        <ele>92</ele>
        <time>2026-07-12T18:32:28.000Z</time>
      </trkpt>
      <trkpt lat="43.36831" lon="-1.35233">
        <ele>91</ele>
        <time>2026-07-12T18:32:28.000Z</time>
      </trkpt>
      <trkpt lat="43.36832" lon="-1.35231">
        <ele>91</ele>
        <time>2026-07-12T18:32:29.000Z</time>
      </trkpt>
      <trkpt lat="43.36834" lon="-1.35229">
        <ele>91</ele>
        <time>2026-07-12T18:32:29.000Z</time>
      </trkpt>
      <trkpt lat="43.36837" lon="-1.35226">
        <ele>92</ele>
        <time>2026-07-12T18:32:30.000Z</time>
      </trkpt>
      <trkpt lat="43.36841" lon="-1.35223">
        <ele>92</ele>
        <time>2026-07-12T18:32:31.000Z</time>
      </trkpt>
      <trkpt lat="43.36856" lon="-1.35211">
        <ele>93</ele>
        <time>2026-07-12T18:32:34.000Z</time>
      </trkpt>
      <trkpt lat="43.3687" lon="-1.35199">
        <ele>94</ele>
        <time>2026-07-12T18:32:37.000Z</time>
      </trkpt>
      <trkpt lat="43.36893" lon="-1.35181">
        <ele>95</ele>
        <time>2026-07-12T18:32:41.000Z</time>
      </trkpt>
      <trkpt lat="43.36903" lon="-1.35172">
        <ele>95</ele>
        <time>2026-07-12T18:32:43.000Z</time>
      </trkpt>
      <trkpt lat="43.3691" lon="-1.35168">
        <ele>96</ele>
        <time>2026-07-12T18:32:45.000Z</time>
      </trkpt>
      <trkpt lat="43.36915" lon="-1.35166">
        <ele>96</ele>
        <time>2026-07-12T18:32:46.000Z</time>
      </trkpt>
      <trkpt lat="43.36924" lon="-1.35158">
        <ele>97</ele>
        <time>2026-07-12T18:32:48.000Z</time>
      </trkpt>
      <trkpt lat="43.36931" lon="-1.35155">
        <ele>98</ele>
        <time>2026-07-12T18:32:49.000Z</time>
      </trkpt>
      <trkpt lat="43.36937" lon="-1.35154">
        <ele>99</ele>
        <time>2026-07-12T18:32:50.000Z</time>
      </trkpt>
      <trkpt lat="43.36942" lon="-1.35153">
        <ele>99</ele>
        <time>2026-07-12T18:32:51.000Z</time>
      </trkpt>
      <trkpt lat="43.36946" lon="-1.35153">
        <ele>100</ele>
        <time>2026-07-12T18:32:52.000Z</time>
      </trkpt>
      <trkpt lat="43.36953" lon="-1.35152">
        <ele>100</ele>
        <time>2026-07-12T18:32:53.000Z</time>
      </trkpt>
      <trkpt lat="43.36959" lon="-1.35152">
        <ele>101</ele>
        <time>2026-07-12T18:32:54.000Z</time>
      </trkpt>
      <trkpt lat="43.36965" lon="-1.35152">
        <ele>102</ele>
        <time>2026-07-12T18:32:55.000Z</time>
      </trkpt>
      <trkpt lat="43.36976" lon="-1.35154">
        <ele>103</ele>
        <time>2026-07-12T18:32:57.000Z</time>
      </trkpt>
      <trkpt lat="43.36977" lon="-1.35154">
        <ele>103</ele>
        <time>2026-07-12T18:32:57.000Z</time>
      </trkpt>
      <trkpt lat="43.37005" lon="-1.35155">
        <ele>106</ele>
        <time>2026-07-12T18:33:02.000Z</time>
      </trkpt>
      <trkpt lat="43.37033" lon="-1.35158">
        <ele>108</ele>
        <time>2026-07-12T18:33:07.000Z</time>
      </trkpt>
      <trkpt lat="43.37075" lon="-1.35163">
        <ele>111</ele>
        <time>2026-07-12T18:33:15.000Z</time>
      </trkpt>
      <trkpt lat="43.37083" lon="-1.35164">
        <ele>111</ele>
        <time>2026-07-12T18:33:16.000Z</time>
      </trkpt>
      <trkpt lat="43.37092" lon="-1.35164">
        <ele>112</ele>
        <time>2026-07-12T18:33:18.000Z</time>
      </trkpt>
      <trkpt lat="43.37099" lon="-1.35164">
        <ele>112</ele>
        <time>2026-07-12T18:33:19.000Z</time>
      </trkpt>
      <trkpt lat="43.37105" lon="-1.35164">
        <ele>113</ele>
        <time>2026-07-12T18:33:20.000Z</time>
      </trkpt>
      <trkpt lat="43.37112" lon="-1.35163">
        <ele>113</ele>
        <time>2026-07-12T18:33:21.000Z</time>
      </trkpt>
      <trkpt lat="43.37121" lon="-1.35161">
        <ele>114</ele>
        <time>2026-07-12T18:33:23.000Z</time>
      </trkpt>
      <trkpt lat="43.37126" lon="-1.35159">
        <ele>115</ele>
        <time>2026-07-12T18:33:24.000Z</time>
      </trkpt>
      <trkpt lat="43.37132" lon="-1.35157">
        <ele>115</ele>
        <time>2026-07-12T18:33:25.000Z</time>
      </trkpt>
      <trkpt lat="43.37138" lon="-1.35153">
        <ele>116</ele>
        <time>2026-07-12T18:33:26.000Z</time>
      </trkpt>
      <trkpt lat="43.37144" lon="-1.35149">
        <ele>117</ele>
        <time>2026-07-12T18:33:27.000Z</time>
      </trkpt>
      <trkpt lat="43.37151" lon="-1.35144">
        <ele>118</ele>
        <time>2026-07-12T18:33:29.000Z</time>
      </trkpt>
      <trkpt lat="43.37157" lon="-1.35138">
        <ele>119</ele>
        <time>2026-07-12T18:33:30.000Z</time>
      </trkpt>
      <trkpt lat="43.37158" lon="-1.35138">
        <ele>119</ele>
        <time>2026-07-12T18:33:30.000Z</time>
      </trkpt>
      <trkpt lat="43.3717" lon="-1.35125">
        <ele>121</ele>
        <time>2026-07-12T18:33:33.000Z</time>
      </trkpt>
      <trkpt lat="43.37177" lon="-1.35117">
        <ele>121</ele>
        <time>2026-07-12T18:33:35.000Z</time>
      </trkpt>
      <trkpt lat="43.37208" lon="-1.35079">
        <ele>124</ele>
        <time>2026-07-12T18:33:42.000Z</time>
      </trkpt>
      <trkpt lat="43.37219" lon="-1.35063">
        <ele>126</ele>
        <time>2026-07-12T18:33:45.000Z</time>
      </trkpt>
      <trkpt lat="43.37228" lon="-1.35048">
        <ele>127</ele>
        <time>2026-07-12T18:33:47.000Z</time>
      </trkpt>
      <trkpt lat="43.37246" lon="-1.3502">
        <ele>129</ele>
        <time>2026-07-12T18:33:52.000Z</time>
      </trkpt>
      <trkpt lat="43.37261" lon="-1.34993">
        <ele>131</ele>
        <time>2026-07-12T18:33:57.000Z</time>
      </trkpt>
      <trkpt lat="43.37293" lon="-1.34941">
        <ele>135</ele>
        <time>2026-07-12T18:34:05.000Z</time>
      </trkpt>
      <trkpt lat="43.37306" lon="-1.34919">
        <ele>136</ele>
        <time>2026-07-12T18:34:09.000Z</time>
      </trkpt>
      <trkpt lat="43.37313" lon="-1.34907">
        <ele>137</ele>
        <time>2026-07-12T18:34:11.000Z</time>
      </trkpt>
      <trkpt lat="43.3732" lon="-1.34899">
        <ele>137</ele>
        <time>2026-07-12T18:34:13.000Z</time>
      </trkpt>
      <trkpt lat="43.37328" lon="-1.34886">
        <ele>137</ele>
        <time>2026-07-12T18:34:15.000Z</time>
      </trkpt>
      <trkpt lat="43.37334" lon="-1.3488">
        <ele>138</ele>
        <time>2026-07-12T18:34:16.000Z</time>
      </trkpt>
      <trkpt lat="43.3734" lon="-1.34874">
        <ele>138</ele>
        <time>2026-07-12T18:34:17.000Z</time>
      </trkpt>
      <trkpt lat="43.3735" lon="-1.34865">
        <ele>140</ele>
        <time>2026-07-12T18:34:20.000Z</time>
      </trkpt>
      <trkpt lat="43.37358" lon="-1.34857">
        <ele>140</ele>
        <time>2026-07-12T18:34:21.000Z</time>
      </trkpt>
      <trkpt lat="43.37365" lon="-1.34852">
        <ele>141</ele>
        <time>2026-07-12T18:34:23.000Z</time>
      </trkpt>
      <trkpt lat="43.37371" lon="-1.34847">
        <ele>141</ele>
        <time>2026-07-12T18:34:24.000Z</time>
      </trkpt>
      <trkpt lat="43.37374" lon="-1.34843">
        <ele>141</ele>
        <time>2026-07-12T18:34:25.000Z</time>
      </trkpt>
      <trkpt lat="43.37377" lon="-1.3484">
        <ele>141</ele>
        <time>2026-07-12T18:34:25.000Z</time>
      </trkpt>
      <trkpt lat="43.37382" lon="-1.34833">
        <ele>141</ele>
        <time>2026-07-12T18:34:27.000Z</time>
      </trkpt>
      <trkpt lat="43.37385" lon="-1.34828">
        <ele>141</ele>
        <time>2026-07-12T18:34:27.000Z</time>
      </trkpt>
      <trkpt lat="43.37388" lon="-1.34821">
        <ele>141</ele>
        <time>2026-07-12T18:34:29.000Z</time>
      </trkpt>
      <trkpt lat="43.3739" lon="-1.34815">
        <ele>141</ele>
        <time>2026-07-12T18:34:29.000Z</time>
      </trkpt>
      <trkpt lat="43.37392" lon="-1.3481">
        <ele>141</ele>
        <time>2026-07-12T18:34:30.000Z</time>
      </trkpt>
      <trkpt lat="43.37394" lon="-1.34804">
        <ele>141</ele>
        <time>2026-07-12T18:34:31.000Z</time>
      </trkpt>
      <trkpt lat="43.37396" lon="-1.34794">
        <ele>141</ele>
        <time>2026-07-12T18:34:32.000Z</time>
      </trkpt>
      <trkpt lat="43.37396" lon="-1.34788">
        <ele>141</ele>
        <time>2026-07-12T18:34:33.000Z</time>
      </trkpt>
      <trkpt lat="43.37397" lon="-1.3478">
        <ele>141</ele>
        <time>2026-07-12T18:34:34.000Z</time>
      </trkpt>
      <trkpt lat="43.37397" lon="-1.34775">
        <ele>141</ele>
        <time>2026-07-12T18:34:35.000Z</time>
      </trkpt>
      <trkpt lat="43.37397" lon="-1.34769">
        <ele>141</ele>
        <time>2026-07-12T18:34:36.000Z</time>
      </trkpt>
      <trkpt lat="43.37397" lon="-1.34758">
        <ele>141</ele>
        <time>2026-07-12T18:34:37.000Z</time>
      </trkpt>
      <trkpt lat="43.37393" lon="-1.34724">
        <ele>139</ele>
        <time>2026-07-12T18:34:41.000Z</time>
      </trkpt>
      <trkpt lat="43.37391" lon="-1.34701">
        <ele>137</ele>
        <time>2026-07-12T18:34:44.000Z</time>
      </trkpt>
      <trkpt lat="43.3739" lon="-1.34685">
        <ele>136</ele>
        <time>2026-07-12T18:34:47.000Z</time>
      </trkpt>
      <trkpt lat="43.3739" lon="-1.34671">
        <ele>135</ele>
        <time>2026-07-12T18:34:48.000Z</time>
      </trkpt>
      <trkpt lat="43.3739" lon="-1.3466">
        <ele>134</ele>
        <time>2026-07-12T18:34:50.000Z</time>
      </trkpt>
      <trkpt lat="43.37391" lon="-1.34649">
        <ele>134</ele>
        <time>2026-07-12T18:34:51.000Z</time>
      </trkpt>
      <trkpt lat="43.37393" lon="-1.34639">
        <ele>133</ele>
        <time>2026-07-12T18:34:53.000Z</time>
      </trkpt>
      <trkpt lat="43.37394" lon="-1.34632">
        <ele>133</ele>
        <time>2026-07-12T18:34:53.000Z</time>
      </trkpt>
      <trkpt lat="43.37397" lon="-1.34618">
        <ele>132</ele>
        <time>2026-07-12T18:34:55.000Z</time>
      </trkpt>
      <trkpt lat="43.37402" lon="-1.34602">
        <ele>131</ele>
        <time>2026-07-12T18:34:58.000Z</time>
      </trkpt>
      <trkpt lat="43.37406" lon="-1.34589">
        <ele>130</ele>
        <time>2026-07-12T18:34:59.000Z</time>
      </trkpt>
      <trkpt lat="43.37412" lon="-1.34576">
        <ele>129</ele>
        <time>2026-07-12T18:35:01.000Z</time>
      </trkpt>
      <trkpt lat="43.3746" lon="-1.34462">
        <ele>128</ele>
        <time>2026-07-12T18:35:18.000Z</time>
      </trkpt>
      <trkpt lat="43.37515" lon="-1.34334">
        <ele>121</ele>
        <time>2026-07-12T18:35:38.000Z</time>
      </trkpt>
      <trkpt lat="43.37523" lon="-1.34318">
        <ele>120</ele>
        <time>2026-07-12T18:35:40.000Z</time>
      </trkpt>
      <trkpt lat="43.3753" lon="-1.34304">
        <ele>119</ele>
        <time>2026-07-12T18:35:42.000Z</time>
      </trkpt>
      <trkpt lat="43.37534" lon="-1.34297">
        <ele>119</ele>
        <time>2026-07-12T18:35:44.000Z</time>
      </trkpt>
      <trkpt lat="43.37538" lon="-1.34291">
        <ele>119</ele>
        <time>2026-07-12T18:35:45.000Z</time>
      </trkpt>
      <trkpt lat="43.37541" lon="-1.34286">
        <ele>118</ele>
        <time>2026-07-12T18:35:45.000Z</time>
      </trkpt>
      <trkpt lat="43.37545" lon="-1.34281">
        <ele>118</ele>
        <time>2026-07-12T18:35:46.000Z</time>
      </trkpt>
      <trkpt lat="43.37549" lon="-1.34276">
        <ele>117</ele>
        <time>2026-07-12T18:35:47.000Z</time>
      </trkpt>
      <trkpt lat="43.37551" lon="-1.34274">
        <ele>117</ele>
        <time>2026-07-12T18:35:48.000Z</time>
      </trkpt>
      <trkpt lat="43.37554" lon="-1.34271">
        <ele>116</ele>
        <time>2026-07-12T18:35:48.000Z</time>
      </trkpt>
      <trkpt lat="43.3756" lon="-1.34266">
        <ele>116</ele>
        <time>2026-07-12T18:35:50.000Z</time>
      </trkpt>
      <trkpt lat="43.37565" lon="-1.34262">
        <ele>115</ele>
        <time>2026-07-12T18:35:51.000Z</time>
      </trkpt>
      <trkpt lat="43.37574" lon="-1.34257">
        <ele>113</ele>
        <time>2026-07-12T18:35:52.000Z</time>
      </trkpt>
      <trkpt lat="43.37592" lon="-1.34246">
        <ele>112</ele>
        <time>2026-07-12T18:35:56.000Z</time>
      </trkpt>
      <trkpt lat="43.37598" lon="-1.34242">
        <ele>112</ele>
        <time>2026-07-12T18:35:57.000Z</time>
      </trkpt>
      <trkpt lat="43.37603" lon="-1.34237">
        <ele>112</ele>
        <time>2026-07-12T18:35:58.000Z</time>
      </trkpt>
      <trkpt lat="43.37608" lon="-1.34234">
        <ele>112</ele>
        <time>2026-07-12T18:35:59.000Z</time>
      </trkpt>
      <trkpt lat="43.37612" lon="-1.3423">
        <ele>112</ele>
        <time>2026-07-12T18:36:00.000Z</time>
      </trkpt>
      <trkpt lat="43.37617" lon="-1.34224">
        <ele>112</ele>
        <time>2026-07-12T18:36:01.000Z</time>
      </trkpt>
      <trkpt lat="43.37625" lon="-1.34215">
        <ele>112</ele>
        <time>2026-07-12T18:36:03.000Z</time>
      </trkpt>
      <trkpt lat="43.37636" lon="-1.342">
        <ele>111</ele>
        <time>2026-07-12T18:36:06.000Z</time>
      </trkpt>
      <trkpt lat="43.37654" lon="-1.34177">
        <ele>110</ele>
        <time>2026-07-12T18:36:10.000Z</time>
      </trkpt>
      <trkpt lat="43.37676" lon="-1.34148">
        <ele>108</ele>
        <time>2026-07-12T18:36:16.000Z</time>
      </trkpt>
      <trkpt lat="43.37688" lon="-1.34129">
        <ele>107</ele>
        <time>2026-07-12T18:36:19.000Z</time>
      </trkpt>
      <trkpt lat="43.37695" lon="-1.34119">
        <ele>107</ele>
        <time>2026-07-12T18:36:21.000Z</time>
      </trkpt>
      <trkpt lat="43.377" lon="-1.3411">
        <ele>107</ele>
        <time>2026-07-12T18:36:22.000Z</time>
      </trkpt>
      <trkpt lat="43.37706" lon="-1.34097">
        <ele>106</ele>
        <time>2026-07-12T18:36:24.000Z</time>
      </trkpt>
      <trkpt lat="43.37709" lon="-1.34089">
        <ele>106</ele>
        <time>2026-07-12T18:36:25.000Z</time>
      </trkpt>
      <trkpt lat="43.37713" lon="-1.3408">
        <ele>106</ele>
        <time>2026-07-12T18:36:27.000Z</time>
      </trkpt>
      <trkpt lat="43.37716" lon="-1.34069">
        <ele>105</ele>
        <time>2026-07-12T18:36:28.000Z</time>
      </trkpt>
      <trkpt lat="43.37718" lon="-1.3406">
        <ele>105</ele>
        <time>2026-07-12T18:36:29.000Z</time>
      </trkpt>
      <trkpt lat="43.37727" lon="-1.34023">
        <ele>103</ele>
        <time>2026-07-12T18:36:34.000Z</time>
      </trkpt>
      <trkpt lat="43.37748" lon="-1.3393">
        <ele>100</ele>
        <time>2026-07-12T18:36:47.000Z</time>
      </trkpt>
      <trkpt lat="43.37755" lon="-1.33901">
        <ele>99</ele>
        <time>2026-07-12T18:36:51.000Z</time>
      </trkpt>
      <trkpt lat="43.37761" lon="-1.33884">
        <ele>98</ele>
        <time>2026-07-12T18:36:53.000Z</time>
      </trkpt>
      <trkpt lat="43.37765" lon="-1.33873">
        <ele>98</ele>
        <time>2026-07-12T18:36:55.000Z</time>
      </trkpt>
      <trkpt lat="43.37769" lon="-1.33865">
        <ele>97</ele>
        <time>2026-07-12T18:36:56.000Z</time>
      </trkpt>
      <trkpt lat="43.37773" lon="-1.33856">
        <ele>97</ele>
        <time>2026-07-12T18:36:58.000Z</time>
      </trkpt>
      <trkpt lat="43.37778" lon="-1.33847">
        <ele>96</ele>
        <time>2026-07-12T18:36:59.000Z</time>
      </trkpt>
      <trkpt lat="43.37787" lon="-1.33833">
        <ele>94</ele>
        <time>2026-07-12T18:37:02.000Z</time>
      </trkpt>
      <trkpt lat="43.37798" lon="-1.33819">
        <ele>93</ele>
        <time>2026-07-12T18:37:04.000Z</time>
      </trkpt>
      <trkpt lat="43.37806" lon="-1.33811">
        <ele>92</ele>
        <time>2026-07-12T18:37:06.000Z</time>
      </trkpt>
      <trkpt lat="43.37849" lon="-1.33776">
        <ele>90</ele>
        <time>2026-07-12T18:37:15.000Z</time>
      </trkpt>
      <trkpt lat="43.37862" lon="-1.33763">
        <ele>90</ele>
        <time>2026-07-12T18:37:18.000Z</time>
      </trkpt>
      <trkpt lat="43.37873" lon="-1.33752">
        <ele>90</ele>
        <time>2026-07-12T18:37:20.000Z</time>
      </trkpt>
      <trkpt lat="43.37882" lon="-1.33739">
        <ele>90</ele>
        <time>2026-07-12T18:37:22.000Z</time>
      </trkpt>
      <trkpt lat="43.37895" lon="-1.33721">
        <ele>90</ele>
        <time>2026-07-12T18:37:26.000Z</time>
      </trkpt>
      <trkpt lat="43.37997" lon="-1.33561">
        <ele>87</ele>
        <time>2026-07-12T18:37:53.000Z</time>
      </trkpt>
      <trkpt lat="43.38001" lon="-1.33554">
        <ele>87</ele>
        <time>2026-07-12T18:37:54.000Z</time>
      </trkpt>
      <trkpt lat="43.38013" lon="-1.33536">
        <ele>86</ele>
        <time>2026-07-12T18:37:58.000Z</time>
      </trkpt>
      <trkpt lat="43.38023" lon="-1.33523">
        <ele>86</ele>
        <time>2026-07-12T18:38:00.000Z</time>
      </trkpt>
      <trkpt lat="43.38031" lon="-1.33513">
        <ele>86</ele>
        <time>2026-07-12T18:38:02.000Z</time>
      </trkpt>
      <trkpt lat="43.38041" lon="-1.33503">
        <ele>86</ele>
        <time>2026-07-12T18:38:04.000Z</time>
      </trkpt>
      <trkpt lat="43.38053" lon="-1.33492">
        <ele>87</ele>
        <time>2026-07-12T18:38:07.000Z</time>
      </trkpt>
      <trkpt lat="43.38069" lon="-1.3348">
        <ele>87</ele>
        <time>2026-07-12T18:38:10.000Z</time>
      </trkpt>
      <trkpt lat="43.38086" lon="-1.33469">
        <ele>87</ele>
        <time>2026-07-12T18:38:13.000Z</time>
      </trkpt>
      <trkpt lat="43.38092" lon="-1.33465">
        <ele>86</ele>
        <time>2026-07-12T18:38:15.000Z</time>
      </trkpt>
      <trkpt lat="43.381" lon="-1.33459">
        <ele>85</ele>
        <time>2026-07-12T18:38:16.000Z</time>
      </trkpt>
      <trkpt lat="43.381" lon="-1.33459">
        <ele>85</ele>
        <time>2026-07-12T18:38:16.000Z</time>
      </trkpt>
      <trkpt lat="43.38116" lon="-1.33476">
        <ele>86</ele>
        <time>2026-07-12T18:38:20.000Z</time>
      </trkpt>
      <trkpt lat="43.38116" lon="-1.33476">
        <ele>86</ele>
        <time>2026-07-12T18:38:20.000Z</time>
      </trkpt>
      <trkpt lat="43.38114" lon="-1.33479">
        <ele>87</ele>
        <time>2026-07-12T18:38:20.000Z</time>
      </trkpt>
      <trkpt lat="43.38103" lon="-1.335">
        <ele>89</ele>
        <time>2026-07-12T18:38:24.000Z</time>
      </trkpt>
      <trkpt lat="43.38082" lon="-1.33541">
        <ele>93</ele>
        <time>2026-07-12T18:38:30.000Z</time>
      </trkpt>
      <trkpt lat="43.3808" lon="-1.33543">
        <ele>93</ele>
        <time>2026-07-12T18:38:31.000Z</time>
      </trkpt>
      <trkpt lat="43.38062" lon="-1.33577">
        <ele>94</ele>
        <time>2026-07-12T18:38:36.000Z</time>
      </trkpt>
      <trkpt lat="43.38048" lon="-1.33601">
        <ele>95</ele>
        <time>2026-07-12T18:38:40.000Z</time>
      </trkpt>
      <trkpt lat="43.3804" lon="-1.33616">
        <ele>96</ele>
        <time>2026-07-12T18:38:42.000Z</time>
      </trkpt>
      <trkpt lat="43.38033" lon="-1.33629">
        <ele>96</ele>
        <time>2026-07-12T18:38:44.000Z</time>
      </trkpt>
      <trkpt lat="43.38027" lon="-1.33641">
        <ele>96</ele>
        <time>2026-07-12T18:38:46.000Z</time>
      </trkpt>
      <trkpt lat="43.38023" lon="-1.33652">
        <ele>97</ele>
        <time>2026-07-12T18:38:48.000Z</time>
      </trkpt>
      <trkpt lat="43.3802" lon="-1.3366">
        <ele>97</ele>
        <time>2026-07-12T18:38:49.000Z</time>
      </trkpt>
      <trkpt lat="43.38017" lon="-1.33672">
        <ele>98</ele>
        <time>2026-07-12T18:38:51.000Z</time>
      </trkpt>
      <trkpt lat="43.38012" lon="-1.33695">
        <ele>100</ele>
        <time>2026-07-12T18:38:54.000Z</time>
      </trkpt>
      <trkpt lat="43.37988" lon="-1.33805">
        <ele>105</ele>
        <time>2026-07-12T18:39:09.000Z</time>
      </trkpt>
      <trkpt lat="43.37977" lon="-1.33861">
        <ele>107</ele>
        <time>2026-07-12T18:39:16.000Z</time>
      </trkpt>
      <trkpt lat="43.37972" lon="-1.33891">
        <ele>109</ele>
        <time>2026-07-12T18:39:20.000Z</time>
      </trkpt>
      <trkpt lat="43.37967" lon="-1.3392">
        <ele>111</ele>
        <time>2026-07-12T18:39:24.000Z</time>
      </trkpt>
      <trkpt lat="43.37964" lon="-1.33948">
        <ele>113</ele>
        <time>2026-07-12T18:39:28.000Z</time>
      </trkpt>
      <trkpt lat="43.3796" lon="-1.33979">
        <ele>114</ele>
        <time>2026-07-12T18:39:32.000Z</time>
      </trkpt>
      <trkpt lat="43.37959" lon="-1.33988">
        <ele>115</ele>
        <time>2026-07-12T18:39:33.000Z</time>
      </trkpt>
      <trkpt lat="43.37958" lon="-1.33997">
        <ele>116</ele>
        <time>2026-07-12T18:39:34.000Z</time>
      </trkpt>
      <trkpt lat="43.37957" lon="-1.34002">
        <ele>116</ele>
        <time>2026-07-12T18:39:35.000Z</time>
      </trkpt>
      <trkpt lat="43.37956" lon="-1.34006">
        <ele>116</ele>
        <time>2026-07-12T18:39:35.000Z</time>
      </trkpt>
      <trkpt lat="43.37955" lon="-1.3401">
        <ele>116</ele>
        <time>2026-07-12T18:39:36.000Z</time>
      </trkpt>
      <trkpt lat="43.37954" lon="-1.34014">
        <ele>116</ele>
        <time>2026-07-12T18:39:36.000Z</time>
      </trkpt>
      <trkpt lat="43.37953" lon="-1.34018">
        <ele>117</ele>
        <time>2026-07-12T18:39:37.000Z</time>
      </trkpt>
      <trkpt lat="43.37951" lon="-1.34021">
        <ele>117</ele>
        <time>2026-07-12T18:39:37.000Z</time>
      </trkpt>
      <trkpt lat="43.37949" lon="-1.34024">
        <ele>117</ele>
        <time>2026-07-12T18:39:38.000Z</time>
      </trkpt>
      <trkpt lat="43.37947" lon="-1.34028">
        <ele>117</ele>
        <time>2026-07-12T18:39:39.000Z</time>
      </trkpt>
      <trkpt lat="43.37945" lon="-1.34031">
        <ele>117</ele>
        <time>2026-07-12T18:39:39.000Z</time>
      </trkpt>
      <trkpt lat="43.37943" lon="-1.34033">
        <ele>117</ele>
        <time>2026-07-12T18:39:40.000Z</time>
      </trkpt>
      <trkpt lat="43.37938" lon="-1.34037">
        <ele>116</ele>
        <time>2026-07-12T18:39:41.000Z</time>
      </trkpt>
      <trkpt lat="43.37933" lon="-1.34041">
        <ele>116</ele>
        <time>2026-07-12T18:39:42.000Z</time>
      </trkpt>
      <trkpt lat="43.37924" lon="-1.3405">
        <ele>116</ele>
        <time>2026-07-12T18:39:44.000Z</time>
      </trkpt>
      <trkpt lat="43.3792" lon="-1.34055">
        <ele>116</ele>
        <time>2026-07-12T18:39:45.000Z</time>
      </trkpt>
      <trkpt lat="43.37916" lon="-1.34062">
        <ele>117</ele>
        <time>2026-07-12T18:39:46.000Z</time>
      </trkpt>
      <trkpt lat="43.37914" lon="-1.34068">
        <ele>117</ele>
        <time>2026-07-12T18:39:47.000Z</time>
      </trkpt>
      <trkpt lat="43.37912" lon="-1.34076">
        <ele>117</ele>
        <time>2026-07-12T18:39:48.000Z</time>
      </trkpt>
      <trkpt lat="43.3791" lon="-1.34083">
        <ele>118</ele>
        <time>2026-07-12T18:39:49.000Z</time>
      </trkpt>
      <trkpt lat="43.37909" lon="-1.34092">
        <ele>118</ele>
        <time>2026-07-12T18:39:50.000Z</time>
      </trkpt>
      <trkpt lat="43.37908" lon="-1.34105">
        <ele>118</ele>
        <time>2026-07-12T18:39:52.000Z</time>
      </trkpt>
      <trkpt lat="43.37908" lon="-1.34114">
        <ele>118</ele>
        <time>2026-07-12T18:39:53.000Z</time>
      </trkpt>
      <trkpt lat="43.37904" lon="-1.3417">
        <ele>120</ele>
        <time>2026-07-12T18:40:00.000Z</time>
      </trkpt>
      <trkpt lat="43.37901" lon="-1.34235">
        <ele>123</ele>
        <time>2026-07-12T18:40:08.000Z</time>
      </trkpt>
      <trkpt lat="43.37898" lon="-1.3428">
        <ele>126</ele>
        <time>2026-07-12T18:40:14.000Z</time>
      </trkpt>
      <trkpt lat="43.37897" lon="-1.34285">
        <ele>127</ele>
        <time>2026-07-12T18:40:15.000Z</time>
      </trkpt>
      <trkpt lat="43.37896" lon="-1.34295">
        <ele>127</ele>
        <time>2026-07-12T18:40:16.000Z</time>
      </trkpt>
      <trkpt lat="43.37895" lon="-1.34303">
        <ele>128</ele>
        <time>2026-07-12T18:40:17.000Z</time>
      </trkpt>
      <trkpt lat="43.37893" lon="-1.34312">
        <ele>129</ele>
        <time>2026-07-12T18:40:19.000Z</time>
      </trkpt>
      <trkpt lat="43.37892" lon="-1.34317">
        <ele>129</ele>
        <time>2026-07-12T18:40:19.000Z</time>
      </trkpt>
      <trkpt lat="43.3789" lon="-1.34321">
        <ele>130</ele>
        <time>2026-07-12T18:40:20.000Z</time>
      </trkpt>
      <trkpt lat="43.37887" lon="-1.34325">
        <ele>130</ele>
        <time>2026-07-12T18:40:21.000Z</time>
      </trkpt>
      <trkpt lat="43.37884" lon="-1.34329">
        <ele>131</ele>
        <time>2026-07-12T18:40:21.000Z</time>
      </trkpt>
      <trkpt lat="43.3788" lon="-1.34331">
        <ele>131</ele>
        <time>2026-07-12T18:40:22.000Z</time>
      </trkpt>
      <trkpt lat="43.37875" lon="-1.34334">
        <ele>132</ele>
        <time>2026-07-12T18:40:23.000Z</time>
      </trkpt>
      <trkpt lat="43.37867" lon="-1.34336">
        <ele>132</ele>
        <time>2026-07-12T18:40:24.000Z</time>
      </trkpt>
      <trkpt lat="43.37848" lon="-1.34338">
        <ele>133</ele>
        <time>2026-07-12T18:40:28.000Z</time>
      </trkpt>
      <trkpt lat="43.37842" lon="-1.3434">
        <ele>133</ele>
        <time>2026-07-12T18:40:29.000Z</time>
      </trkpt>
      <trkpt lat="43.37837" lon="-1.34342">
        <ele>134</ele>
        <time>2026-07-12T18:40:30.000Z</time>
      </trkpt>
      <trkpt lat="43.37827" lon="-1.34347">
        <ele>134</ele>
        <time>2026-07-12T18:40:32.000Z</time>
      </trkpt>
      <trkpt lat="43.3782" lon="-1.34352">
        <ele>134</ele>
        <time>2026-07-12T18:40:33.000Z</time>
      </trkpt>
      <trkpt lat="43.37812" lon="-1.34359">
        <ele>133</ele>
        <time>2026-07-12T18:40:35.000Z</time>
      </trkpt>
      <trkpt lat="43.37807" lon="-1.34363">
        <ele>133</ele>
        <time>2026-07-12T18:40:36.000Z</time>
      </trkpt>
      <trkpt lat="43.37803" lon="-1.34368">
        <ele>133</ele>
        <time>2026-07-12T18:40:37.000Z</time>
      </trkpt>
      <trkpt lat="43.37797" lon="-1.34378">
        <ele>134</ele>
        <time>2026-07-12T18:40:39.000Z</time>
      </trkpt>
      <trkpt lat="43.37792" lon="-1.34386">
        <ele>134</ele>
        <time>2026-07-12T18:40:40.000Z</time>
      </trkpt>
      <trkpt lat="43.37787" lon="-1.34396">
        <ele>135</ele>
        <time>2026-07-12T18:40:41.000Z</time>
      </trkpt>
      <trkpt lat="43.37779" lon="-1.34413">
        <ele>135</ele>
        <time>2026-07-12T18:40:44.000Z</time>
      </trkpt>
      <trkpt lat="43.37774" lon="-1.34426">
        <ele>135</ele>
        <time>2026-07-12T18:40:46.000Z</time>
      </trkpt>
      <trkpt lat="43.37772" lon="-1.34433">
        <ele>135</ele>
        <time>2026-07-12T18:40:47.000Z</time>
      </trkpt>
      <trkpt lat="43.37771" lon="-1.3444">
        <ele>135</ele>
        <time>2026-07-12T18:40:48.000Z</time>
      </trkpt>
      <trkpt lat="43.37771" lon="-1.34445">
        <ele>135</ele>
        <time>2026-07-12T18:40:49.000Z</time>
      </trkpt>
      <trkpt lat="43.37771" lon="-1.34449">
        <ele>134</ele>
        <time>2026-07-12T18:40:49.000Z</time>
      </trkpt>
      <trkpt lat="43.37772" lon="-1.34452">
        <ele>135</ele>
        <time>2026-07-12T18:40:49.000Z</time>
      </trkpt>
      <trkpt lat="43.37772" lon="-1.34456">
        <ele>135</ele>
        <time>2026-07-12T18:40:50.000Z</time>
      </trkpt>
      <trkpt lat="43.37773" lon="-1.3446">
        <ele>135</ele>
        <time>2026-07-12T18:40:51.000Z</time>
      </trkpt>
      <trkpt lat="43.37774" lon="-1.34464">
        <ele>135</ele>
        <time>2026-07-12T18:40:51.000Z</time>
      </trkpt>
      <trkpt lat="43.37776" lon="-1.34468">
        <ele>135</ele>
        <time>2026-07-12T18:40:52.000Z</time>
      </trkpt>
      <trkpt lat="43.37779" lon="-1.34473">
        <ele>136</ele>
        <time>2026-07-12T18:40:53.000Z</time>
      </trkpt>
      <trkpt lat="43.37782" lon="-1.34477">
        <ele>136</ele>
        <time>2026-07-12T18:40:53.000Z</time>
      </trkpt>
      <trkpt lat="43.37787" lon="-1.34485">
        <ele>137</ele>
        <time>2026-07-12T18:40:55.000Z</time>
      </trkpt>
      <trkpt lat="43.37799" lon="-1.34499">
        <ele>139</ele>
        <time>2026-07-12T18:40:57.000Z</time>
      </trkpt>
      <trkpt lat="43.37815" lon="-1.34519">
        <ele>142</ele>
        <time>2026-07-12T18:41:01.000Z</time>
      </trkpt>
      <trkpt lat="43.37826" lon="-1.34533">
        <ele>144</ele>
        <time>2026-07-12T18:41:04.000Z</time>
      </trkpt>
      <trkpt lat="43.37841" lon="-1.34553">
        <ele>146</ele>
        <time>2026-07-12T18:41:08.000Z</time>
      </trkpt>
      <trkpt lat="43.3786" lon="-1.3458">
        <ele>148</ele>
        <time>2026-07-12T18:41:13.000Z</time>
      </trkpt>
      <trkpt lat="43.37896" lon="-1.34629">
        <ele>155</ele>
        <time>2026-07-12T18:41:22.000Z</time>
      </trkpt>
      <trkpt lat="43.37908" lon="-1.34645">
        <ele>157</ele>
        <time>2026-07-12T18:41:25.000Z</time>
      </trkpt>
      <trkpt lat="43.37911" lon="-1.34651">
        <ele>157</ele>
        <time>2026-07-12T18:41:25.000Z</time>
      </trkpt>
      <trkpt lat="43.37916" lon="-1.3466">
        <ele>158</ele>
        <time>2026-07-12T18:41:27.000Z</time>
      </trkpt>
      <trkpt lat="43.37918" lon="-1.34667">
        <ele>158</ele>
        <time>2026-07-12T18:41:28.000Z</time>
      </trkpt>
      <trkpt lat="43.3792" lon="-1.34674">
        <ele>159</ele>
        <time>2026-07-12T18:41:29.000Z</time>
      </trkpt>
      <trkpt lat="43.3792" lon="-1.3468">
        <ele>160</ele>
        <time>2026-07-12T18:41:30.000Z</time>
      </trkpt>
      <trkpt lat="43.3792" lon="-1.34685">
        <ele>161</ele>
        <time>2026-07-12T18:41:30.000Z</time>
      </trkpt>
      <trkpt lat="43.3792" lon="-1.3469">
        <ele>162</ele>
        <time>2026-07-12T18:41:31.000Z</time>
      </trkpt>
      <trkpt lat="43.37918" lon="-1.34695">
        <ele>162</ele>
        <time>2026-07-12T18:41:32.000Z</time>
      </trkpt>
      <trkpt lat="43.37916" lon="-1.34702">
        <ele>163</ele>
        <time>2026-07-12T18:41:33.000Z</time>
      </trkpt>
      <trkpt lat="43.37912" lon="-1.34708">
        <ele>164</ele>
        <time>2026-07-12T18:41:34.000Z</time>
      </trkpt>
      <trkpt lat="43.37908" lon="-1.34711">
        <ele>164</ele>
        <time>2026-07-12T18:41:35.000Z</time>
      </trkpt>
      <trkpt lat="43.37902" lon="-1.34717">
        <ele>165</ele>
        <time>2026-07-12T18:41:36.000Z</time>
      </trkpt>
      <trkpt lat="43.37896" lon="-1.34721">
        <ele>165</ele>
        <time>2026-07-12T18:41:37.000Z</time>
      </trkpt>
      <trkpt lat="43.37888" lon="-1.34725">
        <ele>166</ele>
        <time>2026-07-12T18:41:39.000Z</time>
      </trkpt>
      <trkpt lat="43.3788" lon="-1.34728">
        <ele>166</ele>
        <time>2026-07-12T18:41:40.000Z</time>
      </trkpt>
      <trkpt lat="43.37876" lon="-1.34729">
        <ele>166</ele>
        <time>2026-07-12T18:41:41.000Z</time>
      </trkpt>
      <trkpt lat="43.37873" lon="-1.3473">
        <ele>166</ele>
        <time>2026-07-12T18:41:41.000Z</time>
      </trkpt>
      <trkpt lat="43.37869" lon="-1.3473">
        <ele>165</ele>
        <time>2026-07-12T18:41:42.000Z</time>
      </trkpt>
      <trkpt lat="43.37866" lon="-1.34729">
        <ele>165</ele>
        <time>2026-07-12T18:41:43.000Z</time>
      </trkpt>
      <trkpt lat="43.37862" lon="-1.34728">
        <ele>165</ele>
        <time>2026-07-12T18:41:43.000Z</time>
      </trkpt>
      <trkpt lat="43.37852" lon="-1.34722">
        <ele>163</ele>
        <time>2026-07-12T18:41:45.000Z</time>
      </trkpt>
      <trkpt lat="43.3784" lon="-1.34715">
        <ele>161</ele>
        <time>2026-07-12T18:41:48.000Z</time>
      </trkpt>
      <trkpt lat="43.37835" lon="-1.34714">
        <ele>161</ele>
        <time>2026-07-12T18:41:48.000Z</time>
      </trkpt>
      <trkpt lat="43.3783" lon="-1.34712">
        <ele>160</ele>
        <time>2026-07-12T18:41:49.000Z</time>
      </trkpt>
      <trkpt lat="43.37823" lon="-1.34711">
        <ele>159</ele>
        <time>2026-07-12T18:41:51.000Z</time>
      </trkpt>
      <trkpt lat="43.37816" lon="-1.34713">
        <ele>158</ele>
        <time>2026-07-12T18:41:52.000Z</time>
      </trkpt>
      <trkpt lat="43.37808" lon="-1.34716">
        <ele>157</ele>
        <time>2026-07-12T18:41:53.000Z</time>
      </trkpt>
      <trkpt lat="43.37803" lon="-1.34721">
        <ele>157</ele>
        <time>2026-07-12T18:41:54.000Z</time>
      </trkpt>
      <trkpt lat="43.37799" lon="-1.34726">
        <ele>157</ele>
        <time>2026-07-12T18:41:55.000Z</time>
      </trkpt>
      <trkpt lat="43.37796" lon="-1.3473">
        <ele>157</ele>
        <time>2026-07-12T18:41:56.000Z</time>
      </trkpt>
      <trkpt lat="43.37793" lon="-1.34739">
        <ele>157</ele>
        <time>2026-07-12T18:41:57.000Z</time>
      </trkpt>
      <trkpt lat="43.37791" lon="-1.34746">
        <ele>158</ele>
        <time>2026-07-12T18:41:58.000Z</time>
      </trkpt>
      <trkpt lat="43.37789" lon="-1.34753">
        <ele>158</ele>
        <time>2026-07-12T18:41:59.000Z</time>
      </trkpt>
      <trkpt lat="43.37789" lon="-1.34761">
        <ele>158</ele>
        <time>2026-07-12T18:42:00.000Z</time>
      </trkpt>
      <trkpt lat="43.3779" lon="-1.34768">
        <ele>158</ele>
        <time>2026-07-12T18:42:01.000Z</time>
      </trkpt>
      <trkpt lat="43.37791" lon="-1.34773">
        <ele>159</ele>
        <time>2026-07-12T18:42:02.000Z</time>
      </trkpt>
      <trkpt lat="43.37792" lon="-1.3478">
        <ele>159</ele>
        <time>2026-07-12T18:42:03.000Z</time>
      </trkpt>
      <trkpt lat="43.37794" lon="-1.34786">
        <ele>160</ele>
        <time>2026-07-12T18:42:04.000Z</time>
      </trkpt>
      <trkpt lat="43.37797" lon="-1.34792">
        <ele>161</ele>
        <time>2026-07-12T18:42:05.000Z</time>
      </trkpt>
      <trkpt lat="43.37805" lon="-1.34807">
        <ele>163</ele>
        <time>2026-07-12T18:42:07.000Z</time>
      </trkpt>
      <trkpt lat="43.37845" lon="-1.34872">
        <ele>171</ele>
        <time>2026-07-12T18:42:18.000Z</time>
      </trkpt>
      <trkpt lat="43.3785" lon="-1.34881">
        <ele>172</ele>
        <time>2026-07-12T18:42:20.000Z</time>
      </trkpt>
      <trkpt lat="43.37853" lon="-1.34886">
        <ele>172</ele>
        <time>2026-07-12T18:42:20.000Z</time>
      </trkpt>
      <trkpt lat="43.37856" lon="-1.34893">
        <ele>173</ele>
        <time>2026-07-12T18:42:22.000Z</time>
      </trkpt>
      <trkpt lat="43.37859" lon="-1.349">
        <ele>173</ele>
        <time>2026-07-12T18:42:23.000Z</time>
      </trkpt>
      <trkpt lat="43.37862" lon="-1.34906">
        <ele>173</ele>
        <time>2026-07-12T18:42:24.000Z</time>
      </trkpt>
      <trkpt lat="43.37864" lon="-1.34913">
        <ele>174</ele>
        <time>2026-07-12T18:42:24.000Z</time>
      </trkpt>
      <trkpt lat="43.37866" lon="-1.34921">
        <ele>174</ele>
        <time>2026-07-12T18:42:26.000Z</time>
      </trkpt>
      <trkpt lat="43.37867" lon="-1.34928">
        <ele>174</ele>
        <time>2026-07-12T18:42:26.000Z</time>
      </trkpt>
      <trkpt lat="43.37868" lon="-1.34936">
        <ele>174</ele>
        <time>2026-07-12T18:42:28.000Z</time>
      </trkpt>
      <trkpt lat="43.37868" lon="-1.34944">
        <ele>174</ele>
        <time>2026-07-12T18:42:29.000Z</time>
      </trkpt>
      <trkpt lat="43.37868" lon="-1.34951">
        <ele>175</ele>
        <time>2026-07-12T18:42:29.000Z</time>
      </trkpt>
      <trkpt lat="43.37868" lon="-1.34959">
        <ele>175</ele>
        <time>2026-07-12T18:42:31.000Z</time>
      </trkpt>
      <trkpt lat="43.37866" lon="-1.34967">
        <ele>174</ele>
        <time>2026-07-12T18:42:32.000Z</time>
      </trkpt>
      <trkpt lat="43.37864" lon="-1.34973">
        <ele>174</ele>
        <time>2026-07-12T18:42:32.000Z</time>
      </trkpt>
      <trkpt lat="43.37862" lon="-1.34979">
        <ele>174</ele>
        <time>2026-07-12T18:42:33.000Z</time>
      </trkpt>
      <trkpt lat="43.3786" lon="-1.34984">
        <ele>174</ele>
        <time>2026-07-12T18:42:34.000Z</time>
      </trkpt>
      <trkpt lat="43.37855" lon="-1.34994">
        <ele>173</ele>
        <time>2026-07-12T18:42:36.000Z</time>
      </trkpt>
      <trkpt lat="43.37853" lon="-1.34999">
        <ele>173</ele>
        <time>2026-07-12T18:42:36.000Z</time>
      </trkpt>
      <trkpt lat="43.37851" lon="-1.35005">
        <ele>173</ele>
        <time>2026-07-12T18:42:37.000Z</time>
      </trkpt>
      <trkpt lat="43.3785" lon="-1.35011">
        <ele>173</ele>
        <time>2026-07-12T18:42:38.000Z</time>
      </trkpt>
      <trkpt lat="43.37849" lon="-1.35018">
        <ele>174</ele>
        <time>2026-07-12T18:42:39.000Z</time>
      </trkpt>
      <trkpt lat="43.37848" lon="-1.35025">
        <ele>174</ele>
        <time>2026-07-12T18:42:40.000Z</time>
      </trkpt>
      <trkpt lat="43.37848" lon="-1.35032">
        <ele>175</ele>
        <time>2026-07-12T18:42:41.000Z</time>
      </trkpt>
      <trkpt lat="43.37848" lon="-1.35039">
        <ele>175</ele>
        <time>2026-07-12T18:42:42.000Z</time>
      </trkpt>
      <trkpt lat="43.3785" lon="-1.35053">
        <ele>176</ele>
        <time>2026-07-12T18:42:44.000Z</time>
      </trkpt>
      <trkpt lat="43.37855" lon="-1.35094">
        <ele>178</ele>
        <time>2026-07-12T18:42:49.000Z</time>
      </trkpt>
      <trkpt lat="43.37856" lon="-1.35108">
        <ele>179</ele>
        <time>2026-07-12T18:42:51.000Z</time>
      </trkpt>
      <trkpt lat="43.37857" lon="-1.35118">
        <ele>179</ele>
        <time>2026-07-12T18:42:52.000Z</time>
      </trkpt>
      <trkpt lat="43.37858" lon="-1.35127">
        <ele>179</ele>
        <time>2026-07-12T18:42:53.000Z</time>
      </trkpt>
      <trkpt lat="43.37859" lon="-1.3514">
        <ele>179</ele>
        <time>2026-07-12T18:42:55.000Z</time>
      </trkpt>
      <trkpt lat="43.37859" lon="-1.35155">
        <ele>179</ele>
        <time>2026-07-12T18:42:57.000Z</time>
      </trkpt>
      <trkpt lat="43.37859" lon="-1.35176">
        <ele>180</ele>
        <time>2026-07-12T18:43:00.000Z</time>
      </trkpt>
      <trkpt lat="43.37859" lon="-1.35209">
        <ele>182</ele>
        <time>2026-07-12T18:43:04.000Z</time>
      </trkpt>
      <trkpt lat="43.37858" lon="-1.35241">
        <ele>183</ele>
        <time>2026-07-12T18:43:08.000Z</time>
      </trkpt>
      <trkpt lat="43.37857" lon="-1.3526">
        <ele>183</ele>
        <time>2026-07-12T18:43:10.000Z</time>
      </trkpt>
      <trkpt lat="43.37857" lon="-1.35267">
        <ele>183</ele>
        <time>2026-07-12T18:43:11.000Z</time>
      </trkpt>
      <trkpt lat="43.37857" lon="-1.35276">
        <ele>182</ele>
        <time>2026-07-12T18:43:12.000Z</time>
      </trkpt>
      <trkpt lat="43.37858" lon="-1.3528">
        <ele>181</ele>
        <time>2026-07-12T18:43:13.000Z</time>
      </trkpt>
      <trkpt lat="43.37859" lon="-1.35285">
        <ele>181</ele>
        <time>2026-07-12T18:43:14.000Z</time>
      </trkpt>
      <trkpt lat="43.3786" lon="-1.35289">
        <ele>181</ele>
        <time>2026-07-12T18:43:14.000Z</time>
      </trkpt>
      <trkpt lat="43.37861" lon="-1.35292">
        <ele>180</ele>
        <time>2026-07-12T18:43:15.000Z</time>
      </trkpt>
      <trkpt lat="43.37885" lon="-1.35351">
        <ele>178</ele>
        <time>2026-07-12T18:43:23.000Z</time>
      </trkpt>
      <trkpt lat="43.37898" lon="-1.35387">
        <ele>179</ele>
        <time>2026-07-12T18:43:29.000Z</time>
      </trkpt>
      <trkpt lat="43.37904" lon="-1.35402">
        <ele>180</ele>
        <time>2026-07-12T18:43:31.000Z</time>
      </trkpt>
      <trkpt lat="43.37914" lon="-1.35432">
        <ele>182</ele>
        <time>2026-07-12T18:43:35.000Z</time>
      </trkpt>
      <trkpt lat="43.37919" lon="-1.35449">
        <ele>183</ele>
        <time>2026-07-12T18:43:37.000Z</time>
      </trkpt>
      <trkpt lat="43.37931" lon="-1.35495">
        <ele>185</ele>
        <time>2026-07-12T18:43:44.000Z</time>
      </trkpt>
      <trkpt lat="43.37935" lon="-1.35516">
        <ele>184</ele>
        <time>2026-07-12T18:43:47.000Z</time>
      </trkpt>
      <trkpt lat="43.37942" lon="-1.35549">
        <ele>181</ele>
        <time>2026-07-12T18:43:51.000Z</time>
      </trkpt>
      <trkpt lat="43.37945" lon="-1.35562">
        <ele>181</ele>
        <time>2026-07-12T18:43:53.000Z</time>
      </trkpt>
      <trkpt lat="43.37948" lon="-1.35578">
        <ele>180</ele>
        <time>2026-07-12T18:43:55.000Z</time>
      </trkpt>
      <trkpt lat="43.3795" lon="-1.35592">
        <ele>178</ele>
        <time>2026-07-12T18:43:57.000Z</time>
      </trkpt>
      <trkpt lat="43.3795" lon="-1.356">
        <ele>178</ele>
        <time>2026-07-12T18:43:58.000Z</time>
      </trkpt>
      <trkpt lat="43.3795" lon="-1.35617">
        <ele>176</ele>
        <time>2026-07-12T18:44:00.000Z</time>
      </trkpt>
      <trkpt lat="43.3795" lon="-1.35627">
        <ele>176</ele>
        <time>2026-07-12T18:44:01.000Z</time>
      </trkpt>
      <trkpt lat="43.37949" lon="-1.35636">
        <ele>175</ele>
        <time>2026-07-12T18:44:02.000Z</time>
      </trkpt>
      <trkpt lat="43.37949" lon="-1.35644">
        <ele>174</ele>
        <time>2026-07-12T18:44:04.000Z</time>
      </trkpt>
      <trkpt lat="43.37947" lon="-1.35658">
        <ele>173</ele>
        <time>2026-07-12T18:44:05.000Z</time>
      </trkpt>
      <trkpt lat="43.37946" lon="-1.35669">
        <ele>172</ele>
        <time>2026-07-12T18:44:07.000Z</time>
      </trkpt>
      <trkpt lat="43.37945" lon="-1.35679">
        <ele>172</ele>
        <time>2026-07-12T18:44:08.000Z</time>
      </trkpt>
      <trkpt lat="43.37943" lon="-1.3569">
        <ele>172</ele>
        <time>2026-07-12T18:44:10.000Z</time>
      </trkpt>
      <trkpt lat="43.37941" lon="-1.357">
        <ele>171</ele>
        <time>2026-07-12T18:44:11.000Z</time>
      </trkpt>
      <trkpt lat="43.37937" lon="-1.35712">
        <ele>171</ele>
        <time>2026-07-12T18:44:13.000Z</time>
      </trkpt>
      <trkpt lat="43.37933" lon="-1.35722">
        <ele>171</ele>
        <time>2026-07-12T18:44:14.000Z</time>
      </trkpt>
      <trkpt lat="43.37929" lon="-1.35732">
        <ele>171</ele>
        <time>2026-07-12T18:44:16.000Z</time>
      </trkpt>
      <trkpt lat="43.37923" lon="-1.35745">
        <ele>171</ele>
        <time>2026-07-12T18:44:18.000Z</time>
      </trkpt>
      <trkpt lat="43.37919" lon="-1.35754">
        <ele>171</ele>
        <time>2026-07-12T18:44:19.000Z</time>
      </trkpt>
      <trkpt lat="43.37913" lon="-1.35763">
        <ele>170</ele>
        <time>2026-07-12T18:44:21.000Z</time>
      </trkpt>
      <trkpt lat="43.37904" lon="-1.35775">
        <ele>169</ele>
        <time>2026-07-12T18:44:23.000Z</time>
      </trkpt>
      <trkpt lat="43.37899" lon="-1.35782">
        <ele>168</ele>
        <time>2026-07-12T18:44:24.000Z</time>
      </trkpt>
      <trkpt lat="43.37894" lon="-1.35787">
        <ele>168</ele>
        <time>2026-07-12T18:44:25.000Z</time>
      </trkpt>
      <trkpt lat="43.37887" lon="-1.35791">
        <ele>167</ele>
        <time>2026-07-12T18:44:26.000Z</time>
      </trkpt>
      <trkpt lat="43.37881" lon="-1.35796">
        <ele>167</ele>
        <time>2026-07-12T18:44:28.000Z</time>
      </trkpt>
      <trkpt lat="43.37875" lon="-1.35799">
        <ele>167</ele>
        <time>2026-07-12T18:44:29.000Z</time>
      </trkpt>
      <trkpt lat="43.37868" lon="-1.35802">
        <ele>166</ele>
        <time>2026-07-12T18:44:30.000Z</time>
      </trkpt>
      <trkpt lat="43.37859" lon="-1.35806">
        <ele>166</ele>
        <time>2026-07-12T18:44:32.000Z</time>
      </trkpt>
      <trkpt lat="43.37846" lon="-1.3581">
        <ele>165</ele>
        <time>2026-07-12T18:44:34.000Z</time>
      </trkpt>
      <trkpt lat="43.37833" lon="-1.35815">
        <ele>165</ele>
        <time>2026-07-12T18:44:37.000Z</time>
      </trkpt>
      <trkpt lat="43.37827" lon="-1.35818">
        <ele>165</ele>
        <time>2026-07-12T18:44:38.000Z</time>
      </trkpt>
      <trkpt lat="43.3782" lon="-1.35822">
        <ele>164</ele>
        <time>2026-07-12T18:44:39.000Z</time>
      </trkpt>
      <trkpt lat="43.37814" lon="-1.35826">
        <ele>164</ele>
        <time>2026-07-12T18:44:40.000Z</time>
      </trkpt>
      <trkpt lat="43.37807" lon="-1.35832">
        <ele>164</ele>
        <time>2026-07-12T18:44:42.000Z</time>
      </trkpt>
      <trkpt lat="43.37801" lon="-1.35837">
        <ele>164</ele>
        <time>2026-07-12T18:44:43.000Z</time>
      </trkpt>
      <trkpt lat="43.37795" lon="-1.35844">
        <ele>163</ele>
        <time>2026-07-12T18:44:44.000Z</time>
      </trkpt>
      <trkpt lat="43.37788" lon="-1.35851">
        <ele>162</ele>
        <time>2026-07-12T18:44:46.000Z</time>
      </trkpt>
      <trkpt lat="43.3777" lon="-1.35877">
        <ele>161</ele>
        <time>2026-07-12T18:44:51.000Z</time>
      </trkpt>
      <trkpt lat="43.37718" lon="-1.35957">
        <ele>153</ele>
        <time>2026-07-12T18:45:04.000Z</time>
      </trkpt>
      <trkpt lat="43.37704" lon="-1.35981">
        <ele>150</ele>
        <time>2026-07-12T18:45:08.000Z</time>
      </trkpt>
      <trkpt lat="43.37698" lon="-1.35987">
        <ele>148</ele>
        <time>2026-07-12T18:45:10.000Z</time>
      </trkpt>
      <trkpt lat="43.37693" lon="-1.35993">
        <ele>147</ele>
        <time>2026-07-12T18:45:11.000Z</time>
      </trkpt>
      <trkpt lat="43.37687" lon="-1.35999">
        <ele>146</ele>
        <time>2026-07-12T18:45:12.000Z</time>
      </trkpt>
      <trkpt lat="43.3768" lon="-1.36003">
        <ele>145</ele>
        <time>2026-07-12T18:45:14.000Z</time>
      </trkpt>
      <trkpt lat="43.37674" lon="-1.36007">
        <ele>144</ele>
        <time>2026-07-12T18:45:15.000Z</time>
      </trkpt>
      <trkpt lat="43.37667" lon="-1.36009">
        <ele>143</ele>
        <time>2026-07-12T18:45:16.000Z</time>
      </trkpt>
      <trkpt lat="43.37661" lon="-1.36011">
        <ele>142</ele>
        <time>2026-07-12T18:45:17.000Z</time>
      </trkpt>
      <trkpt lat="43.37654" lon="-1.36012">
        <ele>142</ele>
        <time>2026-07-12T18:45:18.000Z</time>
      </trkpt>
      <trkpt lat="43.37648" lon="-1.36011">
        <ele>141</ele>
        <time>2026-07-12T18:45:19.000Z</time>
      </trkpt>
      <trkpt lat="43.37642" lon="-1.36009">
        <ele>141</ele>
        <time>2026-07-12T18:45:21.000Z</time>
      </trkpt>
      <trkpt lat="43.37636" lon="-1.36006">
        <ele>140</ele>
        <time>2026-07-12T18:45:22.000Z</time>
      </trkpt>
      <trkpt lat="43.37623" lon="-1.35999">
        <ele>139</ele>
        <time>2026-07-12T18:45:24.000Z</time>
      </trkpt>
      <trkpt lat="43.37611" lon="-1.3599">
        <ele>139</ele>
        <time>2026-07-12T18:45:27.000Z</time>
      </trkpt>
      <trkpt lat="43.37599" lon="-1.35982">
        <ele>138</ele>
        <time>2026-07-12T18:45:29.000Z</time>
      </trkpt>
      <trkpt lat="43.37593" lon="-1.35978">
        <ele>137</ele>
        <time>2026-07-12T18:45:30.000Z</time>
      </trkpt>
      <trkpt lat="43.37587" lon="-1.35976">
        <ele>136</ele>
        <time>2026-07-12T18:45:31.000Z</time>
      </trkpt>
      <trkpt lat="43.37582" lon="-1.35975">
        <ele>136</ele>
        <time>2026-07-12T18:45:32.000Z</time>
      </trkpt>
      <trkpt lat="43.37576" lon="-1.35975">
        <ele>135</ele>
        <time>2026-07-12T18:45:33.000Z</time>
      </trkpt>
      <trkpt lat="43.3757" lon="-1.35977">
        <ele>135</ele>
        <time>2026-07-12T18:45:34.000Z</time>
      </trkpt>
      <trkpt lat="43.37565" lon="-1.3598">
        <ele>134</ele>
        <time>2026-07-12T18:45:35.000Z</time>
      </trkpt>
      <trkpt lat="43.3756" lon="-1.35984">
        <ele>134</ele>
        <time>2026-07-12T18:45:36.000Z</time>
      </trkpt>
      <trkpt lat="43.37557" lon="-1.35989">
        <ele>133</ele>
        <time>2026-07-12T18:45:37.000Z</time>
      </trkpt>
      <trkpt lat="43.37553" lon="-1.35996">
        <ele>133</ele>
        <time>2026-07-12T18:45:38.000Z</time>
      </trkpt>
      <trkpt lat="43.37551" lon="-1.36003">
        <ele>133</ele>
        <time>2026-07-12T18:45:39.000Z</time>
      </trkpt>
      <trkpt lat="43.37549" lon="-1.3601">
        <ele>133</ele>
        <time>2026-07-12T18:45:40.000Z</time>
      </trkpt>
      <trkpt lat="43.37549" lon="-1.36018">
        <ele>134</ele>
        <time>2026-07-12T18:45:41.000Z</time>
      </trkpt>
      <trkpt lat="43.3755" lon="-1.36026">
        <ele>134</ele>
        <time>2026-07-12T18:45:42.000Z</time>
      </trkpt>
      <trkpt lat="43.37552" lon="-1.36033">
        <ele>134</ele>
        <time>2026-07-12T18:45:43.000Z</time>
      </trkpt>
      <trkpt lat="43.37554" lon="-1.36041">
        <ele>135</ele>
        <time>2026-07-12T18:45:44.000Z</time>
      </trkpt>
      <trkpt lat="43.37557" lon="-1.36047">
        <ele>135</ele>
        <time>2026-07-12T18:45:45.000Z</time>
      </trkpt>
      <trkpt lat="43.3756" lon="-1.36055">
        <ele>135</ele>
        <time>2026-07-12T18:45:47.000Z</time>
      </trkpt>
      <trkpt lat="43.37564" lon="-1.36067">
        <ele>136</ele>
        <time>2026-07-12T18:45:48.000Z</time>
      </trkpt>
      <trkpt lat="43.37567" lon="-1.36079">
        <ele>136</ele>
        <time>2026-07-12T18:45:50.000Z</time>
      </trkpt>
      <trkpt lat="43.3757" lon="-1.36089">
        <ele>136</ele>
        <time>2026-07-12T18:45:51.000Z</time>
      </trkpt>
      <trkpt lat="43.37572" lon="-1.361">
        <ele>137</ele>
        <time>2026-07-12T18:45:53.000Z</time>
      </trkpt>
      <trkpt lat="43.37573" lon="-1.3611">
        <ele>137</ele>
        <time>2026-07-12T18:45:54.000Z</time>
      </trkpt>
      <trkpt lat="43.37573" lon="-1.36121">
        <ele>137</ele>
        <time>2026-07-12T18:45:55.000Z</time>
      </trkpt>
      <trkpt lat="43.37574" lon="-1.36138">
        <ele>138</ele>
        <time>2026-07-12T18:45:58.000Z</time>
      </trkpt>
      <trkpt lat="43.37574" lon="-1.36151">
        <ele>138</ele>
        <time>2026-07-12T18:45:59.000Z</time>
      </trkpt>
      <trkpt lat="43.37573" lon="-1.36167">
        <ele>139</ele>
        <time>2026-07-12T18:46:01.000Z</time>
      </trkpt>
      <trkpt lat="43.37572" lon="-1.3618">
        <ele>139</ele>
        <time>2026-07-12T18:46:03.000Z</time>
      </trkpt>
      <trkpt lat="43.37571" lon="-1.36193">
        <ele>139</ele>
        <time>2026-07-12T18:46:05.000Z</time>
      </trkpt>
      <trkpt lat="43.37568" lon="-1.36208">
        <ele>139</ele>
        <time>2026-07-12T18:46:07.000Z</time>
      </trkpt>
      <trkpt lat="43.37566" lon="-1.36218">
        <ele>139</ele>
        <time>2026-07-12T18:46:08.000Z</time>
      </trkpt>
      <trkpt lat="43.3756" lon="-1.36239">
        <ele>139</ele>
        <time>2026-07-12T18:46:11.000Z</time>
      </trkpt>
      <trkpt lat="43.37553" lon="-1.3626">
        <ele>139</ele>
        <time>2026-07-12T18:46:14.000Z</time>
      </trkpt>
      <trkpt lat="43.37547" lon="-1.36281">
        <ele>137</ele>
        <time>2026-07-12T18:46:17.000Z</time>
      </trkpt>
      <trkpt lat="43.37544" lon="-1.36293">
        <ele>136</ele>
        <time>2026-07-12T18:46:19.000Z</time>
      </trkpt>
      <trkpt lat="43.37542" lon="-1.36304">
        <ele>136</ele>
        <time>2026-07-12T18:46:20.000Z</time>
      </trkpt>
      <trkpt lat="43.3754" lon="-1.36316">
        <ele>135</ele>
        <time>2026-07-12T18:46:22.000Z</time>
      </trkpt>
      <trkpt lat="43.37539" lon="-1.36337">
        <ele>133</ele>
        <time>2026-07-12T18:46:24.000Z</time>
      </trkpt>
      <trkpt lat="43.37538" lon="-1.36387">
        <ele>128</ele>
        <time>2026-07-12T18:46:31.000Z</time>
      </trkpt>
      <trkpt lat="43.37538" lon="-1.36401">
        <ele>127</ele>
        <time>2026-07-12T18:46:33.000Z</time>
      </trkpt>
      <trkpt lat="43.37539" lon="-1.36415">
        <ele>126</ele>
        <time>2026-07-12T18:46:35.000Z</time>
      </trkpt>
      <trkpt lat="43.37539" lon="-1.36424">
        <ele>126</ele>
        <time>2026-07-12T18:46:36.000Z</time>
      </trkpt>
      <trkpt lat="43.37541" lon="-1.36432">
        <ele>126</ele>
        <time>2026-07-12T18:46:37.000Z</time>
      </trkpt>
      <trkpt lat="43.37542" lon="-1.36444">
        <ele>126</ele>
        <time>2026-07-12T18:46:38.000Z</time>
      </trkpt>
      <trkpt lat="43.37545" lon="-1.36455">
        <ele>126</ele>
        <time>2026-07-12T18:46:40.000Z</time>
      </trkpt>
      <trkpt lat="43.37549" lon="-1.36467">
        <ele>127</ele>
        <time>2026-07-12T18:46:42.000Z</time>
      </trkpt>
      <trkpt lat="43.37552" lon="-1.36478">
        <ele>127</ele>
        <time>2026-07-12T18:46:43.000Z</time>
      </trkpt>
      <trkpt lat="43.37556" lon="-1.36489">
        <ele>128</ele>
        <time>2026-07-12T18:46:45.000Z</time>
      </trkpt>
      <trkpt lat="43.37564" lon="-1.36509">
        <ele>130</ele>
        <time>2026-07-12T18:46:48.000Z</time>
      </trkpt>
      <trkpt lat="43.37569" lon="-1.36523">
        <ele>131</ele>
        <time>2026-07-12T18:46:50.000Z</time>
      </trkpt>
      <trkpt lat="43.37575" lon="-1.36537">
        <ele>133</ele>
        <time>2026-07-12T18:46:52.000Z</time>
      </trkpt>
      <trkpt lat="43.37581" lon="-1.36549">
        <ele>134</ele>
        <time>2026-07-12T18:46:54.000Z</time>
      </trkpt>
      <trkpt lat="43.37586" lon="-1.36559">
        <ele>135</ele>
        <time>2026-07-12T18:46:55.000Z</time>
      </trkpt>
      <trkpt lat="43.37596" lon="-1.36578">
        <ele>137</ele>
        <time>2026-07-12T18:46:58.000Z</time>
      </trkpt>
      <trkpt lat="43.37608" lon="-1.36597">
        <ele>137</ele>
        <time>2026-07-12T18:47:02.000Z</time>
      </trkpt>
      <trkpt lat="43.37612" lon="-1.36603">
        <ele>137</ele>
        <time>2026-07-12T18:47:03.000Z</time>
      </trkpt>
      <trkpt lat="43.37618" lon="-1.36611">
        <ele>137</ele>
        <time>2026-07-12T18:47:04.000Z</time>
      </trkpt>
      <trkpt lat="43.3763" lon="-1.36626">
        <ele>137</ele>
        <time>2026-07-12T18:47:07.000Z</time>
      </trkpt>
      <trkpt lat="43.37636" lon="-1.36633">
        <ele>137</ele>
        <time>2026-07-12T18:47:08.000Z</time>
      </trkpt>
      <trkpt lat="43.37649" lon="-1.36646">
        <ele>138</ele>
        <time>2026-07-12T18:47:11.000Z</time>
      </trkpt>
      <trkpt lat="43.37658" lon="-1.3666">
        <ele>139</ele>
        <time>2026-07-12T18:47:14.000Z</time>
      </trkpt>
      <trkpt lat="43.37665" lon="-1.36673">
        <ele>140</ele>
        <time>2026-07-12T18:47:16.000Z</time>
      </trkpt>
      <trkpt lat="43.37672" lon="-1.36691">
        <ele>140</ele>
        <time>2026-07-12T18:47:18.000Z</time>
      </trkpt>
      <trkpt lat="43.37674" lon="-1.36703">
        <ele>140</ele>
        <time>2026-07-12T18:47:20.000Z</time>
      </trkpt>
      <trkpt lat="43.37675" lon="-1.36726">
        <ele>141</ele>
        <time>2026-07-12T18:47:23.000Z</time>
      </trkpt>
      <trkpt lat="43.37675" lon="-1.36763">
        <ele>141</ele>
        <time>2026-07-12T18:47:28.000Z</time>
      </trkpt>
      <trkpt lat="43.37676" lon="-1.36783">
        <ele>140</ele>
        <time>2026-07-12T18:47:30.000Z</time>
      </trkpt>
      <trkpt lat="43.37678" lon="-1.36799">
        <ele>139</ele>
        <time>2026-07-12T18:47:32.000Z</time>
      </trkpt>
      <trkpt lat="43.37682" lon="-1.36818">
        <ele>138</ele>
        <time>2026-07-12T18:47:35.000Z</time>
      </trkpt>
      <trkpt lat="43.3769" lon="-1.36851">
        <ele>135</ele>
        <time>2026-07-12T18:47:39.000Z</time>
      </trkpt>
      <trkpt lat="43.37704" lon="-1.369">
        <ele>132</ele>
        <time>2026-07-12T18:47:46.000Z</time>
      </trkpt>
      <trkpt lat="43.37725" lon="-1.36974">
        <ele>131</ele>
        <time>2026-07-12T18:47:57.000Z</time>
      </trkpt>
      <trkpt lat="43.37739" lon="-1.37027">
        <ele>130</ele>
        <time>2026-07-12T18:48:04.000Z</time>
      </trkpt>
      <trkpt lat="43.3775" lon="-1.37067">
        <ele>130</ele>
        <time>2026-07-12T18:48:09.000Z</time>
      </trkpt>
      <trkpt lat="43.3776" lon="-1.37095">
        <ele>128</ele>
        <time>2026-07-12T18:48:13.000Z</time>
      </trkpt>
      <trkpt lat="43.3777" lon="-1.3712">
        <ele>127</ele>
        <time>2026-07-12T18:48:17.000Z</time>
      </trkpt>
      <trkpt lat="43.37779" lon="-1.3714">
        <ele>126</ele>
        <time>2026-07-12T18:48:20.000Z</time>
      </trkpt>
      <trkpt lat="43.37793" lon="-1.37162">
        <ele>125</ele>
        <time>2026-07-12T18:48:24.000Z</time>
      </trkpt>
      <trkpt lat="43.37806" lon="-1.37178">
        <ele>123</ele>
        <time>2026-07-12T18:48:27.000Z</time>
      </trkpt>
      <trkpt lat="43.37833" lon="-1.37208">
        <ele>120</ele>
        <time>2026-07-12T18:48:33.000Z</time>
      </trkpt>
      <trkpt lat="43.3785" lon="-1.37228">
        <ele>119</ele>
        <time>2026-07-12T18:48:37.000Z</time>
      </trkpt>
      <trkpt lat="43.3785" lon="-1.37228">
        <ele>119</ele>
        <time>2026-07-12T18:48:37.000Z</time>
      </trkpt>
      <trkpt lat="43.37862" lon="-1.37242">
        <ele>118</ele>
        <time>2026-07-12T18:48:40.000Z</time>
      </trkpt>
      <trkpt lat="43.37874" lon="-1.37255">
        <ele>117</ele>
        <time>2026-07-12T18:48:43.000Z</time>
      </trkpt>
      <trkpt lat="43.37894" lon="-1.37278">
        <ele>115</ele>
        <time>2026-07-12T18:48:47.000Z</time>
      </trkpt>
      <trkpt lat="43.37917" lon="-1.37303">
        <ele>114</ele>
        <time>2026-07-12T18:48:53.000Z</time>
      </trkpt>
      <trkpt lat="43.37953" lon="-1.37343">
        <ele>113</ele>
        <time>2026-07-12T18:49:01.000Z</time>
      </trkpt>
      <trkpt lat="43.37984" lon="-1.37378">
        <ele>115</ele>
        <time>2026-07-12T18:49:08.000Z</time>
      </trkpt>
      <trkpt lat="43.37985" lon="-1.37379">
        <ele>115</ele>
        <time>2026-07-12T18:49:08.000Z</time>
      </trkpt>
      <trkpt lat="43.37998" lon="-1.37393">
        <ele>117</ele>
        <time>2026-07-12T18:49:11.000Z</time>
      </trkpt>
      <trkpt lat="43.38026" lon="-1.37422">
        <ele>119</ele>
        <time>2026-07-12T18:49:17.000Z</time>
      </trkpt>
      <trkpt lat="43.38071" lon="-1.37473">
        <ele>124</ele>
        <time>2026-07-12T18:49:28.000Z</time>
      </trkpt>
      <trkpt lat="43.38088" lon="-1.37492">
        <ele>126</ele>
        <time>2026-07-12T18:49:32.000Z</time>
      </trkpt>
      <trkpt lat="43.3814" lon="-1.37554">
        <ele>124</ele>
        <time>2026-07-12T18:49:44.000Z</time>
      </trkpt>
      <trkpt lat="43.38176" lon="-1.37599">
        <ele>121</ele>
        <time>2026-07-12T18:49:52.000Z</time>
      </trkpt>
      <trkpt lat="43.3823" lon="-1.37673">
        <ele>119</ele>
        <time>2026-07-12T18:50:06.000Z</time>
      </trkpt>
      <trkpt lat="43.38245" lon="-1.37693">
        <ele>119</ele>
        <time>2026-07-12T18:50:10.000Z</time>
      </trkpt>
      <trkpt lat="43.3826" lon="-1.37714">
        <ele>118</ele>
        <time>2026-07-12T18:50:14.000Z</time>
      </trkpt>
      <trkpt lat="43.38277" lon="-1.3774">
        <ele>117</ele>
        <time>2026-07-12T18:50:18.000Z</time>
      </trkpt>
      <trkpt lat="43.38294" lon="-1.37765">
        <ele>117</ele>
        <time>2026-07-12T18:50:22.000Z</time>
      </trkpt>
      <trkpt lat="43.383" lon="-1.37775">
        <ele>117</ele>
        <time>2026-07-12T18:50:24.000Z</time>
      </trkpt>
      <trkpt lat="43.3832" lon="-1.37808">
        <ele>118</ele>
        <time>2026-07-12T18:50:30.000Z</time>
      </trkpt>
      <trkpt lat="43.38326" lon="-1.37818">
        <ele>118</ele>
        <time>2026-07-12T18:50:31.000Z</time>
      </trkpt>
      <trkpt lat="43.3834" lon="-1.37844">
        <ele>118</ele>
        <time>2026-07-12T18:50:36.000Z</time>
      </trkpt>
      <trkpt lat="43.3835" lon="-1.37861">
        <ele>116</ele>
        <time>2026-07-12T18:50:38.000Z</time>
      </trkpt>
      <trkpt lat="43.38384" lon="-1.37925">
        <ele>116</ele>
        <time>2026-07-12T18:50:49.000Z</time>
      </trkpt>
      <trkpt lat="43.384" lon="-1.37951">
        <ele>116</ele>
        <time>2026-07-12T18:50:53.000Z</time>
      </trkpt>
      <trkpt lat="43.38419" lon="-1.37985">
        <ele>118</ele>
        <time>2026-07-12T18:50:59.000Z</time>
      </trkpt>
      <trkpt lat="43.38448" lon="-1.38031">
        <ele>118</ele>
        <time>2026-07-12T18:51:06.000Z</time>
      </trkpt>
      <trkpt lat="43.38453" lon="-1.38038">
        <ele>119</ele>
        <time>2026-07-12T18:51:08.000Z</time>
      </trkpt>
      <trkpt lat="43.38471" lon="-1.38067">
        <ele>119</ele>
        <time>2026-07-12T18:51:13.000Z</time>
      </trkpt>
      <trkpt lat="43.38474" lon="-1.38071">
        <ele>119</ele>
        <time>2026-07-12T18:51:13.000Z</time>
      </trkpt>
      <trkpt lat="43.38483" lon="-1.38082">
        <ele>120</ele>
        <time>2026-07-12T18:51:16.000Z</time>
      </trkpt>
      <trkpt lat="43.38496" lon="-1.38097">
        <ele>119</ele>
        <time>2026-07-12T18:51:19.000Z</time>
      </trkpt>
      <trkpt lat="43.38514" lon="-1.38112">
        <ele>117</ele>
        <time>2026-07-12T18:51:22.000Z</time>
      </trkpt>
      <trkpt lat="43.38534" lon="-1.38125">
        <ele>116</ele>
        <time>2026-07-12T18:51:26.000Z</time>
      </trkpt>
      <trkpt lat="43.38536" lon="-1.38126">
        <ele>116</ele>
        <time>2026-07-12T18:51:27.000Z</time>
      </trkpt>
      <trkpt lat="43.3856" lon="-1.38138">
        <ele>115</ele>
        <time>2026-07-12T18:51:31.000Z</time>
      </trkpt>
      <trkpt lat="43.38592" lon="-1.38158">
        <ele>114</ele>
        <time>2026-07-12T18:51:37.000Z</time>
      </trkpt>
      <trkpt lat="43.38618" lon="-1.38177">
        <ele>114</ele>
        <time>2026-07-12T18:51:43.000Z</time>
      </trkpt>
      <trkpt lat="43.38633" lon="-1.38192">
        <ele>115</ele>
        <time>2026-07-12T18:51:46.000Z</time>
      </trkpt>
      <trkpt lat="43.38643" lon="-1.38205">
        <ele>117</ele>
        <time>2026-07-12T18:51:48.000Z</time>
      </trkpt>
      <trkpt lat="43.38651" lon="-1.38219">
        <ele>118</ele>
        <time>2026-07-12T18:51:51.000Z</time>
      </trkpt>
      <trkpt lat="43.38658" lon="-1.38238">
        <ele>119</ele>
        <time>2026-07-12T18:51:53.000Z</time>
      </trkpt>
      <trkpt lat="43.38665" lon="-1.38262">
        <ele>121</ele>
        <time>2026-07-12T18:51:57.000Z</time>
      </trkpt>
      <trkpt lat="43.38672" lon="-1.38299">
        <ele>122</ele>
        <time>2026-07-12T18:52:02.000Z</time>
      </trkpt>
      <trkpt lat="43.38676" lon="-1.38332">
        <ele>123</ele>
        <time>2026-07-12T18:52:06.000Z</time>
      </trkpt>
      <trkpt lat="43.38676" lon="-1.38341">
        <ele>123</ele>
        <time>2026-07-12T18:52:07.000Z</time>
      </trkpt>
      <trkpt lat="43.38677" lon="-1.38371">
        <ele>123</ele>
        <time>2026-07-12T18:52:11.000Z</time>
      </trkpt>
      <trkpt lat="43.38678" lon="-1.38374">
        <ele>123</ele>
        <time>2026-07-12T18:52:12.000Z</time>
      </trkpt>
      <trkpt lat="43.38679" lon="-1.3842">
        <ele>123</ele>
        <time>2026-07-12T18:52:18.000Z</time>
      </trkpt>
      <trkpt lat="43.3868" lon="-1.3843">
        <ele>123</ele>
        <time>2026-07-12T18:52:19.000Z</time>
      </trkpt>
      <trkpt lat="43.3868" lon="-1.3846">
        <ele>125</ele>
        <time>2026-07-12T18:52:23.000Z</time>
      </trkpt>
      <trkpt lat="43.38681" lon="-1.38483">
        <ele>127</ele>
        <time>2026-07-12T18:52:26.000Z</time>
      </trkpt>
      <trkpt lat="43.38683" lon="-1.38517">
        <ele>128</ele>
        <time>2026-07-12T18:52:30.000Z</time>
      </trkpt>
      <trkpt lat="43.38687" lon="-1.38554">
        <ele>127</ele>
        <time>2026-07-12T18:52:35.000Z</time>
      </trkpt>
      <trkpt lat="43.38688" lon="-1.38569">
        <ele>127</ele>
        <time>2026-07-12T18:52:37.000Z</time>
      </trkpt>
      <trkpt lat="43.38694" lon="-1.38612">
        <ele>127</ele>
        <time>2026-07-12T18:52:43.000Z</time>
      </trkpt>
      <trkpt lat="43.38703" lon="-1.38682">
        <ele>128</ele>
        <time>2026-07-12T18:52:52.000Z</time>
      </trkpt>
      <trkpt lat="43.38706" lon="-1.38712">
        <ele>127</ele>
        <time>2026-07-12T18:52:56.000Z</time>
      </trkpt>
      <trkpt lat="43.38708" lon="-1.3873">
        <ele>127</ele>
        <time>2026-07-12T18:52:58.000Z</time>
      </trkpt>
      <trkpt lat="43.38711" lon="-1.38783">
        <ele>125</ele>
        <time>2026-07-12T18:53:05.000Z</time>
      </trkpt>
      <trkpt lat="43.38716" lon="-1.38862">
        <ele>122</ele>
        <time>2026-07-12T18:53:15.000Z</time>
      </trkpt>
      <trkpt lat="43.3872" lon="-1.3893">
        <ele>122</ele>
        <time>2026-07-12T18:53:24.000Z</time>
      </trkpt>
      <trkpt lat="43.38722" lon="-1.38973">
        <ele>121</ele>
        <time>2026-07-12T18:53:30.000Z</time>
      </trkpt>
      <trkpt lat="43.38722" lon="-1.3898">
        <ele>121</ele>
        <time>2026-07-12T18:53:30.000Z</time>
      </trkpt>
      <trkpt lat="43.38725" lon="-1.39015">
        <ele>120</ele>
        <time>2026-07-12T18:53:35.000Z</time>
      </trkpt>
      <trkpt lat="43.38729" lon="-1.39044">
        <ele>120</ele>
        <time>2026-07-12T18:53:39.000Z</time>
      </trkpt>
      <trkpt lat="43.38737" lon="-1.39092">
        <ele>120</ele>
        <time>2026-07-12T18:53:45.000Z</time>
      </trkpt>
      <trkpt lat="43.3874" lon="-1.39108">
        <ele>120</ele>
        <time>2026-07-12T18:53:47.000Z</time>
      </trkpt>
      <trkpt lat="43.38748" lon="-1.39146">
        <ele>121</ele>
        <time>2026-07-12T18:53:52.000Z</time>
      </trkpt>
      <trkpt lat="43.38751" lon="-1.39162">
        <ele>121</ele>
        <time>2026-07-12T18:53:55.000Z</time>
      </trkpt>
      <trkpt lat="43.38757" lon="-1.39196">
        <ele>121</ele>
        <time>2026-07-12T18:53:59.000Z</time>
      </trkpt>
      <trkpt lat="43.38766" lon="-1.39231">
        <ele>122</ele>
        <time>2026-07-12T18:54:04.000Z</time>
      </trkpt>
      <trkpt lat="43.38772" lon="-1.39254">
        <ele>123</ele>
        <time>2026-07-12T18:54:07.000Z</time>
      </trkpt>
      <trkpt lat="43.3878" lon="-1.39273">
        <ele>124</ele>
        <time>2026-07-12T18:54:10.000Z</time>
      </trkpt>
      <trkpt lat="43.38787" lon="-1.39287">
        <ele>124</ele>
        <time>2026-07-12T18:54:12.000Z</time>
      </trkpt>
      <trkpt lat="43.38799" lon="-1.39307">
        <ele>126</ele>
        <time>2026-07-12T18:54:15.000Z</time>
      </trkpt>
      <trkpt lat="43.3881" lon="-1.39323">
        <ele>128</ele>
        <time>2026-07-12T18:54:18.000Z</time>
      </trkpt>
      <trkpt lat="43.3882" lon="-1.39334">
        <ele>129</ele>
        <time>2026-07-12T18:54:21.000Z</time>
      </trkpt>
      <trkpt lat="43.3882" lon="-1.39334">
        <ele>129</ele>
        <time>2026-07-12T18:54:21.000Z</time>
      </trkpt>
      <trkpt lat="43.38811" lon="-1.3935">
        <ele>128</ele>
        <time>2026-07-12T18:54:23.000Z</time>
      </trkpt>
      <trkpt lat="43.38802" lon="-1.39371">
        <ele>127</ele>
        <time>2026-07-12T18:54:26.000Z</time>
      </trkpt>
      <trkpt lat="43.38782" lon="-1.39428">
        <ele>124</ele>
        <time>2026-07-12T18:54:35.000Z</time>
      </trkpt>
      <trkpt lat="43.38779" lon="-1.39444">
        <ele>124</ele>
        <time>2026-07-12T18:54:37.000Z</time>
      </trkpt>
      <trkpt lat="43.38776" lon="-1.39457">
        <ele>123</ele>
        <time>2026-07-12T18:54:38.000Z</time>
      </trkpt>
      <trkpt lat="43.38773" lon="-1.39469">
        <ele>122</ele>
        <time>2026-07-12T18:54:40.000Z</time>
      </trkpt>
      <trkpt lat="43.3873" lon="-1.39596">
        <ele>118</ele>
        <time>2026-07-12T18:54:58.000Z</time>
      </trkpt>
      <trkpt lat="43.38727" lon="-1.39606">
        <ele>118</ele>
        <time>2026-07-12T18:55:00.000Z</time>
      </trkpt>
      <trkpt lat="43.38723" lon="-1.39618">
        <ele>117</ele>
        <time>2026-07-12T18:55:01.000Z</time>
      </trkpt>
      <trkpt lat="43.38722" lon="-1.39623">
        <ele>117</ele>
        <time>2026-07-12T18:55:02.000Z</time>
      </trkpt>
      <trkpt lat="43.38719" lon="-1.39631">
        <ele>117</ele>
        <time>2026-07-12T18:55:03.000Z</time>
      </trkpt>
      <trkpt lat="43.38716" lon="-1.39637">
        <ele>117</ele>
        <time>2026-07-12T18:55:04.000Z</time>
      </trkpt>
      <trkpt lat="43.38714" lon="-1.39641">
        <ele>117</ele>
        <time>2026-07-12T18:55:05.000Z</time>
      </trkpt>
      <trkpt lat="43.38711" lon="-1.39646">
        <ele>117</ele>
        <time>2026-07-12T18:55:06.000Z</time>
      </trkpt>
      <trkpt lat="43.38705" lon="-1.39652">
        <ele>117</ele>
        <time>2026-07-12T18:55:07.000Z</time>
      </trkpt>
      <trkpt lat="43.38698" lon="-1.39658">
        <ele>117</ele>
        <time>2026-07-12T18:55:08.000Z</time>
      </trkpt>
      <trkpt lat="43.38687" lon="-1.39666">
        <ele>117</ele>
        <time>2026-07-12T18:55:11.000Z</time>
      </trkpt>
      <trkpt lat="43.38673" lon="-1.39675">
        <ele>117</ele>
        <time>2026-07-12T18:55:13.000Z</time>
      </trkpt>
      <trkpt lat="43.38655" lon="-1.39687">
        <ele>116</ele>
        <time>2026-07-12T18:55:17.000Z</time>
      </trkpt>
      <trkpt lat="43.38643" lon="-1.39695">
        <ele>115</ele>
        <time>2026-07-12T18:55:19.000Z</time>
      </trkpt>
      <trkpt lat="43.38635" lon="-1.39701">
        <ele>114</ele>
        <time>2026-07-12T18:55:21.000Z</time>
      </trkpt>
      <trkpt lat="43.3863" lon="-1.39705">
        <ele>114</ele>
        <time>2026-07-12T18:55:22.000Z</time>
      </trkpt>
      <trkpt lat="43.38627" lon="-1.39709">
        <ele>114</ele>
        <time>2026-07-12T18:55:23.000Z</time>
      </trkpt>
      <trkpt lat="43.38624" lon="-1.39712">
        <ele>113</ele>
        <time>2026-07-12T18:55:23.000Z</time>
      </trkpt>
      <trkpt lat="43.38622" lon="-1.39716">
        <ele>113</ele>
        <time>2026-07-12T18:55:24.000Z</time>
      </trkpt>
      <trkpt lat="43.38616" lon="-1.39727">
        <ele>112</ele>
        <time>2026-07-12T18:55:26.000Z</time>
      </trkpt>
      <trkpt lat="43.38608" lon="-1.39742">
        <ele>112</ele>
        <time>2026-07-12T18:55:28.000Z</time>
      </trkpt>
      <trkpt lat="43.38569" lon="-1.39835">
        <ele>109</ele>
        <time>2026-07-12T18:55:42.000Z</time>
      </trkpt>
      <trkpt lat="43.38516" lon="-1.39957">
        <ele>106</ele>
        <time>2026-07-12T18:56:00.000Z</time>
      </trkpt>
      <trkpt lat="43.38512" lon="-1.39967">
        <ele>107</ele>
        <time>2026-07-12T18:56:02.000Z</time>
      </trkpt>
      <trkpt lat="43.38503" lon="-1.39988">
        <ele>108</ele>
        <time>2026-07-12T18:56:05.000Z</time>
      </trkpt>
      <trkpt lat="43.38495" lon="-1.40006">
        <ele>109</ele>
        <time>2026-07-12T18:56:08.000Z</time>
      </trkpt>
      <trkpt lat="43.38482" lon="-1.40035">
        <ele>108</ele>
        <time>2026-07-12T18:56:12.000Z</time>
      </trkpt>
      <trkpt lat="43.38461" lon="-1.40084">
        <ele>108</ele>
        <time>2026-07-12T18:56:19.000Z</time>
      </trkpt>
      <trkpt lat="43.38433" lon="-1.40154">
        <ele>107</ele>
        <time>2026-07-12T18:56:30.000Z</time>
      </trkpt>
      <trkpt lat="43.38432" lon="-1.40155">
        <ele>107</ele>
        <time>2026-07-12T18:56:30.000Z</time>
      </trkpt>
      <trkpt lat="43.38407" lon="-1.40211">
        <ele>108</ele>
        <time>2026-07-12T18:56:39.000Z</time>
      </trkpt>
      <trkpt lat="43.38393" lon="-1.40242">
        <ele>109</ele>
        <time>2026-07-12T18:56:43.000Z</time>
      </trkpt>
      <trkpt lat="43.38386" lon="-1.40255">
        <ele>109</ele>
        <time>2026-07-12T18:56:45.000Z</time>
      </trkpt>
      <trkpt lat="43.3838" lon="-1.40265">
        <ele>109</ele>
        <time>2026-07-12T18:56:47.000Z</time>
      </trkpt>
      <trkpt lat="43.38374" lon="-1.40273">
        <ele>109</ele>
        <time>2026-07-12T18:56:48.000Z</time>
      </trkpt>
      <trkpt lat="43.38373" lon="-1.40274">
        <ele>109</ele>
        <time>2026-07-12T18:56:49.000Z</time>
      </trkpt>
      <trkpt lat="43.38367" lon="-1.4028">
        <ele>109</ele>
        <time>2026-07-12T18:56:50.000Z</time>
      </trkpt>
      <trkpt lat="43.38359" lon="-1.40287">
        <ele>109</ele>
        <time>2026-07-12T18:56:52.000Z</time>
      </trkpt>
      <trkpt lat="43.38355" lon="-1.4029">
        <ele>109</ele>
        <time>2026-07-12T18:56:53.000Z</time>
      </trkpt>
      <trkpt lat="43.38335" lon="-1.40307">
        <ele>109</ele>
        <time>2026-07-12T18:56:57.000Z</time>
      </trkpt>
      <trkpt lat="43.38305" lon="-1.40333">
        <ele>110</ele>
        <time>2026-07-12T18:57:03.000Z</time>
      </trkpt>
      <trkpt lat="43.38286" lon="-1.40347">
        <ele>109</ele>
        <time>2026-07-12T18:57:07.000Z</time>
      </trkpt>
      <trkpt lat="43.38269" lon="-1.40362">
        <ele>109</ele>
        <time>2026-07-12T18:57:10.000Z</time>
      </trkpt>
      <trkpt lat="43.38258" lon="-1.40374">
        <ele>109</ele>
        <time>2026-07-12T18:57:13.000Z</time>
      </trkpt>
      <trkpt lat="43.38252" lon="-1.40383">
        <ele>108</ele>
        <time>2026-07-12T18:57:15.000Z</time>
      </trkpt>
      <trkpt lat="43.38249" lon="-1.40386">
        <ele>108</ele>
        <time>2026-07-12T18:57:15.000Z</time>
      </trkpt>
      <trkpt lat="43.38238" lon="-1.40404">
        <ele>108</ele>
        <time>2026-07-12T18:57:18.000Z</time>
      </trkpt>
      <trkpt lat="43.38236" lon="-1.40406">
        <ele>108</ele>
        <time>2026-07-12T18:57:19.000Z</time>
      </trkpt>
      <trkpt lat="43.38218" lon="-1.40436">
        <ele>107</ele>
        <time>2026-07-12T18:57:24.000Z</time>
      </trkpt>
      <trkpt lat="43.38206" lon="-1.40457">
        <ele>107</ele>
        <time>2026-07-12T18:57:27.000Z</time>
      </trkpt>
      <trkpt lat="43.38197" lon="-1.40476">
        <ele>107</ele>
        <time>2026-07-12T18:57:30.000Z</time>
      </trkpt>
      <trkpt lat="43.38192" lon="-1.40487">
        <ele>108</ele>
        <time>2026-07-12T18:57:32.000Z</time>
      </trkpt>
      <trkpt lat="43.38186" lon="-1.40507">
        <ele>108</ele>
        <time>2026-07-12T18:57:35.000Z</time>
      </trkpt>
      <trkpt lat="43.38182" lon="-1.40524">
        <ele>108</ele>
        <time>2026-07-12T18:57:37.000Z</time>
      </trkpt>
      <trkpt lat="43.38181" lon="-1.4054">
        <ele>108</ele>
        <time>2026-07-12T18:57:39.000Z</time>
      </trkpt>
      <trkpt lat="43.38181" lon="-1.40558">
        <ele>108</ele>
        <time>2026-07-12T18:57:41.000Z</time>
      </trkpt>
      <trkpt lat="43.38183" lon="-1.40575">
        <ele>108</ele>
        <time>2026-07-12T18:57:44.000Z</time>
      </trkpt>
      <trkpt lat="43.38186" lon="-1.40589">
        <ele>108</ele>
        <time>2026-07-12T18:57:45.000Z</time>
      </trkpt>
      <trkpt lat="43.3819" lon="-1.406">
        <ele>108</ele>
        <time>2026-07-12T18:57:47.000Z</time>
      </trkpt>
      <trkpt lat="43.38194" lon="-1.40608">
        <ele>108</ele>
        <time>2026-07-12T18:57:48.000Z</time>
      </trkpt>
      <trkpt lat="43.38198" lon="-1.40613">
        <ele>108</ele>
        <time>2026-07-12T18:57:49.000Z</time>
      </trkpt>
      <trkpt lat="43.38203" lon="-1.40619">
        <ele>108</ele>
        <time>2026-07-12T18:57:50.000Z</time>
      </trkpt>
      <trkpt lat="43.38214" lon="-1.40625">
        <ele>108</ele>
        <time>2026-07-12T18:57:52.000Z</time>
      </trkpt>
      <trkpt lat="43.38228" lon="-1.40629">
        <ele>108</ele>
        <time>2026-07-12T18:57:55.000Z</time>
      </trkpt>
      <trkpt lat="43.38242" lon="-1.40636">
        <ele>108</ele>
        <time>2026-07-12T18:57:58.000Z</time>
      </trkpt>
      <trkpt lat="43.38251" lon="-1.40643">
        <ele>109</ele>
        <time>2026-07-12T18:58:00.000Z</time>
      </trkpt>
      <trkpt lat="43.38258" lon="-1.40653">
        <ele>108</ele>
        <time>2026-07-12T18:58:01.000Z</time>
      </trkpt>
      <trkpt lat="43.38263" lon="-1.40666">
        <ele>109</ele>
        <time>2026-07-12T18:58:03.000Z</time>
      </trkpt>
      <trkpt lat="43.38266" lon="-1.4068">
        <ele>108</ele>
        <time>2026-07-12T18:58:05.000Z</time>
      </trkpt>
      <trkpt lat="43.38267" lon="-1.40685">
        <ele>108</ele>
        <time>2026-07-12T18:58:06.000Z</time>
      </trkpt>
      <trkpt lat="43.38271" lon="-1.4071">
        <ele>107</ele>
        <time>2026-07-12T18:58:09.000Z</time>
      </trkpt>
      <trkpt lat="43.38272" lon="-1.40719">
        <ele>107</ele>
        <time>2026-07-12T18:58:10.000Z</time>
      </trkpt>
      <trkpt lat="43.38274" lon="-1.40727">
        <ele>107</ele>
        <time>2026-07-12T18:58:11.000Z</time>
      </trkpt>
      <trkpt lat="43.38279" lon="-1.40747">
        <ele>106</ele>
        <time>2026-07-12T18:58:14.000Z</time>
      </trkpt>
      <trkpt lat="43.38287" lon="-1.40774">
        <ele>105</ele>
        <time>2026-07-12T18:58:18.000Z</time>
      </trkpt>
      <trkpt lat="43.38297" lon="-1.40801">
        <ele>104</ele>
        <time>2026-07-12T18:58:22.000Z</time>
      </trkpt>
      <trkpt lat="43.38307" lon="-1.40829">
        <ele>103</ele>
        <time>2026-07-12T18:58:26.000Z</time>
      </trkpt>
      <trkpt lat="43.3832" lon="-1.40858">
        <ele>102</ele>
        <time>2026-07-12T18:58:30.000Z</time>
      </trkpt>
      <trkpt lat="43.38364" lon="-1.40963">
        <ele>101</ele>
        <time>2026-07-12T18:58:46.000Z</time>
      </trkpt>
      <trkpt lat="43.38372" lon="-1.40982">
        <ele>101</ele>
        <time>2026-07-12T18:58:49.000Z</time>
      </trkpt>
      <trkpt lat="43.38376" lon="-1.40997">
        <ele>101</ele>
        <time>2026-07-12T18:58:51.000Z</time>
      </trkpt>
      <trkpt lat="43.3838" lon="-1.41018">
        <ele>102</ele>
        <time>2026-07-12T18:58:54.000Z</time>
      </trkpt>
      <trkpt lat="43.38381" lon="-1.41038">
        <ele>101</ele>
        <time>2026-07-12T18:58:56.000Z</time>
      </trkpt>
      <trkpt lat="43.38383" lon="-1.41082">
        <ele>101</ele>
        <time>2026-07-12T18:59:02.000Z</time>
      </trkpt>
      <trkpt lat="43.38384" lon="-1.4109">
        <ele>101</ele>
        <time>2026-07-12T18:59:03.000Z</time>
      </trkpt>
      <trkpt lat="43.38385" lon="-1.41101">
        <ele>101</ele>
        <time>2026-07-12T18:59:04.000Z</time>
      </trkpt>
      <trkpt lat="43.38389" lon="-1.41123">
        <ele>101</ele>
        <time>2026-07-12T18:59:07.000Z</time>
      </trkpt>
      <trkpt lat="43.38394" lon="-1.41143">
        <ele>101</ele>
        <time>2026-07-12T18:59:10.000Z</time>
      </trkpt>
      <trkpt lat="43.38399" lon="-1.41159">
        <ele>101</ele>
        <time>2026-07-12T18:59:12.000Z</time>
      </trkpt>
      <trkpt lat="43.38404" lon="-1.41173">
        <ele>102</ele>
        <time>2026-07-12T18:59:14.000Z</time>
      </trkpt>
      <trkpt lat="43.38409" lon="-1.41185">
        <ele>102</ele>
        <time>2026-07-12T18:59:16.000Z</time>
      </trkpt>
      <trkpt lat="43.38416" lon="-1.41198">
        <ele>103</ele>
        <time>2026-07-12T18:59:18.000Z</time>
      </trkpt>
      <trkpt lat="43.38423" lon="-1.41213">
        <ele>102</ele>
        <time>2026-07-12T18:59:21.000Z</time>
      </trkpt>
      <trkpt lat="43.38436" lon="-1.41237">
        <ele>102</ele>
        <time>2026-07-12T18:59:24.000Z</time>
      </trkpt>
      <trkpt lat="43.38447" lon="-1.41255">
        <ele>101</ele>
        <time>2026-07-12T18:59:27.000Z</time>
      </trkpt>
      <trkpt lat="43.38459" lon="-1.41269">
        <ele>100</ele>
        <time>2026-07-12T18:59:30.000Z</time>
      </trkpt>
      <trkpt lat="43.38466" lon="-1.41277">
        <ele>100</ele>
        <time>2026-07-12T18:59:32.000Z</time>
      </trkpt>
      <trkpt lat="43.38481" lon="-1.41296">
        <ele>99</ele>
        <time>2026-07-12T18:59:35.000Z</time>
      </trkpt>
      <trkpt lat="43.38488" lon="-1.41304">
        <ele>98</ele>
        <time>2026-07-12T18:59:37.000Z</time>
      </trkpt>
      <trkpt lat="43.38503" lon="-1.41322">
        <ele>98</ele>
        <time>2026-07-12T18:59:41.000Z</time>
      </trkpt>
      <trkpt lat="43.38512" lon="-1.41334">
        <ele>98</ele>
        <time>2026-07-12T18:59:43.000Z</time>
      </trkpt>
      <trkpt lat="43.38518" lon="-1.41344">
        <ele>97</ele>
        <time>2026-07-12T18:59:45.000Z</time>
      </trkpt>
      <trkpt lat="43.38525" lon="-1.41354">
        <ele>97</ele>
        <time>2026-07-12T18:59:46.000Z</time>
      </trkpt>
      <trkpt lat="43.38553" lon="-1.41409">
        <ele>96</ele>
        <time>2026-07-12T18:59:55.000Z</time>
      </trkpt>
      <trkpt lat="43.38571" lon="-1.41442">
        <ele>95</ele>
        <time>2026-07-12T19:00:00.000Z</time>
      </trkpt>
      <trkpt lat="43.38593" lon="-1.4148">
        <ele>94</ele>
        <time>2026-07-12T19:00:07.000Z</time>
      </trkpt>
      <trkpt lat="43.3865" lon="-1.41589">
        <ele>88</ele>
        <time>2026-07-12T19:00:24.000Z</time>
      </trkpt>
      <trkpt lat="43.38664" lon="-1.41616">
        <ele>87</ele>
        <time>2026-07-12T19:00:28.000Z</time>
      </trkpt>
      <trkpt lat="43.38669" lon="-1.41625">
        <ele>87</ele>
        <time>2026-07-12T19:00:30.000Z</time>
      </trkpt>
      <trkpt lat="43.38679" lon="-1.41645">
        <ele>87</ele>
        <time>2026-07-12T19:00:33.000Z</time>
      </trkpt>
      <trkpt lat="43.38686" lon="-1.41662">
        <ele>87</ele>
        <time>2026-07-12T19:00:35.000Z</time>
      </trkpt>
      <trkpt lat="43.38694" lon="-1.41683">
        <ele>87</ele>
        <time>2026-07-12T19:00:38.000Z</time>
      </trkpt>
      <trkpt lat="43.38739" lon="-1.41827">
        <ele>91</ele>
        <time>2026-07-12T19:00:59.000Z</time>
      </trkpt>
      <trkpt lat="43.38748" lon="-1.41857">
        <ele>91</ele>
        <time>2026-07-12T19:01:03.000Z</time>
      </trkpt>
      <trkpt lat="43.38751" lon="-1.41872">
        <ele>91</ele>
        <time>2026-07-12T19:01:05.000Z</time>
      </trkpt>
      <trkpt lat="43.38752" lon="-1.41886">
        <ele>91</ele>
        <time>2026-07-12T19:01:07.000Z</time>
      </trkpt>
      <trkpt lat="43.38752" lon="-1.41899">
        <ele>90</ele>
        <time>2026-07-12T19:01:08.000Z</time>
      </trkpt>
      <trkpt lat="43.38751" lon="-1.41909">
        <ele>90</ele>
        <time>2026-07-12T19:01:10.000Z</time>
      </trkpt>
      <trkpt lat="43.38747" lon="-1.41935">
        <ele>90</ele>
        <time>2026-07-12T19:01:13.000Z</time>
      </trkpt>
      <trkpt lat="43.38743" lon="-1.41953">
        <ele>89</ele>
        <time>2026-07-12T19:01:16.000Z</time>
      </trkpt>
      <trkpt lat="43.38739" lon="-1.41979">
        <ele>89</ele>
        <time>2026-07-12T19:01:19.000Z</time>
      </trkpt>
      <trkpt lat="43.38737" lon="-1.42">
        <ele>89</ele>
        <time>2026-07-12T19:01:22.000Z</time>
      </trkpt>
      <trkpt lat="43.38738" lon="-1.42015">
        <ele>90</ele>
        <time>2026-07-12T19:01:24.000Z</time>
      </trkpt>
      <trkpt lat="43.38742" lon="-1.42034">
        <ele>91</ele>
        <time>2026-07-12T19:01:26.000Z</time>
      </trkpt>
      <trkpt lat="43.38748" lon="-1.42052">
        <ele>92</ele>
        <time>2026-07-12T19:01:29.000Z</time>
      </trkpt>
      <trkpt lat="43.38755" lon="-1.42068">
        <ele>93</ele>
        <time>2026-07-12T19:01:31.000Z</time>
      </trkpt>
      <trkpt lat="43.38764" lon="-1.42085">
        <ele>93</ele>
        <time>2026-07-12T19:01:34.000Z</time>
      </trkpt>
      <trkpt lat="43.38773" lon="-1.421">
        <ele>93</ele>
        <time>2026-07-12T19:01:37.000Z</time>
      </trkpt>
      <trkpt lat="43.38774" lon="-1.42103">
        <ele>93</ele>
        <time>2026-07-12T19:01:37.000Z</time>
      </trkpt>
      <trkpt lat="43.38778" lon="-1.42109">
        <ele>93</ele>
        <time>2026-07-12T19:01:38.000Z</time>
      </trkpt>
      <trkpt lat="43.38788" lon="-1.42124">
        <ele>93</ele>
        <time>2026-07-12T19:01:41.000Z</time>
      </trkpt>
      <trkpt lat="43.38796" lon="-1.42138">
        <ele>93</ele>
        <time>2026-07-12T19:01:43.000Z</time>
      </trkpt>
      <trkpt lat="43.38805" lon="-1.42156">
        <ele>94</ele>
        <time>2026-07-12T19:01:46.000Z</time>
      </trkpt>
      <trkpt lat="43.3881" lon="-1.42166">
        <ele>94</ele>
        <time>2026-07-12T19:01:47.000Z</time>
      </trkpt>
      <trkpt lat="43.38813" lon="-1.42176">
        <ele>94</ele>
        <time>2026-07-12T19:01:49.000Z</time>
      </trkpt>
      <trkpt lat="43.38816" lon="-1.42188">
        <ele>94</ele>
        <time>2026-07-12T19:01:50.000Z</time>
      </trkpt>
      <trkpt lat="43.38818" lon="-1.42201">
        <ele>95</ele>
        <time>2026-07-12T19:01:52.000Z</time>
      </trkpt>
      <trkpt lat="43.38819" lon="-1.42217">
        <ele>95</ele>
        <time>2026-07-12T19:01:54.000Z</time>
      </trkpt>
      <trkpt lat="43.3882" lon="-1.42241">
        <ele>96</ele>
        <time>2026-07-12T19:01:57.000Z</time>
      </trkpt>
      <trkpt lat="43.3882" lon="-1.42334">
        <ele>93</ele>
        <time>2026-07-12T19:02:09.000Z</time>
      </trkpt>
      <trkpt lat="43.3882" lon="-1.42366">
        <ele>91</ele>
        <time>2026-07-12T19:02:13.000Z</time>
      </trkpt>
      <trkpt lat="43.38821" lon="-1.42383">
        <ele>90</ele>
        <time>2026-07-12T19:02:16.000Z</time>
      </trkpt>
      <trkpt lat="43.38821" lon="-1.42399">
        <ele>89</ele>
        <time>2026-07-12T19:02:18.000Z</time>
      </trkpt>
      <trkpt lat="43.38823" lon="-1.42419">
        <ele>88</ele>
        <time>2026-07-12T19:02:20.000Z</time>
      </trkpt>
      <trkpt lat="43.38825" lon="-1.42434">
        <ele>87</ele>
        <time>2026-07-12T19:02:22.000Z</time>
      </trkpt>
      <trkpt lat="43.38831" lon="-1.42467">
        <ele>85</ele>
        <time>2026-07-12T19:02:27.000Z</time>
      </trkpt>
      <trkpt lat="43.38834" lon="-1.42486">
        <ele>85</ele>
        <time>2026-07-12T19:02:29.000Z</time>
      </trkpt>
      <trkpt lat="43.38836" lon="-1.42505">
        <ele>84</ele>
        <time>2026-07-12T19:02:32.000Z</time>
      </trkpt>
      <trkpt lat="43.38837" lon="-1.42521">
        <ele>83</ele>
        <time>2026-07-12T19:02:34.000Z</time>
      </trkpt>
      <trkpt lat="43.38837" lon="-1.42544">
        <ele>82</ele>
        <time>2026-07-12T19:02:37.000Z</time>
      </trkpt>
      <trkpt lat="43.38833" lon="-1.42643">
        <ele>75</ele>
        <time>2026-07-12T19:02:50.000Z</time>
      </trkpt>
      <trkpt lat="43.3882" lon="-1.42754">
        <ele>66</ele>
        <time>2026-07-12T19:03:04.000Z</time>
      </trkpt>
      <trkpt lat="43.38818" lon="-1.42774">
        <ele>66</ele>
        <time>2026-07-12T19:03:07.000Z</time>
      </trkpt>
      <trkpt lat="43.38816" lon="-1.42796">
        <ele>66</ele>
        <time>2026-07-12T19:03:10.000Z</time>
      </trkpt>
      <trkpt lat="43.38815" lon="-1.4282">
        <ele>66</ele>
        <time>2026-07-12T19:03:13.000Z</time>
      </trkpt>
      <trkpt lat="43.38816" lon="-1.42837">
        <ele>66</ele>
        <time>2026-07-12T19:03:15.000Z</time>
      </trkpt>
      <trkpt lat="43.38818" lon="-1.42857">
        <ele>65</ele>
        <time>2026-07-12T19:03:17.000Z</time>
      </trkpt>
      <trkpt lat="43.38821" lon="-1.42877">
        <ele>65</ele>
        <time>2026-07-12T19:03:20.000Z</time>
      </trkpt>
      <trkpt lat="43.38823" lon="-1.42876">
        <ele>65</ele>
        <time>2026-07-12T19:03:21.000Z</time>
      </trkpt>
      <trkpt lat="43.38825" lon="-1.42876">
        <ele>65</ele>
        <time>2026-07-12T19:03:21.000Z</time>
      </trkpt>
      <trkpt lat="43.38826" lon="-1.42877">
        <ele>65</ele>
        <time>2026-07-12T19:03:21.000Z</time>
      </trkpt>
      <trkpt lat="43.38828" lon="-1.42878">
        <ele>65</ele>
        <time>2026-07-12T19:03:21.000Z</time>
      </trkpt>
      <trkpt lat="43.38829" lon="-1.4288">
        <ele>65</ele>
        <time>2026-07-12T19:03:22.000Z</time>
      </trkpt>
      <trkpt lat="43.3883" lon="-1.42881">
        <ele>65</ele>
        <time>2026-07-12T19:03:22.000Z</time>
      </trkpt>
      <trkpt lat="43.38831" lon="-1.42883">
        <ele>65</ele>
        <time>2026-07-12T19:03:22.000Z</time>
      </trkpt>
      <trkpt lat="43.38831" lon="-1.42885">
        <ele>65</ele>
        <time>2026-07-12T19:03:23.000Z</time>
      </trkpt>
      <trkpt lat="43.38832" lon="-1.42888">
        <ele>65</ele>
        <time>2026-07-12T19:03:23.000Z</time>
      </trkpt>
      <trkpt lat="43.38831" lon="-1.4289">
        <ele>65</ele>
        <time>2026-07-12T19:03:23.000Z</time>
      </trkpt>
      <trkpt lat="43.38831" lon="-1.42892">
        <ele>65</ele>
        <time>2026-07-12T19:03:24.000Z</time>
      </trkpt>
      <trkpt lat="43.3883" lon="-1.42895">
        <ele>64</ele>
        <time>2026-07-12T19:03:24.000Z</time>
      </trkpt>
      <trkpt lat="43.38829" lon="-1.42896">
        <ele>64</ele>
        <time>2026-07-12T19:03:24.000Z</time>
      </trkpt>
      <trkpt lat="43.38828" lon="-1.42898">
        <ele>64</ele>
        <time>2026-07-12T19:03:25.000Z</time>
      </trkpt>
      <trkpt lat="43.38826" lon="-1.42899">
        <ele>64</ele>
        <time>2026-07-12T19:03:25.000Z</time>
      </trkpt>
      <trkpt lat="43.38825" lon="-1.429">
        <ele>64</ele>
        <time>2026-07-12T19:03:25.000Z</time>
      </trkpt>
      <trkpt lat="43.38825" lon="-1.42903">
        <ele>64</ele>
        <time>2026-07-12T19:03:26.000Z</time>
      </trkpt>
      <trkpt lat="43.38821" lon="-1.42934">
        <ele>63</ele>
        <time>2026-07-12T19:03:30.000Z</time>
      </trkpt>
      <trkpt lat="43.38817" lon="-1.42965">
        <ele>63</ele>
        <time>2026-07-12T19:03:34.000Z</time>
      </trkpt>
      <trkpt lat="43.38815" lon="-1.42981">
        <ele>62</ele>
        <time>2026-07-12T19:03:36.000Z</time>
      </trkpt>
      <trkpt lat="43.38812" lon="-1.42993">
        <ele>62</ele>
        <time>2026-07-12T19:03:37.000Z</time>
      </trkpt>
      <trkpt lat="43.38806" lon="-1.4301">
        <ele>62</ele>
        <time>2026-07-12T19:03:40.000Z</time>
      </trkpt>
      <trkpt lat="43.38803" lon="-1.43024">
        <ele>62</ele>
        <time>2026-07-12T19:03:42.000Z</time>
      </trkpt>
      <trkpt lat="43.388" lon="-1.43039">
        <ele>62</ele>
        <time>2026-07-12T19:03:44.000Z</time>
      </trkpt>
      <trkpt lat="43.388" lon="-1.43039">
        <ele>62</ele>
        <time>2026-07-12T19:03:44.000Z</time>
      </trkpt>
      <trkpt lat="43.3881" lon="-1.43042">
        <ele>62</ele>
        <time>2026-07-12T19:03:46.000Z</time>
      </trkpt>
      <trkpt lat="43.38814" lon="-1.43043">
        <ele>62</ele>
        <time>2026-07-12T19:03:46.000Z</time>
      </trkpt>
      <trkpt lat="43.38817" lon="-1.43043">
        <ele>62</ele>
        <time>2026-07-12T19:03:47.000Z</time>
      </trkpt>
      <trkpt lat="43.38821" lon="-1.43043">
        <ele>62</ele>
        <time>2026-07-12T19:03:48.000Z</time>
      </trkpt>
      <trkpt lat="43.38823" lon="-1.43043">
        <ele>62</ele>
        <time>2026-07-12T19:03:48.000Z</time>
      </trkpt>
      <trkpt lat="43.38825" lon="-1.43044">
        <ele>62</ele>
        <time>2026-07-12T19:03:48.000Z</time>
      </trkpt>
      <trkpt lat="43.38837" lon="-1.43047">
        <ele>62</ele>
        <time>2026-07-12T19:03:50.000Z</time>
      </trkpt>
      <trkpt lat="43.38844" lon="-1.4305">
        <ele>62</ele>
        <time>2026-07-12T19:03:52.000Z</time>
      </trkpt>
      <trkpt lat="43.3885" lon="-1.43053">
        <ele>62</ele>
        <time>2026-07-12T19:03:53.000Z</time>
      </trkpt>
      <trkpt lat="43.38878" lon="-1.43068">
        <ele>62</ele>
        <time>2026-07-12T19:03:58.000Z</time>
      </trkpt>
      <trkpt lat="43.38886" lon="-1.43072">
        <ele>62</ele>
        <time>2026-07-12T19:04:00.000Z</time>
      </trkpt>
      <trkpt lat="43.3889" lon="-1.43074">
        <ele>62</ele>
        <time>2026-07-12T19:04:01.000Z</time>
      </trkpt>
      <trkpt lat="43.38898" lon="-1.43077">
        <ele>62</ele>
        <time>2026-07-12T19:04:02.000Z</time>
      </trkpt>
      <trkpt lat="43.39014" lon="-1.43107">
        <ele>60</ele>
        <time>2026-07-12T19:04:23.000Z</time>
      </trkpt>
      <trkpt lat="43.39147" lon="-1.43143">
        <ele>59</ele>
        <time>2026-07-12T19:04:47.000Z</time>
      </trkpt>
      <trkpt lat="43.39164" lon="-1.4315">
        <ele>59</ele>
        <time>2026-07-12T19:04:50.000Z</time>
      </trkpt>
      <trkpt lat="43.39174" lon="-1.43155">
        <ele>59</ele>
        <time>2026-07-12T19:04:52.000Z</time>
      </trkpt>
      <trkpt lat="43.39181" lon="-1.43159">
        <ele>58</ele>
        <time>2026-07-12T19:04:54.000Z</time>
      </trkpt>
      <trkpt lat="43.39231" lon="-1.43189">
        <ele>58</ele>
        <time>2026-07-12T19:05:03.000Z</time>
      </trkpt>
      <trkpt lat="43.39257" lon="-1.43206">
        <ele>58</ele>
        <time>2026-07-12T19:05:08.000Z</time>
      </trkpt>
      <trkpt lat="43.39275" lon="-1.43219">
        <ele>58</ele>
        <time>2026-07-12T19:05:12.000Z</time>
      </trkpt>
      <trkpt lat="43.39293" lon="-1.43234">
        <ele>58</ele>
        <time>2026-07-12T19:05:16.000Z</time>
      </trkpt>
      <trkpt lat="43.39303" lon="-1.43243">
        <ele>58</ele>
        <time>2026-07-12T19:05:18.000Z</time>
      </trkpt>
      <trkpt lat="43.39349" lon="-1.43284">
        <ele>59</ele>
        <time>2026-07-12T19:05:28.000Z</time>
      </trkpt>
      <trkpt lat="43.39365" lon="-1.43294">
        <ele>60</ele>
        <time>2026-07-12T19:05:31.000Z</time>
      </trkpt>
      <trkpt lat="43.39381" lon="-1.43301">
        <ele>60</ele>
        <time>2026-07-12T19:05:34.000Z</time>
      </trkpt>
      <trkpt lat="43.394" lon="-1.43309">
        <ele>60</ele>
        <time>2026-07-12T19:05:37.000Z</time>
      </trkpt>
      <trkpt lat="43.39413" lon="-1.43316">
        <ele>61</ele>
        <time>2026-07-12T19:05:40.000Z</time>
      </trkpt>
      <trkpt lat="43.39431" lon="-1.43328">
        <ele>61</ele>
        <time>2026-07-12T19:05:43.000Z</time>
      </trkpt>
      <trkpt lat="43.39449" lon="-1.43343">
        <ele>61</ele>
        <time>2026-07-12T19:05:47.000Z</time>
      </trkpt>
      <trkpt lat="43.39562" lon="-1.43446">
        <ele>59</ele>
        <time>2026-07-12T19:06:11.000Z</time>
      </trkpt>
      <trkpt lat="43.39599" lon="-1.43477">
        <ele>59</ele>
        <time>2026-07-12T19:06:19.000Z</time>
      </trkpt>
      <trkpt lat="43.39611" lon="-1.43485">
        <ele>58</ele>
        <time>2026-07-12T19:06:21.000Z</time>
      </trkpt>
      <trkpt lat="43.39624" lon="-1.43492">
        <ele>58</ele>
        <time>2026-07-12T19:06:24.000Z</time>
      </trkpt>
      <trkpt lat="43.39635" lon="-1.435">
        <ele>58</ele>
        <time>2026-07-12T19:06:26.000Z</time>
      </trkpt>
      <trkpt lat="43.39645" lon="-1.43507">
        <ele>58</ele>
        <time>2026-07-12T19:06:28.000Z</time>
      </trkpt>
      <trkpt lat="43.39654" lon="-1.43515">
        <ele>58</ele>
        <time>2026-07-12T19:06:30.000Z</time>
      </trkpt>
      <trkpt lat="43.39663" lon="-1.43523">
        <ele>58</ele>
        <time>2026-07-12T19:06:32.000Z</time>
      </trkpt>
      <trkpt lat="43.39699" lon="-1.43565">
        <ele>57</ele>
        <time>2026-07-12T19:06:40.000Z</time>
      </trkpt>
      <trkpt lat="43.39725" lon="-1.43599">
        <ele>58</ele>
        <time>2026-07-12T19:06:46.000Z</time>
      </trkpt>
      <trkpt lat="43.39768" lon="-1.43656">
        <ele>58</ele>
        <time>2026-07-12T19:06:57.000Z</time>
      </trkpt>
      <trkpt lat="43.39783" lon="-1.43672">
        <ele>58</ele>
        <time>2026-07-12T19:07:00.000Z</time>
      </trkpt>
      <trkpt lat="43.39797" lon="-1.43686">
        <ele>57</ele>
        <time>2026-07-12T19:07:04.000Z</time>
      </trkpt>
      <trkpt lat="43.3981" lon="-1.43699">
        <ele>57</ele>
        <time>2026-07-12T19:07:06.000Z</time>
      </trkpt>
      <trkpt lat="43.39822" lon="-1.43711">
        <ele>57</ele>
        <time>2026-07-12T19:07:09.000Z</time>
      </trkpt>
      <trkpt lat="43.39833" lon="-1.43725">
        <ele>56</ele>
        <time>2026-07-12T19:07:12.000Z</time>
      </trkpt>
      <trkpt lat="43.39841" lon="-1.43737">
        <ele>56</ele>
        <time>2026-07-12T19:07:14.000Z</time>
      </trkpt>
      <trkpt lat="43.39842" lon="-1.43738">
        <ele>56</ele>
        <time>2026-07-12T19:07:14.000Z</time>
      </trkpt>
      <trkpt lat="43.39848" lon="-1.43751">
        <ele>57</ele>
        <time>2026-07-12T19:07:16.000Z</time>
      </trkpt>
      <trkpt lat="43.39855" lon="-1.43768">
        <ele>57</ele>
        <time>2026-07-12T19:07:19.000Z</time>
      </trkpt>
      <trkpt lat="43.39861" lon="-1.43783">
        <ele>57</ele>
        <time>2026-07-12T19:07:21.000Z</time>
      </trkpt>
      <trkpt lat="43.39864" lon="-1.43794">
        <ele>57</ele>
        <time>2026-07-12T19:07:22.000Z</time>
      </trkpt>
      <trkpt lat="43.39866" lon="-1.438">
        <ele>57</ele>
        <time>2026-07-12T19:07:23.000Z</time>
      </trkpt>
      <trkpt lat="43.39871" lon="-1.43812">
        <ele>57</ele>
        <time>2026-07-12T19:07:25.000Z</time>
      </trkpt>
      <trkpt lat="43.39877" lon="-1.43823">
        <ele>57</ele>
        <time>2026-07-12T19:07:27.000Z</time>
      </trkpt>
      <trkpt lat="43.39886" lon="-1.43834">
        <ele>57</ele>
        <time>2026-07-12T19:07:29.000Z</time>
      </trkpt>
      <trkpt lat="43.39899" lon="-1.43848">
        <ele>57</ele>
        <time>2026-07-12T19:07:32.000Z</time>
      </trkpt>
      <trkpt lat="43.39923" lon="-1.43874">
        <ele>57</ele>
        <time>2026-07-12T19:07:37.000Z</time>
      </trkpt>
      <trkpt lat="43.39944" lon="-1.43896">
        <ele>57</ele>
        <time>2026-07-12T19:07:42.000Z</time>
      </trkpt>
      <trkpt lat="43.39958" lon="-1.43912">
        <ele>57</ele>
        <time>2026-07-12T19:07:45.000Z</time>
      </trkpt>
      <trkpt lat="43.39965" lon="-1.43922">
        <ele>56</ele>
        <time>2026-07-12T19:07:47.000Z</time>
      </trkpt>
      <trkpt lat="43.39972" lon="-1.43932">
        <ele>56</ele>
        <time>2026-07-12T19:07:49.000Z</time>
      </trkpt>
      <trkpt lat="43.39986" lon="-1.43949">
        <ele>56</ele>
        <time>2026-07-12T19:07:52.000Z</time>
      </trkpt>
      <trkpt lat="43.39994" lon="-1.43959">
        <ele>56</ele>
        <time>2026-07-12T19:07:54.000Z</time>
      </trkpt>
      <trkpt lat="43.39996" lon="-1.43961">
        <ele>56</ele>
        <time>2026-07-12T19:07:54.000Z</time>
      </trkpt>
      <trkpt lat="43.40002" lon="-1.43967">
        <ele>55</ele>
        <time>2026-07-12T19:07:56.000Z</time>
      </trkpt>
      <trkpt lat="43.40003" lon="-1.43969">
        <ele>55</ele>
        <time>2026-07-12T19:07:56.000Z</time>
      </trkpt>
      <trkpt lat="43.40013" lon="-1.43976">
        <ele>55</ele>
        <time>2026-07-12T19:07:58.000Z</time>
      </trkpt>
      <trkpt lat="43.4003" lon="-1.43982">
        <ele>55</ele>
        <time>2026-07-12T19:08:01.000Z</time>
      </trkpt>
      <trkpt lat="43.40032" lon="-1.43983">
        <ele>55</ele>
        <time>2026-07-12T19:08:02.000Z</time>
      </trkpt>
      <trkpt lat="43.40048" lon="-1.43987">
        <ele>55</ele>
        <time>2026-07-12T19:08:04.000Z</time>
      </trkpt>
      <trkpt lat="43.40059" lon="-1.43992">
        <ele>55</ele>
        <time>2026-07-12T19:08:07.000Z</time>
      </trkpt>
      <trkpt lat="43.4006" lon="-1.43993">
        <ele>55</ele>
        <time>2026-07-12T19:08:07.000Z</time>
      </trkpt>
      <trkpt lat="43.4007" lon="-1.43999">
        <ele>55</ele>
        <time>2026-07-12T19:08:09.000Z</time>
      </trkpt>
      <trkpt lat="43.40074" lon="-1.44002">
        <ele>55</ele>
        <time>2026-07-12T19:08:10.000Z</time>
      </trkpt>
      <trkpt lat="43.40078" lon="-1.44006">
        <ele>55</ele>
        <time>2026-07-12T19:08:10.000Z</time>
      </trkpt>
      <trkpt lat="43.40085" lon="-1.44014">
        <ele>55</ele>
        <time>2026-07-12T19:08:12.000Z</time>
      </trkpt>
      <trkpt lat="43.40095" lon="-1.44026">
        <ele>55</ele>
        <time>2026-07-12T19:08:14.000Z</time>
      </trkpt>
      <trkpt lat="43.40109" lon="-1.44047">
        <ele>54</ele>
        <time>2026-07-12T19:08:18.000Z</time>
      </trkpt>
      <trkpt lat="43.40119" lon="-1.44061">
        <ele>54</ele>
        <time>2026-07-12T19:08:21.000Z</time>
      </trkpt>
      <trkpt lat="43.40124" lon="-1.44068">
        <ele>54</ele>
        <time>2026-07-12T19:08:22.000Z</time>
      </trkpt>
      <trkpt lat="43.40127" lon="-1.44072">
        <ele>54</ele>
        <time>2026-07-12T19:08:23.000Z</time>
      </trkpt>
      <trkpt lat="43.40134" lon="-1.4408">
        <ele>54</ele>
        <time>2026-07-12T19:08:24.000Z</time>
      </trkpt>
      <trkpt lat="43.40221" lon="-1.44166">
        <ele>53</ele>
        <time>2026-07-12T19:08:43.000Z</time>
      </trkpt>
      <trkpt lat="43.40252" lon="-1.44197">
        <ele>54</ele>
        <time>2026-07-12T19:08:50.000Z</time>
      </trkpt>
      <trkpt lat="43.40256" lon="-1.44201">
        <ele>54</ele>
        <time>2026-07-12T19:08:51.000Z</time>
      </trkpt>
      <trkpt lat="43.40267" lon="-1.44212">
        <ele>54</ele>
        <time>2026-07-12T19:08:53.000Z</time>
      </trkpt>
      <trkpt lat="43.40276" lon="-1.44222">
        <ele>54</ele>
        <time>2026-07-12T19:08:55.000Z</time>
      </trkpt>
      <trkpt lat="43.40282" lon="-1.4423">
        <ele>54</ele>
        <time>2026-07-12T19:08:57.000Z</time>
      </trkpt>
      <trkpt lat="43.40285" lon="-1.44235">
        <ele>54</ele>
        <time>2026-07-12T19:08:58.000Z</time>
      </trkpt>
      <trkpt lat="43.40289" lon="-1.44242">
        <ele>54</ele>
        <time>2026-07-12T19:08:59.000Z</time>
      </trkpt>
      <trkpt lat="43.403" lon="-1.44259">
        <ele>54</ele>
        <time>2026-07-12T19:09:02.000Z</time>
      </trkpt>
      <trkpt lat="43.4031" lon="-1.44278">
        <ele>53</ele>
        <time>2026-07-12T19:09:05.000Z</time>
      </trkpt>
      <trkpt lat="43.4032" lon="-1.44297">
        <ele>52</ele>
        <time>2026-07-12T19:09:08.000Z</time>
      </trkpt>
      <trkpt lat="43.40328" lon="-1.44311">
        <ele>52</ele>
        <time>2026-07-12T19:09:10.000Z</time>
      </trkpt>
      <trkpt lat="43.40331" lon="-1.44317">
        <ele>51</ele>
        <time>2026-07-12T19:09:11.000Z</time>
      </trkpt>
      <trkpt lat="43.40339" lon="-1.44332">
        <ele>50</ele>
        <time>2026-07-12T19:09:14.000Z</time>
      </trkpt>
      <trkpt lat="43.40353" lon="-1.44357">
        <ele>48</ele>
        <time>2026-07-12T19:09:18.000Z</time>
      </trkpt>
      <trkpt lat="43.40358" lon="-1.44365">
        <ele>48</ele>
        <time>2026-07-12T19:09:19.000Z</time>
      </trkpt>
      <trkpt lat="43.40372" lon="-1.44386">
        <ele>47</ele>
        <time>2026-07-12T19:09:23.000Z</time>
      </trkpt>
      <trkpt lat="43.40386" lon="-1.44406">
        <ele>47</ele>
        <time>2026-07-12T19:09:26.000Z</time>
      </trkpt>
      <trkpt lat="43.40415" lon="-1.44449">
        <ele>48</ele>
        <time>2026-07-12T19:09:34.000Z</time>
      </trkpt>
      <trkpt lat="43.40446" lon="-1.44499">
        <ele>47</ele>
        <time>2026-07-12T19:09:42.000Z</time>
      </trkpt>
      <trkpt lat="43.40466" lon="-1.44534">
        <ele>46</ele>
        <time>2026-07-12T19:09:48.000Z</time>
      </trkpt>
      <trkpt lat="43.40477" lon="-1.44554">
        <ele>47</ele>
        <time>2026-07-12T19:09:51.000Z</time>
      </trkpt>
      <trkpt lat="43.40483" lon="-1.44569">
        <ele>48</ele>
        <time>2026-07-12T19:09:54.000Z</time>
      </trkpt>
      <trkpt lat="43.40508" lon="-1.4463">
        <ele>46</ele>
        <time>2026-07-12T19:10:03.000Z</time>
      </trkpt>
      <trkpt lat="43.40519" lon="-1.44652">
        <ele>45</ele>
        <time>2026-07-12T19:10:06.000Z</time>
      </trkpt>
      <trkpt lat="43.40536" lon="-1.44679">
        <ele>45</ele>
        <time>2026-07-12T19:10:11.000Z</time>
      </trkpt>
      <trkpt lat="43.40556" lon="-1.44712">
        <ele>46</ele>
        <time>2026-07-12T19:10:16.000Z</time>
      </trkpt>
      <trkpt lat="43.40571" lon="-1.44746">
        <ele>46</ele>
        <time>2026-07-12T19:10:21.000Z</time>
      </trkpt>
      <trkpt lat="43.40582" lon="-1.44769">
        <ele>44</ele>
        <time>2026-07-12T19:10:25.000Z</time>
      </trkpt>
      <trkpt lat="43.40589" lon="-1.44782">
        <ele>41</ele>
        <time>2026-07-12T19:10:27.000Z</time>
      </trkpt>
      <trkpt lat="43.40596" lon="-1.44793">
        <ele>38</ele>
        <time>2026-07-12T19:10:29.000Z</time>
      </trkpt>
      <trkpt lat="43.4061" lon="-1.44813">
        <ele>33</ele>
        <time>2026-07-12T19:10:33.000Z</time>
      </trkpt>
      <trkpt lat="43.4064" lon="-1.44849">
        <ele>26</ele>
        <time>2026-07-12T19:10:40.000Z</time>
      </trkpt>
      <trkpt lat="43.40656" lon="-1.44866">
        <ele>24</ele>
        <time>2026-07-12T19:10:43.000Z</time>
      </trkpt>
      <trkpt lat="43.4067" lon="-1.44878">
        <ele>22</ele>
        <time>2026-07-12T19:10:46.000Z</time>
      </trkpt>
      <trkpt lat="43.40686" lon="-1.44896">
        <ele>19</ele>
        <time>2026-07-12T19:10:50.000Z</time>
      </trkpt>
      <trkpt lat="43.40705" lon="-1.44919">
        <ele>16</ele>
        <time>2026-07-12T19:10:54.000Z</time>
      </trkpt>
      <trkpt lat="43.40722" lon="-1.44936">
        <ele>14</ele>
        <time>2026-07-12T19:10:58.000Z</time>
      </trkpt>
      <trkpt lat="43.40728" lon="-1.44947">
        <ele>13</ele>
        <time>2026-07-12T19:11:00.000Z</time>
      </trkpt>
      <trkpt lat="43.40732" lon="-1.44953">
        <ele>13</ele>
        <time>2026-07-12T19:11:01.000Z</time>
      </trkpt>
      <trkpt lat="43.40738" lon="-1.44959">
        <ele>12</ele>
        <time>2026-07-12T19:11:02.000Z</time>
      </trkpt>
      <trkpt lat="43.40746" lon="-1.44962">
        <ele>12</ele>
        <time>2026-07-12T19:11:04.000Z</time>
      </trkpt>
      <trkpt lat="43.40754" lon="-1.44964">
        <ele>12</ele>
        <time>2026-07-12T19:11:05.000Z</time>
      </trkpt>
      <trkpt lat="43.4076" lon="-1.44965">
        <ele>11</ele>
        <time>2026-07-12T19:11:06.000Z</time>
      </trkpt>
      <trkpt lat="43.4077" lon="-1.44965">
        <ele>11</ele>
        <time>2026-07-12T19:11:08.000Z</time>
      </trkpt>
      <trkpt lat="43.4078" lon="-1.44965">
        <ele>11</ele>
        <time>2026-07-12T19:11:10.000Z</time>
      </trkpt>
      <trkpt lat="43.40789" lon="-1.44965">
        <ele>10</ele>
        <time>2026-07-12T19:11:11.000Z</time>
      </trkpt>
      <trkpt lat="43.40801" lon="-1.44967">
        <ele>10</ele>
        <time>2026-07-12T19:11:14.000Z</time>
      </trkpt>
      <trkpt lat="43.40807" lon="-1.44969">
        <ele>10</ele>
        <time>2026-07-12T19:11:15.000Z</time>
      </trkpt>
      <trkpt lat="43.40812" lon="-1.44972">
        <ele>10</ele>
        <time>2026-07-12T19:11:16.000Z</time>
      </trkpt>
      <trkpt lat="43.40819" lon="-1.4498">
        <ele>9</ele>
        <time>2026-07-12T19:11:17.000Z</time>
      </trkpt>
      <trkpt lat="43.40836" lon="-1.4501">
        <ele>9</ele>
        <time>2026-07-12T19:11:22.000Z</time>
      </trkpt>
      <trkpt lat="43.40841" lon="-1.45017">
        <ele>9</ele>
        <time>2026-07-12T19:11:23.000Z</time>
      </trkpt>
      <trkpt lat="43.40848" lon="-1.45025">
        <ele>8</ele>
        <time>2026-07-12T19:11:25.000Z</time>
      </trkpt>
      <trkpt lat="43.40857" lon="-1.45033">
        <ele>8</ele>
        <time>2026-07-12T19:11:27.000Z</time>
      </trkpt>
      <trkpt lat="43.40857" lon="-1.45033">
        <ele>8</ele>
        <time>2026-07-12T19:11:27.000Z</time>
      </trkpt>
      <trkpt lat="43.40856" lon="-1.45039">
        <ele>8</ele>
        <time>2026-07-12T19:11:28.000Z</time>
      </trkpt>
      <trkpt lat="43.40855" lon="-1.45043">
        <ele>8</ele>
        <time>2026-07-12T19:11:28.000Z</time>
      </trkpt>
      <trkpt lat="43.40853" lon="-1.45047">
        <ele>8</ele>
        <time>2026-07-12T19:11:29.000Z</time>
      </trkpt>
      <trkpt lat="43.40851" lon="-1.45051">
        <ele>8</ele>
        <time>2026-07-12T19:11:30.000Z</time>
      </trkpt>
      <trkpt lat="43.40849" lon="-1.45054">
        <ele>8</ele>
        <time>2026-07-12T19:11:30.000Z</time>
      </trkpt>
      <trkpt lat="43.40829" lon="-1.45082">
        <ele>8</ele>
        <time>2026-07-12T19:11:35.000Z</time>
      </trkpt>
      <trkpt lat="43.40824" lon="-1.4509">
        <ele>8</ele>
        <time>2026-07-12T19:11:37.000Z</time>
      </trkpt>
      <trkpt lat="43.40819" lon="-1.45097">
        <ele>7</ele>
        <time>2026-07-12T19:11:38.000Z</time>
      </trkpt>
      <trkpt lat="43.40814" lon="-1.45101">
        <ele>7</ele>
        <time>2026-07-12T19:11:39.000Z</time>
      </trkpt>
      <trkpt lat="43.40808" lon="-1.45104">
        <ele>7</ele>
        <time>2026-07-12T19:11:40.000Z</time>
      </trkpt>
      <trkpt lat="43.40802" lon="-1.45105">
        <ele>7</ele>
        <time>2026-07-12T19:11:41.000Z</time>
      </trkpt>
      <trkpt lat="43.40796" lon="-1.45105">
        <ele>7</ele>
        <time>2026-07-12T19:11:42.000Z</time>
      </trkpt>
      <trkpt lat="43.40788" lon="-1.45104">
        <ele>7</ele>
        <time>2026-07-12T19:11:44.000Z</time>
      </trkpt>
      <trkpt lat="43.40779" lon="-1.45102">
        <ele>7</ele>
        <time>2026-07-12T19:11:45.000Z</time>
      </trkpt>
      <trkpt lat="43.40768" lon="-1.45096">
        <ele>7</ele>
        <time>2026-07-12T19:11:47.000Z</time>
      </trkpt>
      <trkpt lat="43.40759" lon="-1.45089">
        <ele>7</ele>
        <time>2026-07-12T19:11:49.000Z</time>
      </trkpt>
      <trkpt lat="43.4074" lon="-1.45076">
        <ele>7</ele>
        <time>2026-07-12T19:11:53.000Z</time>
      </trkpt>
      <trkpt lat="43.4073" lon="-1.45068">
        <ele>7</ele>
        <time>2026-07-12T19:11:55.000Z</time>
      </trkpt>
      <trkpt lat="43.40693" lon="-1.45045">
        <ele>7</ele>
        <time>2026-07-12T19:12:02.000Z</time>
      </trkpt>
      <trkpt lat="43.40689" lon="-1.45043">
        <ele>7</ele>
        <time>2026-07-12T19:12:03.000Z</time>
      </trkpt>
      <trkpt lat="43.4068" lon="-1.45037">
        <ele>7</ele>
        <time>2026-07-12T19:12:05.000Z</time>
      </trkpt>
      <trkpt lat="43.40673" lon="-1.45033">
        <ele>8</ele>
        <time>2026-07-12T19:12:06.000Z</time>
      </trkpt>
      <trkpt lat="43.40667" lon="-1.45031">
        <ele>8</ele>
        <time>2026-07-12T19:12:07.000Z</time>
      </trkpt>
      <trkpt lat="43.40661" lon="-1.4503">
        <ele>8</ele>
        <time>2026-07-12T19:12:08.000Z</time>
      </trkpt>
      <trkpt lat="43.40653" lon="-1.45029">
        <ele>8</ele>
        <time>2026-07-12T19:12:10.000Z</time>
      </trkpt>
      <trkpt lat="43.40626" lon="-1.4503">
        <ele>7</ele>
        <time>2026-07-12T19:12:14.000Z</time>
      </trkpt>
      <trkpt lat="43.40611" lon="-1.4503">
        <ele>7</ele>
        <time>2026-07-12T19:12:17.000Z</time>
      </trkpt>
      <trkpt lat="43.40602" lon="-1.4503">
        <ele>7</ele>
        <time>2026-07-12T19:12:19.000Z</time>
      </trkpt>
      <trkpt lat="43.40592" lon="-1.45028">
        <ele>7</ele>
        <time>2026-07-12T19:12:21.000Z</time>
      </trkpt>
      <trkpt lat="43.40585" lon="-1.45026">
        <ele>7</ele>
        <time>2026-07-12T19:12:22.000Z</time>
      </trkpt>
      <trkpt lat="43.40578" lon="-1.45023">
        <ele>7</ele>
        <time>2026-07-12T19:12:23.000Z</time>
      </trkpt>
      <trkpt lat="43.40571" lon="-1.45019">
        <ele>8</ele>
        <time>2026-07-12T19:12:24.000Z</time>
      </trkpt>
      <trkpt lat="43.40566" lon="-1.45015">
        <ele>8</ele>
        <time>2026-07-12T19:12:25.000Z</time>
      </trkpt>
      <trkpt lat="43.40562" lon="-1.45012">
        <ele>8</ele>
        <time>2026-07-12T19:12:26.000Z</time>
      </trkpt>
      <trkpt lat="43.40546" lon="-1.44998">
        <ele>8</ele>
        <time>2026-07-12T19:12:30.000Z</time>
      </trkpt>
      <trkpt lat="43.40537" lon="-1.44992">
        <ele>8</ele>
        <time>2026-07-12T19:12:31.000Z</time>
      </trkpt>
      <trkpt lat="43.40532" lon="-1.44989">
        <ele>9</ele>
        <time>2026-07-12T19:12:32.000Z</time>
      </trkpt>
      <trkpt lat="43.40517" lon="-1.44981">
        <ele>9</ele>
        <time>2026-07-12T19:12:35.000Z</time>
      </trkpt>
      <trkpt lat="43.40466" lon="-1.44953">
        <ele>8</ele>
        <time>2026-07-12T19:12:45.000Z</time>
      </trkpt>
      <trkpt lat="43.4046" lon="-1.44951">
        <ele>8</ele>
        <time>2026-07-12T19:12:46.000Z</time>
      </trkpt>
      <trkpt lat="43.40456" lon="-1.44951">
        <ele>8</ele>
        <time>2026-07-12T19:12:47.000Z</time>
      </trkpt>
      <trkpt lat="43.40452" lon="-1.4495">
        <ele>7</ele>
        <time>2026-07-12T19:12:48.000Z</time>
      </trkpt>
      <trkpt lat="43.40449" lon="-1.44951">
        <ele>7</ele>
        <time>2026-07-12T19:12:48.000Z</time>
      </trkpt>
      <trkpt lat="43.40445" lon="-1.44952">
        <ele>7</ele>
        <time>2026-07-12T19:12:49.000Z</time>
      </trkpt>
      <trkpt lat="43.4044" lon="-1.44955">
        <ele>7</ele>
        <time>2026-07-12T19:12:50.000Z</time>
      </trkpt>
      <trkpt lat="43.40437" lon="-1.44957">
        <ele>7</ele>
        <time>2026-07-12T19:12:50.000Z</time>
      </trkpt>
      <trkpt lat="43.40434" lon="-1.44961">
        <ele>7</ele>
        <time>2026-07-12T19:12:51.000Z</time>
      </trkpt>
      <trkpt lat="43.40432" lon="-1.44963">
        <ele>7</ele>
        <time>2026-07-12T19:12:52.000Z</time>
      </trkpt>
      <trkpt lat="43.40402" lon="-1.45005">
        <ele>6</ele>
        <time>2026-07-12T19:12:59.000Z</time>
      </trkpt>
      <trkpt lat="43.40338" lon="-1.45094">
        <ele>5</ele>
        <time>2026-07-12T19:13:15.000Z</time>
      </trkpt>
      <trkpt lat="43.40272" lon="-1.4519">
        <ele>5</ele>
        <time>2026-07-12T19:13:32.000Z</time>
      </trkpt>
      <trkpt lat="43.40211" lon="-1.45271">
        <ele>5</ele>
        <time>2026-07-12T19:13:48.000Z</time>
      </trkpt>
      <trkpt lat="43.40149" lon="-1.45357">
        <ele>6</ele>
        <time>2026-07-12T19:14:03.000Z</time>
      </trkpt>
      <trkpt lat="43.40142" lon="-1.45365">
        <ele>6</ele>
        <time>2026-07-12T19:14:05.000Z</time>
      </trkpt>
      <trkpt lat="43.4012" lon="-1.45395">
        <ele>7</ele>
        <time>2026-07-12T19:14:10.000Z</time>
      </trkpt>
      <trkpt lat="43.40111" lon="-1.45407">
        <ele>7</ele>
        <time>2026-07-12T19:14:13.000Z</time>
      </trkpt>
      <trkpt lat="43.40106" lon="-1.45416">
        <ele>8</ele>
        <time>2026-07-12T19:14:14.000Z</time>
      </trkpt>
      <trkpt lat="43.401" lon="-1.45427">
        <ele>8</ele>
        <time>2026-07-12T19:14:16.000Z</time>
      </trkpt>
      <trkpt lat="43.40077" lon="-1.45477">
        <ele>8</ele>
        <time>2026-07-12T19:14:23.000Z</time>
      </trkpt>
      <trkpt lat="43.4007" lon="-1.45493">
        <ele>7</ele>
        <time>2026-07-12T19:14:26.000Z</time>
      </trkpt>
      <trkpt lat="43.40057" lon="-1.45524">
        <ele>7</ele>
        <time>2026-07-12T19:14:31.000Z</time>
      </trkpt>
      <trkpt lat="43.40046" lon="-1.45551">
        <ele>8</ele>
        <time>2026-07-12T19:14:35.000Z</time>
      </trkpt>
      <trkpt lat="43.4004" lon="-1.45566">
        <ele>8</ele>
        <time>2026-07-12T19:14:37.000Z</time>
      </trkpt>
      <trkpt lat="43.40039" lon="-1.45569">
        <ele>8</ele>
        <time>2026-07-12T19:14:37.000Z</time>
      </trkpt>
      <trkpt lat="43.40023" lon="-1.45613">
        <ele>11</ele>
        <time>2026-07-12T19:14:44.000Z</time>
      </trkpt>
      <trkpt lat="43.40006" lon="-1.45661">
        <ele>15</ele>
        <time>2026-07-12T19:14:50.000Z</time>
      </trkpt>
      <trkpt lat="43.40006" lon="-1.45661">
        <ele>15</ele>
        <time>2026-07-12T19:14:50.000Z</time>
      </trkpt>
      <trkpt lat="43.39961" lon="-1.45613">
        <ele>13</ele>
        <time>2026-07-12T19:15:01.000Z</time>
      </trkpt>
      <trkpt lat="43.39948" lon="-1.45599">
        <ele>12</ele>
        <time>2026-07-12T19:15:03.000Z</time>
      </trkpt>
      <trkpt lat="43.39943" lon="-1.45593">
        <ele>12</ele>
        <time>2026-07-12T19:15:05.000Z</time>
      </trkpt>
      <trkpt lat="43.39928" lon="-1.45574">
        <ele>12</ele>
        <time>2026-07-12T19:15:08.000Z</time>
      </trkpt>
      <trkpt lat="43.39897" lon="-1.45538">
        <ele>12</ele>
        <time>2026-07-12T19:15:16.000Z</time>
      </trkpt>
      <trkpt lat="43.39894" lon="-1.45533">
        <ele>12</ele>
        <time>2026-07-12T19:15:16.000Z</time>
      </trkpt>
      <trkpt lat="43.39886" lon="-1.45527">
        <ele>12</ele>
        <time>2026-07-12T19:15:18.000Z</time>
      </trkpt>
      <trkpt lat="43.39878" lon="-1.4552">
        <ele>13</ele>
        <time>2026-07-12T19:15:20.000Z</time>
      </trkpt>
      <trkpt lat="43.39871" lon="-1.45516">
        <ele>13</ele>
        <time>2026-07-12T19:15:21.000Z</time>
      </trkpt>
      <trkpt lat="43.39856" lon="-1.45505">
        <ele>13</ele>
        <time>2026-07-12T19:15:24.000Z</time>
      </trkpt>
      <trkpt lat="43.39848" lon="-1.455">
        <ele>13</ele>
        <time>2026-07-12T19:15:26.000Z</time>
      </trkpt>
      <trkpt lat="43.39821" lon="-1.45482">
        <ele>14</ele>
        <time>2026-07-12T19:15:31.000Z</time>
      </trkpt>
      <trkpt lat="43.39806" lon="-1.45473">
        <ele>14</ele>
        <time>2026-07-12T19:15:34.000Z</time>
      </trkpt>
      <trkpt lat="43.39739" lon="-1.45431">
        <ele>14</ele>
        <time>2026-07-12T19:15:47.000Z</time>
      </trkpt>
      <trkpt lat="43.39734" lon="-1.45429">
        <ele>15</ele>
        <time>2026-07-12T19:15:48.000Z</time>
      </trkpt>
      <trkpt lat="43.3973" lon="-1.45427">
        <ele>15</ele>
        <time>2026-07-12T19:15:49.000Z</time>
      </trkpt>
      <trkpt lat="43.39725" lon="-1.45426">
        <ele>15</ele>
        <time>2026-07-12T19:15:50.000Z</time>
      </trkpt>
      <trkpt lat="43.39717" lon="-1.45426">
        <ele>15</ele>
        <time>2026-07-12T19:15:51.000Z</time>
      </trkpt>
      <trkpt lat="43.39713" lon="-1.45426">
        <ele>15</ele>
        <time>2026-07-12T19:15:52.000Z</time>
      </trkpt>
      <trkpt lat="43.3971" lon="-1.45428">
        <ele>15</ele>
        <time>2026-07-12T19:15:52.000Z</time>
      </trkpt>
      <trkpt lat="43.39707" lon="-1.45429">
        <ele>15</ele>
        <time>2026-07-12T19:15:53.000Z</time>
      </trkpt>
      <trkpt lat="43.39704" lon="-1.45432">
        <ele>15</ele>
        <time>2026-07-12T19:15:53.000Z</time>
      </trkpt>
      <trkpt lat="43.39704" lon="-1.45432">
        <ele>15</ele>
        <time>2026-07-12T19:15:53.000Z</time>
      </trkpt>
      <trkpt lat="43.39702" lon="-1.45434">
        <ele>15</ele>
        <time>2026-07-12T19:15:54.000Z</time>
      </trkpt>
      <trkpt lat="43.397" lon="-1.45437">
        <ele>15</ele>
        <time>2026-07-12T19:15:54.000Z</time>
      </trkpt>
      <trkpt lat="43.39698" lon="-1.45441">
        <ele>15</ele>
        <time>2026-07-12T19:15:55.000Z</time>
      </trkpt>
      <trkpt lat="43.39695" lon="-1.45448">
        <ele>16</ele>
        <time>2026-07-12T19:15:56.000Z</time>
      </trkpt>
      <trkpt lat="43.39692" lon="-1.45459">
        <ele>16</ele>
        <time>2026-07-12T19:15:58.000Z</time>
      </trkpt>
      <trkpt lat="43.39681" lon="-1.45498">
        <ele>18</ele>
        <time>2026-07-12T19:16:03.000Z</time>
      </trkpt>
      <trkpt lat="43.3968" lon="-1.45503">
        <ele>18</ele>
        <time>2026-07-12T19:16:04.000Z</time>
      </trkpt>
      <trkpt lat="43.3968" lon="-1.45508">
        <ele>18</ele>
        <time>2026-07-12T19:16:04.000Z</time>
      </trkpt>
      <trkpt lat="43.3968" lon="-1.45515">
        <ele>18</ele>
        <time>2026-07-12T19:16:05.000Z</time>
      </trkpt>
      <trkpt lat="43.39681" lon="-1.45523">
        <ele>18</ele>
        <time>2026-07-12T19:16:06.000Z</time>
      </trkpt>
      <trkpt lat="43.39683" lon="-1.45532">
        <ele>18</ele>
        <time>2026-07-12T19:16:08.000Z</time>
      </trkpt>
      <trkpt lat="43.39684" lon="-1.45538">
        <ele>18</ele>
        <time>2026-07-12T19:16:08.000Z</time>
      </trkpt>
      <trkpt lat="43.39685" lon="-1.45543">
        <ele>18</ele>
        <time>2026-07-12T19:16:09.000Z</time>
      </trkpt>
      <trkpt lat="43.39684" lon="-1.45549">
        <ele>18</ele>
        <time>2026-07-12T19:16:10.000Z</time>
      </trkpt>
      <trkpt lat="43.39684" lon="-1.45555">
        <ele>18</ele>
        <time>2026-07-12T19:16:11.000Z</time>
      </trkpt>
      <trkpt lat="43.39682" lon="-1.45561">
        <ele>18</ele>
        <time>2026-07-12T19:16:11.000Z</time>
      </trkpt>
      <trkpt lat="43.3968" lon="-1.45567">
        <ele>19</ele>
        <time>2026-07-12T19:16:12.000Z</time>
      </trkpt>
      <trkpt lat="43.39677" lon="-1.45572">
        <ele>19</ele>
        <time>2026-07-12T19:16:13.000Z</time>
      </trkpt>
      <trkpt lat="43.39674" lon="-1.45576">
        <ele>19</ele>
        <time>2026-07-12T19:16:14.000Z</time>
      </trkpt>
      <trkpt lat="43.39672" lon="-1.45577">
        <ele>19</ele>
        <time>2026-07-12T19:16:14.000Z</time>
      </trkpt>
      <trkpt lat="43.3967" lon="-1.45579">
        <ele>19</ele>
        <time>2026-07-12T19:16:15.000Z</time>
      </trkpt>
      <trkpt lat="43.39667" lon="-1.45581">
        <ele>19</ele>
        <time>2026-07-12T19:16:15.000Z</time>
      </trkpt>
      <trkpt lat="43.39664" lon="-1.45583">
        <ele>19</ele>
        <time>2026-07-12T19:16:16.000Z</time>
      </trkpt>
      <trkpt lat="43.39661" lon="-1.45584">
        <ele>19</ele>
        <time>2026-07-12T19:16:16.000Z</time>
      </trkpt>
      <trkpt lat="43.39658" lon="-1.45584">
        <ele>19</ele>
        <time>2026-07-12T19:16:17.000Z</time>
      </trkpt>
      <trkpt lat="43.39655" lon="-1.45585">
        <ele>19</ele>
        <time>2026-07-12T19:16:17.000Z</time>
      </trkpt>
      <trkpt lat="43.39651" lon="-1.45584">
        <ele>19</ele>
        <time>2026-07-12T19:16:18.000Z</time>
      </trkpt>
      <trkpt lat="43.39638" lon="-1.45581">
        <ele>20</ele>
        <time>2026-07-12T19:16:21.000Z</time>
      </trkpt>
      <trkpt lat="43.39618" lon="-1.45575">
        <ele>20</ele>
        <time>2026-07-12T19:16:24.000Z</time>
      </trkpt>
      <trkpt lat="43.39612" lon="-1.45574">
        <ele>20</ele>
        <time>2026-07-12T19:16:25.000Z</time>
      </trkpt>
      <trkpt lat="43.39604" lon="-1.45574">
        <ele>20</ele>
        <time>2026-07-12T19:16:27.000Z</time>
      </trkpt>
      <trkpt lat="43.39599" lon="-1.45574">
        <ele>20</ele>
        <time>2026-07-12T19:16:28.000Z</time>
      </trkpt>
      <trkpt lat="43.39593" lon="-1.45574">
        <ele>21</ele>
        <time>2026-07-12T19:16:29.000Z</time>
      </trkpt>
      <trkpt lat="43.39587" lon="-1.45576">
        <ele>21</ele>
        <time>2026-07-12T19:16:30.000Z</time>
      </trkpt>
      <trkpt lat="43.39558" lon="-1.45586">
        <ele>21</ele>
        <time>2026-07-12T19:16:35.000Z</time>
      </trkpt>
      <trkpt lat="43.39526" lon="-1.45599">
        <ele>22</ele>
        <time>2026-07-12T19:16:41.000Z</time>
      </trkpt>
      <trkpt lat="43.39521" lon="-1.45602">
        <ele>22</ele>
        <time>2026-07-12T19:16:42.000Z</time>
      </trkpt>
      <trkpt lat="43.39515" lon="-1.45605">
        <ele>22</ele>
        <time>2026-07-12T19:16:43.000Z</time>
      </trkpt>
      <trkpt lat="43.39511" lon="-1.45608">
        <ele>22</ele>
        <time>2026-07-12T19:16:44.000Z</time>
      </trkpt>
      <trkpt lat="43.39506" lon="-1.45614">
        <ele>22</ele>
        <time>2026-07-12T19:16:45.000Z</time>
      </trkpt>
      <trkpt lat="43.39502" lon="-1.4562">
        <ele>22</ele>
        <time>2026-07-12T19:16:46.000Z</time>
      </trkpt>
      <trkpt lat="43.39497" lon="-1.45629">
        <ele>23</ele>
        <time>2026-07-12T19:16:48.000Z</time>
      </trkpt>
      <trkpt lat="43.3949" lon="-1.45641">
        <ele>23</ele>
        <time>2026-07-12T19:16:50.000Z</time>
      </trkpt>
      <trkpt lat="43.39468" lon="-1.45688">
        <ele>24</ele>
        <time>2026-07-12T19:16:57.000Z</time>
      </trkpt>
      <trkpt lat="43.39458" lon="-1.45711">
        <ele>24</ele>
        <time>2026-07-12T19:17:00.000Z</time>
      </trkpt>
      <trkpt lat="43.39449" lon="-1.45732">
        <ele>25</ele>
        <time>2026-07-12T19:17:03.000Z</time>
      </trkpt>
      <trkpt lat="43.39442" lon="-1.45751">
        <ele>25</ele>
        <time>2026-07-12T19:17:06.000Z</time>
      </trkpt>
      <trkpt lat="43.39427" lon="-1.45798">
        <ele>28</ele>
        <time>2026-07-12T19:17:13.000Z</time>
      </trkpt>
      <trkpt lat="43.39423" lon="-1.45812">
        <ele>29</ele>
        <time>2026-07-12T19:17:15.000Z</time>
      </trkpt>
      <trkpt lat="43.39423" lon="-1.45812">
        <ele>29</ele>
        <time>2026-07-12T19:17:15.000Z</time>
      </trkpt>
      <trkpt lat="43.39423" lon="-1.45826">
        <ele>29</ele>
        <time>2026-07-12T19:17:17.000Z</time>
      </trkpt>
      <trkpt lat="43.39423" lon="-1.45832">
        <ele>30</ele>
        <time>2026-07-12T19:17:17.000Z</time>
      </trkpt>
      <trkpt lat="43.39424" lon="-1.45838">
        <ele>30</ele>
        <time>2026-07-12T19:17:18.000Z</time>
      </trkpt>
      <trkpt lat="43.39425" lon="-1.45844">
        <ele>31</ele>
        <time>2026-07-12T19:17:19.000Z</time>
      </trkpt>
      <trkpt lat="43.39426" lon="-1.45851">
        <ele>31</ele>
        <time>2026-07-12T19:17:20.000Z</time>
      </trkpt>
      <trkpt lat="43.39428" lon="-1.45859">
        <ele>32</ele>
        <time>2026-07-12T19:17:21.000Z</time>
      </trkpt>
      <trkpt lat="43.39431" lon="-1.45867">
        <ele>33</ele>
        <time>2026-07-12T19:17:22.000Z</time>
      </trkpt>
      <trkpt lat="43.39435" lon="-1.45876">
        <ele>33</ele>
        <time>2026-07-12T19:17:24.000Z</time>
      </trkpt>
      <trkpt lat="43.39443" lon="-1.45895">
        <ele>34</ele>
        <time>2026-07-12T19:17:26.000Z</time>
      </trkpt>
      <trkpt lat="43.3945" lon="-1.45908">
        <ele>35</ele>
        <time>2026-07-12T19:17:28.000Z</time>
      </trkpt>
      <trkpt lat="43.39455" lon="-1.45917">
        <ele>35</ele>
        <time>2026-07-12T19:17:30.000Z</time>
      </trkpt>
      <trkpt lat="43.3946" lon="-1.45927">
        <ele>37</ele>
        <time>2026-07-12T19:17:31.000Z</time>
      </trkpt>
      <trkpt lat="43.39461" lon="-1.45929">
        <ele>37</ele>
        <time>2026-07-12T19:17:32.000Z</time>
      </trkpt>
      <trkpt lat="43.39462" lon="-1.45935">
        <ele>38</ele>
        <time>2026-07-12T19:17:33.000Z</time>
      </trkpt>
      <trkpt lat="43.39462" lon="-1.45935">
        <ele>38</ele>
        <time>2026-07-12T19:17:33.000Z</time>
      </trkpt>
      <trkpt lat="43.39468" lon="-1.45942">
        <ele>38</ele>
        <time>2026-07-12T19:17:34.000Z</time>
      </trkpt>
      <trkpt lat="43.3948" lon="-1.45955">
        <ele>39</ele>
        <time>2026-07-12T19:17:37.000Z</time>
      </trkpt>
      <trkpt lat="43.39495" lon="-1.45967">
        <ele>39</ele>
        <time>2026-07-12T19:17:40.000Z</time>
      </trkpt>
      <trkpt lat="43.39497" lon="-1.45968">
        <ele>39</ele>
        <time>2026-07-12T19:17:40.000Z</time>
      </trkpt>
      <trkpt lat="43.39514" lon="-1.4598">
        <ele>39</ele>
        <time>2026-07-12T19:17:44.000Z</time>
      </trkpt>
      <trkpt lat="43.39526" lon="-1.45987">
        <ele>38</ele>
        <time>2026-07-12T19:17:46.000Z</time>
      </trkpt>
      <trkpt lat="43.39546" lon="-1.45997">
        <ele>36</ele>
        <time>2026-07-12T19:17:50.000Z</time>
      </trkpt>
      <trkpt lat="43.39569" lon="-1.46006">
        <ele>33</ele>
        <time>2026-07-12T19:17:54.000Z</time>
      </trkpt>
      <trkpt lat="43.39614" lon="-1.46022">
        <ele>33</ele>
        <time>2026-07-12T19:18:02.000Z</time>
      </trkpt>
      <trkpt lat="43.39648" lon="-1.46035">
        <ele>34</ele>
        <time>2026-07-12T19:18:08.000Z</time>
      </trkpt>
      <trkpt lat="43.39657" lon="-1.46038">
        <ele>34</ele>
        <time>2026-07-12T19:18:10.000Z</time>
      </trkpt>
      <trkpt lat="43.39672" lon="-1.46046">
        <ele>35</ele>
        <time>2026-07-12T19:18:13.000Z</time>
      </trkpt>
      <trkpt lat="43.39681" lon="-1.46051">
        <ele>36</ele>
        <time>2026-07-12T19:18:15.000Z</time>
      </trkpt>
      <trkpt lat="43.39682" lon="-1.46052">
        <ele>36</ele>
        <time>2026-07-12T19:18:15.000Z</time>
      </trkpt>
      <trkpt lat="43.39705" lon="-1.46067">
        <ele>38</ele>
        <time>2026-07-12T19:18:19.000Z</time>
      </trkpt>
      <trkpt lat="43.39732" lon="-1.46087">
        <ele>41</ele>
        <time>2026-07-12T19:18:25.000Z</time>
      </trkpt>
      <trkpt lat="43.39754" lon="-1.46101">
        <ele>42</ele>
        <time>2026-07-12T19:18:29.000Z</time>
      </trkpt>
      <trkpt lat="43.39786" lon="-1.46122">
        <ele>42</ele>
        <time>2026-07-12T19:18:36.000Z</time>
      </trkpt>
      <trkpt lat="43.39808" lon="-1.46138">
        <ele>42</ele>
        <time>2026-07-12T19:18:40.000Z</time>
      </trkpt>
      <trkpt lat="43.39827" lon="-1.46156">
        <ele>43</ele>
        <time>2026-07-12T19:18:44.000Z</time>
      </trkpt>
      <trkpt lat="43.39847" lon="-1.46177">
        <ele>43</ele>
        <time>2026-07-12T19:18:49.000Z</time>
      </trkpt>
      <trkpt lat="43.39857" lon="-1.4619">
        <ele>44</ele>
        <time>2026-07-12T19:18:51.000Z</time>
      </trkpt>
      <trkpt lat="43.39867" lon="-1.46204">
        <ele>45</ele>
        <time>2026-07-12T19:18:54.000Z</time>
      </trkpt>
      <trkpt lat="43.39874" lon="-1.46218">
        <ele>46</ele>
        <time>2026-07-12T19:18:56.000Z</time>
      </trkpt>
      <trkpt lat="43.39882" lon="-1.46234">
        <ele>47</ele>
        <time>2026-07-12T19:18:58.000Z</time>
      </trkpt>
      <trkpt lat="43.39884" lon="-1.4624">
        <ele>48</ele>
        <time>2026-07-12T19:18:59.000Z</time>
      </trkpt>
      <trkpt lat="43.39889" lon="-1.46253">
        <ele>49</ele>
        <time>2026-07-12T19:19:01.000Z</time>
      </trkpt>
      <trkpt lat="43.39896" lon="-1.46274">
        <ele>50</ele>
        <time>2026-07-12T19:19:04.000Z</time>
      </trkpt>
      <trkpt lat="43.39902" lon="-1.46289">
        <ele>51</ele>
        <time>2026-07-12T19:19:06.000Z</time>
      </trkpt>
      <trkpt lat="43.39906" lon="-1.46299">
        <ele>51</ele>
        <time>2026-07-12T19:19:08.000Z</time>
      </trkpt>
      <trkpt lat="43.3992" lon="-1.46328">
        <ele>52</ele>
        <time>2026-07-12T19:19:12.000Z</time>
      </trkpt>
      <trkpt lat="43.39926" lon="-1.4634">
        <ele>52</ele>
        <time>2026-07-12T19:19:14.000Z</time>
      </trkpt>
      <trkpt lat="43.39938" lon="-1.4636">
        <ele>52</ele>
        <time>2026-07-12T19:19:17.000Z</time>
      </trkpt>
      <trkpt lat="43.39943" lon="-1.4637">
        <ele>52</ele>
        <time>2026-07-12T19:19:19.000Z</time>
      </trkpt>
      <trkpt lat="43.39945" lon="-1.46375">
        <ele>52</ele>
        <time>2026-07-12T19:19:20.000Z</time>
      </trkpt>
      <trkpt lat="43.39949" lon="-1.46386">
        <ele>52</ele>
        <time>2026-07-12T19:19:21.000Z</time>
      </trkpt>
      <trkpt lat="43.39954" lon="-1.46398">
        <ele>52</ele>
        <time>2026-07-12T19:19:23.000Z</time>
      </trkpt>
      <trkpt lat="43.39955" lon="-1.46402">
        <ele>52</ele>
        <time>2026-07-12T19:19:24.000Z</time>
      </trkpt>
      <trkpt lat="43.39957" lon="-1.46407">
        <ele>52</ele>
        <time>2026-07-12T19:19:24.000Z</time>
      </trkpt>
      <trkpt lat="43.39958" lon="-1.46413">
        <ele>52</ele>
        <time>2026-07-12T19:19:25.000Z</time>
      </trkpt>
      <trkpt lat="43.3996" lon="-1.46417">
        <ele>53</ele>
        <time>2026-07-12T19:19:26.000Z</time>
      </trkpt>
      <trkpt lat="43.39965" lon="-1.46426">
        <ele>52</ele>
        <time>2026-07-12T19:19:27.000Z</time>
      </trkpt>
      <trkpt lat="43.39965" lon="-1.46426">
        <ele>52</ele>
        <time>2026-07-12T19:19:27.000Z</time>
      </trkpt>
      <trkpt lat="43.39967" lon="-1.46426">
        <ele>52</ele>
        <time>2026-07-12T19:19:28.000Z</time>
      </trkpt>
      <trkpt lat="43.39969" lon="-1.46426">
        <ele>52</ele>
        <time>2026-07-12T19:19:28.000Z</time>
      </trkpt>
      <trkpt lat="43.39971" lon="-1.46427">
        <ele>52</ele>
        <time>2026-07-12T19:19:28.000Z</time>
      </trkpt>
      <trkpt lat="43.39973" lon="-1.46427">
        <ele>53</ele>
        <time>2026-07-12T19:19:29.000Z</time>
      </trkpt>
      <trkpt lat="43.39975" lon="-1.46428">
        <ele>53</ele>
        <time>2026-07-12T19:19:29.000Z</time>
      </trkpt>
      <trkpt lat="43.39976" lon="-1.46429">
        <ele>53</ele>
        <time>2026-07-12T19:19:29.000Z</time>
      </trkpt>
      <trkpt lat="43.39978" lon="-1.4643">
        <ele>53</ele>
        <time>2026-07-12T19:19:30.000Z</time>
      </trkpt>
      <trkpt lat="43.3998" lon="-1.46431">
        <ele>53</ele>
        <time>2026-07-12T19:19:30.000Z</time>
      </trkpt>
      <trkpt lat="43.39981" lon="-1.46432">
        <ele>53</ele>
        <time>2026-07-12T19:19:30.000Z</time>
      </trkpt>
      <trkpt lat="43.39982" lon="-1.46433">
        <ele>53</ele>
        <time>2026-07-12T19:19:30.000Z</time>
      </trkpt>
      <trkpt lat="43.39983" lon="-1.46435">
        <ele>53</ele>
        <time>2026-07-12T19:19:31.000Z</time>
      </trkpt>
      <trkpt lat="43.39984" lon="-1.46436">
        <ele>53</ele>
        <time>2026-07-12T19:19:31.000Z</time>
      </trkpt>
      <trkpt lat="43.39985" lon="-1.46437">
        <ele>53</ele>
        <time>2026-07-12T19:19:31.000Z</time>
      </trkpt>
      <trkpt lat="43.39986" lon="-1.46439">
        <ele>53</ele>
        <time>2026-07-12T19:19:32.000Z</time>
      </trkpt>
      <trkpt lat="43.39987" lon="-1.4644">
        <ele>53</ele>
        <time>2026-07-12T19:19:32.000Z</time>
      </trkpt>
      <trkpt lat="43.39988" lon="-1.46442">
        <ele>53</ele>
        <time>2026-07-12T19:19:32.000Z</time>
      </trkpt>
      <trkpt lat="43.39991" lon="-1.46448">
        <ele>52</ele>
        <time>2026-07-12T19:19:33.000Z</time>
      </trkpt>
      <trkpt lat="43.39992" lon="-1.46452">
        <ele>52</ele>
        <time>2026-07-12T19:19:34.000Z</time>
      </trkpt>
      <trkpt lat="43.39992" lon="-1.46456">
        <ele>52</ele>
        <time>2026-07-12T19:19:34.000Z</time>
      </trkpt>
      <trkpt lat="43.39993" lon="-1.46461">
        <ele>52</ele>
        <time>2026-07-12T19:19:35.000Z</time>
      </trkpt>
      <trkpt lat="43.39993" lon="-1.46465">
        <ele>52</ele>
        <time>2026-07-12T19:19:35.000Z</time>
      </trkpt>
      <trkpt lat="43.39992" lon="-1.46469">
        <ele>52</ele>
        <time>2026-07-12T19:19:36.000Z</time>
      </trkpt>
      <trkpt lat="43.39992" lon="-1.46474">
        <ele>52</ele>
        <time>2026-07-12T19:19:36.000Z</time>
      </trkpt>
      <trkpt lat="43.3999" lon="-1.46478">
        <ele>52</ele>
        <time>2026-07-12T19:19:37.000Z</time>
      </trkpt>
      <trkpt lat="43.39989" lon="-1.46481">
        <ele>52</ele>
        <time>2026-07-12T19:19:38.000Z</time>
      </trkpt>
      <trkpt lat="43.39987" lon="-1.46485">
        <ele>52</ele>
        <time>2026-07-12T19:19:38.000Z</time>
      </trkpt>
      <trkpt lat="43.39985" lon="-1.46488">
        <ele>52</ele>
        <time>2026-07-12T19:19:39.000Z</time>
      </trkpt>
      <trkpt lat="43.39983" lon="-1.46491">
        <ele>52</ele>
        <time>2026-07-12T19:19:39.000Z</time>
      </trkpt>
      <trkpt lat="43.39979" lon="-1.46495">
        <ele>52</ele>
        <time>2026-07-12T19:19:40.000Z</time>
      </trkpt>
      <trkpt lat="43.39976" lon="-1.46496">
        <ele>51</ele>
        <time>2026-07-12T19:19:41.000Z</time>
      </trkpt>
      <trkpt lat="43.39973" lon="-1.46498">
        <ele>51</ele>
        <time>2026-07-12T19:19:41.000Z</time>
      </trkpt>
      <trkpt lat="43.3997" lon="-1.46499">
        <ele>51</ele>
        <time>2026-07-12T19:19:42.000Z</time>
      </trkpt>
      <trkpt lat="43.39967" lon="-1.46499">
        <ele>51</ele>
        <time>2026-07-12T19:19:42.000Z</time>
      </trkpt>
      <trkpt lat="43.39964" lon="-1.46499">
        <ele>51</ele>
        <time>2026-07-12T19:19:43.000Z</time>
      </trkpt>
      <trkpt lat="43.39961" lon="-1.46498">
        <ele>51</ele>
        <time>2026-07-12T19:19:43.000Z</time>
      </trkpt>
      <trkpt lat="43.39957" lon="-1.46497">
        <ele>51</ele>
        <time>2026-07-12T19:19:44.000Z</time>
      </trkpt>
      <trkpt lat="43.39955" lon="-1.46495">
        <ele>51</ele>
        <time>2026-07-12T19:19:45.000Z</time>
      </trkpt>
      <trkpt lat="43.39952" lon="-1.46493">
        <ele>51</ele>
        <time>2026-07-12T19:19:45.000Z</time>
      </trkpt>
      <trkpt lat="43.39949" lon="-1.46491">
        <ele>51</ele>
        <time>2026-07-12T19:19:46.000Z</time>
      </trkpt>
      <trkpt lat="43.3994" lon="-1.4649">
        <ele>51</ele>
        <time>2026-07-12T19:19:47.000Z</time>
      </trkpt>
      <trkpt lat="43.39934" lon="-1.4649">
        <ele>51</ele>
        <time>2026-07-12T19:19:48.000Z</time>
      </trkpt>
      <trkpt lat="43.3993" lon="-1.46492">
        <ele>50</ele>
        <time>2026-07-12T19:19:49.000Z</time>
      </trkpt>
      <trkpt lat="43.39912" lon="-1.46501">
        <ele>50</ele>
        <time>2026-07-12T19:19:53.000Z</time>
      </trkpt>
      <trkpt lat="43.39879" lon="-1.46519">
        <ele>50</ele>
        <time>2026-07-12T19:19:59.000Z</time>
      </trkpt>
      <trkpt lat="43.39865" lon="-1.46526">
        <ele>50</ele>
        <time>2026-07-12T19:20:02.000Z</time>
      </trkpt>
      <trkpt lat="43.39843" lon="-1.46534">
        <ele>51</ele>
        <time>2026-07-12T19:20:06.000Z</time>
      </trkpt>
      <trkpt lat="43.39835" lon="-1.46537">
        <ele>52</ele>
        <time>2026-07-12T19:20:07.000Z</time>
      </trkpt>
      <trkpt lat="43.39823" lon="-1.4654">
        <ele>51</ele>
        <time>2026-07-12T19:20:09.000Z</time>
      </trkpt>
      <trkpt lat="43.39815" lon="-1.46541">
        <ele>51</ele>
        <time>2026-07-12T19:20:11.000Z</time>
      </trkpt>
      <trkpt lat="43.39809" lon="-1.46542">
        <ele>51</ele>
        <time>2026-07-12T19:20:12.000Z</time>
      </trkpt>
      <trkpt lat="43.39802" lon="-1.46542">
        <ele>51</ele>
        <time>2026-07-12T19:20:13.000Z</time>
      </trkpt>
      <trkpt lat="43.39785" lon="-1.46543">
        <ele>50</ele>
        <time>2026-07-12T19:20:16.000Z</time>
      </trkpt>
      <trkpt lat="43.39764" lon="-1.46541">
        <ele>50</ele>
        <time>2026-07-12T19:20:20.000Z</time>
      </trkpt>
      <trkpt lat="43.39746" lon="-1.46537">
        <ele>49</ele>
        <time>2026-07-12T19:20:23.000Z</time>
      </trkpt>
      <trkpt lat="43.39725" lon="-1.46531">
        <ele>49</ele>
        <time>2026-07-12T19:20:27.000Z</time>
      </trkpt>
      <trkpt lat="43.39722" lon="-1.46529">
        <ele>48</ele>
        <time>2026-07-12T19:20:27.000Z</time>
      </trkpt>
      <trkpt lat="43.39718" lon="-1.46528">
        <ele>48</ele>
        <time>2026-07-12T19:20:28.000Z</time>
      </trkpt>
      <trkpt lat="43.39715" lon="-1.46526">
        <ele>48</ele>
        <time>2026-07-12T19:20:29.000Z</time>
      </trkpt>
      <trkpt lat="43.39695" lon="-1.46516">
        <ele>48</ele>
        <time>2026-07-12T19:20:33.000Z</time>
      </trkpt>
      <trkpt lat="43.39684" lon="-1.46509">
        <ele>47</ele>
        <time>2026-07-12T19:20:35.000Z</time>
      </trkpt>
      <trkpt lat="43.39679" lon="-1.46505">
        <ele>47</ele>
        <time>2026-07-12T19:20:36.000Z</time>
      </trkpt>
      <trkpt lat="43.39674" lon="-1.46502">
        <ele>47</ele>
        <time>2026-07-12T19:20:37.000Z</time>
      </trkpt>
      <trkpt lat="43.39666" lon="-1.46496">
        <ele>47</ele>
        <time>2026-07-12T19:20:38.000Z</time>
      </trkpt>
      <trkpt lat="43.39664" lon="-1.46492">
        <ele>47</ele>
        <time>2026-07-12T19:20:39.000Z</time>
      </trkpt>
      <trkpt lat="43.39659" lon="-1.46488">
        <ele>47</ele>
        <time>2026-07-12T19:20:40.000Z</time>
      </trkpt>
      <trkpt lat="43.39638" lon="-1.46466">
        <ele>47</ele>
        <time>2026-07-12T19:20:45.000Z</time>
      </trkpt>
      <trkpt lat="43.39602" lon="-1.46424">
        <ele>47</ele>
        <time>2026-07-12T19:20:53.000Z</time>
      </trkpt>
      <trkpt lat="43.39559" lon="-1.4637">
        <ele>48</ele>
        <time>2026-07-12T19:21:03.000Z</time>
      </trkpt>
      <trkpt lat="43.39519" lon="-1.46323">
        <ele>49</ele>
        <time>2026-07-12T19:21:13.000Z</time>
      </trkpt>
      <trkpt lat="43.39494" lon="-1.46292">
        <ele>50</ele>
        <time>2026-07-12T19:21:19.000Z</time>
      </trkpt>
      <trkpt lat="43.39482" lon="-1.46276">
        <ele>50</ele>
        <time>2026-07-12T19:21:22.000Z</time>
      </trkpt>
      <trkpt lat="43.39464" lon="-1.46252">
        <ele>49</ele>
        <time>2026-07-12T19:21:26.000Z</time>
      </trkpt>
      <trkpt lat="43.39445" lon="-1.46226">
        <ele>49</ele>
        <time>2026-07-12T19:21:31.000Z</time>
      </trkpt>
      <trkpt lat="43.39425" lon="-1.46195">
        <ele>50</ele>
        <time>2026-07-12T19:21:36.000Z</time>
      </trkpt>
      <trkpt lat="43.39408" lon="-1.46167">
        <ele>51</ele>
        <time>2026-07-12T19:21:41.000Z</time>
      </trkpt>
      <trkpt lat="43.39386" lon="-1.4613">
        <ele>51</ele>
        <time>2026-07-12T19:21:47.000Z</time>
      </trkpt>
      <trkpt lat="43.39373" lon="-1.46108">
        <ele>52</ele>
        <time>2026-07-12T19:21:51.000Z</time>
      </trkpt>
      <trkpt lat="43.39372" lon="-1.46107">
        <ele>52</ele>
        <time>2026-07-12T19:21:51.000Z</time>
      </trkpt>
      <trkpt lat="43.39367" lon="-1.46102">
        <ele>53</ele>
        <time>2026-07-12T19:21:52.000Z</time>
      </trkpt>
      <trkpt lat="43.39354" lon="-1.46084">
        <ele>54</ele>
        <time>2026-07-12T19:21:55.000Z</time>
      </trkpt>
      <trkpt lat="43.3934" lon="-1.46065">
        <ele>54</ele>
        <time>2026-07-12T19:21:59.000Z</time>
      </trkpt>
      <trkpt lat="43.39327" lon="-1.46047">
        <ele>53</ele>
        <time>2026-07-12T19:22:02.000Z</time>
      </trkpt>
      <trkpt lat="43.39275" lon="-1.4598">
        <ele>53</ele>
        <time>2026-07-12T19:22:15.000Z</time>
      </trkpt>
      <trkpt lat="43.39265" lon="-1.45968">
        <ele>53</ele>
        <time>2026-07-12T19:22:17.000Z</time>
      </trkpt>
      <trkpt lat="43.39252" lon="-1.45953">
        <ele>54</ele>
        <time>2026-07-12T19:22:20.000Z</time>
      </trkpt>
      <trkpt lat="43.39246" lon="-1.45946">
        <ele>54</ele>
        <time>2026-07-12T19:22:22.000Z</time>
      </trkpt>
      <trkpt lat="43.39237" lon="-1.45939">
        <ele>55</ele>
        <time>2026-07-12T19:22:24.000Z</time>
      </trkpt>
      <trkpt lat="43.39237" lon="-1.45939">
        <ele>55</ele>
        <time>2026-07-12T19:22:24.000Z</time>
      </trkpt>
      <trkpt lat="43.39235" lon="-1.45943">
        <ele>55</ele>
        <time>2026-07-12T19:22:24.000Z</time>
      </trkpt>
      <trkpt lat="43.39234" lon="-1.45944">
        <ele>55</ele>
        <time>2026-07-12T19:22:24.000Z</time>
      </trkpt>
      <trkpt lat="43.39233" lon="-1.45946">
        <ele>54</ele>
        <time>2026-07-12T19:22:25.000Z</time>
      </trkpt>
      <trkpt lat="43.39232" lon="-1.45946">
        <ele>54</ele>
        <time>2026-07-12T19:22:25.000Z</time>
      </trkpt>
      <trkpt lat="43.3923" lon="-1.45947">
        <ele>54</ele>
        <time>2026-07-12T19:22:25.000Z</time>
      </trkpt>
      <trkpt lat="43.39161" lon="-1.4595">
        <ele>55</ele>
        <time>2026-07-12T19:22:38.000Z</time>
      </trkpt>
      <trkpt lat="43.39148" lon="-1.45952">
        <ele>56</ele>
        <time>2026-07-12T19:22:40.000Z</time>
      </trkpt>
      <trkpt lat="43.39136" lon="-1.45955">
        <ele>57</ele>
        <time>2026-07-12T19:22:42.000Z</time>
      </trkpt>
      <trkpt lat="43.39126" lon="-1.45959">
        <ele>57</ele>
        <time>2026-07-12T19:22:44.000Z</time>
      </trkpt>
      <trkpt lat="43.39117" lon="-1.45966">
        <ele>57</ele>
        <time>2026-07-12T19:22:46.000Z</time>
      </trkpt>
      <trkpt lat="43.39106" lon="-1.45977">
        <ele>57</ele>
        <time>2026-07-12T19:22:48.000Z</time>
      </trkpt>
      <trkpt lat="43.3909" lon="-1.45996">
        <ele>57</ele>
        <time>2026-07-12T19:22:52.000Z</time>
      </trkpt>
      <trkpt lat="43.39074" lon="-1.46021">
        <ele>56</ele>
        <time>2026-07-12T19:22:56.000Z</time>
      </trkpt>
      <trkpt lat="43.39055" lon="-1.4605">
        <ele>55</ele>
        <time>2026-07-12T19:23:01.000Z</time>
      </trkpt>
      <trkpt lat="43.39031" lon="-1.46087">
        <ele>57</ele>
        <time>2026-07-12T19:23:08.000Z</time>
      </trkpt>
      <trkpt lat="43.39022" lon="-1.46103">
        <ele>57</ele>
        <time>2026-07-12T19:23:10.000Z</time>
      </trkpt>
      <trkpt lat="43.3901" lon="-1.46129">
        <ele>55</ele>
        <time>2026-07-12T19:23:14.000Z</time>
      </trkpt>
      <trkpt lat="43.39" lon="-1.46148">
        <ele>54</ele>
        <time>2026-07-12T19:23:17.000Z</time>
      </trkpt>
      <trkpt lat="43.38989" lon="-1.46168">
        <ele>52</ele>
        <time>2026-07-12T19:23:21.000Z</time>
      </trkpt>
      <trkpt lat="43.38976" lon="-1.46185">
        <ele>52</ele>
        <time>2026-07-12T19:23:24.000Z</time>
      </trkpt>
      <trkpt lat="43.38961" lon="-1.46202">
        <ele>51</ele>
        <time>2026-07-12T19:23:27.000Z</time>
      </trkpt>
      <trkpt lat="43.38937" lon="-1.46226">
        <ele>51</ele>
        <time>2026-07-12T19:23:33.000Z</time>
      </trkpt>
      <trkpt lat="43.38919" lon="-1.46241">
        <ele>50</ele>
        <time>2026-07-12T19:23:36.000Z</time>
      </trkpt>
      <trkpt lat="43.38885" lon="-1.46265">
        <ele>49</ele>
        <time>2026-07-12T19:23:43.000Z</time>
      </trkpt>
      <trkpt lat="43.38869" lon="-1.46275">
        <ele>49</ele>
        <time>2026-07-12T19:23:46.000Z</time>
      </trkpt>
      <trkpt lat="43.38855" lon="-1.46282">
        <ele>49</ele>
        <time>2026-07-12T19:23:49.000Z</time>
      </trkpt>
      <trkpt lat="43.38809" lon="-1.46301">
        <ele>48</ele>
        <time>2026-07-12T19:23:57.000Z</time>
      </trkpt>
      <trkpt lat="43.38766" lon="-1.46322">
        <ele>46</ele>
        <time>2026-07-12T19:24:06.000Z</time>
      </trkpt>
      <trkpt lat="43.38762" lon="-1.46324">
        <ele>46</ele>
        <time>2026-07-12T19:24:06.000Z</time>
      </trkpt>
      <trkpt lat="43.38757" lon="-1.46326">
        <ele>46</ele>
        <time>2026-07-12T19:24:07.000Z</time>
      </trkpt>
      <trkpt lat="43.38754" lon="-1.46327">
        <ele>46</ele>
        <time>2026-07-12T19:24:08.000Z</time>
      </trkpt>
      <trkpt lat="43.38751" lon="-1.46328">
        <ele>46</ele>
        <time>2026-07-12T19:24:08.000Z</time>
      </trkpt>
      <trkpt lat="43.38747" lon="-1.46329">
        <ele>45</ele>
        <time>2026-07-12T19:24:09.000Z</time>
      </trkpt>
      <trkpt lat="43.38743" lon="-1.46329">
        <ele>45</ele>
        <time>2026-07-12T19:24:10.000Z</time>
      </trkpt>
      <trkpt lat="43.3874" lon="-1.46328">
        <ele>45</ele>
        <time>2026-07-12T19:24:10.000Z</time>
      </trkpt>
      <trkpt lat="43.38736" lon="-1.46326">
        <ele>44</ele>
        <time>2026-07-12T19:24:11.000Z</time>
      </trkpt>
      <trkpt lat="43.3873" lon="-1.46322">
        <ele>44</ele>
        <time>2026-07-12T19:24:12.000Z</time>
      </trkpt>
      <trkpt lat="43.38722" lon="-1.46315">
        <ele>44</ele>
        <time>2026-07-12T19:24:14.000Z</time>
      </trkpt>
      <trkpt lat="43.38711" lon="-1.46305">
        <ele>44</ele>
        <time>2026-07-12T19:24:16.000Z</time>
      </trkpt>
      <trkpt lat="43.38704" lon="-1.463">
        <ele>44</ele>
        <time>2026-07-12T19:24:18.000Z</time>
      </trkpt>
      <trkpt lat="43.38699" lon="-1.46295">
        <ele>44</ele>
        <time>2026-07-12T19:24:19.000Z</time>
      </trkpt>
      <trkpt lat="43.38691" lon="-1.46289">
        <ele>44</ele>
        <time>2026-07-12T19:24:20.000Z</time>
      </trkpt>
      <trkpt lat="43.38679" lon="-1.46283">
        <ele>44</ele>
        <time>2026-07-12T19:24:23.000Z</time>
      </trkpt>
      <trkpt lat="43.38667" lon="-1.46278">
        <ele>44</ele>
        <time>2026-07-12T19:24:25.000Z</time>
      </trkpt>
      <trkpt lat="43.3866" lon="-1.46276">
        <ele>44</ele>
        <time>2026-07-12T19:24:26.000Z</time>
      </trkpt>
      <trkpt lat="43.38654" lon="-1.46274">
        <ele>44</ele>
        <time>2026-07-12T19:24:27.000Z</time>
      </trkpt>
      <trkpt lat="43.38648" lon="-1.46274">
        <ele>44</ele>
        <time>2026-07-12T19:24:28.000Z</time>
      </trkpt>
      <trkpt lat="43.38641" lon="-1.46274">
        <ele>43</ele>
        <time>2026-07-12T19:24:30.000Z</time>
      </trkpt>
      <trkpt lat="43.38633" lon="-1.46274">
        <ele>43</ele>
        <time>2026-07-12T19:24:31.000Z</time>
      </trkpt>
      <trkpt lat="43.38627" lon="-1.46276">
        <ele>43</ele>
        <time>2026-07-12T19:24:32.000Z</time>
      </trkpt>
      <trkpt lat="43.3862" lon="-1.46278">
        <ele>42</ele>
        <time>2026-07-12T19:24:33.000Z</time>
      </trkpt>
      <trkpt lat="43.38613" lon="-1.46282">
        <ele>41</ele>
        <time>2026-07-12T19:24:35.000Z</time>
      </trkpt>
      <trkpt lat="43.38608" lon="-1.46285">
        <ele>41</ele>
        <time>2026-07-12T19:24:36.000Z</time>
      </trkpt>
      <trkpt lat="43.386" lon="-1.46292">
        <ele>40</ele>
        <time>2026-07-12T19:24:37.000Z</time>
      </trkpt>
      <trkpt lat="43.38592" lon="-1.463">
        <ele>39</ele>
        <time>2026-07-12T19:24:39.000Z</time>
      </trkpt>
      <trkpt lat="43.38587" lon="-1.46306">
        <ele>38</ele>
        <time>2026-07-12T19:24:40.000Z</time>
      </trkpt>
      <trkpt lat="43.38554" lon="-1.46354">
        <ele>35</ele>
        <time>2026-07-12T19:24:49.000Z</time>
      </trkpt>
      <trkpt lat="43.38549" lon="-1.4636">
        <ele>35</ele>
        <time>2026-07-12T19:24:50.000Z</time>
      </trkpt>
      <trkpt lat="43.38545" lon="-1.46365">
        <ele>35</ele>
        <time>2026-07-12T19:24:51.000Z</time>
      </trkpt>
      <trkpt lat="43.3854" lon="-1.46368">
        <ele>34</ele>
        <time>2026-07-12T19:24:52.000Z</time>
      </trkpt>
      <trkpt lat="43.38536" lon="-1.4637">
        <ele>34</ele>
        <time>2026-07-12T19:24:53.000Z</time>
      </trkpt>
      <trkpt lat="43.38531" lon="-1.46372">
        <ele>34</ele>
        <time>2026-07-12T19:24:54.000Z</time>
      </trkpt>
      <trkpt lat="43.38524" lon="-1.46373">
        <ele>34</ele>
        <time>2026-07-12T19:24:55.000Z</time>
      </trkpt>
      <trkpt lat="43.38519" lon="-1.46374">
        <ele>34</ele>
        <time>2026-07-12T19:24:56.000Z</time>
      </trkpt>
      <trkpt lat="43.38514" lon="-1.46374">
        <ele>34</ele>
        <time>2026-07-12T19:24:57.000Z</time>
      </trkpt>
      <trkpt lat="43.38508" lon="-1.46373">
        <ele>34</ele>
        <time>2026-07-12T19:24:58.000Z</time>
      </trkpt>
      <trkpt lat="43.385" lon="-1.46371">
        <ele>34</ele>
        <time>2026-07-12T19:24:59.000Z</time>
      </trkpt>
      <trkpt lat="43.38488" lon="-1.4637">
        <ele>34</ele>
        <time>2026-07-12T19:25:01.000Z</time>
      </trkpt>
      <trkpt lat="43.38479" lon="-1.4637">
        <ele>35</ele>
        <time>2026-07-12T19:25:03.000Z</time>
      </trkpt>
      <trkpt lat="43.38475" lon="-1.46371">
        <ele>35</ele>
        <time>2026-07-12T19:25:04.000Z</time>
      </trkpt>
      <trkpt lat="43.38471" lon="-1.46371">
        <ele>36</ele>
        <time>2026-07-12T19:25:04.000Z</time>
      </trkpt>
      <trkpt lat="43.38468" lon="-1.46372">
        <ele>36</ele>
        <time>2026-07-12T19:25:05.000Z</time>
      </trkpt>
      <trkpt lat="43.38463" lon="-1.46374">
        <ele>36</ele>
        <time>2026-07-12T19:25:06.000Z</time>
      </trkpt>
      <trkpt lat="43.38459" lon="-1.46377">
        <ele>36</ele>
        <time>2026-07-12T19:25:07.000Z</time>
      </trkpt>
      <trkpt lat="43.38448" lon="-1.46386">
        <ele>37</ele>
        <time>2026-07-12T19:25:09.000Z</time>
      </trkpt>
      <trkpt lat="43.38427" lon="-1.46404">
        <ele>37</ele>
        <time>2026-07-12T19:25:13.000Z</time>
      </trkpt>
      <trkpt lat="43.3842" lon="-1.46413">
        <ele>37</ele>
        <time>2026-07-12T19:25:15.000Z</time>
      </trkpt>
      <trkpt lat="43.38414" lon="-1.46422">
        <ele>37</ele>
        <time>2026-07-12T19:25:17.000Z</time>
      </trkpt>
      <trkpt lat="43.38414" lon="-1.46424">
        <ele>38</ele>
        <time>2026-07-12T19:25:17.000Z</time>
      </trkpt>
      <trkpt lat="43.38413" lon="-1.46425">
        <ele>38</ele>
        <time>2026-07-12T19:25:17.000Z</time>
      </trkpt>
      <trkpt lat="43.38413" lon="-1.46427">
        <ele>38</ele>
        <time>2026-07-12T19:25:17.000Z</time>
      </trkpt>
      <trkpt lat="43.38412" lon="-1.46428">
        <ele>38</ele>
        <time>2026-07-12T19:25:18.000Z</time>
      </trkpt>
      <trkpt lat="43.38411" lon="-1.4643">
        <ele>38</ele>
        <time>2026-07-12T19:25:18.000Z</time>
      </trkpt>
      <trkpt lat="43.3841" lon="-1.46432">
        <ele>38</ele>
        <time>2026-07-12T19:25:18.000Z</time>
      </trkpt>
      <trkpt lat="43.38409" lon="-1.46433">
        <ele>38</ele>
        <time>2026-07-12T19:25:18.000Z</time>
      </trkpt>
      <trkpt lat="43.38408" lon="-1.46434">
        <ele>38</ele>
        <time>2026-07-12T19:25:19.000Z</time>
      </trkpt>
      <trkpt lat="43.38407" lon="-1.46435">
        <ele>38</ele>
        <time>2026-07-12T19:25:19.000Z</time>
      </trkpt>
      <trkpt lat="43.38405" lon="-1.46436">
        <ele>39</ele>
        <time>2026-07-12T19:25:19.000Z</time>
      </trkpt>
      <trkpt lat="43.38404" lon="-1.46436">
        <ele>39</ele>
        <time>2026-07-12T19:25:19.000Z</time>
      </trkpt>
      <trkpt lat="43.38403" lon="-1.46437">
        <ele>39</ele>
        <time>2026-07-12T19:25:20.000Z</time>
      </trkpt>
      <trkpt lat="43.38401" lon="-1.46436">
        <ele>39</ele>
        <time>2026-07-12T19:25:20.000Z</time>
      </trkpt>
      <trkpt lat="43.38388" lon="-1.46449">
        <ele>40</ele>
        <time>2026-07-12T19:25:23.000Z</time>
      </trkpt>
      <trkpt lat="43.38383" lon="-1.46455">
        <ele>40</ele>
        <time>2026-07-12T19:25:24.000Z</time>
      </trkpt>
      <trkpt lat="43.38375" lon="-1.46472">
        <ele>41</ele>
        <time>2026-07-12T19:25:27.000Z</time>
      </trkpt>
      <trkpt lat="43.38371" lon="-1.46481">
        <ele>41</ele>
        <time>2026-07-12T19:25:28.000Z</time>
      </trkpt>
      <trkpt lat="43.38369" lon="-1.46487">
        <ele>41</ele>
        <time>2026-07-12T19:25:29.000Z</time>
      </trkpt>
      <trkpt lat="43.38363" lon="-1.46509">
        <ele>41</ele>
        <time>2026-07-12T19:25:32.000Z</time>
      </trkpt>
      <trkpt lat="43.38359" lon="-1.46523">
        <ele>42</ele>
        <time>2026-07-12T19:25:34.000Z</time>
      </trkpt>
      <trkpt lat="43.38357" lon="-1.46534">
        <ele>43</ele>
        <time>2026-07-12T19:25:35.000Z</time>
      </trkpt>
      <trkpt lat="43.38356" lon="-1.46543">
        <ele>43</ele>
        <time>2026-07-12T19:25:37.000Z</time>
      </trkpt>
      <trkpt lat="43.38355" lon="-1.46551">
        <ele>43</ele>
        <time>2026-07-12T19:25:38.000Z</time>
      </trkpt>
      <trkpt lat="43.38354" lon="-1.46558">
        <ele>44</ele>
        <time>2026-07-12T19:25:39.000Z</time>
      </trkpt>
      <trkpt lat="43.38354" lon="-1.46566">
        <ele>44</ele>
        <time>2026-07-12T19:25:40.000Z</time>
      </trkpt>
      <trkpt lat="43.38356" lon="-1.46621">
        <ele>45</ele>
        <time>2026-07-12T19:25:47.000Z</time>
      </trkpt>
      <trkpt lat="43.38356" lon="-1.46633">
        <ele>45</ele>
        <time>2026-07-12T19:25:48.000Z</time>
      </trkpt>
      <trkpt lat="43.38357" lon="-1.4664">
        <ele>45</ele>
        <time>2026-07-12T19:25:49.000Z</time>
      </trkpt>
      <trkpt lat="43.38358" lon="-1.46646">
        <ele>45</ele>
        <time>2026-07-12T19:25:50.000Z</time>
      </trkpt>
      <trkpt lat="43.38359" lon="-1.46652">
        <ele>45</ele>
        <time>2026-07-12T19:25:51.000Z</time>
      </trkpt>
      <trkpt lat="43.38361" lon="-1.46658">
        <ele>46</ele>
        <time>2026-07-12T19:25:52.000Z</time>
      </trkpt>
      <trkpt lat="43.38364" lon="-1.46664">
        <ele>46</ele>
        <time>2026-07-12T19:25:53.000Z</time>
      </trkpt>
      <trkpt lat="43.38367" lon="-1.46671">
        <ele>46</ele>
        <time>2026-07-12T19:25:54.000Z</time>
      </trkpt>
      <trkpt lat="43.38375" lon="-1.46685">
        <ele>47</ele>
        <time>2026-07-12T19:25:56.000Z</time>
      </trkpt>
      <trkpt lat="43.38444" lon="-1.46802">
        <ele>52</ele>
        <time>2026-07-12T19:26:15.000Z</time>
      </trkpt>
      <trkpt lat="43.38464" lon="-1.46838">
        <ele>53</ele>
        <time>2026-07-12T19:26:21.000Z</time>
      </trkpt>
      <trkpt lat="43.38474" lon="-1.46856">
        <ele>54</ele>
        <time>2026-07-12T19:26:24.000Z</time>
      </trkpt>
      <trkpt lat="43.38484" lon="-1.46875">
        <ele>56</ele>
        <time>2026-07-12T19:26:27.000Z</time>
      </trkpt>
      <trkpt lat="43.38493" lon="-1.46896">
        <ele>57</ele>
        <time>2026-07-12T19:26:30.000Z</time>
      </trkpt>
      <trkpt lat="43.38529" lon="-1.4698">
        <ele>65</ele>
        <time>2026-07-12T19:26:43.000Z</time>
      </trkpt>
      <trkpt lat="43.38537" lon="-1.46998">
        <ele>68</ele>
        <time>2026-07-12T19:26:46.000Z</time>
      </trkpt>
      <trkpt lat="43.38544" lon="-1.47015">
        <ele>69</ele>
        <time>2026-07-12T19:26:48.000Z</time>
      </trkpt>
      <trkpt lat="43.3855" lon="-1.47032">
        <ele>70</ele>
        <time>2026-07-12T19:26:51.000Z</time>
      </trkpt>
      <trkpt lat="43.38554" lon="-1.47045">
        <ele>70</ele>
        <time>2026-07-12T19:26:52.000Z</time>
      </trkpt>
      <trkpt lat="43.3857" lon="-1.47104">
        <ele>72</ele>
        <time>2026-07-12T19:27:01.000Z</time>
      </trkpt>
      <trkpt lat="43.38578" lon="-1.47136">
        <ele>74</ele>
        <time>2026-07-12T19:27:05.000Z</time>
      </trkpt>
      <trkpt lat="43.3858" lon="-1.47143">
        <ele>75</ele>
        <time>2026-07-12T19:27:06.000Z</time>
      </trkpt>
      <trkpt lat="43.3858" lon="-1.47149">
        <ele>75</ele>
        <time>2026-07-12T19:27:07.000Z</time>
      </trkpt>
      <trkpt lat="43.38581" lon="-1.47155">
        <ele>75</ele>
        <time>2026-07-12T19:27:08.000Z</time>
      </trkpt>
      <trkpt lat="43.3858" lon="-1.47161">
        <ele>75</ele>
        <time>2026-07-12T19:27:08.000Z</time>
      </trkpt>
      <trkpt lat="43.38579" lon="-1.47167">
        <ele>76</ele>
        <time>2026-07-12T19:27:09.000Z</time>
      </trkpt>
      <trkpt lat="43.38578" lon="-1.47171">
        <ele>76</ele>
        <time>2026-07-12T19:27:10.000Z</time>
      </trkpt>
      <trkpt lat="43.38575" lon="-1.47176">
        <ele>76</ele>
        <time>2026-07-12T19:27:11.000Z</time>
      </trkpt>
      <trkpt lat="43.38572" lon="-1.47179">
        <ele>76</ele>
        <time>2026-07-12T19:27:11.000Z</time>
      </trkpt>
      <trkpt lat="43.38554" lon="-1.47197">
        <ele>76</ele>
        <time>2026-07-12T19:27:15.000Z</time>
      </trkpt>
      <trkpt lat="43.38546" lon="-1.47205">
        <ele>76</ele>
        <time>2026-07-12T19:27:17.000Z</time>
      </trkpt>
      <trkpt lat="43.38542" lon="-1.47208">
        <ele>76</ele>
        <time>2026-07-12T19:27:18.000Z</time>
      </trkpt>
      <trkpt lat="43.38539" lon="-1.47213">
        <ele>76</ele>
        <time>2026-07-12T19:27:19.000Z</time>
      </trkpt>
      <trkpt lat="43.38537" lon="-1.47217">
        <ele>76</ele>
        <time>2026-07-12T19:27:19.000Z</time>
      </trkpt>
      <trkpt lat="43.38535" lon="-1.4722">
        <ele>76</ele>
        <time>2026-07-12T19:27:20.000Z</time>
      </trkpt>
      <trkpt lat="43.38534" lon="-1.47225">
        <ele>77</ele>
        <time>2026-07-12T19:27:20.000Z</time>
      </trkpt>
      <trkpt lat="43.38533" lon="-1.47231">
        <ele>77</ele>
        <time>2026-07-12T19:27:21.000Z</time>
      </trkpt>
      <trkpt lat="43.38533" lon="-1.47236">
        <ele>78</ele>
        <time>2026-07-12T19:27:22.000Z</time>
      </trkpt>
      <trkpt lat="43.38533" lon="-1.47242">
        <ele>78</ele>
        <time>2026-07-12T19:27:23.000Z</time>
      </trkpt>
      <trkpt lat="43.38533" lon="-1.47248">
        <ele>79</ele>
        <time>2026-07-12T19:27:23.000Z</time>
      </trkpt>
      <trkpt lat="43.38534" lon="-1.47254">
        <ele>79</ele>
        <time>2026-07-12T19:27:24.000Z</time>
      </trkpt>
      <trkpt lat="43.38536" lon="-1.47263">
        <ele>80</ele>
        <time>2026-07-12T19:27:25.000Z</time>
      </trkpt>
      <trkpt lat="43.38539" lon="-1.47274">
        <ele>81</ele>
        <time>2026-07-12T19:27:27.000Z</time>
      </trkpt>
      <trkpt lat="43.38572" lon="-1.47399">
        <ele>86</ele>
        <time>2026-07-12T19:27:44.000Z</time>
      </trkpt>
      <trkpt lat="43.38581" lon="-1.47432">
        <ele>87</ele>
        <time>2026-07-12T19:27:49.000Z</time>
      </trkpt>
      <trkpt lat="43.38583" lon="-1.4744">
        <ele>87</ele>
        <time>2026-07-12T19:27:50.000Z</time>
      </trkpt>
      <trkpt lat="43.38584" lon="-1.47448">
        <ele>87</ele>
        <time>2026-07-12T19:27:51.000Z</time>
      </trkpt>
      <trkpt lat="43.38584" lon="-1.47454">
        <ele>86</ele>
        <time>2026-07-12T19:27:52.000Z</time>
      </trkpt>
      <trkpt lat="43.38585" lon="-1.47463">
        <ele>86</ele>
        <time>2026-07-12T19:27:53.000Z</time>
      </trkpt>
      <trkpt lat="43.38585" lon="-1.47474">
        <ele>86</ele>
        <time>2026-07-12T19:27:54.000Z</time>
      </trkpt>
      <trkpt lat="43.38584" lon="-1.47487">
        <ele>86</ele>
        <time>2026-07-12T19:27:56.000Z</time>
      </trkpt>
      <trkpt lat="43.38582" lon="-1.47506">
        <ele>86</ele>
        <time>2026-07-12T19:27:58.000Z</time>
      </trkpt>
      <trkpt lat="43.3858" lon="-1.47525">
        <ele>87</ele>
        <time>2026-07-12T19:28:01.000Z</time>
      </trkpt>
      <trkpt lat="43.38577" lon="-1.47554">
        <ele>88</ele>
        <time>2026-07-12T19:28:05.000Z</time>
      </trkpt>
      <trkpt lat="43.38576" lon="-1.47567">
        <ele>88</ele>
        <time>2026-07-12T19:28:06.000Z</time>
      </trkpt>
      <trkpt lat="43.38576" lon="-1.47579">
        <ele>89</ele>
        <time>2026-07-12T19:28:08.000Z</time>
      </trkpt>
      <trkpt lat="43.38576" lon="-1.47591">
        <ele>89</ele>
        <time>2026-07-12T19:28:09.000Z</time>
      </trkpt>
      <trkpt lat="43.38576" lon="-1.47603">
        <ele>89</ele>
        <time>2026-07-12T19:28:11.000Z</time>
      </trkpt>
      <trkpt lat="43.38577" lon="-1.47614">
        <ele>90</ele>
        <time>2026-07-12T19:28:12.000Z</time>
      </trkpt>
      <trkpt lat="43.38579" lon="-1.47627">
        <ele>90</ele>
        <time>2026-07-12T19:28:14.000Z</time>
      </trkpt>
      <trkpt lat="43.38582" lon="-1.47651">
        <ele>91</ele>
        <time>2026-07-12T19:28:17.000Z</time>
      </trkpt>
      <trkpt lat="43.38592" lon="-1.47705">
        <ele>92</ele>
        <time>2026-07-12T19:28:24.000Z</time>
      </trkpt>
      <trkpt lat="43.38594" lon="-1.47713">
        <ele>92</ele>
        <time>2026-07-12T19:28:26.000Z</time>
      </trkpt>
      <trkpt lat="43.38596" lon="-1.47723">
        <ele>93</ele>
        <time>2026-07-12T19:28:27.000Z</time>
      </trkpt>
      <trkpt lat="43.38599" lon="-1.47733">
        <ele>93</ele>
        <time>2026-07-12T19:28:28.000Z</time>
      </trkpt>
      <trkpt lat="43.38603" lon="-1.47744">
        <ele>94</ele>
        <time>2026-07-12T19:28:30.000Z</time>
      </trkpt>
      <trkpt lat="43.38606" lon="-1.47753">
        <ele>94</ele>
        <time>2026-07-12T19:28:31.000Z</time>
      </trkpt>
      <trkpt lat="43.3861" lon="-1.47761">
        <ele>95</ele>
        <time>2026-07-12T19:28:32.000Z</time>
      </trkpt>
      <trkpt lat="43.38616" lon="-1.47771">
        <ele>95</ele>
        <time>2026-07-12T19:28:34.000Z</time>
      </trkpt>
      <trkpt lat="43.38628" lon="-1.47793">
        <ele>96</ele>
        <time>2026-07-12T19:28:38.000Z</time>
      </trkpt>
      <trkpt lat="43.3864" lon="-1.47813">
        <ele>98</ele>
        <time>2026-07-12T19:28:41.000Z</time>
      </trkpt>
      <trkpt lat="43.38649" lon="-1.47829">
        <ele>99</ele>
        <time>2026-07-12T19:28:44.000Z</time>
      </trkpt>
      <trkpt lat="43.38662" lon="-1.47854">
        <ele>100</ele>
        <time>2026-07-12T19:28:48.000Z</time>
      </trkpt>
      <trkpt lat="43.38677" lon="-1.47888">
        <ele>102</ele>
        <time>2026-07-12T19:28:53.000Z</time>
      </trkpt>
      <trkpt lat="43.38686" lon="-1.47906">
        <ele>103</ele>
        <time>2026-07-12T19:28:56.000Z</time>
      </trkpt>
      <trkpt lat="43.38693" lon="-1.47919">
        <ele>104</ele>
        <time>2026-07-12T19:28:58.000Z</time>
      </trkpt>
      <trkpt lat="43.38701" lon="-1.47932">
        <ele>105</ele>
        <time>2026-07-12T19:29:00.000Z</time>
      </trkpt>
      <trkpt lat="43.38709" lon="-1.47943">
        <ele>105</ele>
        <time>2026-07-12T19:29:02.000Z</time>
      </trkpt>
      <trkpt lat="43.38714" lon="-1.47949">
        <ele>106</ele>
        <time>2026-07-12T19:29:03.000Z</time>
      </trkpt>
      <trkpt lat="43.3872" lon="-1.47954">
        <ele>107</ele>
        <time>2026-07-12T19:29:04.000Z</time>
      </trkpt>
      <trkpt lat="43.38726" lon="-1.47961">
        <ele>107</ele>
        <time>2026-07-12T19:29:06.000Z</time>
      </trkpt>
      <trkpt lat="43.38731" lon="-1.47965">
        <ele>108</ele>
        <time>2026-07-12T19:29:07.000Z</time>
      </trkpt>
      <trkpt lat="43.38737" lon="-1.47969">
        <ele>108</ele>
        <time>2026-07-12T19:29:08.000Z</time>
      </trkpt>
      <trkpt lat="43.38768" lon="-1.47988">
        <ele>109</ele>
        <time>2026-07-12T19:29:14.000Z</time>
      </trkpt>
      <trkpt lat="43.38776" lon="-1.47993">
        <ele>109</ele>
        <time>2026-07-12T19:29:16.000Z</time>
      </trkpt>
      <trkpt lat="43.38782" lon="-1.47999">
        <ele>109</ele>
        <time>2026-07-12T19:29:17.000Z</time>
      </trkpt>
      <trkpt lat="43.38786" lon="-1.48003">
        <ele>109</ele>
        <time>2026-07-12T19:29:18.000Z</time>
      </trkpt>
      <trkpt lat="43.38789" lon="-1.48008">
        <ele>109</ele>
        <time>2026-07-12T19:29:19.000Z</time>
      </trkpt>
      <trkpt lat="43.38792" lon="-1.48013">
        <ele>110</ele>
        <time>2026-07-12T19:29:19.000Z</time>
      </trkpt>
      <trkpt lat="43.38794" lon="-1.48019">
        <ele>110</ele>
        <time>2026-07-12T19:29:20.000Z</time>
      </trkpt>
      <trkpt lat="43.38797" lon="-1.48027">
        <ele>110</ele>
        <time>2026-07-12T19:29:21.000Z</time>
      </trkpt>
      <trkpt lat="43.38798" lon="-1.48035">
        <ele>111</ele>
        <time>2026-07-12T19:29:22.000Z</time>
      </trkpt>
      <trkpt lat="43.388" lon="-1.48044">
        <ele>111</ele>
        <time>2026-07-12T19:29:24.000Z</time>
      </trkpt>
      <trkpt lat="43.38807" lon="-1.48133">
        <ele>113</ele>
        <time>2026-07-12T19:29:35.000Z</time>
      </trkpt>
      <trkpt lat="43.38808" lon="-1.48145">
        <ele>113</ele>
        <time>2026-07-12T19:29:37.000Z</time>
      </trkpt>
      <trkpt lat="43.38809" lon="-1.48156">
        <ele>113</ele>
        <time>2026-07-12T19:29:38.000Z</time>
      </trkpt>
      <trkpt lat="43.38809" lon="-1.48164">
        <ele>113</ele>
        <time>2026-07-12T19:29:39.000Z</time>
      </trkpt>
      <trkpt lat="43.38809" lon="-1.48172">
        <ele>113</ele>
        <time>2026-07-12T19:29:40.000Z</time>
      </trkpt>
      <trkpt lat="43.38808" lon="-1.48177">
        <ele>113</ele>
        <time>2026-07-12T19:29:41.000Z</time>
      </trkpt>
      <trkpt lat="43.38808" lon="-1.48186">
        <ele>112</ele>
        <time>2026-07-12T19:29:42.000Z</time>
      </trkpt>
      <trkpt lat="43.38806" lon="-1.48194">
        <ele>112</ele>
        <time>2026-07-12T19:29:43.000Z</time>
      </trkpt>
      <trkpt lat="43.38798" lon="-1.48247">
        <ele>110</ele>
        <time>2026-07-12T19:29:50.000Z</time>
      </trkpt>
      <trkpt lat="43.38796" lon="-1.48261">
        <ele>110</ele>
        <time>2026-07-12T19:29:52.000Z</time>
      </trkpt>
      <trkpt lat="43.38793" lon="-1.48278">
        <ele>110</ele>
        <time>2026-07-12T19:29:54.000Z</time>
      </trkpt>
      <trkpt lat="43.3879" lon="-1.48297">
        <ele>111</ele>
        <time>2026-07-12T19:29:57.000Z</time>
      </trkpt>
      <trkpt lat="43.38785" lon="-1.48327">
        <ele>111</ele>
        <time>2026-07-12T19:30:01.000Z</time>
      </trkpt>
      <trkpt lat="43.38783" lon="-1.48339">
        <ele>111</ele>
        <time>2026-07-12T19:30:02.000Z</time>
      </trkpt>
      <trkpt lat="43.3878" lon="-1.48346">
        <ele>111</ele>
        <time>2026-07-12T19:30:03.000Z</time>
      </trkpt>
      <trkpt lat="43.38777" lon="-1.48352">
        <ele>111</ele>
        <time>2026-07-12T19:30:04.000Z</time>
      </trkpt>
      <trkpt lat="43.38769" lon="-1.48365">
        <ele>112</ele>
        <time>2026-07-12T19:30:07.000Z</time>
      </trkpt>
      <trkpt lat="43.38752" lon="-1.48395">
        <ele>113</ele>
        <time>2026-07-12T19:30:12.000Z</time>
      </trkpt>
      <trkpt lat="43.38728" lon="-1.4843">
        <ele>114</ele>
        <time>2026-07-12T19:30:18.000Z</time>
      </trkpt>
      <trkpt lat="43.38723" lon="-1.48437">
        <ele>114</ele>
        <time>2026-07-12T19:30:19.000Z</time>
      </trkpt>
      <trkpt lat="43.38711" lon="-1.48452">
        <ele>114</ele>
        <time>2026-07-12T19:30:22.000Z</time>
      </trkpt>
      <trkpt lat="43.38697" lon="-1.48465">
        <ele>115</ele>
        <time>2026-07-12T19:30:25.000Z</time>
      </trkpt>
      <trkpt lat="43.38694" lon="-1.48467">
        <ele>115</ele>
        <time>2026-07-12T19:30:26.000Z</time>
      </trkpt>
      <trkpt lat="43.38675" lon="-1.48482">
        <ele>116</ele>
        <time>2026-07-12T19:30:29.000Z</time>
      </trkpt>
      <trkpt lat="43.38674" lon="-1.48483">
        <ele>116</ele>
        <time>2026-07-12T19:30:30.000Z</time>
      </trkpt>
      <trkpt lat="43.38673" lon="-1.48484">
        <ele>116</ele>
        <time>2026-07-12T19:30:30.000Z</time>
      </trkpt>
      <trkpt lat="43.38662" lon="-1.48493">
        <ele>117</ele>
        <time>2026-07-12T19:30:32.000Z</time>
      </trkpt>
      <trkpt lat="43.38656" lon="-1.48499">
        <ele>117</ele>
        <time>2026-07-12T19:30:33.000Z</time>
      </trkpt>
      <trkpt lat="43.38652" lon="-1.48505">
        <ele>117</ele>
        <time>2026-07-12T19:30:35.000Z</time>
      </trkpt>
      <trkpt lat="43.38649" lon="-1.4851">
        <ele>117</ele>
        <time>2026-07-12T19:30:35.000Z</time>
      </trkpt>
      <trkpt lat="43.38646" lon="-1.48517">
        <ele>116</ele>
        <time>2026-07-12T19:30:36.000Z</time>
      </trkpt>
      <trkpt lat="43.38642" lon="-1.48527">
        <ele>116</ele>
        <time>2026-07-12T19:30:38.000Z</time>
      </trkpt>
      <trkpt lat="43.38638" lon="-1.48543">
        <ele>115</ele>
        <time>2026-07-12T19:30:40.000Z</time>
      </trkpt>
      <trkpt lat="43.38636" lon="-1.48552">
        <ele>114</ele>
        <time>2026-07-12T19:30:41.000Z</time>
      </trkpt>
      <trkpt lat="43.38636" lon="-1.4856">
        <ele>114</ele>
        <time>2026-07-12T19:30:42.000Z</time>
      </trkpt>
      <trkpt lat="43.38636" lon="-1.48562">
        <ele>114</ele>
        <time>2026-07-12T19:30:43.000Z</time>
      </trkpt>
      <trkpt lat="43.38636" lon="-1.48575">
        <ele>113</ele>
        <time>2026-07-12T19:30:44.000Z</time>
      </trkpt>
      <trkpt lat="43.3864" lon="-1.48646">
        <ele>109</ele>
        <time>2026-07-12T19:30:53.000Z</time>
      </trkpt>
      <trkpt lat="43.38643" lon="-1.48711">
        <ele>107</ele>
        <time>2026-07-12T19:31:02.000Z</time>
      </trkpt>
      <trkpt lat="43.38644" lon="-1.48718">
        <ele>107</ele>
        <time>2026-07-12T19:31:03.000Z</time>
      </trkpt>
      <trkpt lat="43.38645" lon="-1.48724">
        <ele>108</ele>
        <time>2026-07-12T19:31:04.000Z</time>
      </trkpt>
      <trkpt lat="43.38647" lon="-1.4873">
        <ele>108</ele>
        <time>2026-07-12T19:31:04.000Z</time>
      </trkpt>
      <trkpt lat="43.3865" lon="-1.48736">
        <ele>108</ele>
        <time>2026-07-12T19:31:05.000Z</time>
      </trkpt>
      <trkpt lat="43.38652" lon="-1.4874">
        <ele>108</ele>
        <time>2026-07-12T19:31:06.000Z</time>
      </trkpt>
      <trkpt lat="43.3866" lon="-1.48754">
        <ele>109</ele>
        <time>2026-07-12T19:31:08.000Z</time>
      </trkpt>
      <trkpt lat="43.38682" lon="-1.48789">
        <ele>108</ele>
        <time>2026-07-12T19:31:14.000Z</time>
      </trkpt>
      <trkpt lat="43.38694" lon="-1.48815">
        <ele>107</ele>
        <time>2026-07-12T19:31:18.000Z</time>
      </trkpt>
      <trkpt lat="43.387" lon="-1.48837">
        <ele>107</ele>
        <time>2026-07-12T19:31:21.000Z</time>
      </trkpt>
      <trkpt lat="43.38702" lon="-1.48845">
        <ele>107</ele>
        <time>2026-07-12T19:31:22.000Z</time>
      </trkpt>
      <trkpt lat="43.38703" lon="-1.48857">
        <ele>107</ele>
        <time>2026-07-12T19:31:24.000Z</time>
      </trkpt>
      <trkpt lat="43.38708" lon="-1.48897">
        <ele>108</ele>
        <time>2026-07-12T19:31:29.000Z</time>
      </trkpt>
      <trkpt lat="43.38715" lon="-1.48966">
        <ele>111</ele>
        <time>2026-07-12T19:31:38.000Z</time>
      </trkpt>
      <trkpt lat="43.38718" lon="-1.48986">
        <ele>111</ele>
        <time>2026-07-12T19:31:41.000Z</time>
      </trkpt>
      <trkpt lat="43.3873" lon="-1.49087">
        <ele>116</ele>
        <time>2026-07-12T19:31:54.000Z</time>
      </trkpt>
      <trkpt lat="43.38734" lon="-1.49142">
        <ele>120</ele>
        <time>2026-07-12T19:32:01.000Z</time>
      </trkpt>
      <trkpt lat="43.38738" lon="-1.49214">
        <ele>124</ele>
        <time>2026-07-12T19:32:11.000Z</time>
      </trkpt>
      <trkpt lat="43.38738" lon="-1.49242">
        <ele>125</ele>
        <time>2026-07-12T19:32:14.000Z</time>
      </trkpt>
      <trkpt lat="43.38738" lon="-1.49254">
        <ele>126</ele>
        <time>2026-07-12T19:32:16.000Z</time>
      </trkpt>
      <trkpt lat="43.38737" lon="-1.49275">
        <ele>126</ele>
        <time>2026-07-12T19:32:19.000Z</time>
      </trkpt>
      <trkpt lat="43.38727" lon="-1.49323">
        <ele>125</ele>
        <time>2026-07-12T19:32:25.000Z</time>
      </trkpt>
      <trkpt lat="43.38711" lon="-1.49406">
        <ele>126</ele>
        <time>2026-07-12T19:32:36.000Z</time>
      </trkpt>
      <trkpt lat="43.38706" lon="-1.49426">
        <ele>126</ele>
        <time>2026-07-12T19:32:39.000Z</time>
      </trkpt>
      <trkpt lat="43.38694" lon="-1.49461">
        <ele>129</ele>
        <time>2026-07-12T19:32:44.000Z</time>
      </trkpt>
      <trkpt lat="43.38689" lon="-1.49475">
        <ele>130</ele>
        <time>2026-07-12T19:32:46.000Z</time>
      </trkpt>
      <trkpt lat="43.38686" lon="-1.49487">
        <ele>131</ele>
        <time>2026-07-12T19:32:47.000Z</time>
      </trkpt>
      <trkpt lat="43.38683" lon="-1.49496">
        <ele>132</ele>
        <time>2026-07-12T19:32:49.000Z</time>
      </trkpt>
      <trkpt lat="43.38682" lon="-1.49509">
        <ele>133</ele>
        <time>2026-07-12T19:32:50.000Z</time>
      </trkpt>
      <trkpt lat="43.38682" lon="-1.49531">
        <ele>133</ele>
        <time>2026-07-12T19:32:53.000Z</time>
      </trkpt>
      <trkpt lat="43.38686" lon="-1.49574">
        <ele>133</ele>
        <time>2026-07-12T19:32:59.000Z</time>
      </trkpt>
      <trkpt lat="43.38687" lon="-1.49585">
        <ele>133</ele>
        <time>2026-07-12T19:33:00.000Z</time>
      </trkpt>
      <trkpt lat="43.38688" lon="-1.49605">
        <ele>132</ele>
        <time>2026-07-12T19:33:03.000Z</time>
      </trkpt>
      <trkpt lat="43.38687" lon="-1.49621">
        <ele>132</ele>
        <time>2026-07-12T19:33:05.000Z</time>
      </trkpt>
      <trkpt lat="43.38683" lon="-1.49641">
        <ele>133</ele>
        <time>2026-07-12T19:33:08.000Z</time>
      </trkpt>
      <trkpt lat="43.38669" lon="-1.49682">
        <ele>137</ele>
        <time>2026-07-12T19:33:14.000Z</time>
      </trkpt>
      <trkpt lat="43.38645" lon="-1.49741">
        <ele>139</ele>
        <time>2026-07-12T19:33:22.000Z</time>
      </trkpt>
      <trkpt lat="43.38637" lon="-1.49759">
        <ele>140</ele>
        <time>2026-07-12T19:33:25.000Z</time>
      </trkpt>
      <trkpt lat="43.38614" lon="-1.49816">
        <ele>140</ele>
        <time>2026-07-12T19:33:33.000Z</time>
      </trkpt>
      <trkpt lat="43.38595" lon="-1.49859">
        <ele>141</ele>
        <time>2026-07-12T19:33:40.000Z</time>
      </trkpt>
      <trkpt lat="43.3859" lon="-1.4987">
        <ele>141</ele>
        <time>2026-07-12T19:33:42.000Z</time>
      </trkpt>
      <trkpt lat="43.38577" lon="-1.49895">
        <ele>141</ele>
        <time>2026-07-12T19:33:46.000Z</time>
      </trkpt>
      <trkpt lat="43.38565" lon="-1.49912">
        <ele>141</ele>
        <time>2026-07-12T19:33:49.000Z</time>
      </trkpt>
      <trkpt lat="43.38554" lon="-1.49926">
        <ele>140</ele>
        <time>2026-07-12T19:33:51.000Z</time>
      </trkpt>
      <trkpt lat="43.38539" lon="-1.49938">
        <ele>139</ele>
        <time>2026-07-12T19:33:54.000Z</time>
      </trkpt>
      <trkpt lat="43.38518" lon="-1.49956">
        <ele>137</ele>
        <time>2026-07-12T19:33:59.000Z</time>
      </trkpt>
      <trkpt lat="43.38504" lon="-1.49968">
        <ele>137</ele>
        <time>2026-07-12T19:34:02.000Z</time>
      </trkpt>
      <trkpt lat="43.38491" lon="-1.49983">
        <ele>136</ele>
        <time>2026-07-12T19:34:05.000Z</time>
      </trkpt>
      <trkpt lat="43.38482" lon="-1.49996">
        <ele>136</ele>
        <time>2026-07-12T19:34:07.000Z</time>
      </trkpt>
      <trkpt lat="43.38474" lon="-1.50012">
        <ele>135</ele>
        <time>2026-07-12T19:34:10.000Z</time>
      </trkpt>
      <trkpt lat="43.38469" lon="-1.50034">
        <ele>135</ele>
        <time>2026-07-12T19:34:13.000Z</time>
      </trkpt>
      <trkpt lat="43.38464" lon="-1.50066">
        <ele>133</ele>
        <time>2026-07-12T19:34:17.000Z</time>
      </trkpt>
      <trkpt lat="43.38461" lon="-1.5011">
        <ele>132</ele>
        <time>2026-07-12T19:34:23.000Z</time>
      </trkpt>
      <trkpt lat="43.38458" lon="-1.50134">
        <ele>131</ele>
        <time>2026-07-12T19:34:26.000Z</time>
      </trkpt>
      <trkpt lat="43.38455" lon="-1.50145">
        <ele>130</ele>
        <time>2026-07-12T19:34:27.000Z</time>
      </trkpt>
      <trkpt lat="43.3845" lon="-1.50155">
        <ele>130</ele>
        <time>2026-07-12T19:34:29.000Z</time>
      </trkpt>
      <trkpt lat="43.38438" lon="-1.50175">
        <ele>129</ele>
        <time>2026-07-12T19:34:32.000Z</time>
      </trkpt>
      <trkpt lat="43.38422" lon="-1.50206">
        <ele>128</ele>
        <time>2026-07-12T19:34:37.000Z</time>
      </trkpt>
      <trkpt lat="43.38411" lon="-1.50226">
        <ele>128</ele>
        <time>2026-07-12T19:34:40.000Z</time>
      </trkpt>
      <trkpt lat="43.38399" lon="-1.50242">
        <ele>128</ele>
        <time>2026-07-12T19:34:43.000Z</time>
      </trkpt>
      <trkpt lat="43.3839" lon="-1.50252">
        <ele>127</ele>
        <time>2026-07-12T19:34:45.000Z</time>
      </trkpt>
      <trkpt lat="43.38388" lon="-1.50255">
        <ele>127</ele>
        <time>2026-07-12T19:34:46.000Z</time>
      </trkpt>
      <trkpt lat="43.38374" lon="-1.50271">
        <ele>126</ele>
        <time>2026-07-12T19:34:49.000Z</time>
      </trkpt>
      <trkpt lat="43.38356" lon="-1.50293">
        <ele>126</ele>
        <time>2026-07-12T19:34:53.000Z</time>
      </trkpt>
      <trkpt lat="43.38335" lon="-1.50324">
        <ele>127</ele>
        <time>2026-07-12T19:34:59.000Z</time>
      </trkpt>
      <trkpt lat="43.38301" lon="-1.50382">
        <ele>126</ele>
        <time>2026-07-12T19:35:08.000Z</time>
      </trkpt>
      <trkpt lat="43.38271" lon="-1.50438">
        <ele>127</ele>
        <time>2026-07-12T19:35:17.000Z</time>
      </trkpt>
      <trkpt lat="43.38265" lon="-1.50449">
        <ele>127</ele>
        <time>2026-07-12T19:35:19.000Z</time>
      </trkpt>
      <trkpt lat="43.38261" lon="-1.50458">
        <ele>127</ele>
        <time>2026-07-12T19:35:21.000Z</time>
      </trkpt>
      <trkpt lat="43.38261" lon="-1.50458">
        <ele>127</ele>
        <time>2026-07-12T19:35:21.000Z</time>
      </trkpt>
      <trkpt lat="43.38244" lon="-1.50453">
        <ele>127</ele>
        <time>2026-07-12T19:35:24.000Z</time>
      </trkpt>
      <trkpt lat="43.38199" lon="-1.50444">
        <ele>127</ele>
        <time>2026-07-12T19:35:32.000Z</time>
      </trkpt>
      <trkpt lat="43.38164" lon="-1.50435">
        <ele>127</ele>
        <time>2026-07-12T19:35:38.000Z</time>
      </trkpt>
      <trkpt lat="43.38142" lon="-1.5043">
        <ele>127</ele>
        <time>2026-07-12T19:35:42.000Z</time>
      </trkpt>
      <trkpt lat="43.38121" lon="-1.50429">
        <ele>127</ele>
        <time>2026-07-12T19:35:46.000Z</time>
      </trkpt>
      <trkpt lat="43.38105" lon="-1.50429">
        <ele>128</ele>
        <time>2026-07-12T19:35:49.000Z</time>
      </trkpt>
      <trkpt lat="43.38088" lon="-1.5043">
        <ele>128</ele>
        <time>2026-07-12T19:35:52.000Z</time>
      </trkpt>
      <trkpt lat="43.38048" lon="-1.50433">
        <ele>128</ele>
        <time>2026-07-12T19:35:59.000Z</time>
      </trkpt>
      <trkpt lat="43.38027" lon="-1.50434">
        <ele>128</ele>
        <time>2026-07-12T19:36:03.000Z</time>
      </trkpt>
      <trkpt lat="43.38003" lon="-1.50436">
        <ele>127</ele>
        <time>2026-07-12T19:36:07.000Z</time>
      </trkpt>
      <trkpt lat="43.37992" lon="-1.50439">
        <ele>128</ele>
        <time>2026-07-12T19:36:09.000Z</time>
      </trkpt>
      <trkpt lat="43.37982" lon="-1.50444">
        <ele>128</ele>
        <time>2026-07-12T19:36:11.000Z</time>
      </trkpt>
      <trkpt lat="43.37967" lon="-1.50451">
        <ele>129</ele>
        <time>2026-07-12T19:36:14.000Z</time>
      </trkpt>
      <trkpt lat="43.37961" lon="-1.50453">
        <ele>129</ele>
        <time>2026-07-12T19:36:15.000Z</time>
      </trkpt>
      <trkpt lat="43.37954" lon="-1.50455">
        <ele>129</ele>
        <time>2026-07-12T19:36:16.000Z</time>
      </trkpt>
      <trkpt lat="43.37949" lon="-1.50456">
        <ele>129</ele>
        <time>2026-07-12T19:36:17.000Z</time>
      </trkpt>
      <trkpt lat="43.37943" lon="-1.50455">
        <ele>129</ele>
        <time>2026-07-12T19:36:18.000Z</time>
      </trkpt>
      <trkpt lat="43.37936" lon="-1.50454">
        <ele>129</ele>
        <time>2026-07-12T19:36:19.000Z</time>
      </trkpt>
      <trkpt lat="43.3793" lon="-1.50451">
        <ele>130</ele>
        <time>2026-07-12T19:36:20.000Z</time>
      </trkpt>
      <trkpt lat="43.37925" lon="-1.50449">
        <ele>130</ele>
        <time>2026-07-12T19:36:21.000Z</time>
      </trkpt>
      <trkpt lat="43.37917" lon="-1.50444">
        <ele>130</ele>
        <time>2026-07-12T19:36:23.000Z</time>
      </trkpt>
      <trkpt lat="43.379" lon="-1.50438">
        <ele>129</ele>
        <time>2026-07-12T19:36:26.000Z</time>
      </trkpt>
      <trkpt lat="43.37892" lon="-1.50437">
        <ele>128</ele>
        <time>2026-07-12T19:36:27.000Z</time>
      </trkpt>
      <trkpt lat="43.37885" lon="-1.50437">
        <ele>128</ele>
        <time>2026-07-12T19:36:29.000Z</time>
      </trkpt>
      <trkpt lat="43.37876" lon="-1.50441">
        <ele>128</ele>
        <time>2026-07-12T19:36:30.000Z</time>
      </trkpt>
      <trkpt lat="43.37872" lon="-1.50446">
        <ele>128</ele>
        <time>2026-07-12T19:36:31.000Z</time>
      </trkpt>
      <trkpt lat="43.37868" lon="-1.50452">
        <ele>127</ele>
        <time>2026-07-12T19:36:32.000Z</time>
      </trkpt>
      <trkpt lat="43.37866" lon="-1.50458">
        <ele>127</ele>
        <time>2026-07-12T19:36:33.000Z</time>
      </trkpt>
      <trkpt lat="43.37865" lon="-1.50464">
        <ele>127</ele>
        <time>2026-07-12T19:36:34.000Z</time>
      </trkpt>
      <trkpt lat="43.37864" lon="-1.50471">
        <ele>127</ele>
        <time>2026-07-12T19:36:35.000Z</time>
      </trkpt>
      <trkpt lat="43.37865" lon="-1.50478">
        <ele>127</ele>
        <time>2026-07-12T19:36:36.000Z</time>
      </trkpt>
      <trkpt lat="43.37865" lon="-1.50483">
        <ele>127</ele>
        <time>2026-07-12T19:36:36.000Z</time>
      </trkpt>
      <trkpt lat="43.37867" lon="-1.50492">
        <ele>127</ele>
        <time>2026-07-12T19:36:38.000Z</time>
      </trkpt>
      <trkpt lat="43.3787" lon="-1.50507">
        <ele>128</ele>
        <time>2026-07-12T19:36:40.000Z</time>
      </trkpt>
      <trkpt lat="43.37871" lon="-1.50516">
        <ele>128</ele>
        <time>2026-07-12T19:36:41.000Z</time>
      </trkpt>
      <trkpt lat="43.37872" lon="-1.50524">
        <ele>128</ele>
        <time>2026-07-12T19:36:42.000Z</time>
      </trkpt>
      <trkpt lat="43.37873" lon="-1.50534">
        <ele>128</ele>
        <time>2026-07-12T19:36:43.000Z</time>
      </trkpt>
      <trkpt lat="43.37873" lon="-1.50554">
        <ele>128</ele>
        <time>2026-07-12T19:36:46.000Z</time>
      </trkpt>
      <trkpt lat="43.37873" lon="-1.50567">
        <ele>127</ele>
        <time>2026-07-12T19:36:47.000Z</time>
      </trkpt>
      <trkpt lat="43.37871" lon="-1.50587">
        <ele>127</ele>
        <time>2026-07-12T19:36:50.000Z</time>
      </trkpt>
      <trkpt lat="43.3787" lon="-1.50599">
        <ele>128</ele>
        <time>2026-07-12T19:36:52.000Z</time>
      </trkpt>
      <trkpt lat="43.37869" lon="-1.5061">
        <ele>128</ele>
        <time>2026-07-12T19:36:53.000Z</time>
      </trkpt>
      <trkpt lat="43.37865" lon="-1.50632">
        <ele>128</ele>
        <time>2026-07-12T19:36:56.000Z</time>
      </trkpt>
      <trkpt lat="43.37863" lon="-1.50643">
        <ele>128</ele>
        <time>2026-07-12T19:36:57.000Z</time>
      </trkpt>
      <trkpt lat="43.37862" lon="-1.50654">
        <ele>128</ele>
        <time>2026-07-12T19:36:59.000Z</time>
      </trkpt>
      <trkpt lat="43.37859" lon="-1.50678">
        <ele>129</ele>
        <time>2026-07-12T19:37:02.000Z</time>
      </trkpt>
      <trkpt lat="43.37858" lon="-1.50701">
        <ele>130</ele>
        <time>2026-07-12T19:37:05.000Z</time>
      </trkpt>
      <trkpt lat="43.37855" lon="-1.50736">
        <ele>131</ele>
        <time>2026-07-12T19:37:10.000Z</time>
      </trkpt>
      <trkpt lat="43.37853" lon="-1.50781">
        <ele>132</ele>
        <time>2026-07-12T19:37:15.000Z</time>
      </trkpt>
      <trkpt lat="43.37852" lon="-1.50793">
        <ele>132</ele>
        <time>2026-07-12T19:37:17.000Z</time>
      </trkpt>
      <trkpt lat="43.37851" lon="-1.50804">
        <ele>132</ele>
        <time>2026-07-12T19:37:18.000Z</time>
      </trkpt>
      <trkpt lat="43.37849" lon="-1.50817">
        <ele>132</ele>
        <time>2026-07-12T19:37:20.000Z</time>
      </trkpt>
      <trkpt lat="43.37846" lon="-1.50827">
        <ele>132</ele>
        <time>2026-07-12T19:37:22.000Z</time>
      </trkpt>
      <trkpt lat="43.37845" lon="-1.5083">
        <ele>132</ele>
        <time>2026-07-12T19:37:22.000Z</time>
      </trkpt>
      <trkpt lat="43.37843" lon="-1.50838">
        <ele>132</ele>
        <time>2026-07-12T19:37:23.000Z</time>
      </trkpt>
      <trkpt lat="43.37836" lon="-1.50854">
        <ele>132</ele>
        <time>2026-07-12T19:37:25.000Z</time>
      </trkpt>
      <trkpt lat="43.37828" lon="-1.50871">
        <ele>132</ele>
        <time>2026-07-12T19:37:28.000Z</time>
      </trkpt>
      <trkpt lat="43.37816" lon="-1.50898">
        <ele>133</ele>
        <time>2026-07-12T19:37:32.000Z</time>
      </trkpt>
      <trkpt lat="43.37808" lon="-1.50914">
        <ele>134</ele>
        <time>2026-07-12T19:37:35.000Z</time>
      </trkpt>
      <trkpt lat="43.37801" lon="-1.50929">
        <ele>134</ele>
        <time>2026-07-12T19:37:37.000Z</time>
      </trkpt>
      <trkpt lat="43.37788" lon="-1.5096">
        <ele>134</ele>
        <time>2026-07-12T19:37:42.000Z</time>
      </trkpt>
      <trkpt lat="43.37783" lon="-1.50969">
        <ele>134</ele>
        <time>2026-07-12T19:37:43.000Z</time>
      </trkpt>
      <trkpt lat="43.37776" lon="-1.50981">
        <ele>134</ele>
        <time>2026-07-12T19:37:45.000Z</time>
      </trkpt>
      <trkpt lat="43.37766" lon="-1.50995">
        <ele>135</ele>
        <time>2026-07-12T19:37:48.000Z</time>
      </trkpt>
      <trkpt lat="43.37754" lon="-1.5101">
        <ele>135</ele>
        <time>2026-07-12T19:37:50.000Z</time>
      </trkpt>
      <trkpt lat="43.37742" lon="-1.51025">
        <ele>136</ele>
        <time>2026-07-12T19:37:53.000Z</time>
      </trkpt>
      <trkpt lat="43.37737" lon="-1.51033">
        <ele>136</ele>
        <time>2026-07-12T19:37:55.000Z</time>
      </trkpt>
      <trkpt lat="43.37731" lon="-1.51041">
        <ele>136</ele>
        <time>2026-07-12T19:37:56.000Z</time>
      </trkpt>
      <trkpt lat="43.37726" lon="-1.5105">
        <ele>137</ele>
        <time>2026-07-12T19:37:58.000Z</time>
      </trkpt>
      <trkpt lat="43.37719" lon="-1.51064">
        <ele>137</ele>
        <time>2026-07-12T19:38:00.000Z</time>
      </trkpt>
      <trkpt lat="43.37714" lon="-1.51076">
        <ele>137</ele>
        <time>2026-07-12T19:38:02.000Z</time>
      </trkpt>
      <trkpt lat="43.37709" lon="-1.51093">
        <ele>137</ele>
        <time>2026-07-12T19:38:04.000Z</time>
      </trkpt>
      <trkpt lat="43.37704" lon="-1.51106">
        <ele>137</ele>
        <time>2026-07-12T19:38:06.000Z</time>
      </trkpt>
      <trkpt lat="43.37701" lon="-1.51114">
        <ele>136</ele>
        <time>2026-07-12T19:38:07.000Z</time>
      </trkpt>
      <trkpt lat="43.37697" lon="-1.51121">
        <ele>136</ele>
        <time>2026-07-12T19:38:08.000Z</time>
      </trkpt>
      <trkpt lat="43.37692" lon="-1.51129">
        <ele>136</ele>
        <time>2026-07-12T19:38:10.000Z</time>
      </trkpt>
      <trkpt lat="43.37687" lon="-1.51135">
        <ele>136</ele>
        <time>2026-07-12T19:38:11.000Z</time>
      </trkpt>
      <trkpt lat="43.37681" lon="-1.51141">
        <ele>136</ele>
        <time>2026-07-12T19:38:12.000Z</time>
      </trkpt>
      <trkpt lat="43.37676" lon="-1.51145">
        <ele>136</ele>
        <time>2026-07-12T19:38:13.000Z</time>
      </trkpt>
      <trkpt lat="43.3767" lon="-1.5115">
        <ele>136</ele>
        <time>2026-07-12T19:38:14.000Z</time>
      </trkpt>
      <trkpt lat="43.37664" lon="-1.51152">
        <ele>136</ele>
        <time>2026-07-12T19:38:16.000Z</time>
      </trkpt>
      <trkpt lat="43.37657" lon="-1.51154">
        <ele>135</ele>
        <time>2026-07-12T19:38:17.000Z</time>
      </trkpt>
      <trkpt lat="43.37648" lon="-1.51154">
        <ele>135</ele>
        <time>2026-07-12T19:38:18.000Z</time>
      </trkpt>
      <trkpt lat="43.37642" lon="-1.51153">
        <ele>135</ele>
        <time>2026-07-12T19:38:19.000Z</time>
      </trkpt>
      <trkpt lat="43.37634" lon="-1.51151">
        <ele>135</ele>
        <time>2026-07-12T19:38:21.000Z</time>
      </trkpt>
      <trkpt lat="43.37627" lon="-1.51148">
        <ele>135</ele>
        <time>2026-07-12T19:38:22.000Z</time>
      </trkpt>
      <trkpt lat="43.37619" lon="-1.51143">
        <ele>135</ele>
        <time>2026-07-12T19:38:24.000Z</time>
      </trkpt>
      <trkpt lat="43.37613" lon="-1.5114">
        <ele>135</ele>
        <time>2026-07-12T19:38:25.000Z</time>
      </trkpt>
      <trkpt lat="43.37603" lon="-1.51135">
        <ele>136</ele>
        <time>2026-07-12T19:38:27.000Z</time>
      </trkpt>
      <trkpt lat="43.37592" lon="-1.51132">
        <ele>136</ele>
        <time>2026-07-12T19:38:29.000Z</time>
      </trkpt>
      <trkpt lat="43.37582" lon="-1.5113">
        <ele>136</ele>
        <time>2026-07-12T19:38:31.000Z</time>
      </trkpt>
      <trkpt lat="43.37571" lon="-1.51129">
        <ele>136</ele>
        <time>2026-07-12T19:38:33.000Z</time>
      </trkpt>
      <trkpt lat="43.37559" lon="-1.51128">
        <ele>136</ele>
        <time>2026-07-12T19:38:35.000Z</time>
      </trkpt>
      <trkpt lat="43.37551" lon="-1.51128">
        <ele>136</ele>
        <time>2026-07-12T19:38:36.000Z</time>
      </trkpt>
      <trkpt lat="43.37545" lon="-1.51129">
        <ele>136</ele>
        <time>2026-07-12T19:38:37.000Z</time>
      </trkpt>
      <trkpt lat="43.37536" lon="-1.51131">
        <ele>136</ele>
        <time>2026-07-12T19:38:39.000Z</time>
      </trkpt>
      <trkpt lat="43.37525" lon="-1.51135">
        <ele>136</ele>
        <time>2026-07-12T19:38:41.000Z</time>
      </trkpt>
      <trkpt lat="43.37519" lon="-1.51139">
        <ele>136</ele>
        <time>2026-07-12T19:38:42.000Z</time>
      </trkpt>
      <trkpt lat="43.37513" lon="-1.51142">
        <ele>136</ele>
        <time>2026-07-12T19:38:43.000Z</time>
      </trkpt>
      <trkpt lat="43.3751" lon="-1.51146">
        <ele>136</ele>
        <time>2026-07-12T19:38:44.000Z</time>
      </trkpt>
      <trkpt lat="43.37504" lon="-1.51151">
        <ele>135</ele>
        <time>2026-07-12T19:38:45.000Z</time>
      </trkpt>
      <trkpt lat="43.37496" lon="-1.51162">
        <ele>135</ele>
        <time>2026-07-12T19:38:47.000Z</time>
      </trkpt>
      <trkpt lat="43.37485" lon="-1.51178">
        <ele>134</ele>
        <time>2026-07-12T19:38:50.000Z</time>
      </trkpt>
      <trkpt lat="43.37475" lon="-1.51195">
        <ele>133</ele>
        <time>2026-07-12T19:38:53.000Z</time>
      </trkpt>
      <trkpt lat="43.3747" lon="-1.51204">
        <ele>133</ele>
        <time>2026-07-12T19:38:54.000Z</time>
      </trkpt>
      <trkpt lat="43.37466" lon="-1.51213">
        <ele>133</ele>
        <time>2026-07-12T19:38:56.000Z</time>
      </trkpt>
      <trkpt lat="43.3746" lon="-1.5123">
        <ele>132</ele>
        <time>2026-07-12T19:38:58.000Z</time>
      </trkpt>
      <trkpt lat="43.37455" lon="-1.51249">
        <ele>132</ele>
        <time>2026-07-12T19:39:01.000Z</time>
      </trkpt>
      <trkpt lat="43.37454" lon="-1.51256">
        <ele>132</ele>
        <time>2026-07-12T19:39:02.000Z</time>
      </trkpt>
      <trkpt lat="43.37452" lon="-1.51267">
        <ele>132</ele>
        <time>2026-07-12T19:39:03.000Z</time>
      </trkpt>
      <trkpt lat="43.37451" lon="-1.51289">
        <ele>132</ele>
        <time>2026-07-12T19:39:06.000Z</time>
      </trkpt>
      <trkpt lat="43.37451" lon="-1.5131">
        <ele>132</ele>
        <time>2026-07-12T19:39:09.000Z</time>
      </trkpt>
      <trkpt lat="43.37451" lon="-1.51327">
        <ele>131</ele>
        <time>2026-07-12T19:39:11.000Z</time>
      </trkpt>
      <trkpt lat="43.37448" lon="-1.51355">
        <ele>132</ele>
        <time>2026-07-12T19:39:15.000Z</time>
      </trkpt>
      <trkpt lat="43.37445" lon="-1.51379">
        <ele>132</ele>
        <time>2026-07-12T19:39:18.000Z</time>
      </trkpt>
      <trkpt lat="43.37442" lon="-1.51402">
        <ele>133</ele>
        <time>2026-07-12T19:39:21.000Z</time>
      </trkpt>
      <trkpt lat="43.37439" lon="-1.51425">
        <ele>133</ele>
        <time>2026-07-12T19:39:24.000Z</time>
      </trkpt>
      <trkpt lat="43.37435" lon="-1.51461">
        <ele>134</ele>
        <time>2026-07-12T19:39:28.000Z</time>
      </trkpt>
      <trkpt lat="43.37431" lon="-1.51505">
        <ele>134</ele>
        <time>2026-07-12T19:39:34.000Z</time>
      </trkpt>
      <trkpt lat="43.37429" lon="-1.5152">
        <ele>134</ele>
        <time>2026-07-12T19:39:36.000Z</time>
      </trkpt>
      <trkpt lat="43.37427" lon="-1.51539">
        <ele>134</ele>
        <time>2026-07-12T19:39:39.000Z</time>
      </trkpt>
      <trkpt lat="43.37426" lon="-1.51548">
        <ele>134</ele>
        <time>2026-07-12T19:39:40.000Z</time>
      </trkpt>
      <trkpt lat="43.37424" lon="-1.51558">
        <ele>134</ele>
        <time>2026-07-12T19:39:41.000Z</time>
      </trkpt>
      <trkpt lat="43.37421" lon="-1.51568">
        <ele>135</ele>
        <time>2026-07-12T19:39:43.000Z</time>
      </trkpt>
      <trkpt lat="43.37418" lon="-1.51577">
        <ele>135</ele>
        <time>2026-07-12T19:39:44.000Z</time>
      </trkpt>
      <trkpt lat="43.37414" lon="-1.51585">
        <ele>135</ele>
        <time>2026-07-12T19:39:45.000Z</time>
      </trkpt>
      <trkpt lat="43.3741" lon="-1.51592">
        <ele>135</ele>
        <time>2026-07-12T19:39:46.000Z</time>
      </trkpt>
      <trkpt lat="43.37405" lon="-1.51598">
        <ele>134</ele>
        <time>2026-07-12T19:39:47.000Z</time>
      </trkpt>
      <trkpt lat="43.37398" lon="-1.51604">
        <ele>134</ele>
        <time>2026-07-12T19:39:49.000Z</time>
      </trkpt>
      <trkpt lat="43.37392" lon="-1.51608">
        <ele>134</ele>
        <time>2026-07-12T19:39:50.000Z</time>
      </trkpt>
      <trkpt lat="43.37387" lon="-1.51611">
        <ele>134</ele>
        <time>2026-07-12T19:39:51.000Z</time>
      </trkpt>
      <trkpt lat="43.37382" lon="-1.51613">
        <ele>134</ele>
        <time>2026-07-12T19:39:52.000Z</time>
      </trkpt>
      <trkpt lat="43.37376" lon="-1.51615">
        <ele>134</ele>
        <time>2026-07-12T19:39:53.000Z</time>
      </trkpt>
      <trkpt lat="43.3736" lon="-1.51621">
        <ele>135</ele>
        <time>2026-07-12T19:39:56.000Z</time>
      </trkpt>
      <trkpt lat="43.37342" lon="-1.51626">
        <ele>136</ele>
        <time>2026-07-12T19:39:59.000Z</time>
      </trkpt>
      <trkpt lat="43.37325" lon="-1.51632">
        <ele>136</ele>
        <time>2026-07-12T19:40:02.000Z</time>
      </trkpt>
      <trkpt lat="43.37316" lon="-1.51636">
        <ele>137</ele>
        <time>2026-07-12T19:40:04.000Z</time>
      </trkpt>
      <trkpt lat="43.37309" lon="-1.51639">
        <ele>137</ele>
        <time>2026-07-12T19:40:05.000Z</time>
      </trkpt>
      <trkpt lat="43.37301" lon="-1.51642">
        <ele>137</ele>
        <time>2026-07-12T19:40:07.000Z</time>
      </trkpt>
      <trkpt lat="43.37286" lon="-1.51651">
        <ele>137</ele>
        <time>2026-07-12T19:40:10.000Z</time>
      </trkpt>
      <trkpt lat="43.37278" lon="-1.51659">
        <ele>137</ele>
        <time>2026-07-12T19:40:12.000Z</time>
      </trkpt>
      <trkpt lat="43.37269" lon="-1.51671">
        <ele>137</ele>
        <time>2026-07-12T19:40:14.000Z</time>
      </trkpt>
      <trkpt lat="43.37265" lon="-1.51679">
        <ele>137</ele>
        <time>2026-07-12T19:40:15.000Z</time>
      </trkpt>
      <trkpt lat="43.37259" lon="-1.51691">
        <ele>138</ele>
        <time>2026-07-12T19:40:17.000Z</time>
      </trkpt>
      <trkpt lat="43.37254" lon="-1.51706">
        <ele>139</ele>
        <time>2026-07-12T19:40:19.000Z</time>
      </trkpt>
      <trkpt lat="43.3725" lon="-1.51719">
        <ele>139</ele>
        <time>2026-07-12T19:40:21.000Z</time>
      </trkpt>
      <trkpt lat="43.37245" lon="-1.51737">
        <ele>139</ele>
        <time>2026-07-12T19:40:23.000Z</time>
      </trkpt>
      <trkpt lat="43.3724" lon="-1.51757">
        <ele>140</ele>
        <time>2026-07-12T19:40:26.000Z</time>
      </trkpt>
      <trkpt lat="43.37235" lon="-1.51776">
        <ele>139</ele>
        <time>2026-07-12T19:40:29.000Z</time>
      </trkpt>
      <trkpt lat="43.37233" lon="-1.51787">
        <ele>139</ele>
        <time>2026-07-12T19:40:30.000Z</time>
      </trkpt>
      <trkpt lat="43.3723" lon="-1.51801">
        <ele>139</ele>
        <time>2026-07-12T19:40:32.000Z</time>
      </trkpt>
      <trkpt lat="43.37229" lon="-1.51816">
        <ele>139</ele>
        <time>2026-07-12T19:40:34.000Z</time>
      </trkpt>
      <trkpt lat="43.37229" lon="-1.51831">
        <ele>139</ele>
        <time>2026-07-12T19:40:36.000Z</time>
      </trkpt>
      <trkpt lat="43.37229" lon="-1.51838">
        <ele>139</ele>
        <time>2026-07-12T19:40:37.000Z</time>
      </trkpt>
      <trkpt lat="43.37229" lon="-1.51845">
        <ele>139</ele>
        <time>2026-07-12T19:40:38.000Z</time>
      </trkpt>
      <trkpt lat="43.3723" lon="-1.51853">
        <ele>139</ele>
        <time>2026-07-12T19:40:39.000Z</time>
      </trkpt>
      <trkpt lat="43.37232" lon="-1.51859">
        <ele>139</ele>
        <time>2026-07-12T19:40:40.000Z</time>
      </trkpt>
      <trkpt lat="43.37235" lon="-1.51873">
        <ele>140</ele>
        <time>2026-07-12T19:40:42.000Z</time>
      </trkpt>
      <trkpt lat="43.37241" lon="-1.5189">
        <ele>140</ele>
        <time>2026-07-12T19:40:44.000Z</time>
      </trkpt>
      <trkpt lat="43.37248" lon="-1.51908">
        <ele>140</ele>
        <time>2026-07-12T19:40:47.000Z</time>
      </trkpt>
      <trkpt lat="43.37256" lon="-1.51926">
        <ele>139</ele>
        <time>2026-07-12T19:40:49.000Z</time>
      </trkpt>
      <trkpt lat="43.3726" lon="-1.51937">
        <ele>139</ele>
        <time>2026-07-12T19:40:51.000Z</time>
      </trkpt>
      <trkpt lat="43.37267" lon="-1.5196">
        <ele>138</ele>
        <time>2026-07-12T19:40:54.000Z</time>
      </trkpt>
      <trkpt lat="43.37274" lon="-1.51992">
        <ele>137</ele>
        <time>2026-07-12T19:40:59.000Z</time>
      </trkpt>
      <trkpt lat="43.3728" lon="-1.52017">
        <ele>137</ele>
        <time>2026-07-12T19:41:02.000Z</time>
      </trkpt>
      <trkpt lat="43.37286" lon="-1.52041">
        <ele>137</ele>
        <time>2026-07-12T19:41:05.000Z</time>
      </trkpt>
      <trkpt lat="43.37289" lon="-1.52064">
        <ele>138</ele>
        <time>2026-07-12T19:41:08.000Z</time>
      </trkpt>
      <trkpt lat="43.3729" lon="-1.52072">
        <ele>138</ele>
        <time>2026-07-12T19:41:09.000Z</time>
      </trkpt>
      <trkpt lat="43.3729" lon="-1.5208">
        <ele>138</ele>
        <time>2026-07-12T19:41:10.000Z</time>
      </trkpt>
      <trkpt lat="43.37289" lon="-1.52097">
        <ele>138</ele>
        <time>2026-07-12T19:41:13.000Z</time>
      </trkpt>
      <trkpt lat="43.37288" lon="-1.52105">
        <ele>138</ele>
        <time>2026-07-12T19:41:14.000Z</time>
      </trkpt>
      <trkpt lat="43.37282" lon="-1.52127">
        <ele>138</ele>
        <time>2026-07-12T19:41:17.000Z</time>
      </trkpt>
      <trkpt lat="43.37264" lon="-1.52168">
        <ele>139</ele>
        <time>2026-07-12T19:41:23.000Z</time>
      </trkpt>
      <trkpt lat="43.37254" lon="-1.52187">
        <ele>138</ele>
        <time>2026-07-12T19:41:26.000Z</time>
      </trkpt>
      <trkpt lat="43.37245" lon="-1.52196">
        <ele>138</ele>
        <time>2026-07-12T19:41:28.000Z</time>
      </trkpt>
      <trkpt lat="43.37231" lon="-1.52216">
        <ele>136</ele>
        <time>2026-07-12T19:41:31.000Z</time>
      </trkpt>
      <trkpt lat="43.37202" lon="-1.52253">
        <ele>134</ele>
        <time>2026-07-12T19:41:38.000Z</time>
      </trkpt>
      <trkpt lat="43.3718" lon="-1.52276">
        <ele>134</ele>
        <time>2026-07-12T19:41:43.000Z</time>
      </trkpt>
      <trkpt lat="43.37165" lon="-1.52289">
        <ele>135</ele>
        <time>2026-07-12T19:41:47.000Z</time>
      </trkpt>
      <trkpt lat="43.37155" lon="-1.52296">
        <ele>136</ele>
        <time>2026-07-12T19:41:49.000Z</time>
      </trkpt>
      <trkpt lat="43.37144" lon="-1.52304">
        <ele>136</ele>
        <time>2026-07-12T19:41:51.000Z</time>
      </trkpt>
      <trkpt lat="43.37135" lon="-1.5231">
        <ele>137</ele>
        <time>2026-07-12T19:41:53.000Z</time>
      </trkpt>
      <trkpt lat="43.37118" lon="-1.52318">
        <ele>139</ele>
        <time>2026-07-12T19:41:56.000Z</time>
      </trkpt>
      <trkpt lat="43.37105" lon="-1.52324">
        <ele>140</ele>
        <time>2026-07-12T19:41:58.000Z</time>
      </trkpt>
      <trkpt lat="43.37092" lon="-1.52331">
        <ele>142</ele>
        <time>2026-07-12T19:42:01.000Z</time>
      </trkpt>
      <trkpt lat="43.37084" lon="-1.52338">
        <ele>143</ele>
        <time>2026-07-12T19:42:02.000Z</time>
      </trkpt>
      <trkpt lat="43.37078" lon="-1.52345">
        <ele>143</ele>
        <time>2026-07-12T19:42:04.000Z</time>
      </trkpt>
      <trkpt lat="43.37074" lon="-1.52358">
        <ele>143</ele>
        <time>2026-07-12T19:42:06.000Z</time>
      </trkpt>
      <trkpt lat="43.37072" lon="-1.52372">
        <ele>143</ele>
        <time>2026-07-12T19:42:07.000Z</time>
      </trkpt>
      <trkpt lat="43.37072" lon="-1.52407">
        <ele>142</ele>
        <time>2026-07-12T19:42:12.000Z</time>
      </trkpt>
      <trkpt lat="43.3707" lon="-1.5245">
        <ele>141</ele>
        <time>2026-07-12T19:42:17.000Z</time>
      </trkpt>
      <trkpt lat="43.37066" lon="-1.52495">
        <ele>141</ele>
        <time>2026-07-12T19:42:23.000Z</time>
      </trkpt>
      <trkpt lat="43.3706" lon="-1.5252">
        <ele>141</ele>
        <time>2026-07-12T19:42:27.000Z</time>
      </trkpt>
      <trkpt lat="43.37051" lon="-1.52541">
        <ele>141</ele>
        <time>2026-07-12T19:42:30.000Z</time>
      </trkpt>
      <trkpt lat="43.37042" lon="-1.52553">
        <ele>141</ele>
        <time>2026-07-12T19:42:32.000Z</time>
      </trkpt>
      <trkpt lat="43.37038" lon="-1.52558">
        <ele>141</ele>
        <time>2026-07-12T19:42:33.000Z</time>
      </trkpt>
      <trkpt lat="43.37033" lon="-1.52563">
        <ele>141</ele>
        <time>2026-07-12T19:42:34.000Z</time>
      </trkpt>
      <trkpt lat="43.37023" lon="-1.52572">
        <ele>141</ele>
        <time>2026-07-12T19:42:36.000Z</time>
      </trkpt>
      <trkpt lat="43.37011" lon="-1.52582">
        <ele>141</ele>
        <time>2026-07-12T19:42:39.000Z</time>
      </trkpt>
      <trkpt lat="43.36996" lon="-1.5259">
        <ele>140</ele>
        <time>2026-07-12T19:42:42.000Z</time>
      </trkpt>
      <trkpt lat="43.36975" lon="-1.52599">
        <ele>141</ele>
        <time>2026-07-12T19:42:46.000Z</time>
      </trkpt>
      <trkpt lat="43.36956" lon="-1.52608">
        <ele>141</ele>
        <time>2026-07-12T19:42:49.000Z</time>
      </trkpt>
      <trkpt lat="43.36945" lon="-1.52615">
        <ele>141</ele>
        <time>2026-07-12T19:42:51.000Z</time>
      </trkpt>
      <trkpt lat="43.36932" lon="-1.52628">
        <ele>141</ele>
        <time>2026-07-12T19:42:54.000Z</time>
      </trkpt>
      <trkpt lat="43.36914" lon="-1.52647">
        <ele>141</ele>
        <time>2026-07-12T19:42:58.000Z</time>
      </trkpt>
      <trkpt lat="43.36913" lon="-1.52647">
        <ele>141</ele>
        <time>2026-07-12T19:42:58.000Z</time>
      </trkpt>
      <trkpt lat="43.36911" lon="-1.52649">
        <ele>141</ele>
        <time>2026-07-12T19:42:59.000Z</time>
      </trkpt>
      <trkpt lat="43.36905" lon="-1.52652">
        <ele>140</ele>
        <time>2026-07-12T19:43:00.000Z</time>
      </trkpt>
      <trkpt lat="43.36903" lon="-1.52654">
        <ele>140</ele>
        <time>2026-07-12T19:43:00.000Z</time>
      </trkpt>
      <trkpt lat="43.36893" lon="-1.52657">
        <ele>140</ele>
        <time>2026-07-12T19:43:02.000Z</time>
      </trkpt>
      <trkpt lat="43.36885" lon="-1.52658">
        <ele>139</ele>
        <time>2026-07-12T19:43:04.000Z</time>
      </trkpt>
      <trkpt lat="43.36873" lon="-1.52654">
        <ele>139</ele>
        <time>2026-07-12T19:43:06.000Z</time>
      </trkpt>
      <trkpt lat="43.36861" lon="-1.52648">
        <ele>139</ele>
        <time>2026-07-12T19:43:08.000Z</time>
      </trkpt>
      <trkpt lat="43.36852" lon="-1.52642">
        <ele>139</ele>
        <time>2026-07-12T19:43:10.000Z</time>
      </trkpt>
      <trkpt lat="43.36845" lon="-1.52634">
        <ele>139</ele>
        <time>2026-07-12T19:43:12.000Z</time>
      </trkpt>
      <trkpt lat="43.36839" lon="-1.52624">
        <ele>139</ele>
        <time>2026-07-12T19:43:13.000Z</time>
      </trkpt>
      <trkpt lat="43.36835" lon="-1.52613">
        <ele>139</ele>
        <time>2026-07-12T19:43:15.000Z</time>
      </trkpt>
      <trkpt lat="43.36834" lon="-1.52602">
        <ele>139</ele>
        <time>2026-07-12T19:43:16.000Z</time>
      </trkpt>
      <trkpt lat="43.36834" lon="-1.52591">
        <ele>140</ele>
        <time>2026-07-12T19:43:18.000Z</time>
      </trkpt>
      <trkpt lat="43.36838" lon="-1.5257">
        <ele>140</ele>
        <time>2026-07-12T19:43:20.000Z</time>
      </trkpt>
      <trkpt lat="43.36841" lon="-1.5255">
        <ele>141</ele>
        <time>2026-07-12T19:43:23.000Z</time>
      </trkpt>
      <trkpt lat="43.36841" lon="-1.52536">
        <ele>141</ele>
        <time>2026-07-12T19:43:25.000Z</time>
      </trkpt>
      <trkpt lat="43.36839" lon="-1.5251">
        <ele>141</ele>
        <time>2026-07-12T19:43:28.000Z</time>
      </trkpt>
      <trkpt lat="43.36835" lon="-1.52487">
        <ele>141</ele>
        <time>2026-07-12T19:43:31.000Z</time>
      </trkpt>
      <trkpt lat="43.36833" lon="-1.52475">
        <ele>141</ele>
        <time>2026-07-12T19:43:33.000Z</time>
      </trkpt>
      <trkpt lat="43.36831" lon="-1.52464">
        <ele>141</ele>
        <time>2026-07-12T19:43:34.000Z</time>
      </trkpt>
      <trkpt lat="43.36826" lon="-1.52449">
        <ele>141</ele>
        <time>2026-07-12T19:43:37.000Z</time>
      </trkpt>
      <trkpt lat="43.36819" lon="-1.52432">
        <ele>140</ele>
        <time>2026-07-12T19:43:39.000Z</time>
      </trkpt>
      <trkpt lat="43.36809" lon="-1.5241">
        <ele>140</ele>
        <time>2026-07-12T19:43:42.000Z</time>
      </trkpt>
      <trkpt lat="43.36801" lon="-1.52388">
        <ele>141</ele>
        <time>2026-07-12T19:43:46.000Z</time>
      </trkpt>
      <trkpt lat="43.36793" lon="-1.52362">
        <ele>142</ele>
        <time>2026-07-12T19:43:49.000Z</time>
      </trkpt>
      <trkpt lat="43.36788" lon="-1.52346">
        <ele>143</ele>
        <time>2026-07-12T19:43:52.000Z</time>
      </trkpt>
      <trkpt lat="43.36783" lon="-1.52335">
        <ele>143</ele>
        <time>2026-07-12T19:43:53.000Z</time>
      </trkpt>
      <trkpt lat="43.36777" lon="-1.52328">
        <ele>143</ele>
        <time>2026-07-12T19:43:55.000Z</time>
      </trkpt>
      <trkpt lat="43.36771" lon="-1.52325">
        <ele>142</ele>
        <time>2026-07-12T19:43:56.000Z</time>
      </trkpt>
      <trkpt lat="43.36765" lon="-1.52325">
        <ele>142</ele>
        <time>2026-07-12T19:43:57.000Z</time>
      </trkpt>
      <trkpt lat="43.36754" lon="-1.5233">
        <ele>139</ele>
        <time>2026-07-12T19:43:59.000Z</time>
      </trkpt>
      <trkpt lat="43.36735" lon="-1.52345">
        <ele>137</ele>
        <time>2026-07-12T19:44:03.000Z</time>
      </trkpt>
      <trkpt lat="43.36718" lon="-1.52357">
        <ele>137</ele>
        <time>2026-07-12T19:44:06.000Z</time>
      </trkpt>
      <trkpt lat="43.36709" lon="-1.52362">
        <ele>137</ele>
        <time>2026-07-12T19:44:08.000Z</time>
      </trkpt>
      <trkpt lat="43.367" lon="-1.52365">
        <ele>137</ele>
        <time>2026-07-12T19:44:10.000Z</time>
      </trkpt>
      <trkpt lat="43.36684" lon="-1.52367">
        <ele>137</ele>
        <time>2026-07-12T19:44:12.000Z</time>
      </trkpt>
      <trkpt lat="43.36671" lon="-1.52369">
        <ele>138</ele>
        <time>2026-07-12T19:44:15.000Z</time>
      </trkpt>
      <trkpt lat="43.36662" lon="-1.52373">
        <ele>137</ele>
        <time>2026-07-12T19:44:16.000Z</time>
      </trkpt>
      <trkpt lat="43.36654" lon="-1.52381">
        <ele>136</ele>
        <time>2026-07-12T19:44:18.000Z</time>
      </trkpt>
      <trkpt lat="43.36643" lon="-1.52391">
        <ele>135</ele>
        <time>2026-07-12T19:44:21.000Z</time>
      </trkpt>
      <trkpt lat="43.36635" lon="-1.52397">
        <ele>134</ele>
        <time>2026-07-12T19:44:22.000Z</time>
      </trkpt>
      <trkpt lat="43.36628" lon="-1.524">
        <ele>133</ele>
        <time>2026-07-12T19:44:23.000Z</time>
      </trkpt>
      <trkpt lat="43.36621" lon="-1.524">
        <ele>133</ele>
        <time>2026-07-12T19:44:25.000Z</time>
      </trkpt>
      <trkpt lat="43.36613" lon="-1.52399">
        <ele>132</ele>
        <time>2026-07-12T19:44:26.000Z</time>
      </trkpt>
      <trkpt lat="43.36607" lon="-1.52395">
        <ele>132</ele>
        <time>2026-07-12T19:44:27.000Z</time>
      </trkpt>
      <trkpt lat="43.366" lon="-1.52388">
        <ele>132</ele>
        <time>2026-07-12T19:44:29.000Z</time>
      </trkpt>
      <trkpt lat="43.36595" lon="-1.52379">
        <ele>133</ele>
        <time>2026-07-12T19:44:30.000Z</time>
      </trkpt>
      <trkpt lat="43.36588" lon="-1.52363">
        <ele>133</ele>
        <time>2026-07-12T19:44:33.000Z</time>
      </trkpt>
      <trkpt lat="43.36574" lon="-1.52331">
        <ele>134</ele>
        <time>2026-07-12T19:44:38.000Z</time>
      </trkpt>
      <trkpt lat="43.36557" lon="-1.52294">
        <ele>134</ele>
        <time>2026-07-12T19:44:43.000Z</time>
      </trkpt>
      <trkpt lat="43.3655" lon="-1.52284">
        <ele>134</ele>
        <time>2026-07-12T19:44:45.000Z</time>
      </trkpt>
      <trkpt lat="43.36542" lon="-1.52278">
        <ele>134</ele>
        <time>2026-07-12T19:44:47.000Z</time>
      </trkpt>
      <trkpt lat="43.36533" lon="-1.52274">
        <ele>133</ele>
        <time>2026-07-12T19:44:48.000Z</time>
      </trkpt>
      <trkpt lat="43.36522" lon="-1.52273">
        <ele>133</ele>
        <time>2026-07-12T19:44:50.000Z</time>
      </trkpt>
      <trkpt lat="43.36511" lon="-1.52275">
        <ele>132</ele>
        <time>2026-07-12T19:44:52.000Z</time>
      </trkpt>
      <trkpt lat="43.36494" lon="-1.5228">
        <ele>131</ele>
        <time>2026-07-12T19:44:55.000Z</time>
      </trkpt>
      <trkpt lat="43.36476" lon="-1.52289">
        <ele>130</ele>
        <time>2026-07-12T19:44:59.000Z</time>
      </trkpt>
      <trkpt lat="43.36462" lon="-1.52295">
        <ele>130</ele>
        <time>2026-07-12T19:45:01.000Z</time>
      </trkpt>
      <trkpt lat="43.36428" lon="-1.52315">
        <ele>131</ele>
        <time>2026-07-12T19:45:08.000Z</time>
      </trkpt>
      <trkpt lat="43.36423" lon="-1.52318">
        <ele>131</ele>
        <time>2026-07-12T19:45:09.000Z</time>
      </trkpt>
      <trkpt lat="43.36401" lon="-1.52334">
        <ele>133</ele>
        <time>2026-07-12T19:45:13.000Z</time>
      </trkpt>
      <trkpt lat="43.36374" lon="-1.52358">
        <ele>132</ele>
        <time>2026-07-12T19:45:19.000Z</time>
      </trkpt>
      <trkpt lat="43.36356" lon="-1.52379">
        <ele>132</ele>
        <time>2026-07-12T19:45:23.000Z</time>
      </trkpt>
      <trkpt lat="43.36353" lon="-1.52382">
        <ele>132</ele>
        <time>2026-07-12T19:45:24.000Z</time>
      </trkpt>
      <trkpt lat="43.36345" lon="-1.52394">
        <ele>132</ele>
        <time>2026-07-12T19:45:26.000Z</time>
      </trkpt>
      <trkpt lat="43.36339" lon="-1.52405">
        <ele>132</ele>
        <time>2026-07-12T19:45:28.000Z</time>
      </trkpt>
      <trkpt lat="43.36337" lon="-1.52411">
        <ele>132</ele>
        <time>2026-07-12T19:45:29.000Z</time>
      </trkpt>
      <trkpt lat="43.36334" lon="-1.52421">
        <ele>132</ele>
        <time>2026-07-12T19:45:30.000Z</time>
      </trkpt>
      <trkpt lat="43.36328" lon="-1.52462">
        <ele>131</ele>
        <time>2026-07-12T19:45:35.000Z</time>
      </trkpt>
      <trkpt lat="43.36322" lon="-1.52497">
        <ele>130</ele>
        <time>2026-07-12T19:45:40.000Z</time>
      </trkpt>
      <trkpt lat="43.36317" lon="-1.52524">
        <ele>130</ele>
        <time>2026-07-12T19:45:44.000Z</time>
      </trkpt>
      <trkpt lat="43.36303" lon="-1.52595">
        <ele>128</ele>
        <time>2026-07-12T19:45:53.000Z</time>
      </trkpt>
      <trkpt lat="43.363" lon="-1.52617">
        <ele>126</ele>
        <time>2026-07-12T19:45:56.000Z</time>
      </trkpt>
      <trkpt lat="43.363" lon="-1.52629">
        <ele>125</ele>
        <time>2026-07-12T19:45:58.000Z</time>
      </trkpt>
      <trkpt lat="43.363" lon="-1.52644">
        <ele>124</ele>
        <time>2026-07-12T19:46:00.000Z</time>
      </trkpt>
      <trkpt lat="43.36302" lon="-1.52665">
        <ele>122</ele>
        <time>2026-07-12T19:46:02.000Z</time>
      </trkpt>
      <trkpt lat="43.36307" lon="-1.5269">
        <ele>120</ele>
        <time>2026-07-12T19:46:06.000Z</time>
      </trkpt>
      <trkpt lat="43.36314" lon="-1.52718">
        <ele>119</ele>
        <time>2026-07-12T19:46:10.000Z</time>
      </trkpt>
      <trkpt lat="43.36325" lon="-1.52746">
        <ele>118</ele>
        <time>2026-07-12T19:46:14.000Z</time>
      </trkpt>
      <trkpt lat="43.36332" lon="-1.52762">
        <ele>118</ele>
        <time>2026-07-12T19:46:16.000Z</time>
      </trkpt>
      <trkpt lat="43.36349" lon="-1.52797">
        <ele>116</ele>
        <time>2026-07-12T19:46:22.000Z</time>
      </trkpt>
      <trkpt lat="43.36351" lon="-1.528">
        <ele>116</ele>
        <time>2026-07-12T19:46:22.000Z</time>
      </trkpt>
      <trkpt lat="43.36369" lon="-1.52831">
        <ele>115</ele>
        <time>2026-07-12T19:46:27.000Z</time>
      </trkpt>
      <trkpt lat="43.36386" lon="-1.52863">
        <ele>114</ele>
        <time>2026-07-12T19:46:32.000Z</time>
      </trkpt>
      <trkpt lat="43.36398" lon="-1.52882">
        <ele>114</ele>
        <time>2026-07-12T19:46:36.000Z</time>
      </trkpt>
      <trkpt lat="43.36404" lon="-1.52897">
        <ele>114</ele>
        <time>2026-07-12T19:46:38.000Z</time>
      </trkpt>
      <trkpt lat="43.36408" lon="-1.52913">
        <ele>115</ele>
        <time>2026-07-12T19:46:40.000Z</time>
      </trkpt>
      <trkpt lat="43.36415" lon="-1.52944">
        <ele>114</ele>
        <time>2026-07-12T19:46:44.000Z</time>
      </trkpt>
      <trkpt lat="43.3642" lon="-1.52972">
        <ele>112</ele>
        <time>2026-07-12T19:46:48.000Z</time>
      </trkpt>
      <trkpt lat="43.36426" lon="-1.53011">
        <ele>110</ele>
        <time>2026-07-12T19:46:53.000Z</time>
      </trkpt>
      <trkpt lat="43.36436" lon="-1.53069">
        <ele>109</ele>
        <time>2026-07-12T19:47:01.000Z</time>
      </trkpt>
      <trkpt lat="43.36438" lon="-1.53082">
        <ele>109</ele>
        <time>2026-07-12T19:47:02.000Z</time>
      </trkpt>
      <trkpt lat="43.3645" lon="-1.53157">
        <ele>108</ele>
        <time>2026-07-12T19:47:12.000Z</time>
      </trkpt>
      <trkpt lat="43.36454" lon="-1.53179">
        <ele>108</ele>
        <time>2026-07-12T19:47:15.000Z</time>
      </trkpt>
      <trkpt lat="43.3646" lon="-1.53215">
        <ele>108</ele>
        <time>2026-07-12T19:47:20.000Z</time>
      </trkpt>
      <trkpt lat="43.36468" lon="-1.53279">
        <ele>108</ele>
        <time>2026-07-12T19:47:29.000Z</time>
      </trkpt>
      <trkpt lat="43.36479" lon="-1.53346">
        <ele>108</ele>
        <time>2026-07-12T19:47:37.000Z</time>
      </trkpt>
      <trkpt lat="43.3649" lon="-1.53402">
        <ele>107</ele>
        <time>2026-07-12T19:47:45.000Z</time>
      </trkpt>
      <trkpt lat="43.36495" lon="-1.53432">
        <ele>105</ele>
        <time>2026-07-12T19:47:49.000Z</time>
      </trkpt>
      <trkpt lat="43.36497" lon="-1.53446">
        <ele>104</ele>
        <time>2026-07-12T19:47:51.000Z</time>
      </trkpt>
      <trkpt lat="43.36501" lon="-1.53487">
        <ele>100</ele>
        <time>2026-07-12T19:47:56.000Z</time>
      </trkpt>
      <trkpt lat="43.36506" lon="-1.53548">
        <ele>97</ele>
        <time>2026-07-12T19:48:04.000Z</time>
      </trkpt>
      <trkpt lat="43.36506" lon="-1.53565">
        <ele>97</ele>
        <time>2026-07-12T19:48:06.000Z</time>
      </trkpt>
      <trkpt lat="43.36506" lon="-1.53598">
        <ele>97</ele>
        <time>2026-07-12T19:48:11.000Z</time>
      </trkpt>
      <trkpt lat="43.36506" lon="-1.53601">
        <ele>97</ele>
        <time>2026-07-12T19:48:11.000Z</time>
      </trkpt>
      <trkpt lat="43.36505" lon="-1.53624">
        <ele>97</ele>
        <time>2026-07-12T19:48:14.000Z</time>
      </trkpt>
      <trkpt lat="43.36501" lon="-1.53639">
        <ele>98</ele>
        <time>2026-07-12T19:48:16.000Z</time>
      </trkpt>
      <trkpt lat="43.36495" lon="-1.53661">
        <ele>97</ele>
        <time>2026-07-12T19:48:19.000Z</time>
      </trkpt>
      <trkpt lat="43.36492" lon="-1.53672">
        <ele>98</ele>
        <time>2026-07-12T19:48:21.000Z</time>
      </trkpt>
      <trkpt lat="43.36477" lon="-1.53715">
        <ele>98</ele>
        <time>2026-07-12T19:48:27.000Z</time>
      </trkpt>
      <trkpt lat="43.36467" lon="-1.53741">
        <ele>98</ele>
        <time>2026-07-12T19:48:30.000Z</time>
      </trkpt>
      <trkpt lat="43.36459" lon="-1.53767">
        <ele>99</ele>
        <time>2026-07-12T19:48:34.000Z</time>
      </trkpt>
      <trkpt lat="43.36457" lon="-1.53776">
        <ele>99</ele>
        <time>2026-07-12T19:48:35.000Z</time>
      </trkpt>
      <trkpt lat="43.36455" lon="-1.53786">
        <ele>99</ele>
        <time>2026-07-12T19:48:37.000Z</time>
      </trkpt>
      <trkpt lat="43.36453" lon="-1.53804">
        <ele>99</ele>
        <time>2026-07-12T19:48:39.000Z</time>
      </trkpt>
      <trkpt lat="43.36452" lon="-1.53829">
        <ele>100</ele>
        <time>2026-07-12T19:48:42.000Z</time>
      </trkpt>
      <trkpt lat="43.36451" lon="-1.5386">
        <ele>100</ele>
        <time>2026-07-12T19:48:46.000Z</time>
      </trkpt>
      <trkpt lat="43.36451" lon="-1.53882">
        <ele>99</ele>
        <time>2026-07-12T19:48:49.000Z</time>
      </trkpt>
      <trkpt lat="43.36448" lon="-1.53907">
        <ele>99</ele>
        <time>2026-07-12T19:48:52.000Z</time>
      </trkpt>
      <trkpt lat="43.36445" lon="-1.53928">
        <ele>98</ele>
        <time>2026-07-12T19:48:55.000Z</time>
      </trkpt>
      <trkpt lat="43.36445" lon="-1.53935">
        <ele>98</ele>
        <time>2026-07-12T19:48:56.000Z</time>
      </trkpt>
      <trkpt lat="43.36443" lon="-1.5397">
        <ele>96</ele>
        <time>2026-07-12T19:49:01.000Z</time>
      </trkpt>
      <trkpt lat="43.36442" lon="-1.53991">
        <ele>95</ele>
        <time>2026-07-12T19:49:03.000Z</time>
      </trkpt>
      <trkpt lat="43.36442" lon="-1.53995">
        <ele>95</ele>
        <time>2026-07-12T19:49:04.000Z</time>
      </trkpt>
      <trkpt lat="43.36439" lon="-1.54033">
        <ele>95</ele>
        <time>2026-07-12T19:49:09.000Z</time>
      </trkpt>
      <trkpt lat="43.36432" lon="-1.54108">
        <ele>95</ele>
        <time>2026-07-12T19:49:19.000Z</time>
      </trkpt>
      <trkpt lat="43.36432" lon="-1.54113">
        <ele>95</ele>
        <time>2026-07-12T19:49:19.000Z</time>
      </trkpt>
      <trkpt lat="43.3642" lon="-1.5423">
        <ele>99</ele>
        <time>2026-07-12T19:49:35.000Z</time>
      </trkpt>
      <trkpt lat="43.36419" lon="-1.54234">
        <ele>99</ele>
        <time>2026-07-12T19:49:35.000Z</time>
      </trkpt>
      <trkpt lat="43.36419" lon="-1.54252">
        <ele>100</ele>
        <time>2026-07-12T19:49:37.000Z</time>
      </trkpt>
      <trkpt lat="43.36421" lon="-1.54265">
        <ele>100</ele>
        <time>2026-07-12T19:49:39.000Z</time>
      </trkpt>
      <trkpt lat="43.36426" lon="-1.54277">
        <ele>100</ele>
        <time>2026-07-12T19:49:41.000Z</time>
      </trkpt>
      <trkpt lat="43.36434" lon="-1.54289">
        <ele>100</ele>
        <time>2026-07-12T19:49:43.000Z</time>
      </trkpt>
      <trkpt lat="43.36449" lon="-1.54302">
        <ele>99</ele>
        <time>2026-07-12T19:49:46.000Z</time>
      </trkpt>
      <trkpt lat="43.36468" lon="-1.54312">
        <ele>97</ele>
        <time>2026-07-12T19:49:50.000Z</time>
      </trkpt>
      <trkpt lat="43.36476" lon="-1.54315">
        <ele>96</ele>
        <time>2026-07-12T19:49:51.000Z</time>
      </trkpt>
      <trkpt lat="43.3649" lon="-1.54315">
        <ele>95</ele>
        <time>2026-07-12T19:49:54.000Z</time>
      </trkpt>
      <trkpt lat="43.36519" lon="-1.54315">
        <ele>92</ele>
        <time>2026-07-12T19:49:59.000Z</time>
      </trkpt>
      <trkpt lat="43.36522" lon="-1.54316">
        <ele>91</ele>
        <time>2026-07-12T19:49:59.000Z</time>
      </trkpt>
      <trkpt lat="43.36527" lon="-1.54317">
        <ele>91</ele>
        <time>2026-07-12T19:50:00.000Z</time>
      </trkpt>
      <trkpt lat="43.36533" lon="-1.54321">
        <ele>90</ele>
        <time>2026-07-12T19:50:02.000Z</time>
      </trkpt>
      <trkpt lat="43.36538" lon="-1.54327">
        <ele>90</ele>
        <time>2026-07-12T19:50:03.000Z</time>
      </trkpt>
      <trkpt lat="43.3654" lon="-1.54334">
        <ele>90</ele>
        <time>2026-07-12T19:50:04.000Z</time>
      </trkpt>
      <trkpt lat="43.36541" lon="-1.54348">
        <ele>89</ele>
        <time>2026-07-12T19:50:06.000Z</time>
      </trkpt>
      <trkpt lat="43.36538" lon="-1.54374">
        <ele>90</ele>
        <time>2026-07-12T19:50:09.000Z</time>
      </trkpt>
      <trkpt lat="43.36532" lon="-1.54456">
        <ele>90</ele>
        <time>2026-07-12T19:50:20.000Z</time>
      </trkpt>
      <trkpt lat="43.36531" lon="-1.54474">
        <ele>89</ele>
        <time>2026-07-12T19:50:22.000Z</time>
      </trkpt>
      <trkpt lat="43.36531" lon="-1.54474">
        <ele>89</ele>
        <time>2026-07-12T19:50:22.000Z</time>
      </trkpt>
      <trkpt lat="43.36506" lon="-1.54481">
        <ele>90</ele>
        <time>2026-07-12T19:50:26.000Z</time>
      </trkpt>
      <trkpt lat="43.3647" lon="-1.5449">
        <ele>90</ele>
        <time>2026-07-12T19:50:33.000Z</time>
      </trkpt>
      <trkpt lat="43.36455" lon="-1.54494">
        <ele>89</ele>
        <time>2026-07-12T19:50:36.000Z</time>
      </trkpt>
      <trkpt lat="43.36429" lon="-1.54501">
        <ele>87</ele>
        <time>2026-07-12T19:50:40.000Z</time>
      </trkpt>
      <trkpt lat="43.36384" lon="-1.54512">
        <ele>85</ele>
        <time>2026-07-12T19:50:49.000Z</time>
      </trkpt>
      <trkpt lat="43.36377" lon="-1.54512">
        <ele>84</ele>
        <time>2026-07-12T19:50:50.000Z</time>
      </trkpt>
      <trkpt lat="43.36368" lon="-1.54509">
        <ele>84</ele>
        <time>2026-07-12T19:50:51.000Z</time>
      </trkpt>
      <trkpt lat="43.36358" lon="-1.54506">
        <ele>84</ele>
        <time>2026-07-12T19:50:53.000Z</time>
      </trkpt>
      <trkpt lat="43.36352" lon="-1.54506">
        <ele>84</ele>
        <time>2026-07-12T19:50:54.000Z</time>
      </trkpt>
      <trkpt lat="43.36347" lon="-1.54508">
        <ele>83</ele>
        <time>2026-07-12T19:50:55.000Z</time>
      </trkpt>
      <trkpt lat="43.36341" lon="-1.54513">
        <ele>83</ele>
        <time>2026-07-12T19:50:57.000Z</time>
      </trkpt>
      <trkpt lat="43.36338" lon="-1.5452">
        <ele>81</ele>
        <time>2026-07-12T19:50:58.000Z</time>
      </trkpt>
      <trkpt lat="43.36336" lon="-1.54525">
        <ele>81</ele>
        <time>2026-07-12T19:50:58.000Z</time>
      </trkpt>
      <trkpt lat="43.36332" lon="-1.54538">
        <ele>78</ele>
        <time>2026-07-12T19:51:00.000Z</time>
      </trkpt>
      <trkpt lat="43.36324" lon="-1.54551">
        <ele>76</ele>
        <time>2026-07-12T19:51:02.000Z</time>
      </trkpt>
      <trkpt lat="43.36312" lon="-1.54569">
        <ele>73</ele>
        <time>2026-07-12T19:51:05.000Z</time>
      </trkpt>
      <trkpt lat="43.36297" lon="-1.54582">
        <ele>71</ele>
        <time>2026-07-12T19:51:09.000Z</time>
      </trkpt>
      <trkpt lat="43.36287" lon="-1.54589">
        <ele>70</ele>
        <time>2026-07-12T19:51:11.000Z</time>
      </trkpt>
      <trkpt lat="43.36275" lon="-1.54594">
        <ele>69</ele>
        <time>2026-07-12T19:51:13.000Z</time>
      </trkpt>
      <trkpt lat="43.36263" lon="-1.54596">
        <ele>69</ele>
        <time>2026-07-12T19:51:15.000Z</time>
      </trkpt>
      <trkpt lat="43.3626" lon="-1.54597">
        <ele>68</ele>
        <time>2026-07-12T19:51:16.000Z</time>
      </trkpt>
      <trkpt lat="43.36248" lon="-1.54598">
        <ele>68</ele>
        <time>2026-07-12T19:51:18.000Z</time>
      </trkpt>
      <trkpt lat="43.36227" lon="-1.54605">
        <ele>68</ele>
        <time>2026-07-12T19:51:22.000Z</time>
      </trkpt>
      <trkpt lat="43.36155" lon="-1.54634">
        <ele>65</ele>
        <time>2026-07-12T19:51:35.000Z</time>
      </trkpt>
      <trkpt lat="43.36101" lon="-1.54653">
        <ele>60</ele>
        <time>2026-07-12T19:51:45.000Z</time>
      </trkpt>
      <trkpt lat="43.36076" lon="-1.54664">
        <ele>58</ele>
        <time>2026-07-12T19:51:49.000Z</time>
      </trkpt>
      <trkpt lat="43.36064" lon="-1.54672">
        <ele>58</ele>
        <time>2026-07-12T19:51:52.000Z</time>
      </trkpt>
      <trkpt lat="43.36051" lon="-1.54681">
        <ele>57</ele>
        <time>2026-07-12T19:51:54.000Z</time>
      </trkpt>
      <trkpt lat="43.36033" lon="-1.54693">
        <ele>56</ele>
        <time>2026-07-12T19:51:58.000Z</time>
      </trkpt>
      <trkpt lat="43.36027" lon="-1.54696">
        <ele>55</ele>
        <time>2026-07-12T19:51:59.000Z</time>
      </trkpt>
      <trkpt lat="43.36011" lon="-1.54704">
        <ele>54</ele>
        <time>2026-07-12T19:52:02.000Z</time>
      </trkpt>
      <trkpt lat="43.35976" lon="-1.5472">
        <ele>49</ele>
        <time>2026-07-12T19:52:09.000Z</time>
      </trkpt>
      <trkpt lat="43.35932" lon="-1.54738">
        <ele>44</ele>
        <time>2026-07-12T19:52:17.000Z</time>
      </trkpt>
      <trkpt lat="43.35892" lon="-1.54755">
        <ele>40</ele>
        <time>2026-07-12T19:52:24.000Z</time>
      </trkpt>
      <trkpt lat="43.35889" lon="-1.54756">
        <ele>40</ele>
        <time>2026-07-12T19:52:25.000Z</time>
      </trkpt>
      <trkpt lat="43.35873" lon="-1.54764">
        <ele>38</ele>
        <time>2026-07-12T19:52:28.000Z</time>
      </trkpt>
      <trkpt lat="43.35861" lon="-1.54774">
        <ele>37</ele>
        <time>2026-07-12T19:52:30.000Z</time>
      </trkpt>
      <trkpt lat="43.35859" lon="-1.54777">
        <ele>36</ele>
        <time>2026-07-12T19:52:31.000Z</time>
      </trkpt>
      <trkpt lat="43.35849" lon="-1.54788">
        <ele>35</ele>
        <time>2026-07-12T19:52:33.000Z</time>
      </trkpt>
      <trkpt lat="43.35813" lon="-1.5485">
        <ele>31</ele>
        <time>2026-07-12T19:52:44.000Z</time>
      </trkpt>
      <trkpt lat="43.35802" lon="-1.54869">
        <ele>30</ele>
        <time>2026-07-12T19:52:47.000Z</time>
      </trkpt>
      <trkpt lat="43.35787" lon="-1.54895">
        <ele>30</ele>
        <time>2026-07-12T19:52:51.000Z</time>
      </trkpt>
      <trkpt lat="43.35782" lon="-1.54902">
        <ele>30</ele>
        <time>2026-07-12T19:52:52.000Z</time>
      </trkpt>
      <trkpt lat="43.35776" lon="-1.5491">
        <ele>29</ele>
        <time>2026-07-12T19:52:54.000Z</time>
      </trkpt>
      <trkpt lat="43.35759" lon="-1.54928">
        <ele>28</ele>
        <time>2026-07-12T19:52:58.000Z</time>
      </trkpt>
      <trkpt lat="43.35752" lon="-1.54935">
        <ele>27</ele>
        <time>2026-07-12T19:52:59.000Z</time>
      </trkpt>
      <trkpt lat="43.35735" lon="-1.54955">
        <ele>25</ele>
        <time>2026-07-12T19:53:03.000Z</time>
      </trkpt>
      <trkpt lat="43.35689" lon="-1.55004">
        <ele>23</ele>
        <time>2026-07-12T19:53:13.000Z</time>
      </trkpt>
      <trkpt lat="43.35662" lon="-1.55039">
        <ele>22</ele>
        <time>2026-07-12T19:53:20.000Z</time>
      </trkpt>
      <trkpt lat="43.35639" lon="-1.55065">
        <ele>22</ele>
        <time>2026-07-12T19:53:25.000Z</time>
      </trkpt>
      <trkpt lat="43.35639" lon="-1.55065">
        <ele>22</ele>
        <time>2026-07-12T19:53:25.000Z</time>
      </trkpt>
      <trkpt lat="43.35643" lon="-1.55068">
        <ele>22</ele>
        <time>2026-07-12T19:53:26.000Z</time>
      </trkpt>
      <trkpt lat="43.35647" lon="-1.55077">
        <ele>22</ele>
        <time>2026-07-12T19:53:27.000Z</time>
      </trkpt>
      <trkpt lat="43.35659" lon="-1.551">
        <ele>21</ele>
        <time>2026-07-12T19:53:31.000Z</time>
      </trkpt>
      <trkpt lat="43.35666" lon="-1.55117">
        <ele>21</ele>
        <time>2026-07-12T19:53:34.000Z</time>
      </trkpt>
      <trkpt lat="43.35676" lon="-1.55136">
        <ele>21</ele>
        <time>2026-07-12T19:53:37.000Z</time>
      </trkpt>
      <trkpt lat="43.35693" lon="-1.55164">
        <ele>22</ele>
        <time>2026-07-12T19:53:41.000Z</time>
      </trkpt>
      <trkpt lat="43.35708" lon="-1.5519">
        <ele>22</ele>
        <time>2026-07-12T19:53:46.000Z</time>
      </trkpt>
      <trkpt lat="43.35725" lon="-1.55214">
        <ele>22</ele>
        <time>2026-07-12T19:53:50.000Z</time>
      </trkpt>
      <trkpt lat="43.35748" lon="-1.55248">
        <ele>22</ele>
        <time>2026-07-12T19:53:56.000Z</time>
      </trkpt>
      <trkpt lat="43.35753" lon="-1.55256">
        <ele>22</ele>
        <time>2026-07-12T19:53:57.000Z</time>
      </trkpt>
      <trkpt lat="43.35757" lon="-1.55265">
        <ele>22</ele>
        <time>2026-07-12T19:53:59.000Z</time>
      </trkpt>
      <trkpt lat="43.3576" lon="-1.55272">
        <ele>22</ele>
        <time>2026-07-12T19:54:00.000Z</time>
      </trkpt>
      <trkpt lat="43.35765" lon="-1.55287">
        <ele>22</ele>
        <time>2026-07-12T19:54:02.000Z</time>
      </trkpt>
      <trkpt lat="43.35767" lon="-1.55299">
        <ele>22</ele>
        <time>2026-07-12T19:54:04.000Z</time>
      </trkpt>
      <trkpt lat="43.3577" lon="-1.55312">
        <ele>21</ele>
        <time>2026-07-12T19:54:05.000Z</time>
      </trkpt>
      <trkpt lat="43.35775" lon="-1.55347">
        <ele>21</ele>
        <time>2026-07-12T19:54:10.000Z</time>
      </trkpt>
      <trkpt lat="43.3579" lon="-1.55455">
        <ele>23</ele>
        <time>2026-07-12T19:54:24.000Z</time>
      </trkpt>
      <trkpt lat="43.35793" lon="-1.55478">
        <ele>24</ele>
        <time>2026-07-12T19:54:27.000Z</time>
      </trkpt>
      <trkpt lat="43.35795" lon="-1.55499">
        <ele>25</ele>
        <time>2026-07-12T19:54:30.000Z</time>
      </trkpt>
      <trkpt lat="43.35797" lon="-1.55516">
        <ele>25</ele>
        <time>2026-07-12T19:54:32.000Z</time>
      </trkpt>
      <trkpt lat="43.35797" lon="-1.55531">
        <ele>25</ele>
        <time>2026-07-12T19:54:34.000Z</time>
      </trkpt>
      <trkpt lat="43.35795" lon="-1.55546">
        <ele>25</ele>
        <time>2026-07-12T19:54:36.000Z</time>
      </trkpt>
      <trkpt lat="43.35794" lon="-1.5556">
        <ele>25</ele>
        <time>2026-07-12T19:54:38.000Z</time>
      </trkpt>
      <trkpt lat="43.35789" lon="-1.55585">
        <ele>24</ele>
        <time>2026-07-12T19:54:41.000Z</time>
      </trkpt>
      <trkpt lat="43.35785" lon="-1.5561">
        <ele>23</ele>
        <time>2026-07-12T19:54:45.000Z</time>
      </trkpt>
      <trkpt lat="43.35781" lon="-1.55628">
        <ele>23</ele>
        <time>2026-07-12T19:54:47.000Z</time>
      </trkpt>
      <trkpt lat="43.3578" lon="-1.55638">
        <ele>23</ele>
        <time>2026-07-12T19:54:48.000Z</time>
      </trkpt>
      <trkpt lat="43.3578" lon="-1.55652">
        <ele>23</ele>
        <time>2026-07-12T19:54:50.000Z</time>
      </trkpt>
      <trkpt lat="43.35779" lon="-1.5567">
        <ele>23</ele>
        <time>2026-07-12T19:54:52.000Z</time>
      </trkpt>
      <trkpt lat="43.35779" lon="-1.55696">
        <ele>24</ele>
        <time>2026-07-12T19:54:56.000Z</time>
      </trkpt>
      <trkpt lat="43.3578" lon="-1.55733">
        <ele>25</ele>
        <time>2026-07-12T19:55:01.000Z</time>
      </trkpt>
      <trkpt lat="43.35783" lon="-1.55805">
        <ele>25</ele>
        <time>2026-07-12T19:55:10.000Z</time>
      </trkpt>
      <trkpt lat="43.35786" lon="-1.55881">
        <ele>21</ele>
        <time>2026-07-12T19:55:20.000Z</time>
      </trkpt>
      <trkpt lat="43.35786" lon="-1.55903">
        <ele>19</ele>
        <time>2026-07-12T19:55:23.000Z</time>
      </trkpt>
      <trkpt lat="43.35785" lon="-1.55916">
        <ele>18</ele>
        <time>2026-07-12T19:55:24.000Z</time>
      </trkpt>
      <trkpt lat="43.35783" lon="-1.55927">
        <ele>18</ele>
        <time>2026-07-12T19:55:26.000Z</time>
      </trkpt>
      <trkpt lat="43.35781" lon="-1.55938">
        <ele>18</ele>
        <time>2026-07-12T19:55:27.000Z</time>
      </trkpt>
      <trkpt lat="43.35778" lon="-1.55949">
        <ele>18</ele>
        <time>2026-07-12T19:55:29.000Z</time>
      </trkpt>
      <trkpt lat="43.35778" lon="-1.55952">
        <ele>18</ele>
        <time>2026-07-12T19:55:29.000Z</time>
      </trkpt>
      <trkpt lat="43.35778" lon="-1.55954">
        <ele>18</ele>
        <time>2026-07-12T19:55:29.000Z</time>
      </trkpt>
      <trkpt lat="43.3577" lon="-1.55975">
        <ele>18</ele>
        <time>2026-07-12T19:55:32.000Z</time>
      </trkpt>
      <trkpt lat="43.35766" lon="-1.55989">
        <ele>18</ele>
        <time>2026-07-12T19:55:34.000Z</time>
      </trkpt>
      <trkpt lat="43.35766" lon="-1.5599">
        <ele>18</ele>
        <time>2026-07-12T19:55:35.000Z</time>
      </trkpt>
      <trkpt lat="43.35766" lon="-1.55991">
        <ele>18</ele>
        <time>2026-07-12T19:55:35.000Z</time>
      </trkpt>
      <trkpt lat="43.35767" lon="-1.55992">
        <ele>18</ele>
        <time>2026-07-12T19:55:35.000Z</time>
      </trkpt>
      <trkpt lat="43.35767" lon="-1.55993">
        <ele>18</ele>
        <time>2026-07-12T19:55:35.000Z</time>
      </trkpt>
      <trkpt lat="43.35767" lon="-1.55994">
        <ele>18</ele>
        <time>2026-07-12T19:55:35.000Z</time>
      </trkpt>
      <trkpt lat="43.35767" lon="-1.55995">
        <ele>18</ele>
        <time>2026-07-12T19:55:35.000Z</time>
      </trkpt>
      <trkpt lat="43.35767" lon="-1.55996">
        <ele>18</ele>
        <time>2026-07-12T19:55:35.000Z</time>
      </trkpt>
      <trkpt lat="43.35767" lon="-1.55997">
        <ele>18</ele>
        <time>2026-07-12T19:55:36.000Z</time>
      </trkpt>
      <trkpt lat="43.35767" lon="-1.56">
        <ele>18</ele>
        <time>2026-07-12T19:55:36.000Z</time>
      </trkpt>
      <trkpt lat="43.35767" lon="-1.56001">
        <ele>18</ele>
        <time>2026-07-12T19:55:36.000Z</time>
      </trkpt>
      <trkpt lat="43.35766" lon="-1.56003">
        <ele>18</ele>
        <time>2026-07-12T19:55:36.000Z</time>
      </trkpt>
      <trkpt lat="43.35766" lon="-1.56004">
        <ele>18</ele>
        <time>2026-07-12T19:55:36.000Z</time>
      </trkpt>
      <trkpt lat="43.35766" lon="-1.56005">
        <ele>18</ele>
        <time>2026-07-12T19:55:37.000Z</time>
      </trkpt>
      <trkpt lat="43.35765" lon="-1.56006">
        <ele>19</ele>
        <time>2026-07-12T19:55:37.000Z</time>
      </trkpt>
      <trkpt lat="43.35765" lon="-1.56008">
        <ele>19</ele>
        <time>2026-07-12T19:55:37.000Z</time>
      </trkpt>
      <trkpt lat="43.35764" lon="-1.56009">
        <ele>19</ele>
        <time>2026-07-12T19:55:37.000Z</time>
      </trkpt>
      <trkpt lat="43.35764" lon="-1.5601">
        <ele>19</ele>
        <time>2026-07-12T19:55:37.000Z</time>
      </trkpt>
      <trkpt lat="43.35763" lon="-1.56011">
        <ele>19</ele>
        <time>2026-07-12T19:55:38.000Z</time>
      </trkpt>
      <trkpt lat="43.35762" lon="-1.56012">
        <ele>19</ele>
        <time>2026-07-12T19:55:38.000Z</time>
      </trkpt>
      <trkpt lat="43.35762" lon="-1.56013">
        <ele>19</ele>
        <time>2026-07-12T19:55:38.000Z</time>
      </trkpt>
      <trkpt lat="43.35761" lon="-1.56014">
        <ele>19</ele>
        <time>2026-07-12T19:55:38.000Z</time>
      </trkpt>
      <trkpt lat="43.3576" lon="-1.56014">
        <ele>19</ele>
        <time>2026-07-12T19:55:38.000Z</time>
      </trkpt>
      <trkpt lat="43.35759" lon="-1.56015">
        <ele>19</ele>
        <time>2026-07-12T19:55:39.000Z</time>
      </trkpt>
      <trkpt lat="43.35758" lon="-1.56016">
        <ele>19</ele>
        <time>2026-07-12T19:55:39.000Z</time>
      </trkpt>
      <trkpt lat="43.35757" lon="-1.56016">
        <ele>19</ele>
        <time>2026-07-12T19:55:39.000Z</time>
      </trkpt>
      <trkpt lat="43.35756" lon="-1.56017">
        <ele>19</ele>
        <time>2026-07-12T19:55:39.000Z</time>
      </trkpt>
      <trkpt lat="43.35755" lon="-1.56017">
        <ele>19</ele>
        <time>2026-07-12T19:55:39.000Z</time>
      </trkpt>
      <trkpt lat="43.35754" lon="-1.56017">
        <ele>19</ele>
        <time>2026-07-12T19:55:40.000Z</time>
      </trkpt>
      <trkpt lat="43.35753" lon="-1.56017">
        <ele>19</ele>
        <time>2026-07-12T19:55:40.000Z</time>
      </trkpt>
      <trkpt lat="43.35752" lon="-1.56017">
        <ele>19</ele>
        <time>2026-07-12T19:55:40.000Z</time>
      </trkpt>
      <trkpt lat="43.35751" lon="-1.56017">
        <ele>19</ele>
        <time>2026-07-12T19:55:40.000Z</time>
      </trkpt>
      <trkpt lat="43.3575" lon="-1.56017">
        <ele>19</ele>
        <time>2026-07-12T19:55:40.000Z</time>
      </trkpt>
      <trkpt lat="43.35749" lon="-1.56017">
        <ele>19</ele>
        <time>2026-07-12T19:55:41.000Z</time>
      </trkpt>
      <trkpt lat="43.35728" lon="-1.56038">
        <ele>19</ele>
        <time>2026-07-12T19:55:45.000Z</time>
      </trkpt>
      <trkpt lat="43.35727" lon="-1.56038">
        <ele>19</ele>
        <time>2026-07-12T19:55:45.000Z</time>
      </trkpt>
      <trkpt lat="43.35724" lon="-1.56038">
        <ele>19</ele>
        <time>2026-07-12T19:55:46.000Z</time>
      </trkpt>
      <trkpt lat="43.35714" lon="-1.56046">
        <ele>19</ele>
        <time>2026-07-12T19:55:48.000Z</time>
      </trkpt>
      <trkpt lat="43.35697" lon="-1.56056">
        <ele>18</ele>
        <time>2026-07-12T19:55:51.000Z</time>
      </trkpt>
      <trkpt lat="43.35674" lon="-1.5607">
        <ele>18</ele>
        <time>2026-07-12T19:55:56.000Z</time>
      </trkpt>
      <trkpt lat="43.35652" lon="-1.56087">
        <ele>18</ele>
        <time>2026-07-12T19:56:00.000Z</time>
      </trkpt>
      <trkpt lat="43.35644" lon="-1.56093">
        <ele>18</ele>
        <time>2026-07-12T19:56:02.000Z</time>
      </trkpt>
      <trkpt lat="43.35641" lon="-1.56097">
        <ele>18</ele>
        <time>2026-07-12T19:56:03.000Z</time>
      </trkpt>
      <trkpt lat="43.35637" lon="-1.56102">
        <ele>18</ele>
        <time>2026-07-12T19:56:03.000Z</time>
      </trkpt>
      <trkpt lat="43.35632" lon="-1.56109">
        <ele>18</ele>
        <time>2026-07-12T19:56:05.000Z</time>
      </trkpt>
      <trkpt lat="43.35628" lon="-1.56117">
        <ele>18</ele>
        <time>2026-07-12T19:56:06.000Z</time>
      </trkpt>
      <trkpt lat="43.35622" lon="-1.56134">
        <ele>18</ele>
        <time>2026-07-12T19:56:08.000Z</time>
      </trkpt>
      <trkpt lat="43.3562" lon="-1.56143">
        <ele>19</ele>
        <time>2026-07-12T19:56:10.000Z</time>
      </trkpt>
      <trkpt lat="43.35619" lon="-1.56151">
        <ele>19</ele>
        <time>2026-07-12T19:56:11.000Z</time>
      </trkpt>
      <trkpt lat="43.35618" lon="-1.56158">
        <ele>19</ele>
        <time>2026-07-12T19:56:12.000Z</time>
      </trkpt>
      <trkpt lat="43.35615" lon="-1.5618">
        <ele>19</ele>
        <time>2026-07-12T19:56:15.000Z</time>
      </trkpt>
      <trkpt lat="43.35615" lon="-1.56214">
        <ele>19</ele>
        <time>2026-07-12T19:56:19.000Z</time>
      </trkpt>
      <trkpt lat="43.35615" lon="-1.56229">
        <ele>18</ele>
        <time>2026-07-12T19:56:21.000Z</time>
      </trkpt>
      <trkpt lat="43.35615" lon="-1.56269">
        <ele>18</ele>
        <time>2026-07-12T19:56:26.000Z</time>
      </trkpt>
      <trkpt lat="43.35617" lon="-1.56314">
        <ele>18</ele>
        <time>2026-07-12T19:56:32.000Z</time>
      </trkpt>
      <trkpt lat="43.35619" lon="-1.56377">
        <ele>18</ele>
        <time>2026-07-12T19:56:40.000Z</time>
      </trkpt>
      <trkpt lat="43.35621" lon="-1.56507">
        <ele>19</ele>
        <time>2026-07-12T19:56:57.000Z</time>
      </trkpt>
      <trkpt lat="43.35621" lon="-1.56516">
        <ele>19</ele>
        <time>2026-07-12T19:56:58.000Z</time>
      </trkpt>
      <trkpt lat="43.35622" lon="-1.56561">
        <ele>19</ele>
        <time>2026-07-12T19:57:04.000Z</time>
      </trkpt>
      <trkpt lat="43.35623" lon="-1.5661">
        <ele>19</ele>
        <time>2026-07-12T19:57:10.000Z</time>
      </trkpt>
      <trkpt lat="43.35623" lon="-1.56643">
        <ele>19</ele>
        <time>2026-07-12T19:57:14.000Z</time>
      </trkpt>
      <trkpt lat="43.35622" lon="-1.56656">
        <ele>19</ele>
        <time>2026-07-12T19:57:16.000Z</time>
      </trkpt>
      <trkpt lat="43.35621" lon="-1.56668">
        <ele>19</ele>
        <time>2026-07-12T19:57:18.000Z</time>
      </trkpt>
      <trkpt lat="43.3562" lon="-1.56677">
        <ele>19</ele>
        <time>2026-07-12T19:57:19.000Z</time>
      </trkpt>
      <trkpt lat="43.35618" lon="-1.56687">
        <ele>19</ele>
        <time>2026-07-12T19:57:20.000Z</time>
      </trkpt>
      <trkpt lat="43.35615" lon="-1.56701">
        <ele>19</ele>
        <time>2026-07-12T19:57:22.000Z</time>
      </trkpt>
      <trkpt lat="43.3561" lon="-1.56721">
        <ele>18</ele>
        <time>2026-07-12T19:57:25.000Z</time>
      </trkpt>
      <trkpt lat="43.3559" lon="-1.56786">
        <ele>17</ele>
        <time>2026-07-12T19:57:34.000Z</time>
      </trkpt>
      <trkpt lat="43.35588" lon="-1.56797">
        <ele>17</ele>
        <time>2026-07-12T19:57:35.000Z</time>
      </trkpt>
      <trkpt lat="43.35586" lon="-1.56805">
        <ele>17</ele>
        <time>2026-07-12T19:57:37.000Z</time>
      </trkpt>
      <trkpt lat="43.35586" lon="-1.56809">
        <ele>17</ele>
        <time>2026-07-12T19:57:37.000Z</time>
      </trkpt>
      <trkpt lat="43.35586" lon="-1.56819">
        <ele>17</ele>
        <time>2026-07-12T19:57:38.000Z</time>
      </trkpt>
      <trkpt lat="43.35586" lon="-1.56829">
        <ele>17</ele>
        <time>2026-07-12T19:57:40.000Z</time>
      </trkpt>
      <trkpt lat="43.35587" lon="-1.56837">
        <ele>17</ele>
        <time>2026-07-12T19:57:41.000Z</time>
      </trkpt>
      <trkpt lat="43.35588" lon="-1.56846">
        <ele>17</ele>
        <time>2026-07-12T19:57:42.000Z</time>
      </trkpt>
      <trkpt lat="43.35591" lon="-1.56856">
        <ele>17</ele>
        <time>2026-07-12T19:57:43.000Z</time>
      </trkpt>
      <trkpt lat="43.35595" lon="-1.56868">
        <ele>17</ele>
        <time>2026-07-12T19:57:45.000Z</time>
      </trkpt>
      <trkpt lat="43.35598" lon="-1.56877">
        <ele>17</ele>
        <time>2026-07-12T19:57:46.000Z</time>
      </trkpt>
      <trkpt lat="43.35603" lon="-1.56887">
        <ele>17</ele>
        <time>2026-07-12T19:57:48.000Z</time>
      </trkpt>
      <trkpt lat="43.35608" lon="-1.56894">
        <ele>17</ele>
        <time>2026-07-12T19:57:49.000Z</time>
      </trkpt>
      <trkpt lat="43.35612" lon="-1.56902">
        <ele>17</ele>
        <time>2026-07-12T19:57:50.000Z</time>
      </trkpt>
      <trkpt lat="43.35616" lon="-1.56908">
        <ele>17</ele>
        <time>2026-07-12T19:57:51.000Z</time>
      </trkpt>
      <trkpt lat="43.35623" lon="-1.56921">
        <ele>17</ele>
        <time>2026-07-12T19:57:54.000Z</time>
      </trkpt>
      <trkpt lat="43.35632" lon="-1.56938">
        <ele>17</ele>
        <time>2026-07-12T19:57:56.000Z</time>
      </trkpt>
      <trkpt lat="43.35641" lon="-1.56954">
        <ele>16</ele>
        <time>2026-07-12T19:57:59.000Z</time>
      </trkpt>
      <trkpt lat="43.35648" lon="-1.56969">
        <ele>16</ele>
        <time>2026-07-12T19:58:01.000Z</time>
      </trkpt>
      <trkpt lat="43.35663" lon="-1.57005">
        <ele>15</ele>
        <time>2026-07-12T19:58:07.000Z</time>
      </trkpt>
      <trkpt lat="43.35681" lon="-1.57041">
        <ele>15</ele>
        <time>2026-07-12T19:58:12.000Z</time>
      </trkpt>
      <trkpt lat="43.35712" lon="-1.57106">
        <ele>15</ele>
        <time>2026-07-12T19:58:22.000Z</time>
      </trkpt>
      <trkpt lat="43.35723" lon="-1.57133">
        <ele>15</ele>
        <time>2026-07-12T19:58:26.000Z</time>
      </trkpt>
      <trkpt lat="43.35727" lon="-1.57142">
        <ele>15</ele>
        <time>2026-07-12T19:58:28.000Z</time>
      </trkpt>
      <trkpt lat="43.35731" lon="-1.57153">
        <ele>15</ele>
        <time>2026-07-12T19:58:29.000Z</time>
      </trkpt>
      <trkpt lat="43.35734" lon="-1.57164">
        <ele>15</ele>
        <time>2026-07-12T19:58:31.000Z</time>
      </trkpt>
      <trkpt lat="43.35737" lon="-1.57174">
        <ele>15</ele>
        <time>2026-07-12T19:58:32.000Z</time>
      </trkpt>
      <trkpt lat="43.3574" lon="-1.57186">
        <ele>15</ele>
        <time>2026-07-12T19:58:34.000Z</time>
      </trkpt>
      <trkpt lat="43.35741" lon="-1.57197">
        <ele>15</ele>
        <time>2026-07-12T19:58:35.000Z</time>
      </trkpt>
      <trkpt lat="43.35743" lon="-1.57209">
        <ele>14</ele>
        <time>2026-07-12T19:58:37.000Z</time>
      </trkpt>
      <trkpt lat="43.35745" lon="-1.57225">
        <ele>14</ele>
        <time>2026-07-12T19:58:39.000Z</time>
      </trkpt>
      <trkpt lat="43.35748" lon="-1.57256">
        <ele>14</ele>
        <time>2026-07-12T19:58:43.000Z</time>
      </trkpt>
      <trkpt lat="43.35754" lon="-1.57324">
        <ele>13</ele>
        <time>2026-07-12T19:58:52.000Z</time>
      </trkpt>
      <trkpt lat="43.35756" lon="-1.57342">
        <ele>13</ele>
        <time>2026-07-12T19:58:54.000Z</time>
      </trkpt>
      <trkpt lat="43.35758" lon="-1.57369">
        <ele>13</ele>
        <time>2026-07-12T19:58:58.000Z</time>
      </trkpt>
      <trkpt lat="43.35764" lon="-1.57416">
        <ele>13</ele>
        <time>2026-07-12T19:59:04.000Z</time>
      </trkpt>
      <trkpt lat="43.35766" lon="-1.57422">
        <ele>13</ele>
        <time>2026-07-12T19:59:05.000Z</time>
      </trkpt>
      <trkpt lat="43.35769" lon="-1.57429">
        <ele>13</ele>
        <time>2026-07-12T19:59:06.000Z</time>
      </trkpt>
      <trkpt lat="43.35772" lon="-1.57437">
        <ele>13</ele>
        <time>2026-07-12T19:59:07.000Z</time>
      </trkpt>
      <trkpt lat="43.35776" lon="-1.57444">
        <ele>13</ele>
        <time>2026-07-12T19:59:08.000Z</time>
      </trkpt>
      <trkpt lat="43.35781" lon="-1.57453">
        <ele>13</ele>
        <time>2026-07-12T19:59:10.000Z</time>
      </trkpt>
      <trkpt lat="43.35781" lon="-1.57453">
        <ele>13</ele>
        <time>2026-07-12T19:59:10.000Z</time>
      </trkpt>
      <trkpt lat="43.35782" lon="-1.57454">
        <ele>13</ele>
        <time>2026-07-12T19:59:10.000Z</time>
      </trkpt>
      <trkpt lat="43.35783" lon="-1.57454">
        <ele>13</ele>
        <time>2026-07-12T19:59:10.000Z</time>
      </trkpt>
      <trkpt lat="43.35783" lon="-1.57455">
        <ele>13</ele>
        <time>2026-07-12T19:59:10.000Z</time>
      </trkpt>
      <trkpt lat="43.35784" lon="-1.57455">
        <ele>13</ele>
        <time>2026-07-12T19:59:10.000Z</time>
      </trkpt>
      <trkpt lat="43.35785" lon="-1.57456">
        <ele>13</ele>
        <time>2026-07-12T19:59:10.000Z</time>
      </trkpt>
      <trkpt lat="43.35786" lon="-1.57457">
        <ele>13</ele>
        <time>2026-07-12T19:59:11.000Z</time>
      </trkpt>
      <trkpt lat="43.35787" lon="-1.57458">
        <ele>13</ele>
        <time>2026-07-12T19:59:11.000Z</time>
      </trkpt>
      <trkpt lat="43.35787" lon="-1.57459">
        <ele>13</ele>
        <time>2026-07-12T19:59:11.000Z</time>
      </trkpt>
      <trkpt lat="43.35787" lon="-1.5746">
        <ele>13</ele>
        <time>2026-07-12T19:59:11.000Z</time>
      </trkpt>
      <trkpt lat="43.35788" lon="-1.5746">
        <ele>13</ele>
        <time>2026-07-12T19:59:11.000Z</time>
      </trkpt>
      <trkpt lat="43.35788" lon="-1.57461">
        <ele>13</ele>
        <time>2026-07-12T19:59:11.000Z</time>
      </trkpt>
      <trkpt lat="43.35788" lon="-1.57462">
        <ele>13</ele>
        <time>2026-07-12T19:59:12.000Z</time>
      </trkpt>
      <trkpt lat="43.35789" lon="-1.57463">
        <ele>13</ele>
        <time>2026-07-12T19:59:12.000Z</time>
      </trkpt>
      <trkpt lat="43.35789" lon="-1.57464">
        <ele>13</ele>
        <time>2026-07-12T19:59:12.000Z</time>
      </trkpt>
      <trkpt lat="43.35789" lon="-1.57465">
        <ele>13</ele>
        <time>2026-07-12T19:59:12.000Z</time>
      </trkpt>
      <trkpt lat="43.35789" lon="-1.57466">
        <ele>13</ele>
        <time>2026-07-12T19:59:12.000Z</time>
      </trkpt>
      <trkpt lat="43.35789" lon="-1.57467">
        <ele>13</ele>
        <time>2026-07-12T19:59:12.000Z</time>
      </trkpt>
      <trkpt lat="43.35789" lon="-1.57468">
        <ele>13</ele>
        <time>2026-07-12T19:59:12.000Z</time>
      </trkpt>
      <trkpt lat="43.35789" lon="-1.57469">
        <ele>13</ele>
        <time>2026-07-12T19:59:13.000Z</time>
      </trkpt>
      <trkpt lat="43.35789" lon="-1.5747">
        <ele>13</ele>
        <time>2026-07-12T19:59:13.000Z</time>
      </trkpt>
      <trkpt lat="43.35789" lon="-1.57471">
        <ele>13</ele>
        <time>2026-07-12T19:59:13.000Z</time>
      </trkpt>
      <trkpt lat="43.35789" lon="-1.57472">
        <ele>13</ele>
        <time>2026-07-12T19:59:13.000Z</time>
      </trkpt>
      <trkpt lat="43.35788" lon="-1.57473">
        <ele>13</ele>
        <time>2026-07-12T19:59:13.000Z</time>
      </trkpt>
      <trkpt lat="43.35788" lon="-1.57474">
        <ele>13</ele>
        <time>2026-07-12T19:59:13.000Z</time>
      </trkpt>
      <trkpt lat="43.35788" lon="-1.57475">
        <ele>13</ele>
        <time>2026-07-12T19:59:13.000Z</time>
      </trkpt>
      <trkpt lat="43.35787" lon="-1.57476">
        <ele>13</ele>
        <time>2026-07-12T19:59:14.000Z</time>
      </trkpt>
      <trkpt lat="43.35787" lon="-1.57477">
        <ele>13</ele>
        <time>2026-07-12T19:59:14.000Z</time>
      </trkpt>
      <trkpt lat="43.35786" lon="-1.57477">
        <ele>13</ele>
        <time>2026-07-12T19:59:14.000Z</time>
      </trkpt>
      <trkpt lat="43.35786" lon="-1.57478">
        <ele>13</ele>
        <time>2026-07-12T19:59:14.000Z</time>
      </trkpt>
      <trkpt lat="43.35785" lon="-1.57479">
        <ele>13</ele>
        <time>2026-07-12T19:59:14.000Z</time>
      </trkpt>
      <trkpt lat="43.35784" lon="-1.5748">
        <ele>13</ele>
        <time>2026-07-12T19:59:15.000Z</time>
      </trkpt>
      <trkpt lat="43.35783" lon="-1.57484">
        <ele>13</ele>
        <time>2026-07-12T19:59:15.000Z</time>
      </trkpt>
      <trkpt lat="43.35782" lon="-1.57489">
        <ele>13</ele>
        <time>2026-07-12T19:59:16.000Z</time>
      </trkpt>
      <trkpt lat="43.35782" lon="-1.57493">
        <ele>13</ele>
        <time>2026-07-12T19:59:16.000Z</time>
      </trkpt>
      <trkpt lat="43.35781" lon="-1.57499">
        <ele>13</ele>
        <time>2026-07-12T19:59:17.000Z</time>
      </trkpt>
      <trkpt lat="43.3578" lon="-1.5752">
        <ele>13</ele>
        <time>2026-07-12T19:59:20.000Z</time>
      </trkpt>
      <trkpt lat="43.35778" lon="-1.57524">
        <ele>13</ele>
        <time>2026-07-12T19:59:20.000Z</time>
      </trkpt>
      <trkpt lat="43.35779" lon="-1.57536">
        <ele>13</ele>
        <time>2026-07-12T19:59:22.000Z</time>
      </trkpt>
      <trkpt lat="43.35779" lon="-1.57548">
        <ele>13</ele>
        <time>2026-07-12T19:59:24.000Z</time>
      </trkpt>
      <trkpt lat="43.3578" lon="-1.57562">
        <ele>13</ele>
        <time>2026-07-12T19:59:25.000Z</time>
      </trkpt>
      <trkpt lat="43.35782" lon="-1.57577">
        <ele>13</ele>
        <time>2026-07-12T19:59:27.000Z</time>
      </trkpt>
      <trkpt lat="43.35788" lon="-1.57615">
        <ele>13</ele>
        <time>2026-07-12T19:59:32.000Z</time>
      </trkpt>
      <trkpt lat="43.35808" lon="-1.57721">
        <ele>12</ele>
        <time>2026-07-12T19:59:47.000Z</time>
      </trkpt>
      <trkpt lat="43.35819" lon="-1.57781">
        <ele>11</ele>
        <time>2026-07-12T19:59:55.000Z</time>
      </trkpt>
      <trkpt lat="43.35829" lon="-1.57824">
        <ele>11</ele>
        <time>2026-07-12T20:00:00.000Z</time>
      </trkpt>
      <trkpt lat="43.35837" lon="-1.57863">
        <ele>11</ele>
        <time>2026-07-12T20:00:06.000Z</time>
      </trkpt>
      <trkpt lat="43.35844" lon="-1.57887">
        <ele>12</ele>
        <time>2026-07-12T20:00:09.000Z</time>
      </trkpt>
      <trkpt lat="43.3585" lon="-1.57904">
        <ele>12</ele>
        <time>2026-07-12T20:00:11.000Z</time>
      </trkpt>
      <trkpt lat="43.35859" lon="-1.57925">
        <ele>12</ele>
        <time>2026-07-12T20:00:15.000Z</time>
      </trkpt>
      <trkpt lat="43.35864" lon="-1.57936">
        <ele>12</ele>
        <time>2026-07-12T20:00:16.000Z</time>
      </trkpt>
      <trkpt lat="43.3587" lon="-1.57949">
        <ele>12</ele>
        <time>2026-07-12T20:00:18.000Z</time>
      </trkpt>
      <trkpt lat="43.35887" lon="-1.57979">
        <ele>11</ele>
        <time>2026-07-12T20:00:23.000Z</time>
      </trkpt>
      <trkpt lat="43.35898" lon="-1.57996">
        <ele>11</ele>
        <time>2026-07-12T20:00:26.000Z</time>
      </trkpt>
      <trkpt lat="43.35923" lon="-1.58033">
        <ele>11</ele>
        <time>2026-07-12T20:00:33.000Z</time>
      </trkpt>
      <trkpt lat="43.36063" lon="-1.58235">
        <ele>12</ele>
        <time>2026-07-12T20:01:09.000Z</time>
      </trkpt>
      <trkpt lat="43.36078" lon="-1.58256">
        <ele>12</ele>
        <time>2026-07-12T20:01:13.000Z</time>
      </trkpt>
      <trkpt lat="43.36092" lon="-1.58277">
        <ele>12</ele>
        <time>2026-07-12T20:01:16.000Z</time>
      </trkpt>
      <trkpt lat="43.36105" lon="-1.58298">
        <ele>12</ele>
        <time>2026-07-12T20:01:20.000Z</time>
      </trkpt>
      <trkpt lat="43.36116" lon="-1.58316">
        <ele>12</ele>
        <time>2026-07-12T20:01:23.000Z</time>
      </trkpt>
      <trkpt lat="43.3613" lon="-1.58342">
        <ele>12</ele>
        <time>2026-07-12T20:01:27.000Z</time>
      </trkpt>
      <trkpt lat="43.3613" lon="-1.58342">
        <ele>12</ele>
        <time>2026-07-12T20:01:27.000Z</time>
      </trkpt>
      <trkpt lat="43.36141" lon="-1.58337">
        <ele>12</ele>
        <time>2026-07-12T20:01:29.000Z</time>
      </trkpt>
      <trkpt lat="43.36169" lon="-1.58353">
        <ele>13</ele>
        <time>2026-07-12T20:01:34.000Z</time>
      </trkpt>
      <trkpt lat="43.36169" lon="-1.58353">
        <ele>13</ele>
        <time>2026-07-12T20:01:34.000Z</time>
      </trkpt>
      <trkpt lat="43.36178" lon="-1.58358">
        <ele>13</ele>
        <time>2026-07-12T20:01:36.000Z</time>
      </trkpt>
      <trkpt lat="43.36185" lon="-1.58359">
        <ele>13</ele>
        <time>2026-07-12T20:01:37.000Z</time>
      </trkpt>
      <trkpt lat="43.36196" lon="-1.58362">
        <ele>13</ele>
        <time>2026-07-12T20:01:39.000Z</time>
      </trkpt>
      <trkpt lat="43.36211" lon="-1.58357">
        <ele>14</ele>
        <time>2026-07-12T20:01:42.000Z</time>
      </trkpt>
      <trkpt lat="43.36228" lon="-1.58352">
        <ele>14</ele>
        <time>2026-07-12T20:01:45.000Z</time>
      </trkpt>
      <trkpt lat="43.36254" lon="-1.58348">
        <ele>15</ele>
        <time>2026-07-12T20:01:50.000Z</time>
      </trkpt>
      <trkpt lat="43.36283" lon="-1.58343">
        <ele>16</ele>
        <time>2026-07-12T20:01:55.000Z</time>
      </trkpt>
      <trkpt lat="43.36304" lon="-1.5834">
        <ele>16</ele>
        <time>2026-07-12T20:01:59.000Z</time>
      </trkpt>
      <trkpt lat="43.36336" lon="-1.58335">
        <ele>17</ele>
        <time>2026-07-12T20:02:05.000Z</time>
      </trkpt>
      <trkpt lat="43.36372" lon="-1.58329">
        <ele>19</ele>
        <time>2026-07-12T20:02:11.000Z</time>
      </trkpt>
      <trkpt lat="43.36401" lon="-1.58323">
        <ele>21</ele>
        <time>2026-07-12T20:02:16.000Z</time>
      </trkpt>
      <trkpt lat="43.36414" lon="-1.58321">
        <ele>22</ele>
        <time>2026-07-12T20:02:19.000Z</time>
      </trkpt>
      <trkpt lat="43.36446" lon="-1.58315">
        <ele>24</ele>
        <time>2026-07-12T20:02:24.000Z</time>
      </trkpt>
      <trkpt lat="43.36449" lon="-1.58315">
        <ele>24</ele>
        <time>2026-07-12T20:02:25.000Z</time>
      </trkpt>
      <trkpt lat="43.36458" lon="-1.58313">
        <ele>25</ele>
        <time>2026-07-12T20:02:27.000Z</time>
      </trkpt>
      <trkpt lat="43.36494" lon="-1.58307">
        <ele>26</ele>
        <time>2026-07-12T20:02:33.000Z</time>
      </trkpt>
      <trkpt lat="43.36507" lon="-1.58306">
        <ele>27</ele>
        <time>2026-07-12T20:02:35.000Z</time>
      </trkpt>
      <trkpt lat="43.36529" lon="-1.58305">
        <ele>29</ele>
        <time>2026-07-12T20:02:39.000Z</time>
      </trkpt>
      <trkpt lat="43.36559" lon="-1.58305">
        <ele>31</ele>
        <time>2026-07-12T20:02:45.000Z</time>
      </trkpt>
      <trkpt lat="43.3658" lon="-1.58304">
        <ele>33</ele>
        <time>2026-07-12T20:02:48.000Z</time>
      </trkpt>
      <trkpt lat="43.366" lon="-1.58305">
        <ele>33</ele>
        <time>2026-07-12T20:02:52.000Z</time>
      </trkpt>
      <trkpt lat="43.36614" lon="-1.58306">
        <ele>34</ele>
        <time>2026-07-12T20:02:54.000Z</time>
      </trkpt>
      <trkpt lat="43.36629" lon="-1.58309">
        <ele>35</ele>
        <time>2026-07-12T20:02:57.000Z</time>
      </trkpt>
      <trkpt lat="43.36642" lon="-1.58313">
        <ele>36</ele>
        <time>2026-07-12T20:02:59.000Z</time>
      </trkpt>
      <trkpt lat="43.36654" lon="-1.58318">
        <ele>37</ele>
        <time>2026-07-12T20:03:02.000Z</time>
      </trkpt>
      <trkpt lat="43.36661" lon="-1.58323">
        <ele>38</ele>
        <time>2026-07-12T20:03:03.000Z</time>
      </trkpt>
      <trkpt lat="43.36671" lon="-1.58331">
        <ele>40</ele>
        <time>2026-07-12T20:03:05.000Z</time>
      </trkpt>
      <trkpt lat="43.36684" lon="-1.58344">
        <ele>41</ele>
        <time>2026-07-12T20:03:08.000Z</time>
      </trkpt>
      <trkpt lat="43.36693" lon="-1.58354">
        <ele>43</ele>
        <time>2026-07-12T20:03:10.000Z</time>
      </trkpt>
      <trkpt lat="43.36696" lon="-1.58359">
        <ele>44</ele>
        <time>2026-07-12T20:03:11.000Z</time>
      </trkpt>
      <trkpt lat="43.36699" lon="-1.58364">
        <ele>44</ele>
        <time>2026-07-12T20:03:12.000Z</time>
      </trkpt>
      <trkpt lat="43.36705" lon="-1.58376">
        <ele>46</ele>
        <time>2026-07-12T20:03:14.000Z</time>
      </trkpt>
      <trkpt lat="43.36709" lon="-1.58388">
        <ele>48</ele>
        <time>2026-07-12T20:03:15.000Z</time>
      </trkpt>
      <trkpt lat="43.36712" lon="-1.58395">
        <ele>50</ele>
        <time>2026-07-12T20:03:16.000Z</time>
      </trkpt>
      <trkpt lat="43.36714" lon="-1.58401">
        <ele>51</ele>
        <time>2026-07-12T20:03:17.000Z</time>
      </trkpt>
      <trkpt lat="43.36722" lon="-1.58411">
        <ele>52</ele>
        <time>2026-07-12T20:03:19.000Z</time>
      </trkpt>
      <trkpt lat="43.3673" lon="-1.58421">
        <ele>53</ele>
        <time>2026-07-12T20:03:21.000Z</time>
      </trkpt>
      <trkpt lat="43.36737" lon="-1.58425">
        <ele>54</ele>
        <time>2026-07-12T20:03:22.000Z</time>
      </trkpt>
      <trkpt lat="43.36747" lon="-1.58431">
        <ele>54</ele>
        <time>2026-07-12T20:03:24.000Z</time>
      </trkpt>
      <trkpt lat="43.36757" lon="-1.58435">
        <ele>53</ele>
        <time>2026-07-12T20:03:26.000Z</time>
      </trkpt>
      <trkpt lat="43.36765" lon="-1.58436">
        <ele>53</ele>
        <time>2026-07-12T20:03:28.000Z</time>
      </trkpt>
      <trkpt lat="43.36773" lon="-1.58436">
        <ele>52</ele>
        <time>2026-07-12T20:03:29.000Z</time>
      </trkpt>
      <trkpt lat="43.36786" lon="-1.58435">
        <ele>51</ele>
        <time>2026-07-12T20:03:31.000Z</time>
      </trkpt>
      <trkpt lat="43.36793" lon="-1.58433">
        <ele>51</ele>
        <time>2026-07-12T20:03:33.000Z</time>
      </trkpt>
      <trkpt lat="43.36818" lon="-1.58429">
        <ele>50</ele>
        <time>2026-07-12T20:03:37.000Z</time>
      </trkpt>
      <trkpt lat="43.3683" lon="-1.58427">
        <ele>49</ele>
        <time>2026-07-12T20:03:39.000Z</time>
      </trkpt>
      <trkpt lat="43.36843" lon="-1.58427">
        <ele>48</ele>
        <time>2026-07-12T20:03:42.000Z</time>
      </trkpt>
      <trkpt lat="43.36851" lon="-1.58428">
        <ele>47</ele>
        <time>2026-07-12T20:03:43.000Z</time>
      </trkpt>
      <trkpt lat="43.36863" lon="-1.5843">
        <ele>46</ele>
        <time>2026-07-12T20:03:45.000Z</time>
      </trkpt>
      <trkpt lat="43.3688" lon="-1.58437">
        <ele>44</ele>
        <time>2026-07-12T20:03:48.000Z</time>
      </trkpt>
      <trkpt lat="43.36889" lon="-1.58441">
        <ele>43</ele>
        <time>2026-07-12T20:03:50.000Z</time>
      </trkpt>
      <trkpt lat="43.36919" lon="-1.58453">
        <ele>42</ele>
        <time>2026-07-12T20:03:56.000Z</time>
      </trkpt>
      <trkpt lat="43.36946" lon="-1.58466">
        <ele>42</ele>
        <time>2026-07-12T20:04:01.000Z</time>
      </trkpt>
      <trkpt lat="43.36967" lon="-1.58479">
        <ele>43</ele>
        <time>2026-07-12T20:04:05.000Z</time>
      </trkpt>
      <trkpt lat="43.36999" lon="-1.585">
        <ele>47</ele>
        <time>2026-07-12T20:04:11.000Z</time>
      </trkpt>
      <trkpt lat="43.37035" lon="-1.58523">
        <ele>47</ele>
        <time>2026-07-12T20:04:18.000Z</time>
      </trkpt>
      <trkpt lat="43.37057" lon="-1.58537">
        <ele>48</ele>
        <time>2026-07-12T20:04:22.000Z</time>
      </trkpt>
      <trkpt lat="43.37077" lon="-1.58551">
        <ele>50</ele>
        <time>2026-07-12T20:04:26.000Z</time>
      </trkpt>
      <trkpt lat="43.37094" lon="-1.58563">
        <ele>52</ele>
        <time>2026-07-12T20:04:30.000Z</time>
      </trkpt>
      <trkpt lat="43.37113" lon="-1.58577">
        <ele>53</ele>
        <time>2026-07-12T20:04:34.000Z</time>
      </trkpt>
      <trkpt lat="43.37124" lon="-1.58588">
        <ele>53</ele>
        <time>2026-07-12T20:04:36.000Z</time>
      </trkpt>
      <trkpt lat="43.3713" lon="-1.58597">
        <ele>53</ele>
        <time>2026-07-12T20:04:38.000Z</time>
      </trkpt>
      <trkpt lat="43.37133" lon="-1.58603">
        <ele>53</ele>
        <time>2026-07-12T20:04:39.000Z</time>
      </trkpt>
      <trkpt lat="43.37137" lon="-1.58612">
        <ele>54</ele>
        <time>2026-07-12T20:04:40.000Z</time>
      </trkpt>
      <trkpt lat="43.37138" lon="-1.58617">
        <ele>54</ele>
        <time>2026-07-12T20:04:41.000Z</time>
      </trkpt>
      <trkpt lat="43.3714" lon="-1.58627">
        <ele>54</ele>
        <time>2026-07-12T20:04:42.000Z</time>
      </trkpt>
      <trkpt lat="43.37141" lon="-1.58632">
        <ele>54</ele>
        <time>2026-07-12T20:04:43.000Z</time>
      </trkpt>
      <trkpt lat="43.37142" lon="-1.58644">
        <ele>55</ele>
        <time>2026-07-12T20:04:44.000Z</time>
      </trkpt>
      <trkpt lat="43.37142" lon="-1.5865">
        <ele>55</ele>
        <time>2026-07-12T20:04:45.000Z</time>
      </trkpt>
      <trkpt lat="43.37142" lon="-1.58668">
        <ele>56</ele>
        <time>2026-07-12T20:04:47.000Z</time>
      </trkpt>
      <trkpt lat="43.37142" lon="-1.5869">
        <ele>56</ele>
        <time>2026-07-12T20:04:50.000Z</time>
      </trkpt>
      <trkpt lat="43.37141" lon="-1.58714">
        <ele>57</ele>
        <time>2026-07-12T20:04:53.000Z</time>
      </trkpt>
      <trkpt lat="43.37143" lon="-1.58735">
        <ele>57</ele>
        <time>2026-07-12T20:04:56.000Z</time>
      </trkpt>
      <trkpt lat="43.37145" lon="-1.58752">
        <ele>57</ele>
        <time>2026-07-12T20:04:58.000Z</time>
      </trkpt>
      <trkpt lat="43.37149" lon="-1.58768">
        <ele>57</ele>
        <time>2026-07-12T20:05:00.000Z</time>
      </trkpt>
      <trkpt lat="43.37153" lon="-1.5878">
        <ele>57</ele>
        <time>2026-07-12T20:05:02.000Z</time>
      </trkpt>
      <trkpt lat="43.37158" lon="-1.58791">
        <ele>58</ele>
        <time>2026-07-12T20:05:04.000Z</time>
      </trkpt>
      <trkpt lat="43.37161" lon="-1.58797">
        <ele>58</ele>
        <time>2026-07-12T20:05:05.000Z</time>
      </trkpt>
      <trkpt lat="43.37168" lon="-1.58806">
        <ele>58</ele>
        <time>2026-07-12T20:05:06.000Z</time>
      </trkpt>
      <trkpt lat="43.37172" lon="-1.58811">
        <ele>58</ele>
        <time>2026-07-12T20:05:07.000Z</time>
      </trkpt>
      <trkpt lat="43.37182" lon="-1.58818">
        <ele>58</ele>
        <time>2026-07-12T20:05:09.000Z</time>
      </trkpt>
      <trkpt lat="43.37193" lon="-1.58825">
        <ele>59</ele>
        <time>2026-07-12T20:05:12.000Z</time>
      </trkpt>
      <trkpt lat="43.37205" lon="-1.58833">
        <ele>59</ele>
        <time>2026-07-12T20:05:14.000Z</time>
      </trkpt>
      <trkpt lat="43.37222" lon="-1.58844">
        <ele>60</ele>
        <time>2026-07-12T20:05:17.000Z</time>
      </trkpt>
      <trkpt lat="43.37242" lon="-1.58856">
        <ele>61</ele>
        <time>2026-07-12T20:05:21.000Z</time>
      </trkpt>
      <trkpt lat="43.37259" lon="-1.58866">
        <ele>63</ele>
        <time>2026-07-12T20:05:24.000Z</time>
      </trkpt>
      <trkpt lat="43.37293" lon="-1.5888">
        <ele>66</ele>
        <time>2026-07-12T20:05:31.000Z</time>
      </trkpt>
      <trkpt lat="43.37296" lon="-1.58881">
        <ele>66</ele>
        <time>2026-07-12T20:05:31.000Z</time>
      </trkpt>
      <trkpt lat="43.37308" lon="-1.58886">
        <ele>68</ele>
        <time>2026-07-12T20:05:34.000Z</time>
      </trkpt>
      <trkpt lat="43.37313" lon="-1.58889">
        <ele>68</ele>
        <time>2026-07-12T20:05:35.000Z</time>
      </trkpt>
      <trkpt lat="43.37317" lon="-1.58892">
        <ele>69</ele>
        <time>2026-07-12T20:05:35.000Z</time>
      </trkpt>
      <trkpt lat="43.37327" lon="-1.589">
        <ele>70</ele>
        <time>2026-07-12T20:05:37.000Z</time>
      </trkpt>
      <trkpt lat="43.3733" lon="-1.58903">
        <ele>70</ele>
        <time>2026-07-12T20:05:38.000Z</time>
      </trkpt>
      <trkpt lat="43.37338" lon="-1.58913">
        <ele>72</ele>
        <time>2026-07-12T20:05:40.000Z</time>
      </trkpt>
      <trkpt lat="43.37347" lon="-1.58925">
        <ele>73</ele>
        <time>2026-07-12T20:05:42.000Z</time>
      </trkpt>
      <trkpt lat="43.37355" lon="-1.5894">
        <ele>75</ele>
        <time>2026-07-12T20:05:45.000Z</time>
      </trkpt>
      <trkpt lat="43.37363" lon="-1.5896">
        <ele>77</ele>
        <time>2026-07-12T20:05:48.000Z</time>
      </trkpt>
      <trkpt lat="43.37365" lon="-1.58967">
        <ele>77</ele>
        <time>2026-07-12T20:05:49.000Z</time>
      </trkpt>
      <trkpt lat="43.37366" lon="-1.58974">
        <ele>78</ele>
        <time>2026-07-12T20:05:49.000Z</time>
      </trkpt>
      <trkpt lat="43.37375" lon="-1.59009">
        <ele>80</ele>
        <time>2026-07-12T20:05:54.000Z</time>
      </trkpt>
      <trkpt lat="43.37383" lon="-1.5903">
        <ele>80</ele>
        <time>2026-07-12T20:05:57.000Z</time>
      </trkpt>
      <trkpt lat="43.37388" lon="-1.59044">
        <ele>81</ele>
        <time>2026-07-12T20:05:59.000Z</time>
      </trkpt>
      <trkpt lat="43.37398" lon="-1.59061">
        <ele>82</ele>
        <time>2026-07-12T20:06:02.000Z</time>
      </trkpt>
      <trkpt lat="43.37409" lon="-1.59078">
        <ele>85</ele>
        <time>2026-07-12T20:06:05.000Z</time>
      </trkpt>
      <trkpt lat="43.37417" lon="-1.59092">
        <ele>85</ele>
        <time>2026-07-12T20:06:07.000Z</time>
      </trkpt>
      <trkpt lat="43.37429" lon="-1.59109">
        <ele>85</ele>
        <time>2026-07-12T20:06:10.000Z</time>
      </trkpt>
      <trkpt lat="43.37442" lon="-1.59127">
        <ele>85</ele>
        <time>2026-07-12T20:06:14.000Z</time>
      </trkpt>
      <trkpt lat="43.37454" lon="-1.59144">
        <ele>85</ele>
        <time>2026-07-12T20:06:17.000Z</time>
      </trkpt>
      <trkpt lat="43.37464" lon="-1.59162">
        <ele>84</ele>
        <time>2026-07-12T20:06:20.000Z</time>
      </trkpt>
      <trkpt lat="43.37471" lon="-1.59177">
        <ele>85</ele>
        <time>2026-07-12T20:06:22.000Z</time>
      </trkpt>
      <trkpt lat="43.37474" lon="-1.59189">
        <ele>85</ele>
        <time>2026-07-12T20:06:24.000Z</time>
      </trkpt>
      <trkpt lat="43.37475" lon="-1.59198">
        <ele>85</ele>
        <time>2026-07-12T20:06:25.000Z</time>
      </trkpt>
      <trkpt lat="43.37479" lon="-1.59224">
        <ele>85</ele>
        <time>2026-07-12T20:06:28.000Z</time>
      </trkpt>
      <trkpt lat="43.37485" lon="-1.59259">
        <ele>86</ele>
        <time>2026-07-12T20:06:33.000Z</time>
      </trkpt>
      <trkpt lat="43.37487" lon="-1.59275">
        <ele>86</ele>
        <time>2026-07-12T20:06:35.000Z</time>
      </trkpt>
      <trkpt lat="43.37492" lon="-1.59303">
        <ele>87</ele>
        <time>2026-07-12T20:06:39.000Z</time>
      </trkpt>
      <trkpt lat="43.37495" lon="-1.59325">
        <ele>88</ele>
        <time>2026-07-12T20:06:42.000Z</time>
      </trkpt>
      <trkpt lat="43.37498" lon="-1.59342">
        <ele>88</ele>
        <time>2026-07-12T20:06:44.000Z</time>
      </trkpt>
      <trkpt lat="43.37502" lon="-1.59371">
        <ele>88</ele>
        <time>2026-07-12T20:06:48.000Z</time>
      </trkpt>
      <trkpt lat="43.37507" lon="-1.59395">
        <ele>88</ele>
        <time>2026-07-12T20:06:51.000Z</time>
      </trkpt>
      <trkpt lat="43.3751" lon="-1.59403">
        <ele>88</ele>
        <time>2026-07-12T20:06:52.000Z</time>
      </trkpt>
      <trkpt lat="43.37513" lon="-1.5941">
        <ele>88</ele>
        <time>2026-07-12T20:06:53.000Z</time>
      </trkpt>
      <trkpt lat="43.37517" lon="-1.59416">
        <ele>88</ele>
        <time>2026-07-12T20:06:54.000Z</time>
      </trkpt>
      <trkpt lat="43.37522" lon="-1.59423">
        <ele>88</ele>
        <time>2026-07-12T20:06:56.000Z</time>
      </trkpt>
      <trkpt lat="43.37524" lon="-1.59425">
        <ele>88</ele>
        <time>2026-07-12T20:06:56.000Z</time>
      </trkpt>
      <trkpt lat="43.3753" lon="-1.59429">
        <ele>87</ele>
        <time>2026-07-12T20:06:57.000Z</time>
      </trkpt>
      <trkpt lat="43.37538" lon="-1.59433">
        <ele>87</ele>
        <time>2026-07-12T20:06:59.000Z</time>
      </trkpt>
      <trkpt lat="43.37549" lon="-1.59437">
        <ele>87</ele>
        <time>2026-07-12T20:07:01.000Z</time>
      </trkpt>
      <trkpt lat="43.37565" lon="-1.59439">
        <ele>86</ele>
        <time>2026-07-12T20:07:04.000Z</time>
      </trkpt>
      <trkpt lat="43.37583" lon="-1.59438">
        <ele>86</ele>
        <time>2026-07-12T20:07:07.000Z</time>
      </trkpt>
      <trkpt lat="43.37602" lon="-1.59437">
        <ele>85</ele>
        <time>2026-07-12T20:07:10.000Z</time>
      </trkpt>
      <trkpt lat="43.37616" lon="-1.59435">
        <ele>84</ele>
        <time>2026-07-12T20:07:13.000Z</time>
      </trkpt>
      <trkpt lat="43.37637" lon="-1.59433">
        <ele>82</ele>
        <time>2026-07-12T20:07:16.000Z</time>
      </trkpt>
      <trkpt lat="43.37658" lon="-1.59431">
        <ele>80</ele>
        <time>2026-07-12T20:07:20.000Z</time>
      </trkpt>
      <trkpt lat="43.37672" lon="-1.5943">
        <ele>80</ele>
        <time>2026-07-12T20:07:23.000Z</time>
      </trkpt>
      <trkpt lat="43.37684" lon="-1.59431">
        <ele>79</ele>
        <time>2026-07-12T20:07:25.000Z</time>
      </trkpt>
      <trkpt lat="43.3769" lon="-1.59432">
        <ele>79</ele>
        <time>2026-07-12T20:07:26.000Z</time>
      </trkpt>
      <trkpt lat="43.37695" lon="-1.59434">
        <ele>79</ele>
        <time>2026-07-12T20:07:27.000Z</time>
      </trkpt>
      <trkpt lat="43.37701" lon="-1.59436">
        <ele>79</ele>
        <time>2026-07-12T20:07:28.000Z</time>
      </trkpt>
      <trkpt lat="43.37705" lon="-1.59439">
        <ele>79</ele>
        <time>2026-07-12T20:07:29.000Z</time>
      </trkpt>
      <trkpt lat="43.37711" lon="-1.59444">
        <ele>80</ele>
        <time>2026-07-12T20:07:30.000Z</time>
      </trkpt>
      <trkpt lat="43.3772" lon="-1.59455">
        <ele>80</ele>
        <time>2026-07-12T20:07:32.000Z</time>
      </trkpt>
      <trkpt lat="43.37726" lon="-1.59467">
        <ele>81</ele>
        <time>2026-07-12T20:07:34.000Z</time>
      </trkpt>
      <trkpt lat="43.37732" lon="-1.59481">
        <ele>82</ele>
        <time>2026-07-12T20:07:36.000Z</time>
      </trkpt>
      <trkpt lat="43.37739" lon="-1.59498">
        <ele>84</ele>
        <time>2026-07-12T20:07:39.000Z</time>
      </trkpt>
      <trkpt lat="43.37746" lon="-1.59514">
        <ele>84</ele>
        <time>2026-07-12T20:07:41.000Z</time>
      </trkpt>
      <trkpt lat="43.37758" lon="-1.59546">
        <ele>84</ele>
        <time>2026-07-12T20:07:46.000Z</time>
      </trkpt>
      <trkpt lat="43.3777" lon="-1.59576">
        <ele>84</ele>
        <time>2026-07-12T20:07:50.000Z</time>
      </trkpt>
      <trkpt lat="43.3779" lon="-1.59625">
        <ele>84</ele>
        <time>2026-07-12T20:07:57.000Z</time>
      </trkpt>
      <trkpt lat="43.37802" lon="-1.59655">
        <ele>84</ele>
        <time>2026-07-12T20:08:02.000Z</time>
      </trkpt>
      <trkpt lat="43.37806" lon="-1.59664">
        <ele>84</ele>
        <time>2026-07-12T20:08:03.000Z</time>
      </trkpt>
      <trkpt lat="43.37812" lon="-1.5968">
        <ele>85</ele>
        <time>2026-07-12T20:08:05.000Z</time>
      </trkpt>
      <trkpt lat="43.37814" lon="-1.59686">
        <ele>85</ele>
        <time>2026-07-12T20:08:06.000Z</time>
      </trkpt>
      <trkpt lat="43.37817" lon="-1.59699">
        <ele>85</ele>
        <time>2026-07-12T20:08:08.000Z</time>
      </trkpt>
      <trkpt lat="43.3782" lon="-1.59713">
        <ele>85</ele>
        <time>2026-07-12T20:08:10.000Z</time>
      </trkpt>
      <trkpt lat="43.37824" lon="-1.59744">
        <ele>85</ele>
        <time>2026-07-12T20:08:14.000Z</time>
      </trkpt>
      <trkpt lat="43.37827" lon="-1.59787">
        <ele>84</ele>
        <time>2026-07-12T20:08:20.000Z</time>
      </trkpt>
      <trkpt lat="43.37832" lon="-1.59843">
        <ele>82</ele>
        <time>2026-07-12T20:08:27.000Z</time>
      </trkpt>
      <trkpt lat="43.37833" lon="-1.59858">
        <ele>82</ele>
        <time>2026-07-12T20:08:29.000Z</time>
      </trkpt>
      <trkpt lat="43.37837" lon="-1.59906">
        <ele>81</ele>
        <time>2026-07-12T20:08:35.000Z</time>
      </trkpt>
      <trkpt lat="43.3784" lon="-1.59929">
        <ele>81</ele>
        <time>2026-07-12T20:08:38.000Z</time>
      </trkpt>
      <trkpt lat="43.37843" lon="-1.59948">
        <ele>82</ele>
        <time>2026-07-12T20:08:41.000Z</time>
      </trkpt>
      <trkpt lat="43.37847" lon="-1.5996">
        <ele>82</ele>
        <time>2026-07-12T20:08:42.000Z</time>
      </trkpt>
      <trkpt lat="43.37852" lon="-1.59974">
        <ele>82</ele>
        <time>2026-07-12T20:08:44.000Z</time>
      </trkpt>
      <trkpt lat="43.37869" lon="-1.60003">
        <ele>83</ele>
        <time>2026-07-12T20:08:49.000Z</time>
      </trkpt>
      <trkpt lat="43.37891" lon="-1.60033">
        <ele>82</ele>
        <time>2026-07-12T20:08:55.000Z</time>
      </trkpt>
      <trkpt lat="43.3791" lon="-1.60057">
        <ele>81</ele>
        <time>2026-07-12T20:08:59.000Z</time>
      </trkpt>
      <trkpt lat="43.37916" lon="-1.60064">
        <ele>80</ele>
        <time>2026-07-12T20:09:01.000Z</time>
      </trkpt>
      <trkpt lat="43.38014" lon="-1.6019">
        <ele>78</ele>
        <time>2026-07-12T20:09:25.000Z</time>
      </trkpt>
      <trkpt lat="43.38035" lon="-1.60217">
        <ele>78</ele>
        <time>2026-07-12T20:09:30.000Z</time>
      </trkpt>
      <trkpt lat="43.38044" lon="-1.60231">
        <ele>78</ele>
        <time>2026-07-12T20:09:32.000Z</time>
      </trkpt>
      <trkpt lat="43.38047" lon="-1.60238">
        <ele>78</ele>
        <time>2026-07-12T20:09:33.000Z</time>
      </trkpt>
      <trkpt lat="43.38051" lon="-1.60246">
        <ele>78</ele>
        <time>2026-07-12T20:09:34.000Z</time>
      </trkpt>
      <trkpt lat="43.38057" lon="-1.60264">
        <ele>78</ele>
        <time>2026-07-12T20:09:37.000Z</time>
      </trkpt>
      <trkpt lat="43.38071" lon="-1.60326">
        <ele>79</ele>
        <time>2026-07-12T20:09:45.000Z</time>
      </trkpt>
      <trkpt lat="43.38089" lon="-1.60404">
        <ele>80</ele>
        <time>2026-07-12T20:09:56.000Z</time>
      </trkpt>
      <trkpt lat="43.38092" lon="-1.60427">
        <ele>80</ele>
        <time>2026-07-12T20:09:59.000Z</time>
      </trkpt>
      <trkpt lat="43.38094" lon="-1.60435">
        <ele>81</ele>
        <time>2026-07-12T20:10:00.000Z</time>
      </trkpt>
      <trkpt lat="43.38095" lon="-1.60457">
        <ele>81</ele>
        <time>2026-07-12T20:10:03.000Z</time>
      </trkpt>
      <trkpt lat="43.38093" lon="-1.60484">
        <ele>82</ele>
        <time>2026-07-12T20:10:06.000Z</time>
      </trkpt>
      <trkpt lat="43.38087" lon="-1.60528">
        <ele>84</ele>
        <time>2026-07-12T20:10:12.000Z</time>
      </trkpt>
      <trkpt lat="43.38083" lon="-1.60557">
        <ele>85</ele>
        <time>2026-07-12T20:10:16.000Z</time>
      </trkpt>
      <trkpt lat="43.3808" lon="-1.60582">
        <ele>86</ele>
        <time>2026-07-12T20:10:19.000Z</time>
      </trkpt>
      <trkpt lat="43.38076" lon="-1.60608">
        <ele>85</ele>
        <time>2026-07-12T20:10:23.000Z</time>
      </trkpt>
      <trkpt lat="43.38075" lon="-1.60618">
        <ele>84</ele>
        <time>2026-07-12T20:10:24.000Z</time>
      </trkpt>
      <trkpt lat="43.38074" lon="-1.60648">
        <ele>84</ele>
        <time>2026-07-12T20:10:28.000Z</time>
      </trkpt>
      <trkpt lat="43.38075" lon="-1.60676">
        <ele>83</ele>
        <time>2026-07-12T20:10:32.000Z</time>
      </trkpt>
      <trkpt lat="43.38076" lon="-1.60709">
        <ele>83</ele>
        <time>2026-07-12T20:10:36.000Z</time>
      </trkpt>
      <trkpt lat="43.38076" lon="-1.60747">
        <ele>82</ele>
        <time>2026-07-12T20:10:41.000Z</time>
      </trkpt>
      <trkpt lat="43.38075" lon="-1.60772">
        <ele>81</ele>
        <time>2026-07-12T20:10:44.000Z</time>
      </trkpt>
      <trkpt lat="43.38075" lon="-1.6078">
        <ele>81</ele>
        <time>2026-07-12T20:10:45.000Z</time>
      </trkpt>
      <trkpt lat="43.38071" lon="-1.60812">
        <ele>79</ele>
        <time>2026-07-12T20:10:49.000Z</time>
      </trkpt>
      <trkpt lat="43.38063" lon="-1.6084">
        <ele>79</ele>
        <time>2026-07-12T20:10:53.000Z</time>
      </trkpt>
      <trkpt lat="43.38058" lon="-1.60857">
        <ele>78</ele>
        <time>2026-07-12T20:10:55.000Z</time>
      </trkpt>
      <trkpt lat="43.38056" lon="-1.60862">
        <ele>79</ele>
        <time>2026-07-12T20:10:56.000Z</time>
      </trkpt>
      <trkpt lat="43.38053" lon="-1.60876">
        <ele>78</ele>
        <time>2026-07-12T20:10:58.000Z</time>
      </trkpt>
      <trkpt lat="43.38053" lon="-1.60893">
        <ele>78</ele>
        <time>2026-07-12T20:11:00.000Z</time>
      </trkpt>
      <trkpt lat="43.38056" lon="-1.60908">
        <ele>77</ele>
        <time>2026-07-12T20:11:02.000Z</time>
      </trkpt>
      <trkpt lat="43.38058" lon="-1.60916">
        <ele>77</ele>
        <time>2026-07-12T20:11:03.000Z</time>
      </trkpt>
      <trkpt lat="43.38075" lon="-1.60946">
        <ele>77</ele>
        <time>2026-07-12T20:11:08.000Z</time>
      </trkpt>
      <trkpt lat="43.38089" lon="-1.60969">
        <ele>78</ele>
        <time>2026-07-12T20:11:12.000Z</time>
      </trkpt>
      <trkpt lat="43.38098" lon="-1.60994">
        <ele>78</ele>
        <time>2026-07-12T20:11:16.000Z</time>
      </trkpt>
      <trkpt lat="43.38106" lon="-1.61029">
        <ele>78</ele>
        <time>2026-07-12T20:11:21.000Z</time>
      </trkpt>
      <trkpt lat="43.38112" lon="-1.61063">
        <ele>78</ele>
        <time>2026-07-12T20:11:25.000Z</time>
      </trkpt>
      <trkpt lat="43.38115" lon="-1.61092">
        <ele>78</ele>
        <time>2026-07-12T20:11:29.000Z</time>
      </trkpt>
      <trkpt lat="43.38114" lon="-1.61107">
        <ele>78</ele>
        <time>2026-07-12T20:11:31.000Z</time>
      </trkpt>
      <trkpt lat="43.38114" lon="-1.6113">
        <ele>78</ele>
        <time>2026-07-12T20:11:34.000Z</time>
      </trkpt>
      <trkpt lat="43.3811" lon="-1.61179">
        <ele>78</ele>
        <time>2026-07-12T20:11:40.000Z</time>
      </trkpt>
      <trkpt lat="43.38106" lon="-1.6123">
        <ele>78</ele>
        <time>2026-07-12T20:11:47.000Z</time>
      </trkpt>
      <trkpt lat="43.38104" lon="-1.61249">
        <ele>79</ele>
        <time>2026-07-12T20:11:49.000Z</time>
      </trkpt>
      <trkpt lat="43.38098" lon="-1.61327">
        <ele>78</ele>
        <time>2026-07-12T20:11:59.000Z</time>
      </trkpt>
      <trkpt lat="43.38095" lon="-1.61379">
        <ele>77</ele>
        <time>2026-07-12T20:12:06.000Z</time>
      </trkpt>
      <trkpt lat="43.38089" lon="-1.61463">
        <ele>77</ele>
        <time>2026-07-12T20:12:17.000Z</time>
      </trkpt>
      <trkpt lat="43.38088" lon="-1.61478">
        <ele>77</ele>
        <time>2026-07-12T20:12:19.000Z</time>
      </trkpt>
      <trkpt lat="43.38086" lon="-1.61522">
        <ele>77</ele>
        <time>2026-07-12T20:12:25.000Z</time>
      </trkpt>
      <trkpt lat="43.38086" lon="-1.61524">
        <ele>77</ele>
        <time>2026-07-12T20:12:25.000Z</time>
      </trkpt>
      <trkpt lat="43.38086" lon="-1.61555">
        <ele>77</ele>
        <time>2026-07-12T20:12:29.000Z</time>
      </trkpt>
      <trkpt lat="43.38089" lon="-1.6158">
        <ele>76</ele>
        <time>2026-07-12T20:12:32.000Z</time>
      </trkpt>
      <trkpt lat="43.38089" lon="-1.61583">
        <ele>76</ele>
        <time>2026-07-12T20:12:33.000Z</time>
      </trkpt>
      <trkpt lat="43.38094" lon="-1.61605">
        <ele>75</ele>
        <time>2026-07-12T20:12:36.000Z</time>
      </trkpt>
      <trkpt lat="43.38102" lon="-1.61627">
        <ele>74</ele>
        <time>2026-07-12T20:12:39.000Z</time>
      </trkpt>
      <trkpt lat="43.38108" lon="-1.61641">
        <ele>74</ele>
        <time>2026-07-12T20:12:41.000Z</time>
      </trkpt>
      <trkpt lat="43.38116" lon="-1.61651">
        <ele>74</ele>
        <time>2026-07-12T20:12:43.000Z</time>
      </trkpt>
      <trkpt lat="43.38132" lon="-1.61667">
        <ele>74</ele>
        <time>2026-07-12T20:12:46.000Z</time>
      </trkpt>
      <trkpt lat="43.3816" lon="-1.61695">
        <ele>74</ele>
        <time>2026-07-12T20:12:53.000Z</time>
      </trkpt>
      <trkpt lat="43.38187" lon="-1.61723">
        <ele>75</ele>
        <time>2026-07-12T20:12:59.000Z</time>
      </trkpt>
      <trkpt lat="43.38201" lon="-1.61735">
        <ele>76</ele>
        <time>2026-07-12T20:13:01.000Z</time>
      </trkpt>
      <trkpt lat="43.38215" lon="-1.61749">
        <ele>78</ele>
        <time>2026-07-12T20:13:05.000Z</time>
      </trkpt>
      <trkpt lat="43.3823" lon="-1.61764">
        <ele>78</ele>
        <time>2026-07-12T20:13:08.000Z</time>
      </trkpt>
      <trkpt lat="43.3824" lon="-1.61772">
        <ele>79</ele>
        <time>2026-07-12T20:13:10.000Z</time>
      </trkpt>
      <trkpt lat="43.38264" lon="-1.61797">
        <ele>80</ele>
        <time>2026-07-12T20:13:15.000Z</time>
      </trkpt>
      <trkpt lat="43.38288" lon="-1.6182">
        <ele>80</ele>
        <time>2026-07-12T20:13:20.000Z</time>
      </trkpt>
      <trkpt lat="43.38306" lon="-1.61836">
        <ele>80</ele>
        <time>2026-07-12T20:13:24.000Z</time>
      </trkpt>
      <trkpt lat="43.38311" lon="-1.6184">
        <ele>79</ele>
        <time>2026-07-12T20:13:25.000Z</time>
      </trkpt>
      <trkpt lat="43.38316" lon="-1.61842">
        <ele>79</ele>
        <time>2026-07-12T20:13:26.000Z</time>
      </trkpt>
      <trkpt lat="43.38327" lon="-1.61848">
        <ele>78</ele>
        <time>2026-07-12T20:13:28.000Z</time>
      </trkpt>
      <trkpt lat="43.38335" lon="-1.61851">
        <ele>78</ele>
        <time>2026-07-12T20:13:30.000Z</time>
      </trkpt>
      <trkpt lat="43.38345" lon="-1.61854">
        <ele>78</ele>
        <time>2026-07-12T20:13:32.000Z</time>
      </trkpt>
      <trkpt lat="43.3835" lon="-1.61854">
        <ele>78</ele>
        <time>2026-07-12T20:13:33.000Z</time>
      </trkpt>
      <trkpt lat="43.38357" lon="-1.61855">
        <ele>78</ele>
        <time>2026-07-12T20:13:34.000Z</time>
      </trkpt>
      <trkpt lat="43.38381" lon="-1.61853">
        <ele>78</ele>
        <time>2026-07-12T20:13:38.000Z</time>
      </trkpt>
      <trkpt lat="43.38417" lon="-1.61847">
        <ele>78</ele>
        <time>2026-07-12T20:13:45.000Z</time>
      </trkpt>
      <trkpt lat="43.38462" lon="-1.61842">
        <ele>78</ele>
        <time>2026-07-12T20:13:53.000Z</time>
      </trkpt>
      <trkpt lat="43.38469" lon="-1.61842">
        <ele>78</ele>
        <time>2026-07-12T20:13:54.000Z</time>
      </trkpt>
      <trkpt lat="43.38476" lon="-1.61843">
        <ele>78</ele>
        <time>2026-07-12T20:13:55.000Z</time>
      </trkpt>
      <trkpt lat="43.38493" lon="-1.61848">
        <ele>78</ele>
        <time>2026-07-12T20:13:58.000Z</time>
      </trkpt>
      <trkpt lat="43.38533" lon="-1.61861">
        <ele>77</ele>
        <time>2026-07-12T20:14:05.000Z</time>
      </trkpt>
      <trkpt lat="43.38541" lon="-1.61864">
        <ele>76</ele>
        <time>2026-07-12T20:14:07.000Z</time>
      </trkpt>
      <trkpt lat="43.38543" lon="-1.61865">
        <ele>76</ele>
        <time>2026-07-12T20:14:07.000Z</time>
      </trkpt>
      <trkpt lat="43.38558" lon="-1.61872">
        <ele>76</ele>
        <time>2026-07-12T20:14:10.000Z</time>
      </trkpt>
      <trkpt lat="43.38574" lon="-1.61882">
        <ele>75</ele>
        <time>2026-07-12T20:14:13.000Z</time>
      </trkpt>
      <trkpt lat="43.38603" lon="-1.61905">
        <ele>74</ele>
        <time>2026-07-12T20:14:19.000Z</time>
      </trkpt>
      <trkpt lat="43.38632" lon="-1.61934">
        <ele>72</ele>
        <time>2026-07-12T20:14:26.000Z</time>
      </trkpt>
      <trkpt lat="43.38647" lon="-1.61954">
        <ele>70</ele>
        <time>2026-07-12T20:14:29.000Z</time>
      </trkpt>
      <trkpt lat="43.38665" lon="-1.61983">
        <ele>68</ele>
        <time>2026-07-12T20:14:34.000Z</time>
      </trkpt>
      <trkpt lat="43.38678" lon="-1.6201">
        <ele>66</ele>
        <time>2026-07-12T20:14:38.000Z</time>
      </trkpt>
      <trkpt lat="43.38689" lon="-1.62038">
        <ele>65</ele>
        <time>2026-07-12T20:14:43.000Z</time>
      </trkpt>
      <trkpt lat="43.38702" lon="-1.6208">
        <ele>63</ele>
        <time>2026-07-12T20:14:48.000Z</time>
      </trkpt>
      <trkpt lat="43.38709" lon="-1.62107">
        <ele>62</ele>
        <time>2026-07-12T20:14:52.000Z</time>
      </trkpt>
      <trkpt lat="43.38709" lon="-1.62107">
        <ele>62</ele>
        <time>2026-07-12T20:14:52.000Z</time>
      </trkpt>
      <trkpt lat="43.38713" lon="-1.62123">
        <ele>61</ele>
        <time>2026-07-12T20:14:54.000Z</time>
      </trkpt>
      <trkpt lat="43.38717" lon="-1.62154">
        <ele>60</ele>
        <time>2026-07-12T20:14:58.000Z</time>
      </trkpt>
      <trkpt lat="43.3872" lon="-1.62173">
        <ele>60</ele>
        <time>2026-07-12T20:15:01.000Z</time>
      </trkpt>
      <trkpt lat="43.38721" lon="-1.62182">
        <ele>59</ele>
        <time>2026-07-12T20:15:02.000Z</time>
      </trkpt>
      <trkpt lat="43.38728" lon="-1.62242">
        <ele>58</ele>
        <time>2026-07-12T20:15:10.000Z</time>
      </trkpt>
      <trkpt lat="43.38739" lon="-1.62327">
        <ele>60</ele>
        <time>2026-07-12T20:15:21.000Z</time>
      </trkpt>
      <trkpt lat="43.38745" lon="-1.62373">
        <ele>61</ele>
        <time>2026-07-12T20:15:27.000Z</time>
      </trkpt>
      <trkpt lat="43.38747" lon="-1.62388">
        <ele>61</ele>
        <time>2026-07-12T20:15:29.000Z</time>
      </trkpt>
      <trkpt lat="43.38747" lon="-1.62388">
        <ele>61</ele>
        <time>2026-07-12T20:15:29.000Z</time>
      </trkpt>
      <trkpt lat="43.38732" lon="-1.62392">
        <ele>60</ele>
        <time>2026-07-12T20:15:32.000Z</time>
      </trkpt>
      <trkpt lat="43.38714" lon="-1.62401">
        <ele>59</ele>
        <time>2026-07-12T20:15:35.000Z</time>
      </trkpt>
      <trkpt lat="43.38691" lon="-1.62415">
        <ele>58</ele>
        <time>2026-07-12T20:15:40.000Z</time>
      </trkpt>
      <trkpt lat="43.38682" lon="-1.6242">
        <ele>58</ele>
        <time>2026-07-12T20:15:41.000Z</time>
      </trkpt>
      <trkpt lat="43.38662" lon="-1.62436">
        <ele>57</ele>
        <time>2026-07-12T20:15:46.000Z</time>
      </trkpt>
      <trkpt lat="43.38654" lon="-1.62447">
        <ele>56</ele>
        <time>2026-07-12T20:15:48.000Z</time>
      </trkpt>
      <trkpt lat="43.38651" lon="-1.62454">
        <ele>56</ele>
        <time>2026-07-12T20:15:49.000Z</time>
      </trkpt>
      <trkpt lat="43.38649" lon="-1.62462">
        <ele>55</ele>
        <time>2026-07-12T20:15:50.000Z</time>
      </trkpt>
      <trkpt lat="43.38649" lon="-1.62474">
        <ele>55</ele>
        <time>2026-07-12T20:15:51.000Z</time>
      </trkpt>
      <trkpt lat="43.3865" lon="-1.62482">
        <ele>56</ele>
        <time>2026-07-12T20:15:52.000Z</time>
      </trkpt>
      <trkpt lat="43.38651" lon="-1.62495">
        <ele>56</ele>
        <time>2026-07-12T20:15:54.000Z</time>
      </trkpt>
      <trkpt lat="43.38651" lon="-1.62506">
        <ele>56</ele>
        <time>2026-07-12T20:15:55.000Z</time>
      </trkpt>
      <trkpt lat="43.38649" lon="-1.62514">
        <ele>56</ele>
        <time>2026-07-12T20:15:57.000Z</time>
      </trkpt>
      <trkpt lat="43.38646" lon="-1.62524">
        <ele>56</ele>
        <time>2026-07-12T20:15:58.000Z</time>
      </trkpt>
      <trkpt lat="43.3864" lon="-1.62532">
        <ele>56</ele>
        <time>2026-07-12T20:15:59.000Z</time>
      </trkpt>
      <trkpt lat="43.38635" lon="-1.62537">
        <ele>56</ele>
        <time>2026-07-12T20:16:01.000Z</time>
      </trkpt>
      <trkpt lat="43.38616" lon="-1.62557">
        <ele>55</ele>
        <time>2026-07-12T20:16:05.000Z</time>
      </trkpt>
      <trkpt lat="43.38602" lon="-1.62576">
        <ele>56</ele>
        <time>2026-07-12T20:16:08.000Z</time>
      </trkpt>
      <trkpt lat="43.38577" lon="-1.62622">
        <ele>55</ele>
        <time>2026-07-12T20:16:16.000Z</time>
      </trkpt>
      <trkpt lat="43.38574" lon="-1.62629">
        <ele>56</ele>
        <time>2026-07-12T20:16:17.000Z</time>
      </trkpt>
      <trkpt lat="43.38567" lon="-1.62648">
        <ele>56</ele>
        <time>2026-07-12T20:16:20.000Z</time>
      </trkpt>
      <trkpt lat="43.38563" lon="-1.62659">
        <ele>57</ele>
        <time>2026-07-12T20:16:21.000Z</time>
      </trkpt>
      <trkpt lat="43.38562" lon="-1.62661">
        <ele>57</ele>
        <time>2026-07-12T20:16:21.000Z</time>
      </trkpt>
      <trkpt lat="43.38559" lon="-1.62677">
        <ele>57</ele>
        <time>2026-07-12T20:16:24.000Z</time>
      </trkpt>
      <trkpt lat="43.38556" lon="-1.6272">
        <ele>55</ele>
        <time>2026-07-12T20:16:29.000Z</time>
      </trkpt>
      <trkpt lat="43.38556" lon="-1.62745">
        <ele>54</ele>
        <time>2026-07-12T20:16:32.000Z</time>
      </trkpt>
      <trkpt lat="43.38556" lon="-1.62763">
        <ele>54</ele>
        <time>2026-07-12T20:16:35.000Z</time>
      </trkpt>
      <trkpt lat="43.38556" lon="-1.62788">
        <ele>52</ele>
        <time>2026-07-12T20:16:38.000Z</time>
      </trkpt>
      <trkpt lat="43.38557" lon="-1.62828">
        <ele>51</ele>
        <time>2026-07-12T20:16:43.000Z</time>
      </trkpt>
      <trkpt lat="43.38557" lon="-1.6283">
        <ele>50</ele>
        <time>2026-07-12T20:16:43.000Z</time>
      </trkpt>
      <trkpt lat="43.38557" lon="-1.6286">
        <ele>50</ele>
        <time>2026-07-12T20:16:47.000Z</time>
      </trkpt>
      <trkpt lat="43.38557" lon="-1.62896">
        <ele>49</ele>
        <time>2026-07-12T20:16:52.000Z</time>
      </trkpt>
      <trkpt lat="43.38557" lon="-1.62923">
        <ele>48</ele>
        <time>2026-07-12T20:16:55.000Z</time>
      </trkpt>
      <trkpt lat="43.38556" lon="-1.62939">
        <ele>48</ele>
        <time>2026-07-12T20:16:57.000Z</time>
      </trkpt>
      <trkpt lat="43.38554" lon="-1.62946">
        <ele>48</ele>
        <time>2026-07-12T20:16:58.000Z</time>
      </trkpt>
      <trkpt lat="43.38551" lon="-1.62963">
        <ele>47</ele>
        <time>2026-07-12T20:17:01.000Z</time>
      </trkpt>
      <trkpt lat="43.38545" lon="-1.62984">
        <ele>47</ele>
        <time>2026-07-12T20:17:04.000Z</time>
      </trkpt>
      <trkpt lat="43.38535" lon="-1.63008">
        <ele>47</ele>
        <time>2026-07-12T20:17:07.000Z</time>
      </trkpt>
      <trkpt lat="43.38525" lon="-1.63031">
        <ele>48</ele>
        <time>2026-07-12T20:17:11.000Z</time>
      </trkpt>
      <trkpt lat="43.38514" lon="-1.63049">
        <ele>48</ele>
        <time>2026-07-12T20:17:14.000Z</time>
      </trkpt>
      <trkpt lat="43.38509" lon="-1.63058">
        <ele>49</ele>
        <time>2026-07-12T20:17:15.000Z</time>
      </trkpt>
      <trkpt lat="43.38473" lon="-1.63119">
        <ele>49</ele>
        <time>2026-07-12T20:17:25.000Z</time>
      </trkpt>
      <trkpt lat="43.38464" lon="-1.6313">
        <ele>49</ele>
        <time>2026-07-12T20:17:27.000Z</time>
      </trkpt>
      <trkpt lat="43.3846" lon="-1.63134">
        <ele>49</ele>
        <time>2026-07-12T20:17:28.000Z</time>
      </trkpt>
      <trkpt lat="43.38448" lon="-1.63145">
        <ele>49</ele>
        <time>2026-07-12T20:17:31.000Z</time>
      </trkpt>
      <trkpt lat="43.38438" lon="-1.63158">
        <ele>49</ele>
        <time>2026-07-12T20:17:33.000Z</time>
      </trkpt>
      <trkpt lat="43.38429" lon="-1.63169">
        <ele>50</ele>
        <time>2026-07-12T20:17:36.000Z</time>
      </trkpt>
      <trkpt lat="43.38424" lon="-1.63177">
        <ele>50</ele>
        <time>2026-07-12T20:17:37.000Z</time>
      </trkpt>
      <trkpt lat="43.38419" lon="-1.63186">
        <ele>49</ele>
        <time>2026-07-12T20:17:38.000Z</time>
      </trkpt>
      <trkpt lat="43.38414" lon="-1.632">
        <ele>49</ele>
        <time>2026-07-12T20:17:40.000Z</time>
      </trkpt>
      <trkpt lat="43.38411" lon="-1.6321">
        <ele>48</ele>
        <time>2026-07-12T20:17:42.000Z</time>
      </trkpt>
      <trkpt lat="43.38404" lon="-1.63231">
        <ele>47</ele>
        <time>2026-07-12T20:17:45.000Z</time>
      </trkpt>
      <trkpt lat="43.38397" lon="-1.63253">
        <ele>47</ele>
        <time>2026-07-12T20:17:48.000Z</time>
      </trkpt>
      <trkpt lat="43.38391" lon="-1.63273">
        <ele>46</ele>
        <time>2026-07-12T20:17:51.000Z</time>
      </trkpt>
      <trkpt lat="43.38381" lon="-1.63305">
        <ele>46</ele>
        <time>2026-07-12T20:17:55.000Z</time>
      </trkpt>
      <trkpt lat="43.3837" lon="-1.63337">
        <ele>45</ele>
        <time>2026-07-12T20:18:00.000Z</time>
      </trkpt>
      <trkpt lat="43.38357" lon="-1.63362">
        <ele>45</ele>
        <time>2026-07-12T20:18:04.000Z</time>
      </trkpt>
      <trkpt lat="43.38343" lon="-1.63382">
        <ele>45</ele>
        <time>2026-07-12T20:18:07.000Z</time>
      </trkpt>
      <trkpt lat="43.38327" lon="-1.63397">
        <ele>45</ele>
        <time>2026-07-12T20:18:11.000Z</time>
      </trkpt>
      <trkpt lat="43.38305" lon="-1.63411">
        <ele>45</ele>
        <time>2026-07-12T20:18:15.000Z</time>
      </trkpt>
      <trkpt lat="43.38282" lon="-1.63424">
        <ele>44</ele>
        <time>2026-07-12T20:18:19.000Z</time>
      </trkpt>
      <trkpt lat="43.38256" lon="-1.6344">
        <ele>42</ele>
        <time>2026-07-12T20:18:25.000Z</time>
      </trkpt>
      <trkpt lat="43.38241" lon="-1.6345">
        <ele>42</ele>
        <time>2026-07-12T20:18:28.000Z</time>
      </trkpt>
      <trkpt lat="43.38237" lon="-1.63454">
        <ele>42</ele>
        <time>2026-07-12T20:18:28.000Z</time>
      </trkpt>
      <trkpt lat="43.38232" lon="-1.63463">
        <ele>42</ele>
        <time>2026-07-12T20:18:30.000Z</time>
      </trkpt>
      <trkpt lat="43.38226" lon="-1.63475">
        <ele>42</ele>
        <time>2026-07-12T20:18:32.000Z</time>
      </trkpt>
      <trkpt lat="43.38222" lon="-1.63492">
        <ele>42</ele>
        <time>2026-07-12T20:18:34.000Z</time>
      </trkpt>
      <trkpt lat="43.38218" lon="-1.63521">
        <ele>42</ele>
        <time>2026-07-12T20:18:38.000Z</time>
      </trkpt>
      <trkpt lat="43.38213" lon="-1.6355">
        <ele>42</ele>
        <time>2026-07-12T20:18:42.000Z</time>
      </trkpt>
      <trkpt lat="43.38206" lon="-1.63581">
        <ele>43</ele>
        <time>2026-07-12T20:18:46.000Z</time>
      </trkpt>
      <trkpt lat="43.38183" lon="-1.63663">
        <ele>41</ele>
        <time>2026-07-12T20:18:57.000Z</time>
      </trkpt>
      <trkpt lat="43.38176" lon="-1.63683">
        <ele>40</ele>
        <time>2026-07-12T20:19:00.000Z</time>
      </trkpt>
      <trkpt lat="43.3817" lon="-1.63698">
        <ele>40</ele>
        <time>2026-07-12T20:19:02.000Z</time>
      </trkpt>
      <trkpt lat="43.38157" lon="-1.63721">
        <ele>38</ele>
        <time>2026-07-12T20:19:06.000Z</time>
      </trkpt>
      <trkpt lat="43.38138" lon="-1.6375">
        <ele>35</ele>
        <time>2026-07-12T20:19:11.000Z</time>
      </trkpt>
      <trkpt lat="43.38131" lon="-1.63761">
        <ele>33</ele>
        <time>2026-07-12T20:19:13.000Z</time>
      </trkpt>
      <trkpt lat="43.38125" lon="-1.63771">
        <ele>32</ele>
        <time>2026-07-12T20:19:15.000Z</time>
      </trkpt>
      <trkpt lat="43.38121" lon="-1.63779">
        <ele>31</ele>
        <time>2026-07-12T20:19:16.000Z</time>
      </trkpt>
      <trkpt lat="43.38116" lon="-1.6379">
        <ele>30</ele>
        <time>2026-07-12T20:19:18.000Z</time>
      </trkpt>
      <trkpt lat="43.38111" lon="-1.63804">
        <ele>29</ele>
        <time>2026-07-12T20:19:20.000Z</time>
      </trkpt>
      <trkpt lat="43.38106" lon="-1.63826">
        <ele>28</ele>
        <time>2026-07-12T20:19:23.000Z</time>
      </trkpt>
      <trkpt lat="43.38102" lon="-1.63859">
        <ele>26</ele>
        <time>2026-07-12T20:19:27.000Z</time>
      </trkpt>
      <trkpt lat="43.38098" lon="-1.639">
        <ele>24</ele>
        <time>2026-07-12T20:19:32.000Z</time>
      </trkpt>
      <trkpt lat="43.38097" lon="-1.63906">
        <ele>23</ele>
        <time>2026-07-12T20:19:33.000Z</time>
      </trkpt>
      <trkpt lat="43.38096" lon="-1.63916">
        <ele>23</ele>
        <time>2026-07-12T20:19:34.000Z</time>
      </trkpt>
      <trkpt lat="43.38096" lon="-1.63929">
        <ele>22</ele>
        <time>2026-07-12T20:19:36.000Z</time>
      </trkpt>
      <trkpt lat="43.38098" lon="-1.63945">
        <ele>21</ele>
        <time>2026-07-12T20:19:38.000Z</time>
      </trkpt>
      <trkpt lat="43.381" lon="-1.63963">
        <ele>20</ele>
        <time>2026-07-12T20:19:41.000Z</time>
      </trkpt>
      <trkpt lat="43.38105" lon="-1.63981">
        <ele>20</ele>
        <time>2026-07-12T20:19:43.000Z</time>
      </trkpt>
      <trkpt lat="43.3811" lon="-1.63998">
        <ele>19</ele>
        <time>2026-07-12T20:19:45.000Z</time>
      </trkpt>
      <trkpt lat="43.38114" lon="-1.64007">
        <ele>19</ele>
        <time>2026-07-12T20:19:47.000Z</time>
      </trkpt>
      <trkpt lat="43.38118" lon="-1.64015">
        <ele>19</ele>
        <time>2026-07-12T20:19:48.000Z</time>
      </trkpt>
      <trkpt lat="43.38122" lon="-1.64026">
        <ele>19</ele>
        <time>2026-07-12T20:19:50.000Z</time>
      </trkpt>
      <trkpt lat="43.38125" lon="-1.6405">
        <ele>18</ele>
        <time>2026-07-12T20:19:53.000Z</time>
      </trkpt>
      <trkpt lat="43.38122" lon="-1.64125">
        <ele>11</ele>
        <time>2026-07-12T20:20:03.000Z</time>
      </trkpt>
      <trkpt lat="43.38124" lon="-1.64157">
        <ele>9</ele>
        <time>2026-07-12T20:20:07.000Z</time>
      </trkpt>
      <trkpt lat="43.38127" lon="-1.64171">
        <ele>8</ele>
        <time>2026-07-12T20:20:09.000Z</time>
      </trkpt>
      <trkpt lat="43.3813" lon="-1.64181">
        <ele>8</ele>
        <time>2026-07-12T20:20:10.000Z</time>
      </trkpt>
      <trkpt lat="43.38134" lon="-1.64187">
        <ele>8</ele>
        <time>2026-07-12T20:20:11.000Z</time>
      </trkpt>
      <trkpt lat="43.38138" lon="-1.64193">
        <ele>7</ele>
        <time>2026-07-12T20:20:12.000Z</time>
      </trkpt>
      <trkpt lat="43.38155" lon="-1.64205">
        <ele>8</ele>
        <time>2026-07-12T20:20:16.000Z</time>
      </trkpt>
      <trkpt lat="43.38162" lon="-1.64208">
        <ele>8</ele>
        <time>2026-07-12T20:20:17.000Z</time>
      </trkpt>
      <trkpt lat="43.38162" lon="-1.64208">
        <ele>8</ele>
        <time>2026-07-12T20:20:17.000Z</time>
      </trkpt>
      <trkpt lat="43.38155" lon="-1.64227">
        <ele>6</ele>
        <time>2026-07-12T20:20:20.000Z</time>
      </trkpt>
      <trkpt lat="43.38155" lon="-1.64227">
        <ele>6</ele>
        <time>2026-07-12T20:20:20.000Z</time>
      </trkpt>
      <trkpt lat="43.3817" lon="-1.6424">
        <ele>6</ele>
        <time>2026-07-12T20:20:23.000Z</time>
      </trkpt>
      <trkpt lat="43.38187" lon="-1.64257">
        <ele>5</ele>
        <time>2026-07-12T20:20:26.000Z</time>
      </trkpt>
      <trkpt lat="43.38195" lon="-1.64264">
        <ele>5</ele>
        <time>2026-07-12T20:20:28.000Z</time>
      </trkpt>
      <trkpt lat="43.38203" lon="-1.64271">
        <ele>5</ele>
        <time>2026-07-12T20:20:30.000Z</time>
      </trkpt>
      <trkpt lat="43.38212" lon="-1.6428">
        <ele>5</ele>
        <time>2026-07-12T20:20:32.000Z</time>
      </trkpt>
      <trkpt lat="43.38215" lon="-1.64282">
        <ele>5</ele>
        <time>2026-07-12T20:20:32.000Z</time>
      </trkpt>
      <trkpt lat="43.38219" lon="-1.64286">
        <ele>5</ele>
        <time>2026-07-12T20:20:33.000Z</time>
      </trkpt>
      <trkpt lat="43.38223" lon="-1.64291">
        <ele>5</ele>
        <time>2026-07-12T20:20:34.000Z</time>
      </trkpt>
      <trkpt lat="43.38227" lon="-1.64296">
        <ele>5</ele>
        <time>2026-07-12T20:20:35.000Z</time>
      </trkpt>
      <trkpt lat="43.38231" lon="-1.64301">
        <ele>5</ele>
        <time>2026-07-12T20:20:36.000Z</time>
      </trkpt>
      <trkpt lat="43.38235" lon="-1.64307">
        <ele>5</ele>
        <time>2026-07-12T20:20:37.000Z</time>
      </trkpt>
      <trkpt lat="43.3824" lon="-1.64314">
        <ele>5</ele>
        <time>2026-07-12T20:20:39.000Z</time>
      </trkpt>
      <trkpt lat="43.38243" lon="-1.6432">
        <ele>5</ele>
        <time>2026-07-12T20:20:39.000Z</time>
      </trkpt>
      <trkpt lat="43.38247" lon="-1.64326">
        <ele>5</ele>
        <time>2026-07-12T20:20:40.000Z</time>
      </trkpt>
      <trkpt lat="43.3825" lon="-1.64332">
        <ele>5</ele>
        <time>2026-07-12T20:20:41.000Z</time>
      </trkpt>
      <trkpt lat="43.38254" lon="-1.64342">
        <ele>5</ele>
        <time>2026-07-12T20:20:43.000Z</time>
      </trkpt>
      <trkpt lat="43.3826" lon="-1.64355">
        <ele>6</ele>
        <time>2026-07-12T20:20:45.000Z</time>
      </trkpt>
      <trkpt lat="43.38264" lon="-1.64367">
        <ele>6</ele>
        <time>2026-07-12T20:20:47.000Z</time>
      </trkpt>
      <trkpt lat="43.38267" lon="-1.64378">
        <ele>7</ele>
        <time>2026-07-12T20:20:48.000Z</time>
      </trkpt>
      <trkpt lat="43.38269" lon="-1.64385">
        <ele>7</ele>
        <time>2026-07-12T20:20:49.000Z</time>
      </trkpt>
      <trkpt lat="43.38272" lon="-1.64398">
        <ele>8</ele>
        <time>2026-07-12T20:20:51.000Z</time>
      </trkpt>
      <trkpt lat="43.38273" lon="-1.64407">
        <ele>8</ele>
        <time>2026-07-12T20:20:52.000Z</time>
      </trkpt>
      <trkpt lat="43.38274" lon="-1.64415">
        <ele>8</ele>
        <time>2026-07-12T20:20:53.000Z</time>
      </trkpt>
      <trkpt lat="43.38275" lon="-1.64423">
        <ele>8</ele>
        <time>2026-07-12T20:20:54.000Z</time>
      </trkpt>
      <trkpt lat="43.38276" lon="-1.64431">
        <ele>9</ele>
        <time>2026-07-12T20:20:55.000Z</time>
      </trkpt>
      <trkpt lat="43.38277" lon="-1.64442">
        <ele>9</ele>
        <time>2026-07-12T20:20:57.000Z</time>
      </trkpt>
      <trkpt lat="43.38279" lon="-1.64473">
        <ele>10</ele>
        <time>2026-07-12T20:21:01.000Z</time>
      </trkpt>
      <trkpt lat="43.38281" lon="-1.64501">
        <ele>11</ele>
        <time>2026-07-12T20:21:04.000Z</time>
      </trkpt>
      <trkpt lat="43.38282" lon="-1.64525">
        <ele>10</ele>
        <time>2026-07-12T20:21:07.000Z</time>
      </trkpt>
      <trkpt lat="43.38282" lon="-1.64534">
        <ele>10</ele>
        <time>2026-07-12T20:21:09.000Z</time>
      </trkpt>
      <trkpt lat="43.38282" lon="-1.64568">
        <ele>9</ele>
        <time>2026-07-12T20:21:13.000Z</time>
      </trkpt>
      <trkpt lat="43.38282" lon="-1.64596">
        <ele>8</ele>
        <time>2026-07-12T20:21:17.000Z</time>
      </trkpt>
      <trkpt lat="43.38281" lon="-1.64622">
        <ele>8</ele>
        <time>2026-07-12T20:21:20.000Z</time>
      </trkpt>
      <trkpt lat="43.38277" lon="-1.64667">
        <ele>7</ele>
        <time>2026-07-12T20:21:26.000Z</time>
      </trkpt>
      <trkpt lat="43.38274" lon="-1.64697">
        <ele>7</ele>
        <time>2026-07-12T20:21:30.000Z</time>
      </trkpt>
      <trkpt lat="43.38273" lon="-1.64712">
        <ele>7</ele>
        <time>2026-07-12T20:21:32.000Z</time>
      </trkpt>
      <trkpt lat="43.38271" lon="-1.6473">
        <ele>7</ele>
        <time>2026-07-12T20:21:34.000Z</time>
      </trkpt>
      <trkpt lat="43.38265" lon="-1.64789">
        <ele>9</ele>
        <time>2026-07-12T20:21:42.000Z</time>
      </trkpt>
      <trkpt lat="43.38259" lon="-1.64848">
        <ele>10</ele>
        <time>2026-07-12T20:21:49.000Z</time>
      </trkpt>
      <trkpt lat="43.38255" lon="-1.64888">
        <ele>9</ele>
        <time>2026-07-12T20:21:55.000Z</time>
      </trkpt>
      <trkpt lat="43.38254" lon="-1.64897">
        <ele>9</ele>
        <time>2026-07-12T20:21:56.000Z</time>
      </trkpt>
      <trkpt lat="43.38254" lon="-1.64905">
        <ele>9</ele>
        <time>2026-07-12T20:21:57.000Z</time>
      </trkpt>
      <trkpt lat="43.38254" lon="-1.64913">
        <ele>9</ele>
        <time>2026-07-12T20:21:58.000Z</time>
      </trkpt>
      <trkpt lat="43.38254" lon="-1.64919">
        <ele>9</ele>
        <time>2026-07-12T20:21:59.000Z</time>
      </trkpt>
      <trkpt lat="43.38254" lon="-1.64928">
        <ele>8</ele>
        <time>2026-07-12T20:22:00.000Z</time>
      </trkpt>
      <trkpt lat="43.38254" lon="-1.64936">
        <ele>8</ele>
        <time>2026-07-12T20:22:01.000Z</time>
      </trkpt>
      <trkpt lat="43.38255" lon="-1.64941">
        <ele>8</ele>
        <time>2026-07-12T20:22:02.000Z</time>
      </trkpt>
      <trkpt lat="43.38256" lon="-1.6495">
        <ele>8</ele>
        <time>2026-07-12T20:22:03.000Z</time>
      </trkpt>
      <trkpt lat="43.38258" lon="-1.64958">
        <ele>8</ele>
        <time>2026-07-12T20:22:04.000Z</time>
      </trkpt>
      <trkpt lat="43.3826" lon="-1.64966">
        <ele>8</ele>
        <time>2026-07-12T20:22:05.000Z</time>
      </trkpt>
      <trkpt lat="43.38262" lon="-1.64974">
        <ele>8</ele>
        <time>2026-07-12T20:22:06.000Z</time>
      </trkpt>
      <trkpt lat="43.38267" lon="-1.64988">
        <ele>9</ele>
        <time>2026-07-12T20:22:08.000Z</time>
      </trkpt>
      <trkpt lat="43.38275" lon="-1.65009">
        <ele>9</ele>
        <time>2026-07-12T20:22:11.000Z</time>
      </trkpt>
      <trkpt lat="43.38279" lon="-1.6502">
        <ele>9</ele>
        <time>2026-07-12T20:22:13.000Z</time>
      </trkpt>
      <trkpt lat="43.38302" lon="-1.65083">
        <ele>11</ele>
        <time>2026-07-12T20:22:22.000Z</time>
      </trkpt>
      <trkpt lat="43.38334" lon="-1.65171">
        <ele>12</ele>
        <time>2026-07-12T20:22:35.000Z</time>
      </trkpt>
      <trkpt lat="43.3834" lon="-1.65189">
        <ele>12</ele>
        <time>2026-07-12T20:22:37.000Z</time>
      </trkpt>
      <trkpt lat="43.38345" lon="-1.65194">
        <ele>13</ele>
        <time>2026-07-12T20:22:38.000Z</time>
      </trkpt>
      <trkpt lat="43.38347" lon="-1.65198">
        <ele>13</ele>
        <time>2026-07-12T20:22:39.000Z</time>
      </trkpt>
      <trkpt lat="43.3835" lon="-1.65204">
        <ele>13</ele>
        <time>2026-07-12T20:22:40.000Z</time>
      </trkpt>
      <trkpt lat="43.38354" lon="-1.65211">
        <ele>13</ele>
        <time>2026-07-12T20:22:41.000Z</time>
      </trkpt>
      <trkpt lat="43.38355" lon="-1.65213">
        <ele>13</ele>
        <time>2026-07-12T20:22:41.000Z</time>
      </trkpt>
      <trkpt lat="43.38358" lon="-1.65218">
        <ele>13</ele>
        <time>2026-07-12T20:22:42.000Z</time>
      </trkpt>
      <trkpt lat="43.38363" lon="-1.65226">
        <ele>14</ele>
        <time>2026-07-12T20:22:43.000Z</time>
      </trkpt>
      <trkpt lat="43.3837" lon="-1.65235">
        <ele>14</ele>
        <time>2026-07-12T20:22:45.000Z</time>
      </trkpt>
      <trkpt lat="43.38377" lon="-1.65244">
        <ele>14</ele>
        <time>2026-07-12T20:22:47.000Z</time>
      </trkpt>
      <trkpt lat="43.38384" lon="-1.65251">
        <ele>14</ele>
        <time>2026-07-12T20:22:48.000Z</time>
      </trkpt>
      <trkpt lat="43.38392" lon="-1.65259">
        <ele>14</ele>
        <time>2026-07-12T20:22:50.000Z</time>
      </trkpt>
      <trkpt lat="43.38398" lon="-1.65264">
        <ele>14</ele>
        <time>2026-07-12T20:22:51.000Z</time>
      </trkpt>
      <trkpt lat="43.38404" lon="-1.65268">
        <ele>14</ele>
        <time>2026-07-12T20:22:53.000Z</time>
      </trkpt>
      <trkpt lat="43.38412" lon="-1.65274">
        <ele>14</ele>
        <time>2026-07-12T20:22:54.000Z</time>
      </trkpt>
      <trkpt lat="43.38412" lon="-1.65274">
        <ele>14</ele>
        <time>2026-07-12T20:22:54.000Z</time>
      </trkpt>
      <trkpt lat="43.38418" lon="-1.65278">
        <ele>14</ele>
        <time>2026-07-12T20:22:55.000Z</time>
      </trkpt>
      <trkpt lat="43.38417" lon="-1.65286">
        <ele>13</ele>
        <time>2026-07-12T20:22:56.000Z</time>
      </trkpt>
      <trkpt lat="43.38415" lon="-1.6529">
        <ele>12</ele>
        <time>2026-07-12T20:22:57.000Z</time>
      </trkpt>
      <trkpt lat="43.38406" lon="-1.65316">
        <ele>8</ele>
        <time>2026-07-12T20:23:01.000Z</time>
      </trkpt>
      <trkpt lat="43.38382" lon="-1.65371">
        <ele>5</ele>
        <time>2026-07-12T20:23:09.000Z</time>
      </trkpt>
      <trkpt lat="43.38378" lon="-1.65378">
        <ele>5</ele>
        <time>2026-07-12T20:23:10.000Z</time>
      </trkpt>
      <trkpt lat="43.38376" lon="-1.65382">
        <ele>5</ele>
        <time>2026-07-12T20:23:11.000Z</time>
      </trkpt>
      <trkpt lat="43.38346" lon="-1.65443">
        <ele>5</ele>
        <time>2026-07-12T20:23:20.000Z</time>
      </trkpt>
      <trkpt lat="43.3834" lon="-1.65453">
        <ele>5</ele>
        <time>2026-07-12T20:23:22.000Z</time>
      </trkpt>
      <trkpt lat="43.38339" lon="-1.65455">
        <ele>5</ele>
        <time>2026-07-12T20:23:22.000Z</time>
      </trkpt>
      <trkpt lat="43.38339" lon="-1.65455">
        <ele>5</ele>
        <time>2026-07-12T20:23:22.000Z</time>
      </trkpt>
      <trkpt lat="43.38362" lon="-1.65491">
        <ele>4</ele>
        <time>2026-07-12T20:23:29.000Z</time>
      </trkpt>
      <trkpt lat="43.38364" lon="-1.65496">
        <ele>4</ele>
        <time>2026-07-12T20:23:29.000Z</time>
      </trkpt>
      <trkpt lat="43.38363" lon="-1.65499">
        <ele>4</ele>
        <time>2026-07-12T20:23:30.000Z</time>
      </trkpt>
      <trkpt lat="43.38361" lon="-1.65504">
        <ele>4</ele>
        <time>2026-07-12T20:23:30.000Z</time>
      </trkpt>
      <trkpt lat="43.38357" lon="-1.65513">
        <ele>4</ele>
        <time>2026-07-12T20:23:32.000Z</time>
      </trkpt>
      <trkpt lat="43.38351" lon="-1.65522">
        <ele>4</ele>
        <time>2026-07-12T20:23:33.000Z</time>
      </trkpt>
      <trkpt lat="43.38308" lon="-1.65578">
        <ele>3</ele>
        <time>2026-07-12T20:23:44.000Z</time>
      </trkpt>
      <trkpt lat="43.38304" lon="-1.65583">
        <ele>3</ele>
        <time>2026-07-12T20:23:45.000Z</time>
      </trkpt>
      <trkpt lat="43.38299" lon="-1.6559">
        <ele>3</ele>
        <time>2026-07-12T20:23:46.000Z</time>
      </trkpt>
      <trkpt lat="43.38285" lon="-1.65609">
        <ele>3</ele>
        <time>2026-07-12T20:23:50.000Z</time>
      </trkpt>
      <trkpt lat="43.38267" lon="-1.65633">
        <ele>4</ele>
        <time>2026-07-12T20:23:54.000Z</time>
      </trkpt>
      <trkpt lat="43.38246" lon="-1.65661">
        <ele>4</ele>
        <time>2026-07-12T20:23:59.000Z</time>
      </trkpt>
      <trkpt lat="43.3824" lon="-1.6567">
        <ele>4</ele>
        <time>2026-07-12T20:24:01.000Z</time>
      </trkpt>
      <trkpt lat="43.38237" lon="-1.65676">
        <ele>4</ele>
        <time>2026-07-12T20:24:02.000Z</time>
      </trkpt>
      <trkpt lat="43.38235" lon="-1.65683">
        <ele>4</ele>
        <time>2026-07-12T20:24:03.000Z</time>
      </trkpt>
      <trkpt lat="43.38235" lon="-1.65689">
        <ele>4</ele>
        <time>2026-07-12T20:24:04.000Z</time>
      </trkpt>
      <trkpt lat="43.38235" lon="-1.65696">
        <ele>4</ele>
        <time>2026-07-12T20:24:05.000Z</time>
      </trkpt>
      <trkpt lat="43.38236" lon="-1.65703">
        <ele>4</ele>
        <time>2026-07-12T20:24:05.000Z</time>
      </trkpt>
      <trkpt lat="43.38264" lon="-1.65784">
        <ele>4</ele>
        <time>2026-07-12T20:24:17.000Z</time>
      </trkpt>
      <trkpt lat="43.38296" lon="-1.65874">
        <ele>4</ele>
        <time>2026-07-12T20:24:30.000Z</time>
      </trkpt>
      <trkpt lat="43.38303" lon="-1.6589">
        <ele>4</ele>
        <time>2026-07-12T20:24:32.000Z</time>
      </trkpt>
      <trkpt lat="43.38304" lon="-1.65892">
        <ele>4</ele>
        <time>2026-07-12T20:24:33.000Z</time>
      </trkpt>
      <trkpt lat="43.38308" lon="-1.65901">
        <ele>5</ele>
        <time>2026-07-12T20:24:34.000Z</time>
      </trkpt>
      <trkpt lat="43.3831" lon="-1.65904">
        <ele>5</ele>
        <time>2026-07-12T20:24:35.000Z</time>
      </trkpt>
      <trkpt lat="43.38317" lon="-1.65914">
        <ele>5</ele>
        <time>2026-07-12T20:24:36.000Z</time>
      </trkpt>
      <trkpt lat="43.38329" lon="-1.65927">
        <ele>6</ele>
        <time>2026-07-12T20:24:39.000Z</time>
      </trkpt>
      <trkpt lat="43.3833" lon="-1.65926">
        <ele>6</ele>
        <time>2026-07-12T20:24:39.000Z</time>
      </trkpt>
      <trkpt lat="43.38333" lon="-1.65923">
        <ele>6</ele>
        <time>2026-07-12T20:24:40.000Z</time>
      </trkpt>
      <trkpt lat="43.38335" lon="-1.65922">
        <ele>6</ele>
        <time>2026-07-12T20:24:40.000Z</time>
      </trkpt>
      <trkpt lat="43.38337" lon="-1.65922">
        <ele>6</ele>
        <time>2026-07-12T20:24:41.000Z</time>
      </trkpt>
      <trkpt lat="43.38339" lon="-1.65923">
        <ele>6</ele>
        <time>2026-07-12T20:24:41.000Z</time>
      </trkpt>
      <trkpt lat="43.3834" lon="-1.65925">
        <ele>6</ele>
        <time>2026-07-12T20:24:41.000Z</time>
      </trkpt>
      <trkpt lat="43.38342" lon="-1.65929">
        <ele>6</ele>
        <time>2026-07-12T20:24:42.000Z</time>
      </trkpt>
      <trkpt lat="43.38343" lon="-1.65931">
        <ele>6</ele>
        <time>2026-07-12T20:24:42.000Z</time>
      </trkpt>
      <trkpt lat="43.38343" lon="-1.65933">
        <ele>6</ele>
        <time>2026-07-12T20:24:43.000Z</time>
      </trkpt>
      <trkpt lat="43.38343" lon="-1.65935">
        <ele>6</ele>
        <time>2026-07-12T20:24:43.000Z</time>
      </trkpt>
      <trkpt lat="43.38342" lon="-1.65938">
        <ele>6</ele>
        <time>2026-07-12T20:24:43.000Z</time>
      </trkpt>
      <trkpt lat="43.38341" lon="-1.65941">
        <ele>6</ele>
        <time>2026-07-12T20:24:44.000Z</time>
      </trkpt>
      <trkpt lat="43.38358" lon="-1.65973">
        <ele>6</ele>
        <time>2026-07-12T20:24:49.000Z</time>
      </trkpt>
      <trkpt lat="43.38382" lon="-1.66008">
        <ele>5</ele>
        <time>2026-07-12T20:24:55.000Z</time>
      </trkpt>
      <trkpt lat="43.38395" lon="-1.66025">
        <ele>5</ele>
        <time>2026-07-12T20:24:58.000Z</time>
      </trkpt>
      <trkpt lat="43.38424" lon="-1.66064">
        <ele>5</ele>
        <time>2026-07-12T20:25:05.000Z</time>
      </trkpt>
      <trkpt lat="43.38429" lon="-1.66071">
        <ele>5</ele>
        <time>2026-07-12T20:25:07.000Z</time>
      </trkpt>
      <trkpt lat="43.38436" lon="-1.6608">
        <ele>5</ele>
        <time>2026-07-12T20:25:08.000Z</time>
      </trkpt>
      <trkpt lat="43.38446" lon="-1.66092">
        <ele>5</ele>
        <time>2026-07-12T20:25:11.000Z</time>
      </trkpt>
      <trkpt lat="43.38462" lon="-1.66117">
        <ele>5</ele>
        <time>2026-07-12T20:25:15.000Z</time>
      </trkpt>
      <trkpt lat="43.38473" lon="-1.66138">
        <ele>5</ele>
        <time>2026-07-12T20:25:18.000Z</time>
      </trkpt>
      <trkpt lat="43.38481" lon="-1.66156">
        <ele>5</ele>
        <time>2026-07-12T20:25:21.000Z</time>
      </trkpt>
      <trkpt lat="43.38483" lon="-1.66161">
        <ele>5</ele>
        <time>2026-07-12T20:25:22.000Z</time>
      </trkpt>
      <trkpt lat="43.3849" lon="-1.66182">
        <ele>5</ele>
        <time>2026-07-12T20:25:25.000Z</time>
      </trkpt>
      <trkpt lat="43.38495" lon="-1.66191">
        <ele>5</ele>
        <time>2026-07-12T20:25:26.000Z</time>
      </trkpt>
      <trkpt lat="43.385" lon="-1.66198">
        <ele>5</ele>
        <time>2026-07-12T20:25:28.000Z</time>
      </trkpt>
      <trkpt lat="43.38502" lon="-1.662">
        <ele>5</ele>
        <time>2026-07-12T20:25:28.000Z</time>
      </trkpt>
      <trkpt lat="43.38504" lon="-1.66202">
        <ele>5</ele>
        <time>2026-07-12T20:25:29.000Z</time>
      </trkpt>
      <trkpt lat="43.38506" lon="-1.66205">
        <ele>4</ele>
        <time>2026-07-12T20:25:29.000Z</time>
      </trkpt>
      <trkpt lat="43.38547" lon="-1.66242">
        <ele>4</ele>
        <time>2026-07-12T20:25:38.000Z</time>
      </trkpt>
      <trkpt lat="43.38568" lon="-1.6626">
        <ele>3</ele>
        <time>2026-07-12T20:25:42.000Z</time>
      </trkpt>
      <trkpt lat="43.38591" lon="-1.66282">
        <ele>2</ele>
        <time>2026-07-12T20:25:47.000Z</time>
      </trkpt>
      <trkpt lat="43.38617" lon="-1.66307">
        <ele>1</ele>
        <time>2026-07-12T20:25:53.000Z</time>
      </trkpt>
      <trkpt lat="43.38624" lon="-1.66311">
        <ele>1</ele>
        <time>2026-07-12T20:25:54.000Z</time>
      </trkpt>
      <trkpt lat="43.38627" lon="-1.66313">
        <ele>1</ele>
        <time>2026-07-12T20:25:55.000Z</time>
      </trkpt>
      <trkpt lat="43.38632" lon="-1.66315">
        <ele>3.8</ele>
        <time>2026-07-12T20:25:56.000Z</time>
      </trkpt>
      <trkpt lat="43.38638" lon="-1.66316">
        <ele>4</ele>
        <time>2026-07-12T20:25:57.000Z</time>
      </trkpt>
      <trkpt lat="43.38645" lon="-1.66316">
        <ele>1</ele>
        <time>2026-07-12T20:25:58.000Z</time>
      </trkpt>
      <trkpt lat="43.38648" lon="-1.66316">
        <ele>1</ele>
        <time>2026-07-12T20:25:59.000Z</time>
      </trkpt>
      <trkpt lat="43.3865" lon="-1.66316">
        <ele>1</ele>
        <time>2026-07-12T20:25:59.000Z</time>
      </trkpt>
      <trkpt lat="43.38668" lon="-1.6632">
        <ele>1</ele>
        <time>2026-07-12T20:26:02.000Z</time>
      </trkpt>
      <trkpt lat="43.38668" lon="-1.6632">
        <ele>1</ele>
        <time>2026-07-12T20:26:02.000Z</time>
      </trkpt>
      <trkpt lat="43.38668" lon="-1.66319">
        <ele>1</ele>
        <time>2026-07-12T20:26:02.000Z</time>
      </trkpt>
      <trkpt lat="43.38668" lon="-1.66318">
        <ele>1</ele>
        <time>2026-07-12T20:26:02.000Z</time>
      </trkpt>
      <trkpt lat="43.38668" lon="-1.66317">
        <ele>1</ele>
        <time>2026-07-12T20:26:03.000Z</time>
      </trkpt>
      <trkpt lat="43.38668" lon="-1.66316">
        <ele>1</ele>
        <time>2026-07-12T20:26:03.000Z</time>
      </trkpt>
      <trkpt lat="43.38668" lon="-1.66315">
        <ele>1</ele>
        <time>2026-07-12T20:26:03.000Z</time>
      </trkpt>
      <trkpt lat="43.38668" lon="-1.66314">
        <ele>1</ele>
        <time>2026-07-12T20:26:03.000Z</time>
      </trkpt>
      <trkpt lat="43.38669" lon="-1.66313">
        <ele>1</ele>
        <time>2026-07-12T20:26:03.000Z</time>
      </trkpt>
      <trkpt lat="43.38669" lon="-1.66312">
        <ele>1</ele>
        <time>2026-07-12T20:26:03.000Z</time>
      </trkpt>
      <trkpt lat="43.3867" lon="-1.66311">
        <ele>1</ele>
        <time>2026-07-12T20:26:04.000Z</time>
      </trkpt>
      <trkpt lat="43.3867" lon="-1.6631">
        <ele>1</ele>
        <time>2026-07-12T20:26:04.000Z</time>
      </trkpt>
      <trkpt lat="43.38671" lon="-1.66309">
        <ele>1</ele>
        <time>2026-07-12T20:26:04.000Z</time>
      </trkpt>
      <trkpt lat="43.38672" lon="-1.66308">
        <ele>1</ele>
        <time>2026-07-12T20:26:04.000Z</time>
      </trkpt>
      <trkpt lat="43.38672" lon="-1.66307">
        <ele>2</ele>
        <time>2026-07-12T20:26:04.000Z</time>
      </trkpt>
      <trkpt lat="43.38673" lon="-1.66306">
        <ele>2</ele>
        <time>2026-07-12T20:26:04.000Z</time>
      </trkpt>
      <trkpt lat="43.38674" lon="-1.66306">
        <ele>2</ele>
        <time>2026-07-12T20:26:05.000Z</time>
      </trkpt>
      <trkpt lat="43.38675" lon="-1.66305">
        <ele>2</ele>
        <time>2026-07-12T20:26:05.000Z</time>
      </trkpt>
      <trkpt lat="43.38676" lon="-1.66305">
        <ele>2</ele>
        <time>2026-07-12T20:26:05.000Z</time>
      </trkpt>
      <trkpt lat="43.38677" lon="-1.66304">
        <ele>2</ele>
        <time>2026-07-12T20:26:05.000Z</time>
      </trkpt>
      <trkpt lat="43.38678" lon="-1.66304">
        <ele>2</ele>
        <time>2026-07-12T20:26:05.000Z</time>
      </trkpt>
      <trkpt lat="43.38679" lon="-1.66304">
        <ele>2</ele>
        <time>2026-07-12T20:26:06.000Z</time>
      </trkpt>
      <trkpt lat="43.3868" lon="-1.66304">
        <ele>2</ele>
        <time>2026-07-12T20:26:06.000Z</time>
      </trkpt>
      <trkpt lat="43.38681" lon="-1.66304">
        <ele>2</ele>
        <time>2026-07-12T20:26:06.000Z</time>
      </trkpt>
      <trkpt lat="43.38682" lon="-1.66304">
        <ele>2</ele>
        <time>2026-07-12T20:26:06.000Z</time>
      </trkpt>
      <trkpt lat="43.38683" lon="-1.66305">
        <ele>2</ele>
        <time>2026-07-12T20:26:06.000Z</time>
      </trkpt>
      <trkpt lat="43.38684" lon="-1.66305">
        <ele>2</ele>
        <time>2026-07-12T20:26:07.000Z</time>
      </trkpt>
      <trkpt lat="43.38685" lon="-1.66306">
        <ele>2</ele>
        <time>2026-07-12T20:26:07.000Z</time>
      </trkpt>
      <trkpt lat="43.38686" lon="-1.66307">
        <ele>2</ele>
        <time>2026-07-12T20:26:07.000Z</time>
      </trkpt>
      <trkpt lat="43.38687" lon="-1.66308">
        <ele>2</ele>
        <time>2026-07-12T20:26:07.000Z</time>
      </trkpt>
      <trkpt lat="43.38687" lon="-1.66309">
        <ele>2</ele>
        <time>2026-07-12T20:26:07.000Z</time>
      </trkpt>
      <trkpt lat="43.38688" lon="-1.6631">
        <ele>2</ele>
        <time>2026-07-12T20:26:08.000Z</time>
      </trkpt>
      <trkpt lat="43.38689" lon="-1.66311">
        <ele>2</ele>
        <time>2026-07-12T20:26:08.000Z</time>
      </trkpt>
      <trkpt lat="43.38689" lon="-1.66312">
        <ele>2</ele>
        <time>2026-07-12T20:26:08.000Z</time>
      </trkpt>
      <trkpt lat="43.3869" lon="-1.66314">
        <ele>2</ele>
        <time>2026-07-12T20:26:08.000Z</time>
      </trkpt>
      <trkpt lat="43.3869" lon="-1.66315">
        <ele>2</ele>
        <time>2026-07-12T20:26:08.000Z</time>
      </trkpt>
      <trkpt lat="43.3869" lon="-1.66316">
        <ele>2</ele>
        <time>2026-07-12T20:26:08.000Z</time>
      </trkpt>
      <trkpt lat="43.38691" lon="-1.66318">
        <ele>2</ele>
        <time>2026-07-12T20:26:09.000Z</time>
      </trkpt>
      <trkpt lat="43.38691" lon="-1.66319">
        <ele>2</ele>
        <time>2026-07-12T20:26:09.000Z</time>
      </trkpt>
      <trkpt lat="43.38691" lon="-1.66321">
        <ele>2</ele>
        <time>2026-07-12T20:26:09.000Z</time>
      </trkpt>
      <trkpt lat="43.38691" lon="-1.66322">
        <ele>2</ele>
        <time>2026-07-12T20:26:09.000Z</time>
      </trkpt>
      <trkpt lat="43.3869" lon="-1.66323">
        <ele>2</ele>
        <time>2026-07-12T20:26:09.000Z</time>
      </trkpt>
      <trkpt lat="43.3869" lon="-1.66325">
        <ele>2</ele>
        <time>2026-07-12T20:26:10.000Z</time>
      </trkpt>
      <trkpt lat="43.3869" lon="-1.66326">
        <ele>2</ele>
        <time>2026-07-12T20:26:10.000Z</time>
      </trkpt>
      <trkpt lat="43.38689" lon="-1.66327">
        <ele>2</ele>
        <time>2026-07-12T20:26:10.000Z</time>
      </trkpt>
      <trkpt lat="43.38689" lon="-1.66328">
        <ele>2</ele>
        <time>2026-07-12T20:26:10.000Z</time>
      </trkpt>
      <trkpt lat="43.38688" lon="-1.66329">
        <ele>1</ele>
        <time>2026-07-12T20:26:10.000Z</time>
      </trkpt>
      <trkpt lat="43.38688" lon="-1.6633">
        <ele>1</ele>
        <time>2026-07-12T20:26:11.000Z</time>
      </trkpt>
      <trkpt lat="43.38687" lon="-1.66331">
        <ele>1</ele>
        <time>2026-07-12T20:26:11.000Z</time>
      </trkpt>
      <trkpt lat="43.38687" lon="-1.66332">
        <ele>1</ele>
        <time>2026-07-12T20:26:11.000Z</time>
      </trkpt>
      <trkpt lat="43.38686" lon="-1.66332">
        <ele>1</ele>
        <time>2026-07-12T20:26:11.000Z</time>
      </trkpt>
      <trkpt lat="43.38686" lon="-1.66333">
        <ele>1</ele>
        <time>2026-07-12T20:26:11.000Z</time>
      </trkpt>
      <trkpt lat="43.38685" lon="-1.66333">
        <ele>1</ele>
        <time>2026-07-12T20:26:11.000Z</time>
      </trkpt>
      <trkpt lat="43.38684" lon="-1.66334">
        <ele>1</ele>
        <time>2026-07-12T20:26:12.000Z</time>
      </trkpt>
      <trkpt lat="43.38683" lon="-1.66335">
        <ele>1</ele>
        <time>2026-07-12T20:26:12.000Z</time>
      </trkpt>
      <trkpt lat="43.38682" lon="-1.66335">
        <ele>1</ele>
        <time>2026-07-12T20:26:12.000Z</time>
      </trkpt>
      <trkpt lat="43.38681" lon="-1.66335">
        <ele>1</ele>
        <time>2026-07-12T20:26:12.000Z</time>
      </trkpt>
      <trkpt lat="43.3868" lon="-1.66336">
        <ele>1</ele>
        <time>2026-07-12T20:26:12.000Z</time>
      </trkpt>
      <trkpt lat="43.38679" lon="-1.66336">
        <ele>1</ele>
        <time>2026-07-12T20:26:13.000Z</time>
      </trkpt>
      <trkpt lat="43.38678" lon="-1.66335">
        <ele>1</ele>
        <time>2026-07-12T20:26:13.000Z</time>
      </trkpt>
      <trkpt lat="43.38677" lon="-1.66335">
        <ele>1</ele>
        <time>2026-07-12T20:26:13.000Z</time>
      </trkpt>
      <trkpt lat="43.38675" lon="-1.66335">
        <ele>4</ele>
        <time>2026-07-12T20:26:13.000Z</time>
      </trkpt>
      <trkpt lat="43.38674" lon="-1.66334">
        <ele>4</ele>
        <time>2026-07-12T20:26:14.000Z</time>
      </trkpt>
      <trkpt lat="43.38673" lon="-1.66333">
        <ele>4</ele>
        <time>2026-07-12T20:26:14.000Z</time>
      </trkpt>
      <trkpt lat="43.38672" lon="-1.66333">
        <ele>4</ele>
        <time>2026-07-12T20:26:14.000Z</time>
      </trkpt>
      <trkpt lat="43.38671" lon="-1.66332">
        <ele>4</ele>
        <time>2026-07-12T20:26:14.000Z</time>
      </trkpt>
      <trkpt lat="43.38671" lon="-1.6633">
        <ele>4</ele>
        <time>2026-07-12T20:26:14.000Z</time>
      </trkpt>
      <trkpt lat="43.38669" lon="-1.66328">
        <ele>4</ele>
        <time>2026-07-12T20:26:15.000Z</time>
      </trkpt>
      <trkpt lat="43.38662" lon="-1.66329">
        <ele>4</ele>
        <time>2026-07-12T20:26:16.000Z</time>
      </trkpt>
      <trkpt lat="43.38655" lon="-1.66328">
        <ele>4</ele>
        <time>2026-07-12T20:26:17.000Z</time>
      </trkpt>
      <trkpt lat="43.38646" lon="-1.66326">
        <ele>4</ele>
        <time>2026-07-12T20:26:19.000Z</time>
      </trkpt>
      <trkpt lat="43.3864" lon="-1.66325">
        <ele>4</ele>
        <time>2026-07-12T20:26:20.000Z</time>
      </trkpt>
    </trkseg>
  </trk>
</gpx>